<?xml version="1.0" encoding="UTF-8" standalone="no" ?>
<gpx xmlns="http://www.topografix.com/GPX/1/1" xmlns:xsi="http://www.w3.org/2001/XMLSchema-instance" xsi:schemaLocation="http://www.topografix.com/GPX/1/1 http://www.topografix.com/GPX/1/1/gpx.xsd" version="1.1" creator="VisuGPX - https://www.visugpx.com">
  <metadata>
    <name>Randonnée Spicheren-Stiring (reconnaissance)</name>
    <desc><![CDATA[Reconnaissance de la randonnée à faire pour Randospich
5 avril 2011]]></desc>
  </metadata>
  <trk>
    <name><![CDATA[Randonnée Spicheren-Stiring (reconnaissance)_1]]></name>
    <cmt><![CDATA[Reconnaissance parcours pour RS]]></cmt>
    <trkseg>
      <trkpt lat="49.19174" lon="6.96143">
        <ele>352</ele>
        <time>2011-04-05T11:30:10Z</time>
      </trkpt>
      <trkpt lat="49.19178" lon="6.96102">
        <ele>323</ele>
        <time>2011-04-05T11:30:47Z</time>
      </trkpt>
      <trkpt lat="49.19178" lon="6.961">
        <ele>323</ele>
        <time>2011-04-05T11:30:48Z</time>
      </trkpt>
      <trkpt lat="49.19179" lon="6.96097">
        <ele>323</ele>
        <time>2011-04-05T11:30:49Z</time>
      </trkpt>
      <trkpt lat="49.19179" lon="6.96095">
        <ele>323</ele>
        <time>2011-04-05T11:30:50Z</time>
      </trkpt>
      <trkpt lat="49.19178" lon="6.96091">
        <ele>323</ele>
        <time>2011-04-05T11:30:51Z</time>
      </trkpt>
      <trkpt lat="49.19178" lon="6.96089">
        <ele>323</ele>
        <time>2011-04-05T11:30:52Z</time>
      </trkpt>
      <trkpt lat="49.19176" lon="6.96091">
        <ele>323</ele>
        <time>2011-04-05T11:30:54Z</time>
      </trkpt>
      <trkpt lat="49.1918" lon="6.96084">
        <ele>323</ele>
        <time>2011-04-05T11:30:56Z</time>
      </trkpt>
      <trkpt lat="49.19181" lon="6.96079">
        <ele>323</ele>
        <time>2011-04-05T11:30:57Z</time>
      </trkpt>
      <trkpt lat="49.19188" lon="6.96076">
        <ele>323</ele>
        <time>2011-04-05T11:30:58Z</time>
      </trkpt>
      <trkpt lat="49.19189" lon="6.96074">
        <ele>323</ele>
        <time>2011-04-05T11:30:59Z</time>
      </trkpt>
      <trkpt lat="49.19191" lon="6.96072">
        <ele>323</ele>
        <time>2011-04-05T11:31:00Z</time>
      </trkpt>
      <trkpt lat="49.19191" lon="6.96068">
        <ele>323</ele>
        <time>2011-04-05T11:31:01Z</time>
      </trkpt>
      <trkpt lat="49.19191" lon="6.96066">
        <ele>323</ele>
        <time>2011-04-05T11:31:02Z</time>
      </trkpt>
      <trkpt lat="49.19193" lon="6.96064">
        <ele>323</ele>
        <time>2011-04-05T11:31:03Z</time>
      </trkpt>
      <trkpt lat="49.19194" lon="6.96062">
        <ele>323</ele>
        <time>2011-04-05T11:31:04Z</time>
      </trkpt>
      <trkpt lat="49.19195" lon="6.9606">
        <ele>324</ele>
        <time>2011-04-05T11:31:05Z</time>
      </trkpt>
      <trkpt lat="49.19196" lon="6.96058">
        <ele>326</ele>
        <time>2011-04-05T11:31:08Z</time>
      </trkpt>
      <trkpt lat="49.19197" lon="6.96055">
        <ele>327</ele>
        <time>2011-04-05T11:31:10Z</time>
      </trkpt>
      <trkpt lat="49.19198" lon="6.96054">
        <ele>327</ele>
        <time>2011-04-05T11:31:11Z</time>
      </trkpt>
      <trkpt lat="49.19198" lon="6.96051">
        <ele>328</ele>
        <time>2011-04-05T11:31:12Z</time>
      </trkpt>
      <trkpt lat="49.19199" lon="6.96049">
        <ele>329</ele>
        <time>2011-04-05T11:31:13Z</time>
      </trkpt>
      <trkpt lat="49.19199" lon="6.96047">
        <ele>329</ele>
        <time>2011-04-05T11:31:14Z</time>
      </trkpt>
      <trkpt lat="49.192" lon="6.96044">
        <ele>330</ele>
        <time>2011-04-05T11:31:15Z</time>
      </trkpt>
      <trkpt lat="49.192" lon="6.96042">
        <ele>330</ele>
        <time>2011-04-05T11:31:16Z</time>
      </trkpt>
      <trkpt lat="49.19201" lon="6.96039">
        <ele>331</ele>
        <time>2011-04-05T11:31:17Z</time>
      </trkpt>
      <trkpt lat="49.19201" lon="6.96037">
        <ele>331</ele>
        <time>2011-04-05T11:31:18Z</time>
      </trkpt>
      <trkpt lat="49.19202" lon="6.96034">
        <ele>331</ele>
        <time>2011-04-05T11:31:20Z</time>
      </trkpt>
      <trkpt lat="49.19202" lon="6.96032">
        <ele>331</ele>
        <time>2011-04-05T11:31:21Z</time>
      </trkpt>
      <trkpt lat="49.19203" lon="6.96031">
        <ele>331</ele>
        <time>2011-04-05T11:31:22Z</time>
      </trkpt>
      <trkpt lat="49.19204" lon="6.96029">
        <ele>331</ele>
        <time>2011-04-05T11:31:23Z</time>
      </trkpt>
      <trkpt lat="49.19204" lon="6.96026">
        <ele>332</ele>
        <time>2011-04-05T11:31:24Z</time>
      </trkpt>
      <trkpt lat="49.19205" lon="6.96024">
        <ele>332</ele>
        <time>2011-04-05T11:31:25Z</time>
      </trkpt>
      <trkpt lat="49.19205" lon="6.96022">
        <ele>333</ele>
        <time>2011-04-05T11:31:26Z</time>
      </trkpt>
      <trkpt lat="49.19205" lon="6.9602">
        <ele>334</ele>
        <time>2011-04-05T11:31:27Z</time>
      </trkpt>
      <trkpt lat="49.19206" lon="6.96016">
        <ele>335</ele>
        <time>2011-04-05T11:31:29Z</time>
      </trkpt>
      <trkpt lat="49.19207" lon="6.96014">
        <ele>335</ele>
        <time>2011-04-05T11:31:30Z</time>
      </trkpt>
      <trkpt lat="49.19207" lon="6.96012">
        <ele>336</ele>
        <time>2011-04-05T11:31:31Z</time>
      </trkpt>
      <trkpt lat="49.19207" lon="6.9601">
        <ele>336</ele>
        <time>2011-04-05T11:31:32Z</time>
      </trkpt>
      <trkpt lat="49.19208" lon="6.96007">
        <ele>336</ele>
        <time>2011-04-05T11:31:34Z</time>
      </trkpt>
      <trkpt lat="49.19209" lon="6.96005">
        <ele>336</ele>
        <time>2011-04-05T11:31:35Z</time>
      </trkpt>
      <trkpt lat="49.19209" lon="6.96004">
        <ele>336</ele>
        <time>2011-04-05T11:31:36Z</time>
      </trkpt>
      <trkpt lat="49.1921" lon="6.96">
        <ele>336</ele>
        <time>2011-04-05T11:31:38Z</time>
      </trkpt>
      <trkpt lat="49.1921" lon="6.95998">
        <ele>336</ele>
        <time>2011-04-05T11:31:39Z</time>
      </trkpt>
      <trkpt lat="49.19211" lon="6.95996">
        <ele>336</ele>
        <time>2011-04-05T11:31:40Z</time>
      </trkpt>
      <trkpt lat="49.19212" lon="6.95994">
        <ele>336</ele>
        <time>2011-04-05T11:31:41Z</time>
      </trkpt>
      <trkpt lat="49.19212" lon="6.95992">
        <ele>336</ele>
        <time>2011-04-05T11:31:42Z</time>
      </trkpt>
      <trkpt lat="49.19213" lon="6.9599">
        <ele>336</ele>
        <time>2011-04-05T11:31:43Z</time>
      </trkpt>
      <trkpt lat="49.19213" lon="6.95988">
        <ele>336</ele>
        <time>2011-04-05T11:31:44Z</time>
      </trkpt>
      <trkpt lat="49.19213" lon="6.95985">
        <ele>336</ele>
        <time>2011-04-05T11:31:45Z</time>
      </trkpt>
      <trkpt lat="49.19213" lon="6.95982">
        <ele>336</ele>
        <time>2011-04-05T11:31:46Z</time>
      </trkpt>
      <trkpt lat="49.19214" lon="6.9598">
        <ele>336</ele>
        <time>2011-04-05T11:31:47Z</time>
      </trkpt>
      <trkpt lat="49.19214" lon="6.95978">
        <ele>336</ele>
        <time>2011-04-05T11:31:48Z</time>
      </trkpt>
      <trkpt lat="49.19215" lon="6.95975">
        <ele>336</ele>
        <time>2011-04-05T11:31:49Z</time>
      </trkpt>
      <trkpt lat="49.19215" lon="6.95973">
        <ele>336</ele>
        <time>2011-04-05T11:31:50Z</time>
      </trkpt>
      <trkpt lat="49.19215" lon="6.95971">
        <ele>336</ele>
        <time>2011-04-05T11:31:51Z</time>
      </trkpt>
      <trkpt lat="49.19215" lon="6.95969">
        <ele>336</ele>
        <time>2011-04-05T11:31:52Z</time>
      </trkpt>
      <trkpt lat="49.19216" lon="6.95966">
        <ele>336</ele>
        <time>2011-04-05T11:31:53Z</time>
      </trkpt>
      <trkpt lat="49.19217" lon="6.95963">
        <ele>336</ele>
        <time>2011-04-05T11:31:55Z</time>
      </trkpt>
      <trkpt lat="49.19217" lon="6.95961">
        <ele>336</ele>
        <time>2011-04-05T11:31:56Z</time>
      </trkpt>
      <trkpt lat="49.19218" lon="6.95959">
        <ele>336</ele>
        <time>2011-04-05T11:31:57Z</time>
      </trkpt>
      <trkpt lat="49.1922" lon="6.95956">
        <ele>336</ele>
        <time>2011-04-05T11:31:59Z</time>
      </trkpt>
      <trkpt lat="49.19221" lon="6.95953">
        <ele>336</ele>
        <time>2011-04-05T11:32:01Z</time>
      </trkpt>
      <trkpt lat="49.19221" lon="6.95951">
        <ele>336</ele>
        <time>2011-04-05T11:32:02Z</time>
      </trkpt>
      <trkpt lat="49.19223" lon="6.95948">
        <ele>336</ele>
        <time>2011-04-05T11:32:04Z</time>
      </trkpt>
      <trkpt lat="49.19223" lon="6.95946">
        <ele>336</ele>
        <time>2011-04-05T11:32:05Z</time>
      </trkpt>
      <trkpt lat="49.19224" lon="6.95945">
        <ele>336</ele>
        <time>2011-04-05T11:32:06Z</time>
      </trkpt>
      <trkpt lat="49.19224" lon="6.95943">
        <ele>336</ele>
        <time>2011-04-05T11:32:07Z</time>
      </trkpt>
      <trkpt lat="49.19225" lon="6.95941">
        <ele>336</ele>
        <time>2011-04-05T11:32:08Z</time>
      </trkpt>
      <trkpt lat="49.19225" lon="6.95939">
        <ele>336</ele>
        <time>2011-04-05T11:32:09Z</time>
      </trkpt>
      <trkpt lat="49.19226" lon="6.95938">
        <ele>336</ele>
        <time>2011-04-05T11:32:10Z</time>
      </trkpt>
      <trkpt lat="49.19226" lon="6.95936">
        <ele>336</ele>
        <time>2011-04-05T11:32:11Z</time>
      </trkpt>
      <trkpt lat="49.19227" lon="6.95934">
        <ele>336</ele>
        <time>2011-04-05T11:32:12Z</time>
      </trkpt>
      <trkpt lat="49.19227" lon="6.95932">
        <ele>336</ele>
        <time>2011-04-05T11:32:13Z</time>
      </trkpt>
      <trkpt lat="49.19228" lon="6.9593">
        <ele>336</ele>
        <time>2011-04-05T11:32:14Z</time>
      </trkpt>
      <trkpt lat="49.19228" lon="6.95927">
        <ele>336</ele>
        <time>2011-04-05T11:32:16Z</time>
      </trkpt>
      <trkpt lat="49.19229" lon="6.95925">
        <ele>336</ele>
        <time>2011-04-05T11:32:17Z</time>
      </trkpt>
      <trkpt lat="49.19229" lon="6.95923">
        <ele>336</ele>
        <time>2011-04-05T11:32:18Z</time>
      </trkpt>
      <trkpt lat="49.1923" lon="6.95921">
        <ele>336</ele>
        <time>2011-04-05T11:32:19Z</time>
      </trkpt>
      <trkpt lat="49.1923" lon="6.95919">
        <ele>336</ele>
        <time>2011-04-05T11:32:20Z</time>
      </trkpt>
      <trkpt lat="49.19231" lon="6.95917">
        <ele>336</ele>
        <time>2011-04-05T11:32:21Z</time>
      </trkpt>
      <trkpt lat="49.19231" lon="6.95915">
        <ele>336</ele>
        <time>2011-04-05T11:32:22Z</time>
      </trkpt>
      <trkpt lat="49.19231" lon="6.95913">
        <ele>336</ele>
        <time>2011-04-05T11:32:23Z</time>
      </trkpt>
      <trkpt lat="49.19232" lon="6.95911">
        <ele>336</ele>
        <time>2011-04-05T11:32:24Z</time>
      </trkpt>
      <trkpt lat="49.19232" lon="6.9591">
        <ele>336</ele>
        <time>2011-04-05T11:32:25Z</time>
      </trkpt>
      <trkpt lat="49.19233" lon="6.95908">
        <ele>336</ele>
        <time>2011-04-05T11:32:26Z</time>
      </trkpt>
      <trkpt lat="49.19233" lon="6.95906">
        <ele>336</ele>
        <time>2011-04-05T11:32:27Z</time>
      </trkpt>
      <trkpt lat="49.19234" lon="6.95904">
        <ele>336</ele>
        <time>2011-04-05T11:32:28Z</time>
      </trkpt>
      <trkpt lat="49.19236" lon="6.95902">
        <ele>336</ele>
        <time>2011-04-05T11:32:30Z</time>
      </trkpt>
      <trkpt lat="49.19237" lon="6.959">
        <ele>336</ele>
        <time>2011-04-05T11:32:31Z</time>
      </trkpt>
      <trkpt lat="49.19237" lon="6.95898">
        <ele>336</ele>
        <time>2011-04-05T11:32:32Z</time>
      </trkpt>
      <trkpt lat="49.19239" lon="6.95895">
        <ele>336</ele>
        <time>2011-04-05T11:32:34Z</time>
      </trkpt>
      <trkpt lat="49.19239" lon="6.95893">
        <ele>336</ele>
        <time>2011-04-05T11:32:35Z</time>
      </trkpt>
      <trkpt lat="49.1924" lon="6.95892">
        <ele>336</ele>
        <time>2011-04-05T11:32:36Z</time>
      </trkpt>
      <trkpt lat="49.19241" lon="6.95889">
        <ele>336</ele>
        <time>2011-04-05T11:32:38Z</time>
      </trkpt>
      <trkpt lat="49.19242" lon="6.95886">
        <ele>335</ele>
        <time>2011-04-05T11:32:40Z</time>
      </trkpt>
      <trkpt lat="49.19244" lon="6.95883">
        <ele>333</ele>
        <time>2011-04-05T11:32:42Z</time>
      </trkpt>
      <trkpt lat="49.19246" lon="6.9588">
        <ele>332</ele>
        <time>2011-04-05T11:32:44Z</time>
      </trkpt>
      <trkpt lat="49.19247" lon="6.95877">
        <ele>331</ele>
        <time>2011-04-05T11:32:46Z</time>
      </trkpt>
      <trkpt lat="49.19248" lon="6.95874">
        <ele>330</ele>
        <time>2011-04-05T11:32:48Z</time>
      </trkpt>
      <trkpt lat="49.19249" lon="6.95871">
        <ele>329</ele>
        <time>2011-04-05T11:32:50Z</time>
      </trkpt>
      <trkpt lat="49.1925" lon="6.95869">
        <ele>328</ele>
        <time>2011-04-05T11:32:51Z</time>
      </trkpt>
      <trkpt lat="49.1925" lon="6.95867">
        <ele>328</ele>
        <time>2011-04-05T11:32:52Z</time>
      </trkpt>
      <trkpt lat="49.19251" lon="6.95865">
        <ele>327</ele>
        <time>2011-04-05T11:32:53Z</time>
      </trkpt>
      <trkpt lat="49.19251" lon="6.95863">
        <ele>327</ele>
        <time>2011-04-05T11:32:54Z</time>
      </trkpt>
      <trkpt lat="49.19252" lon="6.95861">
        <ele>327</ele>
        <time>2011-04-05T11:32:55Z</time>
      </trkpt>
      <trkpt lat="49.19252" lon="6.95859">
        <ele>327</ele>
        <time>2011-04-05T11:32:56Z</time>
      </trkpt>
      <trkpt lat="49.19252" lon="6.95857">
        <ele>327</ele>
        <time>2011-04-05T11:32:57Z</time>
      </trkpt>
      <trkpt lat="49.19253" lon="6.95855">
        <ele>327</ele>
        <time>2011-04-05T11:32:58Z</time>
      </trkpt>
      <trkpt lat="49.19253" lon="6.95853">
        <ele>327</ele>
        <time>2011-04-05T11:32:59Z</time>
      </trkpt>
      <trkpt lat="49.19254" lon="6.95852">
        <ele>327</ele>
        <time>2011-04-05T11:33:00Z</time>
      </trkpt>
      <trkpt lat="49.19254" lon="6.9585">
        <ele>327</ele>
        <time>2011-04-05T11:33:01Z</time>
      </trkpt>
      <trkpt lat="49.19255" lon="6.95848">
        <ele>327</ele>
        <time>2011-04-05T11:33:02Z</time>
      </trkpt>
      <trkpt lat="49.19255" lon="6.95846">
        <ele>327</ele>
        <time>2011-04-05T11:33:03Z</time>
      </trkpt>
      <trkpt lat="49.19255" lon="6.95844">
        <ele>327</ele>
        <time>2011-04-05T11:33:04Z</time>
      </trkpt>
      <trkpt lat="49.19255" lon="6.95843">
        <ele>327</ele>
        <time>2011-04-05T11:33:05Z</time>
      </trkpt>
      <trkpt lat="49.19255" lon="6.95841">
        <ele>327</ele>
        <time>2011-04-05T11:33:06Z</time>
      </trkpt>
      <trkpt lat="49.19255" lon="6.95838">
        <ele>327</ele>
        <time>2011-04-05T11:33:07Z</time>
      </trkpt>
      <trkpt lat="49.19256" lon="6.95836">
        <ele>326</ele>
        <time>2011-04-05T11:33:08Z</time>
      </trkpt>
      <trkpt lat="49.19256" lon="6.95835">
        <ele>326</ele>
        <time>2011-04-05T11:33:09Z</time>
      </trkpt>
      <trkpt lat="49.19256" lon="6.95833">
        <ele>326</ele>
        <time>2011-04-05T11:33:10Z</time>
      </trkpt>
      <trkpt lat="49.19257" lon="6.95831">
        <ele>326</ele>
        <time>2011-04-05T11:33:11Z</time>
      </trkpt>
      <trkpt lat="49.19257" lon="6.95829">
        <ele>326</ele>
        <time>2011-04-05T11:33:12Z</time>
      </trkpt>
      <trkpt lat="49.19257" lon="6.95827">
        <ele>326</ele>
        <time>2011-04-05T11:33:13Z</time>
      </trkpt>
      <trkpt lat="49.19257" lon="6.95825">
        <ele>326</ele>
        <time>2011-04-05T11:33:14Z</time>
      </trkpt>
      <trkpt lat="49.19257" lon="6.95823">
        <ele>326</ele>
        <time>2011-04-05T11:33:15Z</time>
      </trkpt>
      <trkpt lat="49.19258" lon="6.95821">
        <ele>326</ele>
        <time>2011-04-05T11:33:16Z</time>
      </trkpt>
      <trkpt lat="49.19258" lon="6.95819">
        <ele>326</ele>
        <time>2011-04-05T11:33:17Z</time>
      </trkpt>
      <trkpt lat="49.19258" lon="6.95817">
        <ele>326</ele>
        <time>2011-04-05T11:33:18Z</time>
      </trkpt>
      <trkpt lat="49.19259" lon="6.95815">
        <ele>326</ele>
        <time>2011-04-05T11:33:19Z</time>
      </trkpt>
      <trkpt lat="49.19259" lon="6.95813">
        <ele>326</ele>
        <time>2011-04-05T11:33:20Z</time>
      </trkpt>
      <trkpt lat="49.19259" lon="6.95811">
        <ele>326</ele>
        <time>2011-04-05T11:33:21Z</time>
      </trkpt>
      <trkpt lat="49.19259" lon="6.95809">
        <ele>326</ele>
        <time>2011-04-05T11:33:22Z</time>
      </trkpt>
      <trkpt lat="49.1926" lon="6.95806">
        <ele>326</ele>
        <time>2011-04-05T11:33:23Z</time>
      </trkpt>
      <trkpt lat="49.1926" lon="6.95804">
        <ele>326</ele>
        <time>2011-04-05T11:33:24Z</time>
      </trkpt>
      <trkpt lat="49.1926" lon="6.95802">
        <ele>326</ele>
        <time>2011-04-05T11:33:25Z</time>
      </trkpt>
      <trkpt lat="49.1926" lon="6.958">
        <ele>326</ele>
        <time>2011-04-05T11:33:26Z</time>
      </trkpt>
      <trkpt lat="49.1926" lon="6.95797">
        <ele>326</ele>
        <time>2011-04-05T11:33:27Z</time>
      </trkpt>
      <trkpt lat="49.19261" lon="6.95795">
        <ele>326</ele>
        <time>2011-04-05T11:33:28Z</time>
      </trkpt>
      <trkpt lat="49.19261" lon="6.95793">
        <ele>326</ele>
        <time>2011-04-05T11:33:29Z</time>
      </trkpt>
      <trkpt lat="49.19261" lon="6.95791">
        <ele>326</ele>
        <time>2011-04-05T11:33:30Z</time>
      </trkpt>
      <trkpt lat="49.19261" lon="6.95789">
        <ele>326</ele>
        <time>2011-04-05T11:33:31Z</time>
      </trkpt>
      <trkpt lat="49.19261" lon="6.95787">
        <ele>326</ele>
        <time>2011-04-05T11:33:32Z</time>
      </trkpt>
      <trkpt lat="49.19262" lon="6.95785">
        <ele>326</ele>
        <time>2011-04-05T11:33:33Z</time>
      </trkpt>
      <trkpt lat="49.19262" lon="6.95783">
        <ele>326</ele>
        <time>2011-04-05T11:33:34Z</time>
      </trkpt>
      <trkpt lat="49.19262" lon="6.9578">
        <ele>326</ele>
        <time>2011-04-05T11:33:35Z</time>
      </trkpt>
      <trkpt lat="49.19262" lon="6.95778">
        <ele>326</ele>
        <time>2011-04-05T11:33:36Z</time>
      </trkpt>
      <trkpt lat="49.19262" lon="6.95775">
        <ele>326</ele>
        <time>2011-04-05T11:33:37Z</time>
      </trkpt>
      <trkpt lat="49.19262" lon="6.95773">
        <ele>326</ele>
        <time>2011-04-05T11:33:38Z</time>
      </trkpt>
      <trkpt lat="49.19262" lon="6.95771">
        <ele>326</ele>
        <time>2011-04-05T11:33:39Z</time>
      </trkpt>
      <trkpt lat="49.19262" lon="6.95768">
        <ele>326</ele>
        <time>2011-04-05T11:33:40Z</time>
      </trkpt>
      <trkpt lat="49.19262" lon="6.95766">
        <ele>326</ele>
        <time>2011-04-05T11:33:41Z</time>
      </trkpt>
      <trkpt lat="49.19262" lon="6.95764">
        <ele>326</ele>
        <time>2011-04-05T11:33:42Z</time>
      </trkpt>
      <trkpt lat="49.19262" lon="6.95761">
        <ele>326</ele>
        <time>2011-04-05T11:33:43Z</time>
      </trkpt>
      <trkpt lat="49.19262" lon="6.95759">
        <ele>326</ele>
        <time>2011-04-05T11:33:44Z</time>
      </trkpt>
      <trkpt lat="49.19262" lon="6.95757">
        <ele>326</ele>
        <time>2011-04-05T11:33:45Z</time>
      </trkpt>
      <trkpt lat="49.19262" lon="6.95754">
        <ele>326</ele>
        <time>2011-04-05T11:33:46Z</time>
      </trkpt>
      <trkpt lat="49.19262" lon="6.95752">
        <ele>327</ele>
        <time>2011-04-05T11:33:47Z</time>
      </trkpt>
      <trkpt lat="49.19262" lon="6.9575">
        <ele>327</ele>
        <time>2011-04-05T11:33:48Z</time>
      </trkpt>
      <trkpt lat="49.19263" lon="6.95748">
        <ele>327</ele>
        <time>2011-04-05T11:33:49Z</time>
      </trkpt>
      <trkpt lat="49.19263" lon="6.95746">
        <ele>327</ele>
        <time>2011-04-05T11:33:50Z</time>
      </trkpt>
      <trkpt lat="49.19264" lon="6.95744">
        <ele>327</ele>
        <time>2011-04-05T11:33:51Z</time>
      </trkpt>
      <trkpt lat="49.19265" lon="6.95743">
        <ele>327</ele>
        <time>2011-04-05T11:33:52Z</time>
      </trkpt>
      <trkpt lat="49.19266" lon="6.95741">
        <ele>327</ele>
        <time>2011-04-05T11:33:53Z</time>
      </trkpt>
      <trkpt lat="49.19267" lon="6.95739">
        <ele>327</ele>
        <time>2011-04-05T11:33:54Z</time>
      </trkpt>
      <trkpt lat="49.19268" lon="6.95736">
        <ele>327</ele>
        <time>2011-04-05T11:33:56Z</time>
      </trkpt>
      <trkpt lat="49.1927" lon="6.95734">
        <ele>328</ele>
        <time>2011-04-05T11:33:58Z</time>
      </trkpt>
      <trkpt lat="49.19271" lon="6.95733">
        <ele>328</ele>
        <time>2011-04-05T11:33:59Z</time>
      </trkpt>
      <trkpt lat="49.19273" lon="6.9573">
        <ele>328</ele>
        <time>2011-04-05T11:34:01Z</time>
      </trkpt>
      <trkpt lat="49.19275" lon="6.95729">
        <ele>328</ele>
        <time>2011-04-05T11:34:02Z</time>
      </trkpt>
      <trkpt lat="49.19276" lon="6.95727">
        <ele>328</ele>
        <time>2011-04-05T11:34:03Z</time>
      </trkpt>
      <trkpt lat="49.19276" lon="6.95725">
        <ele>328</ele>
        <time>2011-04-05T11:34:04Z</time>
      </trkpt>
      <trkpt lat="49.19278" lon="6.95724">
        <ele>328</ele>
        <time>2011-04-05T11:34:05Z</time>
      </trkpt>
      <trkpt lat="49.19279" lon="6.95722">
        <ele>328</ele>
        <time>2011-04-05T11:34:06Z</time>
      </trkpt>
      <trkpt lat="49.1928" lon="6.95721">
        <ele>328</ele>
        <time>2011-04-05T11:34:07Z</time>
      </trkpt>
      <trkpt lat="49.19282" lon="6.95718">
        <ele>328</ele>
        <time>2011-04-05T11:34:09Z</time>
      </trkpt>
      <trkpt lat="49.19283" lon="6.95717">
        <ele>328</ele>
        <time>2011-04-05T11:34:10Z</time>
      </trkpt>
      <trkpt lat="49.19284" lon="6.95716">
        <ele>328</ele>
        <time>2011-04-05T11:34:11Z</time>
      </trkpt>
      <trkpt lat="49.19287" lon="6.95714">
        <ele>328</ele>
        <time>2011-04-05T11:34:13Z</time>
      </trkpt>
      <trkpt lat="49.19289" lon="6.95711">
        <ele>328</ele>
        <time>2011-04-05T11:34:15Z</time>
      </trkpt>
      <trkpt lat="49.1929" lon="6.95709">
        <ele>328</ele>
        <time>2011-04-05T11:34:16Z</time>
      </trkpt>
      <trkpt lat="49.19291" lon="6.95708">
        <ele>328</ele>
        <time>2011-04-05T11:34:17Z</time>
      </trkpt>
      <trkpt lat="49.19293" lon="6.95705">
        <ele>328</ele>
        <time>2011-04-05T11:34:19Z</time>
      </trkpt>
      <trkpt lat="49.19295" lon="6.95702">
        <ele>328</ele>
        <time>2011-04-05T11:34:21Z</time>
      </trkpt>
      <trkpt lat="49.19297" lon="6.957">
        <ele>328</ele>
        <time>2011-04-05T11:34:23Z</time>
      </trkpt>
      <trkpt lat="49.19298" lon="6.95699">
        <ele>328</ele>
        <time>2011-04-05T11:34:24Z</time>
      </trkpt>
      <trkpt lat="49.19299" lon="6.95698">
        <ele>328</ele>
        <time>2011-04-05T11:34:25Z</time>
      </trkpt>
      <trkpt lat="49.19301" lon="6.95696">
        <ele>328</ele>
        <time>2011-04-05T11:34:26Z</time>
      </trkpt>
      <trkpt lat="49.19302" lon="6.95695">
        <ele>328</ele>
        <time>2011-04-05T11:34:27Z</time>
      </trkpt>
      <trkpt lat="49.19303" lon="6.95694">
        <ele>328</ele>
        <time>2011-04-05T11:34:28Z</time>
      </trkpt>
      <trkpt lat="49.19305" lon="6.95691">
        <ele>328</ele>
        <time>2011-04-05T11:34:30Z</time>
      </trkpt>
      <trkpt lat="49.19307" lon="6.95688">
        <ele>328</ele>
        <time>2011-04-05T11:34:32Z</time>
      </trkpt>
      <trkpt lat="49.19309" lon="6.95685">
        <ele>328</ele>
        <time>2011-04-05T11:34:34Z</time>
      </trkpt>
      <trkpt lat="49.1931" lon="6.95684">
        <ele>328</ele>
        <time>2011-04-05T11:34:35Z</time>
      </trkpt>
      <trkpt lat="49.19313" lon="6.95681">
        <ele>328</ele>
        <time>2011-04-05T11:34:37Z</time>
      </trkpt>
      <trkpt lat="49.19315" lon="6.95679">
        <ele>328</ele>
        <time>2011-04-05T11:34:39Z</time>
      </trkpt>
      <trkpt lat="49.19316" lon="6.95677">
        <ele>328</ele>
        <time>2011-04-05T11:34:40Z</time>
      </trkpt>
      <trkpt lat="49.19317" lon="6.95676">
        <ele>328</ele>
        <time>2011-04-05T11:34:41Z</time>
      </trkpt>
      <trkpt lat="49.19319" lon="6.95674">
        <ele>328</ele>
        <time>2011-04-05T11:34:43Z</time>
      </trkpt>
      <trkpt lat="49.19321" lon="6.95672">
        <ele>328</ele>
        <time>2011-04-05T11:34:45Z</time>
      </trkpt>
      <trkpt lat="49.19323" lon="6.95669">
        <ele>328</ele>
        <time>2011-04-05T11:34:47Z</time>
      </trkpt>
      <trkpt lat="49.19323" lon="6.95666">
        <ele>328</ele>
        <time>2011-04-05T11:34:56Z</time>
      </trkpt>
      <trkpt lat="49.19325" lon="6.95664">
        <ele>328</ele>
        <time>2011-04-05T11:34:58Z</time>
      </trkpt>
      <trkpt lat="49.19327" lon="6.95661">
        <ele>328</ele>
        <time>2011-04-05T11:35:00Z</time>
      </trkpt>
      <trkpt lat="49.19329" lon="6.95658">
        <ele>329</ele>
        <time>2011-04-05T11:35:02Z</time>
      </trkpt>
      <trkpt lat="49.19331" lon="6.95655">
        <ele>329</ele>
        <time>2011-04-05T11:35:04Z</time>
      </trkpt>
      <trkpt lat="49.19331" lon="6.95654">
        <ele>329</ele>
        <time>2011-04-05T11:35:05Z</time>
      </trkpt>
      <trkpt lat="49.19332" lon="6.95652">
        <ele>329</ele>
        <time>2011-04-05T11:35:06Z</time>
      </trkpt>
      <trkpt lat="49.19333" lon="6.9565">
        <ele>329</ele>
        <time>2011-04-05T11:35:07Z</time>
      </trkpt>
      <trkpt lat="49.19333" lon="6.95649">
        <ele>329</ele>
        <time>2011-04-05T11:35:08Z</time>
      </trkpt>
      <trkpt lat="49.19334" lon="6.95647">
        <ele>329</ele>
        <time>2011-04-05T11:35:09Z</time>
      </trkpt>
      <trkpt lat="49.19334" lon="6.95645">
        <ele>329</ele>
        <time>2011-04-05T11:35:10Z</time>
      </trkpt>
      <trkpt lat="49.19335" lon="6.95643">
        <ele>329</ele>
        <time>2011-04-05T11:35:11Z</time>
      </trkpt>
      <trkpt lat="49.19335" lon="6.95641">
        <ele>329</ele>
        <time>2011-04-05T11:35:12Z</time>
      </trkpt>
      <trkpt lat="49.19336" lon="6.95639">
        <ele>329</ele>
        <time>2011-04-05T11:35:13Z</time>
      </trkpt>
      <trkpt lat="49.19336" lon="6.95637">
        <ele>329</ele>
        <time>2011-04-05T11:35:14Z</time>
      </trkpt>
      <trkpt lat="49.19337" lon="6.95635">
        <ele>329</ele>
        <time>2011-04-05T11:35:15Z</time>
      </trkpt>
      <trkpt lat="49.19337" lon="6.95633">
        <ele>329</ele>
        <time>2011-04-05T11:35:16Z</time>
      </trkpt>
      <trkpt lat="49.19337" lon="6.95631">
        <ele>329</ele>
        <time>2011-04-05T11:35:17Z</time>
      </trkpt>
      <trkpt lat="49.19338" lon="6.95629">
        <ele>329</ele>
        <time>2011-04-05T11:35:18Z</time>
      </trkpt>
      <trkpt lat="49.19339" lon="6.95625">
        <ele>330</ele>
        <time>2011-04-05T11:35:20Z</time>
      </trkpt>
      <trkpt lat="49.1934" lon="6.95623">
        <ele>330</ele>
        <time>2011-04-05T11:35:22Z</time>
      </trkpt>
      <trkpt lat="49.19341" lon="6.95622">
        <ele>330</ele>
        <time>2011-04-05T11:35:23Z</time>
      </trkpt>
      <trkpt lat="49.19343" lon="6.9562">
        <ele>330</ele>
        <time>2011-04-05T11:35:25Z</time>
      </trkpt>
      <trkpt lat="49.19344" lon="6.95619">
        <ele>330</ele>
        <time>2011-04-05T11:35:26Z</time>
      </trkpt>
      <trkpt lat="49.19347" lon="6.95618">
        <ele>330</ele>
        <time>2011-04-05T11:35:28Z</time>
      </trkpt>
      <trkpt lat="49.19348" lon="6.95618">
        <ele>330</ele>
        <time>2011-04-05T11:35:29Z</time>
      </trkpt>
      <trkpt lat="49.19349" lon="6.95618">
        <ele>330</ele>
        <time>2011-04-05T11:35:30Z</time>
      </trkpt>
      <trkpt lat="49.1935" lon="6.95618">
        <ele>330</ele>
        <time>2011-04-05T11:35:31Z</time>
      </trkpt>
      <trkpt lat="49.19352" lon="6.95617">
        <ele>330</ele>
        <time>2011-04-05T11:35:33Z</time>
      </trkpt>
      <trkpt lat="49.19354" lon="6.95616">
        <ele>330</ele>
        <time>2011-04-05T11:35:35Z</time>
      </trkpt>
      <trkpt lat="49.19356" lon="6.95616">
        <ele>330</ele>
        <time>2011-04-05T11:35:36Z</time>
      </trkpt>
      <trkpt lat="49.19357" lon="6.95615">
        <ele>330</ele>
        <time>2011-04-05T11:35:37Z</time>
      </trkpt>
      <trkpt lat="49.19359" lon="6.95614">
        <ele>330</ele>
        <time>2011-04-05T11:35:38Z</time>
      </trkpt>
      <trkpt lat="49.1936" lon="6.95614">
        <ele>330</ele>
        <time>2011-04-05T11:35:39Z</time>
      </trkpt>
      <trkpt lat="49.19361" lon="6.95613">
        <ele>330</ele>
        <time>2011-04-05T11:35:40Z</time>
      </trkpt>
      <trkpt lat="49.19363" lon="6.95613">
        <ele>330</ele>
        <time>2011-04-05T11:35:41Z</time>
      </trkpt>
      <trkpt lat="49.19364" lon="6.95612">
        <ele>331</ele>
        <time>2011-04-05T11:35:42Z</time>
      </trkpt>
      <trkpt lat="49.19365" lon="6.95611">
        <ele>331</ele>
        <time>2011-04-05T11:35:43Z</time>
      </trkpt>
      <trkpt lat="49.19366" lon="6.9561">
        <ele>331</ele>
        <time>2011-04-05T11:35:44Z</time>
      </trkpt>
      <trkpt lat="49.19367" lon="6.9561">
        <ele>331</ele>
        <time>2011-04-05T11:35:45Z</time>
      </trkpt>
      <trkpt lat="49.19369" lon="6.95609">
        <ele>332</ele>
        <time>2011-04-05T11:35:46Z</time>
      </trkpt>
      <trkpt lat="49.1937" lon="6.95609">
        <ele>332</ele>
        <time>2011-04-05T11:35:47Z</time>
      </trkpt>
      <trkpt lat="49.19371" lon="6.95608">
        <ele>332</ele>
        <time>2011-04-05T11:35:48Z</time>
      </trkpt>
      <trkpt lat="49.19372" lon="6.95608">
        <ele>332</ele>
        <time>2011-04-05T11:35:49Z</time>
      </trkpt>
      <trkpt lat="49.19373" lon="6.95607">
        <ele>332</ele>
        <time>2011-04-05T11:35:50Z</time>
      </trkpt>
      <trkpt lat="49.19375" lon="6.95604">
        <ele>332</ele>
        <time>2011-04-05T11:35:52Z</time>
      </trkpt>
      <trkpt lat="49.19376" lon="6.95602">
        <ele>332</ele>
        <time>2011-04-05T11:35:53Z</time>
      </trkpt>
      <trkpt lat="49.19376" lon="6.956">
        <ele>332</ele>
        <time>2011-04-05T11:35:54Z</time>
      </trkpt>
      <trkpt lat="49.19376" lon="6.95598">
        <ele>333</ele>
        <time>2011-04-05T11:35:55Z</time>
      </trkpt>
      <trkpt lat="49.19376" lon="6.95596">
        <ele>333</ele>
        <time>2011-04-05T11:35:56Z</time>
      </trkpt>
      <trkpt lat="49.19376" lon="6.95594">
        <ele>333</ele>
        <time>2011-04-05T11:35:57Z</time>
      </trkpt>
      <trkpt lat="49.19376" lon="6.95591">
        <ele>333</ele>
        <time>2011-04-05T11:35:58Z</time>
      </trkpt>
      <trkpt lat="49.19376" lon="6.95589">
        <ele>333</ele>
        <time>2011-04-05T11:35:59Z</time>
      </trkpt>
      <trkpt lat="49.19377" lon="6.95587">
        <ele>333</ele>
        <time>2011-04-05T11:36:00Z</time>
      </trkpt>
      <trkpt lat="49.19377" lon="6.95585">
        <ele>333</ele>
        <time>2011-04-05T11:36:01Z</time>
      </trkpt>
      <trkpt lat="49.19377" lon="6.95583">
        <ele>333</ele>
        <time>2011-04-05T11:36:02Z</time>
      </trkpt>
      <trkpt lat="49.19377" lon="6.95581">
        <ele>333</ele>
        <time>2011-04-05T11:36:03Z</time>
      </trkpt>
      <trkpt lat="49.19377" lon="6.95579">
        <ele>333</ele>
        <time>2011-04-05T11:36:04Z</time>
      </trkpt>
      <trkpt lat="49.19378" lon="6.95577">
        <ele>333</ele>
        <time>2011-04-05T11:36:05Z</time>
      </trkpt>
      <trkpt lat="49.19378" lon="6.95575">
        <ele>333</ele>
        <time>2011-04-05T11:36:06Z</time>
      </trkpt>
      <trkpt lat="49.19377" lon="6.95573">
        <ele>333</ele>
        <time>2011-04-05T11:36:07Z</time>
      </trkpt>
      <trkpt lat="49.19377" lon="6.95571">
        <ele>333</ele>
        <time>2011-04-05T11:36:08Z</time>
      </trkpt>
      <trkpt lat="49.19377" lon="6.95569">
        <ele>333</ele>
        <time>2011-04-05T11:36:09Z</time>
      </trkpt>
      <trkpt lat="49.19377" lon="6.95567">
        <ele>333</ele>
        <time>2011-04-05T11:36:10Z</time>
      </trkpt>
      <trkpt lat="49.19376" lon="6.95565">
        <ele>333</ele>
        <time>2011-04-05T11:36:11Z</time>
      </trkpt>
      <trkpt lat="49.19376" lon="6.95563">
        <ele>333</ele>
        <time>2011-04-05T11:36:12Z</time>
      </trkpt>
      <trkpt lat="49.19376" lon="6.95561">
        <ele>333</ele>
        <time>2011-04-05T11:36:13Z</time>
      </trkpt>
      <trkpt lat="49.19376" lon="6.95559">
        <ele>333</ele>
        <time>2011-04-05T11:36:14Z</time>
      </trkpt>
      <trkpt lat="49.19375" lon="6.95557">
        <ele>333</ele>
        <time>2011-04-05T11:36:15Z</time>
      </trkpt>
      <trkpt lat="49.19375" lon="6.95555">
        <ele>333</ele>
        <time>2011-04-05T11:36:16Z</time>
      </trkpt>
      <trkpt lat="49.19375" lon="6.95553">
        <ele>333</ele>
        <time>2011-04-05T11:36:17Z</time>
      </trkpt>
      <trkpt lat="49.19375" lon="6.95551">
        <ele>333</ele>
        <time>2011-04-05T11:36:18Z</time>
      </trkpt>
      <trkpt lat="49.19375" lon="6.95549">
        <ele>333</ele>
        <time>2011-04-05T11:36:19Z</time>
      </trkpt>
      <trkpt lat="49.19374" lon="6.95547">
        <ele>333</ele>
        <time>2011-04-05T11:36:20Z</time>
      </trkpt>
      <trkpt lat="49.19374" lon="6.95545">
        <ele>333</ele>
        <time>2011-04-05T11:36:21Z</time>
      </trkpt>
      <trkpt lat="49.19374" lon="6.95544">
        <ele>333</ele>
        <time>2011-04-05T11:36:22Z</time>
      </trkpt>
      <trkpt lat="49.19373" lon="6.95542">
        <ele>333</ele>
        <time>2011-04-05T11:36:23Z</time>
      </trkpt>
      <trkpt lat="49.19373" lon="6.9554">
        <ele>333</ele>
        <time>2011-04-05T11:36:24Z</time>
      </trkpt>
      <trkpt lat="49.19372" lon="6.95539">
        <ele>333</ele>
        <time>2011-04-05T11:36:25Z</time>
      </trkpt>
      <trkpt lat="49.19372" lon="6.95537">
        <ele>333</ele>
        <time>2011-04-05T11:36:26Z</time>
      </trkpt>
      <trkpt lat="49.19371" lon="6.95535">
        <ele>333</ele>
        <time>2011-04-05T11:36:27Z</time>
      </trkpt>
      <trkpt lat="49.19371" lon="6.95533">
        <ele>333</ele>
        <time>2011-04-05T11:36:28Z</time>
      </trkpt>
      <trkpt lat="49.1937" lon="6.95531">
        <ele>333</ele>
        <time>2011-04-05T11:36:29Z</time>
      </trkpt>
      <trkpt lat="49.1937" lon="6.9553">
        <ele>333</ele>
        <time>2011-04-05T11:36:36Z</time>
      </trkpt>
      <trkpt lat="49.19369" lon="6.95528">
        <ele>333</ele>
        <time>2011-04-05T11:36:45Z</time>
      </trkpt>
      <trkpt lat="49.19369" lon="6.95525">
        <ele>333</ele>
        <time>2011-04-05T11:36:49Z</time>
      </trkpt>
      <trkpt lat="49.19369" lon="6.95523">
        <ele>333</ele>
        <time>2011-04-05T11:36:50Z</time>
      </trkpt>
      <trkpt lat="49.19369" lon="6.95521">
        <ele>333</ele>
        <time>2011-04-05T11:36:51Z</time>
      </trkpt>
      <trkpt lat="49.19368" lon="6.95519">
        <ele>333</ele>
        <time>2011-04-05T11:36:52Z</time>
      </trkpt>
      <trkpt lat="49.19368" lon="6.95517">
        <ele>333</ele>
        <time>2011-04-05T11:36:53Z</time>
      </trkpt>
      <trkpt lat="49.19369" lon="6.95515">
        <ele>333</ele>
        <time>2011-04-05T11:36:54Z</time>
      </trkpt>
      <trkpt lat="49.19369" lon="6.95513">
        <ele>333</ele>
        <time>2011-04-05T11:36:55Z</time>
      </trkpt>
      <trkpt lat="49.1937" lon="6.95512">
        <ele>333</ele>
        <time>2011-04-05T11:36:56Z</time>
      </trkpt>
      <trkpt lat="49.1937" lon="6.9551">
        <ele>333</ele>
        <time>2011-04-05T11:36:57Z</time>
      </trkpt>
      <trkpt lat="49.19371" lon="6.95508">
        <ele>333</ele>
        <time>2011-04-05T11:36:58Z</time>
      </trkpt>
      <trkpt lat="49.19372" lon="6.95507">
        <ele>333</ele>
        <time>2011-04-05T11:36:59Z</time>
      </trkpt>
      <trkpt lat="49.19373" lon="6.95504">
        <ele>333</ele>
        <time>2011-04-05T11:37:01Z</time>
      </trkpt>
      <trkpt lat="49.19375" lon="6.95504">
        <ele>333</ele>
        <time>2011-04-05T11:37:02Z</time>
      </trkpt>
      <trkpt lat="49.19376" lon="6.95503">
        <ele>333</ele>
        <time>2011-04-05T11:37:03Z</time>
      </trkpt>
      <trkpt lat="49.19378" lon="6.95501">
        <ele>333</ele>
        <time>2011-04-05T11:37:05Z</time>
      </trkpt>
      <trkpt lat="49.19379" lon="6.95501">
        <ele>333</ele>
        <time>2011-04-05T11:37:06Z</time>
      </trkpt>
      <trkpt lat="49.1938" lon="6.955">
        <ele>333</ele>
        <time>2011-04-05T11:37:07Z</time>
      </trkpt>
      <trkpt lat="49.19382" lon="6.955">
        <ele>333</ele>
        <time>2011-04-05T11:37:08Z</time>
      </trkpt>
      <trkpt lat="49.19383" lon="6.95499">
        <ele>333</ele>
        <time>2011-04-05T11:37:09Z</time>
      </trkpt>
      <trkpt lat="49.19384" lon="6.95499">
        <ele>333</ele>
        <time>2011-04-05T11:37:10Z</time>
      </trkpt>
      <trkpt lat="49.19385" lon="6.95499">
        <ele>333</ele>
        <time>2011-04-05T11:37:11Z</time>
      </trkpt>
      <trkpt lat="49.19387" lon="6.95499">
        <ele>333</ele>
        <time>2011-04-05T11:37:12Z</time>
      </trkpt>
      <trkpt lat="49.19388" lon="6.95498">
        <ele>334</ele>
        <time>2011-04-05T11:37:13Z</time>
      </trkpt>
      <trkpt lat="49.19389" lon="6.95498">
        <ele>334</ele>
        <time>2011-04-05T11:37:14Z</time>
      </trkpt>
      <trkpt lat="49.1939" lon="6.95498">
        <ele>334</ele>
        <time>2011-04-05T11:37:15Z</time>
      </trkpt>
      <trkpt lat="49.19392" lon="6.95497">
        <ele>334</ele>
        <time>2011-04-05T11:37:16Z</time>
      </trkpt>
      <trkpt lat="49.19393" lon="6.95497">
        <ele>335</ele>
        <time>2011-04-05T11:37:17Z</time>
      </trkpt>
      <trkpt lat="49.19394" lon="6.95496">
        <ele>335</ele>
        <time>2011-04-05T11:37:18Z</time>
      </trkpt>
      <trkpt lat="49.19396" lon="6.95496">
        <ele>335</ele>
        <time>2011-04-05T11:37:19Z</time>
      </trkpt>
      <trkpt lat="49.19397" lon="6.95495">
        <ele>335</ele>
        <time>2011-04-05T11:37:20Z</time>
      </trkpt>
      <trkpt lat="49.19398" lon="6.95495">
        <ele>336</ele>
        <time>2011-04-05T11:37:21Z</time>
      </trkpt>
      <trkpt lat="49.194" lon="6.95494">
        <ele>336</ele>
        <time>2011-04-05T11:37:22Z</time>
      </trkpt>
      <trkpt lat="49.19401" lon="6.95493">
        <ele>336</ele>
        <time>2011-04-05T11:37:23Z</time>
      </trkpt>
      <trkpt lat="49.19402" lon="6.95492">
        <ele>336</ele>
        <time>2011-04-05T11:37:24Z</time>
      </trkpt>
      <trkpt lat="49.19404" lon="6.95491">
        <ele>337</ele>
        <time>2011-04-05T11:37:25Z</time>
      </trkpt>
      <trkpt lat="49.19405" lon="6.95491">
        <ele>337</ele>
        <time>2011-04-05T11:37:26Z</time>
      </trkpt>
      <trkpt lat="49.19406" lon="6.9549">
        <ele>337</ele>
        <time>2011-04-05T11:37:27Z</time>
      </trkpt>
      <trkpt lat="49.19408" lon="6.95489">
        <ele>338</ele>
        <time>2011-04-05T11:37:28Z</time>
      </trkpt>
      <trkpt lat="49.19409" lon="6.95489">
        <ele>338</ele>
        <time>2011-04-05T11:37:29Z</time>
      </trkpt>
      <trkpt lat="49.1941" lon="6.95489">
        <ele>338</ele>
        <time>2011-04-05T11:37:30Z</time>
      </trkpt>
      <trkpt lat="49.19411" lon="6.95488">
        <ele>338</ele>
        <time>2011-04-05T11:37:31Z</time>
      </trkpt>
      <trkpt lat="49.19413" lon="6.95487">
        <ele>338</ele>
        <time>2011-04-05T11:37:32Z</time>
      </trkpt>
      <trkpt lat="49.19414" lon="6.95487">
        <ele>338</ele>
        <time>2011-04-05T11:37:33Z</time>
      </trkpt>
      <trkpt lat="49.19416" lon="6.95486">
        <ele>338</ele>
        <time>2011-04-05T11:37:34Z</time>
      </trkpt>
      <trkpt lat="49.19417" lon="6.95486">
        <ele>338</ele>
        <time>2011-04-05T11:37:35Z</time>
      </trkpt>
      <trkpt lat="49.19418" lon="6.95485">
        <ele>338</ele>
        <time>2011-04-05T11:37:36Z</time>
      </trkpt>
      <trkpt lat="49.1942" lon="6.95484">
        <ele>339</ele>
        <time>2011-04-05T11:37:37Z</time>
      </trkpt>
      <trkpt lat="49.19421" lon="6.95483">
        <ele>339</ele>
        <time>2011-04-05T11:37:38Z</time>
      </trkpt>
      <trkpt lat="49.19422" lon="6.95482">
        <ele>339</ele>
        <time>2011-04-05T11:37:39Z</time>
      </trkpt>
      <trkpt lat="49.19424" lon="6.95482">
        <ele>339</ele>
        <time>2011-04-05T11:37:40Z</time>
      </trkpt>
      <trkpt lat="49.19425" lon="6.95481">
        <ele>339</ele>
        <time>2011-04-05T11:37:41Z</time>
      </trkpt>
      <trkpt lat="49.19426" lon="6.95481">
        <ele>339</ele>
        <time>2011-04-05T11:37:42Z</time>
      </trkpt>
      <trkpt lat="49.19427" lon="6.9548">
        <ele>339</ele>
        <time>2011-04-05T11:37:43Z</time>
      </trkpt>
      <trkpt lat="49.19429" lon="6.95479">
        <ele>339</ele>
        <time>2011-04-05T11:37:44Z</time>
      </trkpt>
      <trkpt lat="49.1943" lon="6.95478">
        <ele>339</ele>
        <time>2011-04-05T11:37:45Z</time>
      </trkpt>
      <trkpt lat="49.19432" lon="6.95478">
        <ele>339</ele>
        <time>2011-04-05T11:37:47Z</time>
      </trkpt>
      <trkpt lat="49.19434" lon="6.95478">
        <ele>339</ele>
        <time>2011-04-05T11:37:48Z</time>
      </trkpt>
      <trkpt lat="49.19435" lon="6.95477">
        <ele>339</ele>
        <time>2011-04-05T11:37:49Z</time>
      </trkpt>
      <trkpt lat="49.19436" lon="6.95477">
        <ele>339</ele>
        <time>2011-04-05T11:37:50Z</time>
      </trkpt>
      <trkpt lat="49.19438" lon="6.95476">
        <ele>339</ele>
        <time>2011-04-05T11:37:51Z</time>
      </trkpt>
      <trkpt lat="49.19439" lon="6.95476">
        <ele>339</ele>
        <time>2011-04-05T11:37:52Z</time>
      </trkpt>
      <trkpt lat="49.19441" lon="6.95475">
        <ele>339</ele>
        <time>2011-04-05T11:37:53Z</time>
      </trkpt>
      <trkpt lat="49.19442" lon="6.95474">
        <ele>339</ele>
        <time>2011-04-05T11:37:54Z</time>
      </trkpt>
      <trkpt lat="49.19444" lon="6.95474">
        <ele>339</ele>
        <time>2011-04-05T11:37:55Z</time>
      </trkpt>
      <trkpt lat="49.19445" lon="6.95474">
        <ele>339</ele>
        <time>2011-04-05T11:37:56Z</time>
      </trkpt>
      <trkpt lat="49.19446" lon="6.95473">
        <ele>339</ele>
        <time>2011-04-05T11:37:57Z</time>
      </trkpt>
      <trkpt lat="49.19447" lon="6.95472">
        <ele>339</ele>
        <time>2011-04-05T11:37:58Z</time>
      </trkpt>
      <trkpt lat="49.19449" lon="6.95471">
        <ele>339</ele>
        <time>2011-04-05T11:37:59Z</time>
      </trkpt>
      <trkpt lat="49.1945" lon="6.95471">
        <ele>339</ele>
        <time>2011-04-05T11:38:00Z</time>
      </trkpt>
      <trkpt lat="49.19451" lon="6.9547">
        <ele>339</ele>
        <time>2011-04-05T11:38:01Z</time>
      </trkpt>
      <trkpt lat="49.19453" lon="6.95469">
        <ele>339</ele>
        <time>2011-04-05T11:38:02Z</time>
      </trkpt>
      <trkpt lat="49.19454" lon="6.95468">
        <ele>339</ele>
        <time>2011-04-05T11:38:03Z</time>
      </trkpt>
      <trkpt lat="49.19455" lon="6.95467">
        <ele>339</ele>
        <time>2011-04-05T11:38:04Z</time>
      </trkpt>
      <trkpt lat="49.19457" lon="6.95466">
        <ele>339</ele>
        <time>2011-04-05T11:38:05Z</time>
      </trkpt>
      <trkpt lat="49.19458" lon="6.95465">
        <ele>339</ele>
        <time>2011-04-05T11:38:06Z</time>
      </trkpt>
      <trkpt lat="49.19459" lon="6.95464">
        <ele>339</ele>
        <time>2011-04-05T11:38:07Z</time>
      </trkpt>
      <trkpt lat="49.19461" lon="6.95463">
        <ele>339</ele>
        <time>2011-04-05T11:38:08Z</time>
      </trkpt>
      <trkpt lat="49.19462" lon="6.95462">
        <ele>339</ele>
        <time>2011-04-05T11:38:09Z</time>
      </trkpt>
      <trkpt lat="49.19463" lon="6.95462">
        <ele>339</ele>
        <time>2011-04-05T11:38:10Z</time>
      </trkpt>
      <trkpt lat="49.19465" lon="6.95461">
        <ele>339</ele>
        <time>2011-04-05T11:38:11Z</time>
      </trkpt>
      <trkpt lat="49.19466" lon="6.9546">
        <ele>339</ele>
        <time>2011-04-05T11:38:12Z</time>
      </trkpt>
      <trkpt lat="49.19468" lon="6.9546">
        <ele>339</ele>
        <time>2011-04-05T11:38:13Z</time>
      </trkpt>
      <trkpt lat="49.19469" lon="6.95459">
        <ele>339</ele>
        <time>2011-04-05T11:38:14Z</time>
      </trkpt>
      <trkpt lat="49.1947" lon="6.95459">
        <ele>339</ele>
        <time>2011-04-05T11:38:15Z</time>
      </trkpt>
      <trkpt lat="49.19471" lon="6.95458">
        <ele>339</ele>
        <time>2011-04-05T11:38:16Z</time>
      </trkpt>
      <trkpt lat="49.19473" lon="6.95458">
        <ele>339</ele>
        <time>2011-04-05T11:38:17Z</time>
      </trkpt>
      <trkpt lat="49.19474" lon="6.95458">
        <ele>339</ele>
        <time>2011-04-05T11:38:18Z</time>
      </trkpt>
      <trkpt lat="49.19475" lon="6.95457">
        <ele>339</ele>
        <time>2011-04-05T11:38:19Z</time>
      </trkpt>
      <trkpt lat="49.19477" lon="6.95456">
        <ele>339</ele>
        <time>2011-04-05T11:38:21Z</time>
      </trkpt>
      <trkpt lat="49.19478" lon="6.95455">
        <ele>339</ele>
        <time>2011-04-05T11:38:22Z</time>
      </trkpt>
      <trkpt lat="49.19479" lon="6.95454">
        <ele>339</ele>
        <time>2011-04-05T11:38:23Z</time>
      </trkpt>
      <trkpt lat="49.19481" lon="6.95453">
        <ele>339</ele>
        <time>2011-04-05T11:38:24Z</time>
      </trkpt>
      <trkpt lat="49.19482" lon="6.95452">
        <ele>339</ele>
        <time>2011-04-05T11:38:25Z</time>
      </trkpt>
      <trkpt lat="49.19483" lon="6.95451">
        <ele>339</ele>
        <time>2011-04-05T11:38:26Z</time>
      </trkpt>
      <trkpt lat="49.19484" lon="6.9545">
        <ele>339</ele>
        <time>2011-04-05T11:38:27Z</time>
      </trkpt>
      <trkpt lat="49.19486" lon="6.95449">
        <ele>339</ele>
        <time>2011-04-05T11:38:28Z</time>
      </trkpt>
      <trkpt lat="49.19487" lon="6.95448">
        <ele>339</ele>
        <time>2011-04-05T11:38:29Z</time>
      </trkpt>
      <trkpt lat="49.19489" lon="6.95448">
        <ele>339</ele>
        <time>2011-04-05T11:38:30Z</time>
      </trkpt>
      <trkpt lat="49.1949" lon="6.95447">
        <ele>339</ele>
        <time>2011-04-05T11:38:31Z</time>
      </trkpt>
      <trkpt lat="49.19491" lon="6.95446">
        <ele>339</ele>
        <time>2011-04-05T11:38:32Z</time>
      </trkpt>
      <trkpt lat="49.19492" lon="6.95446">
        <ele>339</ele>
        <time>2011-04-05T11:38:33Z</time>
      </trkpt>
      <trkpt lat="49.19494" lon="6.95445">
        <ele>339</ele>
        <time>2011-04-05T11:38:34Z</time>
      </trkpt>
      <trkpt lat="49.19495" lon="6.95444">
        <ele>339</ele>
        <time>2011-04-05T11:38:35Z</time>
      </trkpt>
      <trkpt lat="49.19497" lon="6.95443">
        <ele>339</ele>
        <time>2011-04-05T11:38:36Z</time>
      </trkpt>
      <trkpt lat="49.19498" lon="6.95443">
        <ele>339</ele>
        <time>2011-04-05T11:38:37Z</time>
      </trkpt>
      <trkpt lat="49.195" lon="6.95442">
        <ele>339</ele>
        <time>2011-04-05T11:38:38Z</time>
      </trkpt>
      <trkpt lat="49.19501" lon="6.95441">
        <ele>339</ele>
        <time>2011-04-05T11:38:39Z</time>
      </trkpt>
      <trkpt lat="49.19502" lon="6.9544">
        <ele>339</ele>
        <time>2011-04-05T11:38:40Z</time>
      </trkpt>
      <trkpt lat="49.19504" lon="6.95439">
        <ele>339</ele>
        <time>2011-04-05T11:38:41Z</time>
      </trkpt>
      <trkpt lat="49.19505" lon="6.95438">
        <ele>339</ele>
        <time>2011-04-05T11:38:42Z</time>
      </trkpt>
      <trkpt lat="49.19506" lon="6.95437">
        <ele>339</ele>
        <time>2011-04-05T11:38:43Z</time>
      </trkpt>
      <trkpt lat="49.19508" lon="6.95437">
        <ele>338</ele>
        <time>2011-04-05T11:38:44Z</time>
      </trkpt>
      <trkpt lat="49.19509" lon="6.95436">
        <ele>338</ele>
        <time>2011-04-05T11:38:45Z</time>
      </trkpt>
      <trkpt lat="49.1951" lon="6.95435">
        <ele>338</ele>
        <time>2011-04-05T11:38:46Z</time>
      </trkpt>
      <trkpt lat="49.19511" lon="6.95435">
        <ele>338</ele>
        <time>2011-04-05T11:38:47Z</time>
      </trkpt>
      <trkpt lat="49.19513" lon="6.95435">
        <ele>338</ele>
        <time>2011-04-05T11:38:48Z</time>
      </trkpt>
      <trkpt lat="49.19514" lon="6.95435">
        <ele>338</ele>
        <time>2011-04-05T11:38:49Z</time>
      </trkpt>
      <trkpt lat="49.19515" lon="6.95434">
        <ele>338</ele>
        <time>2011-04-05T11:38:50Z</time>
      </trkpt>
      <trkpt lat="49.19516" lon="6.95434">
        <ele>338</ele>
        <time>2011-04-05T11:38:51Z</time>
      </trkpt>
      <trkpt lat="49.19518" lon="6.95433">
        <ele>338</ele>
        <time>2011-04-05T11:38:52Z</time>
      </trkpt>
      <trkpt lat="49.19519" lon="6.95433">
        <ele>338</ele>
        <time>2011-04-05T11:38:53Z</time>
      </trkpt>
      <trkpt lat="49.1952" lon="6.95433">
        <ele>338</ele>
        <time>2011-04-05T11:38:54Z</time>
      </trkpt>
      <trkpt lat="49.19521" lon="6.95433">
        <ele>337</ele>
        <time>2011-04-05T11:38:55Z</time>
      </trkpt>
      <trkpt lat="49.19523" lon="6.95433">
        <ele>337</ele>
        <time>2011-04-05T11:38:56Z</time>
      </trkpt>
      <trkpt lat="49.19524" lon="6.95433">
        <ele>337</ele>
        <time>2011-04-05T11:38:57Z</time>
      </trkpt>
      <trkpt lat="49.19525" lon="6.95432">
        <ele>337</ele>
        <time>2011-04-05T11:38:58Z</time>
      </trkpt>
      <trkpt lat="49.19527" lon="6.95432">
        <ele>336</ele>
        <time>2011-04-05T11:38:59Z</time>
      </trkpt>
      <trkpt lat="49.19528" lon="6.95431">
        <ele>336</ele>
        <time>2011-04-05T11:39:00Z</time>
      </trkpt>
      <trkpt lat="49.19529" lon="6.95431">
        <ele>336</ele>
        <time>2011-04-05T11:39:01Z</time>
      </trkpt>
      <trkpt lat="49.19531" lon="6.9543">
        <ele>336</ele>
        <time>2011-04-05T11:39:02Z</time>
      </trkpt>
      <trkpt lat="49.19532" lon="6.9543">
        <ele>335</ele>
        <time>2011-04-05T11:39:03Z</time>
      </trkpt>
      <trkpt lat="49.19533" lon="6.95429">
        <ele>335</ele>
        <time>2011-04-05T11:39:04Z</time>
      </trkpt>
      <trkpt lat="49.19535" lon="6.95428">
        <ele>335</ele>
        <time>2011-04-05T11:39:05Z</time>
      </trkpt>
      <trkpt lat="49.19536" lon="6.95428">
        <ele>335</ele>
        <time>2011-04-05T11:39:06Z</time>
      </trkpt>
      <trkpt lat="49.19537" lon="6.95427">
        <ele>335</ele>
        <time>2011-04-05T11:39:07Z</time>
      </trkpt>
      <trkpt lat="49.19538" lon="6.95427">
        <ele>334</ele>
        <time>2011-04-05T11:39:08Z</time>
      </trkpt>
      <trkpt lat="49.1954" lon="6.95426">
        <ele>334</ele>
        <time>2011-04-05T11:39:09Z</time>
      </trkpt>
      <trkpt lat="49.19541" lon="6.95426">
        <ele>334</ele>
        <time>2011-04-05T11:39:10Z</time>
      </trkpt>
      <trkpt lat="49.19543" lon="6.95426">
        <ele>334</ele>
        <time>2011-04-05T11:39:11Z</time>
      </trkpt>
      <trkpt lat="49.19544" lon="6.95425">
        <ele>334</ele>
        <time>2011-04-05T11:39:12Z</time>
      </trkpt>
      <trkpt lat="49.19545" lon="6.95425">
        <ele>334</ele>
        <time>2011-04-05T11:39:13Z</time>
      </trkpt>
      <trkpt lat="49.19547" lon="6.95425">
        <ele>333</ele>
        <time>2011-04-05T11:39:14Z</time>
      </trkpt>
      <trkpt lat="49.19548" lon="6.95424">
        <ele>333</ele>
        <time>2011-04-05T11:39:15Z</time>
      </trkpt>
      <trkpt lat="49.1955" lon="6.95424">
        <ele>333</ele>
        <time>2011-04-05T11:39:16Z</time>
      </trkpt>
      <trkpt lat="49.19551" lon="6.95423">
        <ele>333</ele>
        <time>2011-04-05T11:39:17Z</time>
      </trkpt>
      <trkpt lat="49.19552" lon="6.95422">
        <ele>333</ele>
        <time>2011-04-05T11:39:18Z</time>
      </trkpt>
      <trkpt lat="49.19554" lon="6.95422">
        <ele>333</ele>
        <time>2011-04-05T11:39:19Z</time>
      </trkpt>
      <trkpt lat="49.19555" lon="6.95421">
        <ele>333</ele>
        <time>2011-04-05T11:39:20Z</time>
      </trkpt>
      <trkpt lat="49.19556" lon="6.9542">
        <ele>333</ele>
        <time>2011-04-05T11:39:21Z</time>
      </trkpt>
      <trkpt lat="49.19558" lon="6.95419">
        <ele>333</ele>
        <time>2011-04-05T11:39:22Z</time>
      </trkpt>
      <trkpt lat="49.19559" lon="6.95418">
        <ele>333</ele>
        <time>2011-04-05T11:39:23Z</time>
      </trkpt>
      <trkpt lat="49.1956" lon="6.95417">
        <ele>333</ele>
        <time>2011-04-05T11:39:24Z</time>
      </trkpt>
      <trkpt lat="49.19562" lon="6.95416">
        <ele>333</ele>
        <time>2011-04-05T11:39:25Z</time>
      </trkpt>
      <trkpt lat="49.19563" lon="6.95415">
        <ele>333</ele>
        <time>2011-04-05T11:39:26Z</time>
      </trkpt>
      <trkpt lat="49.19564" lon="6.95414">
        <ele>333</ele>
        <time>2011-04-05T11:39:27Z</time>
      </trkpt>
      <trkpt lat="49.19566" lon="6.95413">
        <ele>333</ele>
        <time>2011-04-05T11:39:28Z</time>
      </trkpt>
      <trkpt lat="49.19567" lon="6.95412">
        <ele>333</ele>
        <time>2011-04-05T11:39:29Z</time>
      </trkpt>
      <trkpt lat="49.19568" lon="6.95411">
        <ele>333</ele>
        <time>2011-04-05T11:39:30Z</time>
      </trkpt>
      <trkpt lat="49.1957" lon="6.9541">
        <ele>333</ele>
        <time>2011-04-05T11:39:31Z</time>
      </trkpt>
      <trkpt lat="49.19571" lon="6.95409">
        <ele>333</ele>
        <time>2011-04-05T11:39:32Z</time>
      </trkpt>
      <trkpt lat="49.19572" lon="6.95409">
        <ele>333</ele>
        <time>2011-04-05T11:39:33Z</time>
      </trkpt>
      <trkpt lat="49.19574" lon="6.95408">
        <ele>333</ele>
        <time>2011-04-05T11:39:34Z</time>
      </trkpt>
      <trkpt lat="49.19575" lon="6.95407">
        <ele>333</ele>
        <time>2011-04-05T11:39:35Z</time>
      </trkpt>
      <trkpt lat="49.19577" lon="6.95406">
        <ele>333</ele>
        <time>2011-04-05T11:39:36Z</time>
      </trkpt>
      <trkpt lat="49.19578" lon="6.95405">
        <ele>333</ele>
        <time>2011-04-05T11:39:37Z</time>
      </trkpt>
      <trkpt lat="49.19579" lon="6.95404">
        <ele>333</ele>
        <time>2011-04-05T11:39:38Z</time>
      </trkpt>
      <trkpt lat="49.1958" lon="6.95403">
        <ele>333</ele>
        <time>2011-04-05T11:39:39Z</time>
      </trkpt>
      <trkpt lat="49.19582" lon="6.95402">
        <ele>333</ele>
        <time>2011-04-05T11:39:40Z</time>
      </trkpt>
      <trkpt lat="49.19583" lon="6.95401">
        <ele>333</ele>
        <time>2011-04-05T11:39:41Z</time>
      </trkpt>
      <trkpt lat="49.19584" lon="6.95401">
        <ele>333</ele>
        <time>2011-04-05T11:39:42Z</time>
      </trkpt>
      <trkpt lat="49.19586" lon="6.954">
        <ele>333</ele>
        <time>2011-04-05T11:39:43Z</time>
      </trkpt>
      <trkpt lat="49.19587" lon="6.95399">
        <ele>333</ele>
        <time>2011-04-05T11:39:44Z</time>
      </trkpt>
      <trkpt lat="49.19588" lon="6.95399">
        <ele>333</ele>
        <time>2011-04-05T11:39:45Z</time>
      </trkpt>
      <trkpt lat="49.1959" lon="6.95398">
        <ele>333</ele>
        <time>2011-04-05T11:39:46Z</time>
      </trkpt>
      <trkpt lat="49.19591" lon="6.95397">
        <ele>333</ele>
        <time>2011-04-05T11:39:47Z</time>
      </trkpt>
      <trkpt lat="49.19592" lon="6.95397">
        <ele>333</ele>
        <time>2011-04-05T11:39:48Z</time>
      </trkpt>
      <trkpt lat="49.19594" lon="6.95396">
        <ele>333</ele>
        <time>2011-04-05T11:39:49Z</time>
      </trkpt>
      <trkpt lat="49.19595" lon="6.95396">
        <ele>333</ele>
        <time>2011-04-05T11:39:50Z</time>
      </trkpt>
      <trkpt lat="49.19596" lon="6.95395">
        <ele>333</ele>
        <time>2011-04-05T11:39:51Z</time>
      </trkpt>
      <trkpt lat="49.19598" lon="6.95395">
        <ele>333</ele>
        <time>2011-04-05T11:39:52Z</time>
      </trkpt>
      <trkpt lat="49.19599" lon="6.95394">
        <ele>333</ele>
        <time>2011-04-05T11:39:53Z</time>
      </trkpt>
      <trkpt lat="49.196" lon="6.95394">
        <ele>333</ele>
        <time>2011-04-05T11:39:54Z</time>
      </trkpt>
      <trkpt lat="49.19602" lon="6.95393">
        <ele>333</ele>
        <time>2011-04-05T11:39:55Z</time>
      </trkpt>
      <trkpt lat="49.19603" lon="6.95393">
        <ele>333</ele>
        <time>2011-04-05T11:39:56Z</time>
      </trkpt>
      <trkpt lat="49.19604" lon="6.95392">
        <ele>333</ele>
        <time>2011-04-05T11:39:57Z</time>
      </trkpt>
      <trkpt lat="49.19606" lon="6.95392">
        <ele>333</ele>
        <time>2011-04-05T11:39:58Z</time>
      </trkpt>
      <trkpt lat="49.19607" lon="6.95392">
        <ele>333</ele>
        <time>2011-04-05T11:39:59Z</time>
      </trkpt>
      <trkpt lat="49.19609" lon="6.95391">
        <ele>333</ele>
        <time>2011-04-05T11:40:00Z</time>
      </trkpt>
      <trkpt lat="49.1961" lon="6.95391">
        <ele>333</ele>
        <time>2011-04-05T11:40:01Z</time>
      </trkpt>
      <trkpt lat="49.19611" lon="6.9539">
        <ele>333</ele>
        <time>2011-04-05T11:40:02Z</time>
      </trkpt>
      <trkpt lat="49.19613" lon="6.9539">
        <ele>333</ele>
        <time>2011-04-05T11:40:03Z</time>
      </trkpt>
      <trkpt lat="49.19614" lon="6.95389">
        <ele>333</ele>
        <time>2011-04-05T11:40:04Z</time>
      </trkpt>
      <trkpt lat="49.19615" lon="6.95388">
        <ele>333</ele>
        <time>2011-04-05T11:40:05Z</time>
      </trkpt>
      <trkpt lat="49.19616" lon="6.95388">
        <ele>333</ele>
        <time>2011-04-05T11:40:06Z</time>
      </trkpt>
      <trkpt lat="49.19618" lon="6.95387">
        <ele>333</ele>
        <time>2011-04-05T11:40:07Z</time>
      </trkpt>
      <trkpt lat="49.19619" lon="6.95386">
        <ele>333</ele>
        <time>2011-04-05T11:40:08Z</time>
      </trkpt>
      <trkpt lat="49.1962" lon="6.95386">
        <ele>333</ele>
        <time>2011-04-05T11:40:09Z</time>
      </trkpt>
      <trkpt lat="49.19621" lon="6.95385">
        <ele>333</ele>
        <time>2011-04-05T11:40:10Z</time>
      </trkpt>
      <trkpt lat="49.19622" lon="6.95385">
        <ele>333</ele>
        <time>2011-04-05T11:40:11Z</time>
      </trkpt>
      <trkpt lat="49.19624" lon="6.95385">
        <ele>333</ele>
        <time>2011-04-05T11:40:12Z</time>
      </trkpt>
      <trkpt lat="49.19625" lon="6.95384">
        <ele>333</ele>
        <time>2011-04-05T11:40:13Z</time>
      </trkpt>
      <trkpt lat="49.19626" lon="6.95383">
        <ele>333</ele>
        <time>2011-04-05T11:40:14Z</time>
      </trkpt>
      <trkpt lat="49.19628" lon="6.95381">
        <ele>333</ele>
        <time>2011-04-05T11:40:16Z</time>
      </trkpt>
      <trkpt lat="49.19629" lon="6.9538">
        <ele>333</ele>
        <time>2011-04-05T11:40:17Z</time>
      </trkpt>
      <trkpt lat="49.1963" lon="6.95379">
        <ele>333</ele>
        <time>2011-04-05T11:40:18Z</time>
      </trkpt>
      <trkpt lat="49.19632" lon="6.95378">
        <ele>333</ele>
        <time>2011-04-05T11:40:19Z</time>
      </trkpt>
      <trkpt lat="49.19633" lon="6.95376">
        <ele>333</ele>
        <time>2011-04-05T11:40:21Z</time>
      </trkpt>
      <trkpt lat="49.19633" lon="6.95374">
        <ele>333</ele>
        <time>2011-04-05T11:40:22Z</time>
      </trkpt>
      <trkpt lat="49.19633" lon="6.95372">
        <ele>333</ele>
        <time>2011-04-05T11:40:23Z</time>
      </trkpt>
      <trkpt lat="49.19633" lon="6.9537">
        <ele>333</ele>
        <time>2011-04-05T11:40:24Z</time>
      </trkpt>
      <trkpt lat="49.19632" lon="6.95368">
        <ele>333</ele>
        <time>2011-04-05T11:40:25Z</time>
      </trkpt>
      <trkpt lat="49.19632" lon="6.95366">
        <ele>333</ele>
        <time>2011-04-05T11:40:26Z</time>
      </trkpt>
      <trkpt lat="49.19632" lon="6.95363">
        <ele>333</ele>
        <time>2011-04-05T11:40:27Z</time>
      </trkpt>
      <trkpt lat="49.19632" lon="6.95361">
        <ele>333</ele>
        <time>2011-04-05T11:40:28Z</time>
      </trkpt>
      <trkpt lat="49.19633" lon="6.95359">
        <ele>333</ele>
        <time>2011-04-05T11:40:29Z</time>
      </trkpt>
      <trkpt lat="49.19633" lon="6.95357">
        <ele>333</ele>
        <time>2011-04-05T11:40:30Z</time>
      </trkpt>
      <trkpt lat="49.19634" lon="6.95355">
        <ele>333</ele>
        <time>2011-04-05T11:40:31Z</time>
      </trkpt>
      <trkpt lat="49.19634" lon="6.95353">
        <ele>333</ele>
        <time>2011-04-05T11:40:32Z</time>
      </trkpt>
      <trkpt lat="49.19634" lon="6.95351">
        <ele>333</ele>
        <time>2011-04-05T11:40:33Z</time>
      </trkpt>
      <trkpt lat="49.19634" lon="6.95349">
        <ele>333</ele>
        <time>2011-04-05T11:40:34Z</time>
      </trkpt>
      <trkpt lat="49.19634" lon="6.95347">
        <ele>333</ele>
        <time>2011-04-05T11:40:35Z</time>
      </trkpt>
      <trkpt lat="49.19634" lon="6.95344">
        <ele>333</ele>
        <time>2011-04-05T11:40:36Z</time>
      </trkpt>
      <trkpt lat="49.19634" lon="6.95342">
        <ele>333</ele>
        <time>2011-04-05T11:40:37Z</time>
      </trkpt>
      <trkpt lat="49.19634" lon="6.9534">
        <ele>333</ele>
        <time>2011-04-05T11:40:38Z</time>
      </trkpt>
      <trkpt lat="49.19634" lon="6.95338">
        <ele>333</ele>
        <time>2011-04-05T11:40:39Z</time>
      </trkpt>
      <trkpt lat="49.19634" lon="6.95336">
        <ele>333</ele>
        <time>2011-04-05T11:40:40Z</time>
      </trkpt>
      <trkpt lat="49.19634" lon="6.95333">
        <ele>333</ele>
        <time>2011-04-05T11:40:41Z</time>
      </trkpt>
      <trkpt lat="49.19634" lon="6.95331">
        <ele>333</ele>
        <time>2011-04-05T11:40:42Z</time>
      </trkpt>
      <trkpt lat="49.19634" lon="6.95329">
        <ele>333</ele>
        <time>2011-04-05T11:40:43Z</time>
      </trkpt>
      <trkpt lat="49.19634" lon="6.95327">
        <ele>333</ele>
        <time>2011-04-05T11:40:44Z</time>
      </trkpt>
      <trkpt lat="49.19633" lon="6.95326">
        <ele>333</ele>
        <time>2011-04-05T11:40:45Z</time>
      </trkpt>
      <trkpt lat="49.19633" lon="6.95324">
        <ele>333</ele>
        <time>2011-04-05T11:40:46Z</time>
      </trkpt>
      <trkpt lat="49.19633" lon="6.95321">
        <ele>333</ele>
        <time>2011-04-05T11:40:47Z</time>
      </trkpt>
      <trkpt lat="49.19633" lon="6.95319">
        <ele>333</ele>
        <time>2011-04-05T11:40:48Z</time>
      </trkpt>
      <trkpt lat="49.19633" lon="6.95317">
        <ele>333</ele>
        <time>2011-04-05T11:40:49Z</time>
      </trkpt>
      <trkpt lat="49.19633" lon="6.95315">
        <ele>333</ele>
        <time>2011-04-05T11:40:50Z</time>
      </trkpt>
      <trkpt lat="49.19633" lon="6.95313">
        <ele>333</ele>
        <time>2011-04-05T11:40:51Z</time>
      </trkpt>
      <trkpt lat="49.19633" lon="6.95311">
        <ele>333</ele>
        <time>2011-04-05T11:40:52Z</time>
      </trkpt>
      <trkpt lat="49.19633" lon="6.95309">
        <ele>333</ele>
        <time>2011-04-05T11:40:53Z</time>
      </trkpt>
      <trkpt lat="49.19634" lon="6.95307">
        <ele>333</ele>
        <time>2011-04-05T11:40:54Z</time>
      </trkpt>
      <trkpt lat="49.19634" lon="6.95305">
        <ele>333</ele>
        <time>2011-04-05T11:40:55Z</time>
      </trkpt>
      <trkpt lat="49.19634" lon="6.95304">
        <ele>333</ele>
        <time>2011-04-05T11:40:56Z</time>
      </trkpt>
      <trkpt lat="49.19634" lon="6.95302">
        <ele>333</ele>
        <time>2011-04-05T11:40:57Z</time>
      </trkpt>
      <trkpt lat="49.19634" lon="6.953">
        <ele>333</ele>
        <time>2011-04-05T11:40:58Z</time>
      </trkpt>
      <trkpt lat="49.19633" lon="6.95298">
        <ele>333</ele>
        <time>2011-04-05T11:40:59Z</time>
      </trkpt>
      <trkpt lat="49.19633" lon="6.95296">
        <ele>333</ele>
        <time>2011-04-05T11:41:00Z</time>
      </trkpt>
      <trkpt lat="49.19633" lon="6.95294">
        <ele>333</ele>
        <time>2011-04-05T11:41:01Z</time>
      </trkpt>
      <trkpt lat="49.19633" lon="6.95292">
        <ele>333</ele>
        <time>2011-04-05T11:41:02Z</time>
      </trkpt>
      <trkpt lat="49.19633" lon="6.95291">
        <ele>333</ele>
        <time>2011-04-05T11:41:03Z</time>
      </trkpt>
      <trkpt lat="49.19633" lon="6.95289">
        <ele>333</ele>
        <time>2011-04-05T11:41:04Z</time>
      </trkpt>
      <trkpt lat="49.19632" lon="6.95287">
        <ele>333</ele>
        <time>2011-04-05T11:41:05Z</time>
      </trkpt>
      <trkpt lat="49.19632" lon="6.95285">
        <ele>333</ele>
        <time>2011-04-05T11:41:06Z</time>
      </trkpt>
      <trkpt lat="49.19632" lon="6.95283">
        <ele>332</ele>
        <time>2011-04-05T11:41:07Z</time>
      </trkpt>
      <trkpt lat="49.19632" lon="6.9528">
        <ele>332</ele>
        <time>2011-04-05T11:41:08Z</time>
      </trkpt>
      <trkpt lat="49.19632" lon="6.95278">
        <ele>332</ele>
        <time>2011-04-05T11:41:09Z</time>
      </trkpt>
      <trkpt lat="49.19632" lon="6.95276">
        <ele>332</ele>
        <time>2011-04-05T11:41:10Z</time>
      </trkpt>
      <trkpt lat="49.19632" lon="6.95274">
        <ele>332</ele>
        <time>2011-04-05T11:41:11Z</time>
      </trkpt>
      <trkpt lat="49.19632" lon="6.95272">
        <ele>332</ele>
        <time>2011-04-05T11:41:12Z</time>
      </trkpt>
      <trkpt lat="49.19632" lon="6.9527">
        <ele>332</ele>
        <time>2011-04-05T11:41:13Z</time>
      </trkpt>
      <trkpt lat="49.19631" lon="6.95268">
        <ele>332</ele>
        <time>2011-04-05T11:41:14Z</time>
      </trkpt>
      <trkpt lat="49.19631" lon="6.95266">
        <ele>332</ele>
        <time>2011-04-05T11:41:15Z</time>
      </trkpt>
      <trkpt lat="49.19631" lon="6.95264">
        <ele>332</ele>
        <time>2011-04-05T11:41:16Z</time>
      </trkpt>
      <trkpt lat="49.1963" lon="6.95262">
        <ele>332</ele>
        <time>2011-04-05T11:41:17Z</time>
      </trkpt>
      <trkpt lat="49.1963" lon="6.9526">
        <ele>332</ele>
        <time>2011-04-05T11:41:18Z</time>
      </trkpt>
      <trkpt lat="49.1963" lon="6.95259">
        <ele>332</ele>
        <time>2011-04-05T11:41:19Z</time>
      </trkpt>
      <trkpt lat="49.1963" lon="6.95257">
        <ele>332</ele>
        <time>2011-04-05T11:41:20Z</time>
      </trkpt>
      <trkpt lat="49.1963" lon="6.95255">
        <ele>331</ele>
        <time>2011-04-05T11:41:21Z</time>
      </trkpt>
      <trkpt lat="49.1963" lon="6.95252">
        <ele>331</ele>
        <time>2011-04-05T11:41:22Z</time>
      </trkpt>
      <trkpt lat="49.1963" lon="6.95251">
        <ele>331</ele>
        <time>2011-04-05T11:41:23Z</time>
      </trkpt>
      <trkpt lat="49.1963" lon="6.95249">
        <ele>331</ele>
        <time>2011-04-05T11:41:24Z</time>
      </trkpt>
      <trkpt lat="49.1963" lon="6.95247">
        <ele>331</ele>
        <time>2011-04-05T11:41:25Z</time>
      </trkpt>
      <trkpt lat="49.19629" lon="6.95245">
        <ele>331</ele>
        <time>2011-04-05T11:41:26Z</time>
      </trkpt>
      <trkpt lat="49.19629" lon="6.95243">
        <ele>331</ele>
        <time>2011-04-05T11:41:27Z</time>
      </trkpt>
      <trkpt lat="49.19628" lon="6.95241">
        <ele>331</ele>
        <time>2011-04-05T11:41:28Z</time>
      </trkpt>
      <trkpt lat="49.19628" lon="6.95239">
        <ele>331</ele>
        <time>2011-04-05T11:41:29Z</time>
      </trkpt>
      <trkpt lat="49.19628" lon="6.95237">
        <ele>331</ele>
        <time>2011-04-05T11:41:30Z</time>
      </trkpt>
      <trkpt lat="49.19627" lon="6.95235">
        <ele>331</ele>
        <time>2011-04-05T11:41:31Z</time>
      </trkpt>
      <trkpt lat="49.19627" lon="6.95233">
        <ele>331</ele>
        <time>2011-04-05T11:41:32Z</time>
      </trkpt>
      <trkpt lat="49.19627" lon="6.95231">
        <ele>330</ele>
        <time>2011-04-05T11:41:33Z</time>
      </trkpt>
      <trkpt lat="49.19626" lon="6.95229">
        <ele>330</ele>
        <time>2011-04-05T11:41:34Z</time>
      </trkpt>
      <trkpt lat="49.19625" lon="6.95227">
        <ele>330</ele>
        <time>2011-04-05T11:41:35Z</time>
      </trkpt>
      <trkpt lat="49.19624" lon="6.95225">
        <ele>330</ele>
        <time>2011-04-05T11:41:36Z</time>
      </trkpt>
      <trkpt lat="49.19624" lon="6.95223">
        <ele>330</ele>
        <time>2011-04-05T11:41:37Z</time>
      </trkpt>
      <trkpt lat="49.19624" lon="6.95221">
        <ele>330</ele>
        <time>2011-04-05T11:41:38Z</time>
      </trkpt>
      <trkpt lat="49.19623" lon="6.9522">
        <ele>330</ele>
        <time>2011-04-05T11:41:39Z</time>
      </trkpt>
      <trkpt lat="49.19623" lon="6.95218">
        <ele>330</ele>
        <time>2011-04-05T11:41:40Z</time>
      </trkpt>
      <trkpt lat="49.19623" lon="6.95216">
        <ele>330</ele>
        <time>2011-04-05T11:41:41Z</time>
      </trkpt>
      <trkpt lat="49.19623" lon="6.95214">
        <ele>330</ele>
        <time>2011-04-05T11:41:42Z</time>
      </trkpt>
      <trkpt lat="49.19622" lon="6.95212">
        <ele>330</ele>
        <time>2011-04-05T11:41:43Z</time>
      </trkpt>
      <trkpt lat="49.19622" lon="6.9521">
        <ele>330</ele>
        <time>2011-04-05T11:41:44Z</time>
      </trkpt>
      <trkpt lat="49.19622" lon="6.95209">
        <ele>330</ele>
        <time>2011-04-05T11:41:45Z</time>
      </trkpt>
      <trkpt lat="49.19621" lon="6.95206">
        <ele>330</ele>
        <time>2011-04-05T11:41:50Z</time>
      </trkpt>
      <trkpt lat="49.1962" lon="6.95203">
        <ele>330</ele>
        <time>2011-04-05T11:41:52Z</time>
      </trkpt>
      <trkpt lat="49.19619" lon="6.95201">
        <ele>330</ele>
        <time>2011-04-05T11:41:53Z</time>
      </trkpt>
      <trkpt lat="49.19619" lon="6.95199">
        <ele>330</ele>
        <time>2011-04-05T11:41:54Z</time>
      </trkpt>
      <trkpt lat="49.19618" lon="6.95198">
        <ele>330</ele>
        <time>2011-04-05T11:41:55Z</time>
      </trkpt>
      <trkpt lat="49.19617" lon="6.95196">
        <ele>330</ele>
        <time>2011-04-05T11:41:56Z</time>
      </trkpt>
      <trkpt lat="49.19616" lon="6.95193">
        <ele>330</ele>
        <time>2011-04-05T11:41:57Z</time>
      </trkpt>
      <trkpt lat="49.19616" lon="6.95191">
        <ele>329</ele>
        <time>2011-04-05T11:41:58Z</time>
      </trkpt>
      <trkpt lat="49.19615" lon="6.9519">
        <ele>329</ele>
        <time>2011-04-05T11:41:59Z</time>
      </trkpt>
      <trkpt lat="49.19615" lon="6.95188">
        <ele>329</ele>
        <time>2011-04-05T11:42:00Z</time>
      </trkpt>
      <trkpt lat="49.19614" lon="6.95186">
        <ele>329</ele>
        <time>2011-04-05T11:42:01Z</time>
      </trkpt>
      <trkpt lat="49.19614" lon="6.95184">
        <ele>328</ele>
        <time>2011-04-05T11:42:02Z</time>
      </trkpt>
      <trkpt lat="49.19614" lon="6.95182">
        <ele>328</ele>
        <time>2011-04-05T11:42:03Z</time>
      </trkpt>
      <trkpt lat="49.19613" lon="6.9518">
        <ele>328</ele>
        <time>2011-04-05T11:42:04Z</time>
      </trkpt>
      <trkpt lat="49.19613" lon="6.95178">
        <ele>328</ele>
        <time>2011-04-05T11:42:05Z</time>
      </trkpt>
      <trkpt lat="49.19613" lon="6.95176">
        <ele>327</ele>
        <time>2011-04-05T11:42:06Z</time>
      </trkpt>
      <trkpt lat="49.19614" lon="6.95175">
        <ele>327</ele>
        <time>2011-04-05T11:42:07Z</time>
      </trkpt>
      <trkpt lat="49.19614" lon="6.95171">
        <ele>327</ele>
        <time>2011-04-05T11:42:08Z</time>
      </trkpt>
      <trkpt lat="49.19615" lon="6.95169">
        <ele>327</ele>
        <time>2011-04-05T11:42:09Z</time>
      </trkpt>
      <trkpt lat="49.19617" lon="6.95167">
        <ele>327</ele>
        <time>2011-04-05T11:42:11Z</time>
      </trkpt>
      <trkpt lat="49.19619" lon="6.95166">
        <ele>327</ele>
        <time>2011-04-05T11:42:12Z</time>
      </trkpt>
      <trkpt lat="49.19621" lon="6.95166">
        <ele>327</ele>
        <time>2011-04-05T11:42:14Z</time>
      </trkpt>
      <trkpt lat="49.19622" lon="6.95165">
        <ele>327</ele>
        <time>2011-04-05T11:42:15Z</time>
      </trkpt>
      <trkpt lat="49.19624" lon="6.95165">
        <ele>327</ele>
        <time>2011-04-05T11:42:17Z</time>
      </trkpt>
      <trkpt lat="49.19626" lon="6.95164">
        <ele>327</ele>
        <time>2011-04-05T11:42:18Z</time>
      </trkpt>
      <trkpt lat="49.19627" lon="6.95163">
        <ele>327</ele>
        <time>2011-04-05T11:42:19Z</time>
      </trkpt>
      <trkpt lat="49.19629" lon="6.95163">
        <ele>327</ele>
        <time>2011-04-05T11:42:20Z</time>
      </trkpt>
      <trkpt lat="49.1963" lon="6.95163">
        <ele>327</ele>
        <time>2011-04-05T11:42:21Z</time>
      </trkpt>
      <trkpt lat="49.19631" lon="6.95163">
        <ele>327</ele>
        <time>2011-04-05T11:42:22Z</time>
      </trkpt>
      <trkpt lat="49.19632" lon="6.95163">
        <ele>327</ele>
        <time>2011-04-05T11:42:23Z</time>
      </trkpt>
      <trkpt lat="49.19634" lon="6.95162">
        <ele>327</ele>
        <time>2011-04-05T11:42:24Z</time>
      </trkpt>
      <trkpt lat="49.19635" lon="6.95162">
        <ele>327</ele>
        <time>2011-04-05T11:42:25Z</time>
      </trkpt>
      <trkpt lat="49.19636" lon="6.95162">
        <ele>327</ele>
        <time>2011-04-05T11:42:27Z</time>
      </trkpt>
      <trkpt lat="49.19637" lon="6.95161">
        <ele>327</ele>
        <time>2011-04-05T11:42:42Z</time>
      </trkpt>
      <trkpt lat="49.19639" lon="6.95161">
        <ele>327</ele>
        <time>2011-04-05T11:42:44Z</time>
      </trkpt>
      <trkpt lat="49.1964" lon="6.9516">
        <ele>327</ele>
        <time>2011-04-05T11:42:46Z</time>
      </trkpt>
      <trkpt lat="49.19642" lon="6.95158">
        <ele>327</ele>
        <time>2011-04-05T11:42:54Z</time>
      </trkpt>
      <trkpt lat="49.19643" lon="6.95156">
        <ele>327</ele>
        <time>2011-04-05T11:42:56Z</time>
      </trkpt>
      <trkpt lat="49.19643" lon="6.95153">
        <ele>327</ele>
        <time>2011-04-05T11:42:58Z</time>
      </trkpt>
      <trkpt lat="49.19643" lon="6.95152">
        <ele>327</ele>
        <time>2011-04-05T11:42:59Z</time>
      </trkpt>
      <trkpt lat="49.19643" lon="6.9515">
        <ele>327</ele>
        <time>2011-04-05T11:43:00Z</time>
      </trkpt>
      <trkpt lat="49.19643" lon="6.95148">
        <ele>327</ele>
        <time>2011-04-05T11:43:01Z</time>
      </trkpt>
      <trkpt lat="49.19643" lon="6.95146">
        <ele>327</ele>
        <time>2011-04-05T11:43:02Z</time>
      </trkpt>
      <trkpt lat="49.19643" lon="6.95144">
        <ele>327</ele>
        <time>2011-04-05T11:43:03Z</time>
      </trkpt>
      <trkpt lat="49.19643" lon="6.95142">
        <ele>327</ele>
        <time>2011-04-05T11:43:04Z</time>
      </trkpt>
      <trkpt lat="49.19643" lon="6.9514">
        <ele>327</ele>
        <time>2011-04-05T11:43:05Z</time>
      </trkpt>
      <trkpt lat="49.19643" lon="6.95138">
        <ele>327</ele>
        <time>2011-04-05T11:43:06Z</time>
      </trkpt>
      <trkpt lat="49.19642" lon="6.95135">
        <ele>327</ele>
        <time>2011-04-05T11:43:07Z</time>
      </trkpt>
      <trkpt lat="49.19642" lon="6.95133">
        <ele>327</ele>
        <time>2011-04-05T11:43:08Z</time>
      </trkpt>
      <trkpt lat="49.19642" lon="6.95131">
        <ele>327</ele>
        <time>2011-04-05T11:43:09Z</time>
      </trkpt>
      <trkpt lat="49.19642" lon="6.95129">
        <ele>327</ele>
        <time>2011-04-05T11:43:10Z</time>
      </trkpt>
      <trkpt lat="49.19642" lon="6.95128">
        <ele>327</ele>
        <time>2011-04-05T11:43:11Z</time>
      </trkpt>
      <trkpt lat="49.19642" lon="6.95126">
        <ele>327</ele>
        <time>2011-04-05T11:43:12Z</time>
      </trkpt>
      <trkpt lat="49.19642" lon="6.95124">
        <ele>327</ele>
        <time>2011-04-05T11:43:13Z</time>
      </trkpt>
      <trkpt lat="49.19642" lon="6.95122">
        <ele>327</ele>
        <time>2011-04-05T11:43:14Z</time>
      </trkpt>
      <trkpt lat="49.19642" lon="6.95121">
        <ele>327</ele>
        <time>2011-04-05T11:43:15Z</time>
      </trkpt>
      <trkpt lat="49.19642" lon="6.95119">
        <ele>327</ele>
        <time>2011-04-05T11:43:16Z</time>
      </trkpt>
      <trkpt lat="49.19641" lon="6.95116">
        <ele>327</ele>
        <time>2011-04-05T11:43:18Z</time>
      </trkpt>
      <trkpt lat="49.19641" lon="6.95113">
        <ele>326</ele>
        <time>2011-04-05T11:43:20Z</time>
      </trkpt>
      <trkpt lat="49.19642" lon="6.95112">
        <ele>326</ele>
        <time>2011-04-05T11:43:21Z</time>
      </trkpt>
      <trkpt lat="49.19642" lon="6.9511">
        <ele>325</ele>
        <time>2011-04-05T11:43:22Z</time>
      </trkpt>
      <trkpt lat="49.19642" lon="6.95108">
        <ele>325</ele>
        <time>2011-04-05T11:43:23Z</time>
      </trkpt>
      <trkpt lat="49.19643" lon="6.95106">
        <ele>323</ele>
        <time>2011-04-05T11:43:25Z</time>
      </trkpt>
      <trkpt lat="49.19645" lon="6.95104">
        <ele>323</ele>
        <time>2011-04-05T11:43:27Z</time>
      </trkpt>
      <trkpt lat="49.19648" lon="6.95102">
        <ele>323</ele>
        <time>2011-04-05T11:43:29Z</time>
      </trkpt>
      <trkpt lat="49.19649" lon="6.95099">
        <ele>323</ele>
        <time>2011-04-05T11:43:31Z</time>
      </trkpt>
      <trkpt lat="49.19651" lon="6.95097">
        <ele>323</ele>
        <time>2011-04-05T11:43:33Z</time>
      </trkpt>
      <trkpt lat="49.19652" lon="6.95097">
        <ele>323</ele>
        <time>2011-04-05T11:43:34Z</time>
      </trkpt>
      <trkpt lat="49.19653" lon="6.95098">
        <ele>323</ele>
        <time>2011-04-05T11:43:35Z</time>
      </trkpt>
      <trkpt lat="49.19655" lon="6.95097">
        <ele>323</ele>
        <time>2011-04-05T11:43:37Z</time>
      </trkpt>
      <trkpt lat="49.19656" lon="6.95096">
        <ele>323</ele>
        <time>2011-04-05T11:43:39Z</time>
      </trkpt>
      <trkpt lat="49.19658" lon="6.95096">
        <ele>323</ele>
        <time>2011-04-05T11:43:40Z</time>
      </trkpt>
      <trkpt lat="49.1966" lon="6.95095">
        <ele>323</ele>
        <time>2011-04-05T11:43:42Z</time>
      </trkpt>
      <trkpt lat="49.19661" lon="6.95095">
        <ele>323</ele>
        <time>2011-04-05T11:43:43Z</time>
      </trkpt>
      <trkpt lat="49.19662" lon="6.95095">
        <ele>323</ele>
        <time>2011-04-05T11:43:44Z</time>
      </trkpt>
      <trkpt lat="49.19664" lon="6.95094">
        <ele>323</ele>
        <time>2011-04-05T11:43:46Z</time>
      </trkpt>
      <trkpt lat="49.19666" lon="6.95094">
        <ele>324</ele>
        <time>2011-04-05T11:43:47Z</time>
      </trkpt>
      <trkpt lat="49.19667" lon="6.95095">
        <ele>324</ele>
        <time>2011-04-05T11:43:48Z</time>
      </trkpt>
      <trkpt lat="49.19668" lon="6.95096">
        <ele>325</ele>
        <time>2011-04-05T11:43:49Z</time>
      </trkpt>
      <trkpt lat="49.1967" lon="6.95096">
        <ele>325</ele>
        <time>2011-04-05T11:43:50Z</time>
      </trkpt>
      <trkpt lat="49.19672" lon="6.95097">
        <ele>326</ele>
        <time>2011-04-05T11:43:51Z</time>
      </trkpt>
      <trkpt lat="49.19674" lon="6.95098">
        <ele>327</ele>
        <time>2011-04-05T11:43:53Z</time>
      </trkpt>
      <trkpt lat="49.19676" lon="6.95101">
        <ele>327</ele>
        <time>2011-04-05T11:43:55Z</time>
      </trkpt>
      <trkpt lat="49.19677" lon="6.95102">
        <ele>328</ele>
        <time>2011-04-05T11:43:56Z</time>
      </trkpt>
      <trkpt lat="49.19678" lon="6.95103">
        <ele>328</ele>
        <time>2011-04-05T11:43:57Z</time>
      </trkpt>
      <trkpt lat="49.1968" lon="6.95104">
        <ele>328</ele>
        <time>2011-04-05T11:43:58Z</time>
      </trkpt>
      <trkpt lat="49.19681" lon="6.95106">
        <ele>329</ele>
        <time>2011-04-05T11:43:59Z</time>
      </trkpt>
      <trkpt lat="49.19682" lon="6.95107">
        <ele>329</ele>
        <time>2011-04-05T11:44:00Z</time>
      </trkpt>
      <trkpt lat="49.19685" lon="6.95109">
        <ele>330</ele>
        <time>2011-04-05T11:44:02Z</time>
      </trkpt>
      <trkpt lat="49.19686" lon="6.95112">
        <ele>330</ele>
        <time>2011-04-05T11:44:04Z</time>
      </trkpt>
      <trkpt lat="49.19687" lon="6.95114">
        <ele>331</ele>
        <time>2011-04-05T11:44:05Z</time>
      </trkpt>
      <trkpt lat="49.19688" lon="6.95116">
        <ele>331</ele>
        <time>2011-04-05T11:44:06Z</time>
      </trkpt>
      <trkpt lat="49.1969" lon="6.95119">
        <ele>332</ele>
        <time>2011-04-05T11:44:08Z</time>
      </trkpt>
      <trkpt lat="49.19691" lon="6.95122">
        <ele>332</ele>
        <time>2011-04-05T11:44:10Z</time>
      </trkpt>
      <trkpt lat="49.19692" lon="6.95123">
        <ele>332</ele>
        <time>2011-04-05T11:44:11Z</time>
      </trkpt>
      <trkpt lat="49.19692" lon="6.95125">
        <ele>332</ele>
        <time>2011-04-05T11:44:12Z</time>
      </trkpt>
      <trkpt lat="49.19693" lon="6.95127">
        <ele>332</ele>
        <time>2011-04-05T11:44:13Z</time>
      </trkpt>
      <trkpt lat="49.19694" lon="6.95128">
        <ele>332</ele>
        <time>2011-04-05T11:44:14Z</time>
      </trkpt>
      <trkpt lat="49.19695" lon="6.9513">
        <ele>332</ele>
        <time>2011-04-05T11:44:15Z</time>
      </trkpt>
      <trkpt lat="49.19696" lon="6.95132">
        <ele>332</ele>
        <time>2011-04-05T11:44:16Z</time>
      </trkpt>
      <trkpt lat="49.19697" lon="6.95134">
        <ele>332</ele>
        <time>2011-04-05T11:44:17Z</time>
      </trkpt>
      <trkpt lat="49.19698" lon="6.95136">
        <ele>332</ele>
        <time>2011-04-05T11:44:18Z</time>
      </trkpt>
      <trkpt lat="49.19698" lon="6.95138">
        <ele>332</ele>
        <time>2011-04-05T11:44:19Z</time>
      </trkpt>
      <trkpt lat="49.19699" lon="6.9514">
        <ele>332</ele>
        <time>2011-04-05T11:44:20Z</time>
      </trkpt>
      <trkpt lat="49.19701" lon="6.95143">
        <ele>332</ele>
        <time>2011-04-05T11:44:22Z</time>
      </trkpt>
      <trkpt lat="49.19701" lon="6.95145">
        <ele>332</ele>
        <time>2011-04-05T11:44:23Z</time>
      </trkpt>
      <trkpt lat="49.19702" lon="6.95147">
        <ele>332</ele>
        <time>2011-04-05T11:44:24Z</time>
      </trkpt>
      <trkpt lat="49.19702" lon="6.95148">
        <ele>332</ele>
        <time>2011-04-05T11:44:25Z</time>
      </trkpt>
      <trkpt lat="49.19703" lon="6.9515">
        <ele>332</ele>
        <time>2011-04-05T11:44:26Z</time>
      </trkpt>
      <trkpt lat="49.19704" lon="6.95152">
        <ele>332</ele>
        <time>2011-04-05T11:44:27Z</time>
      </trkpt>
      <trkpt lat="49.19705" lon="6.95154">
        <ele>332</ele>
        <time>2011-04-05T11:44:28Z</time>
      </trkpt>
      <trkpt lat="49.19705" lon="6.95156">
        <ele>332</ele>
        <time>2011-04-05T11:44:29Z</time>
      </trkpt>
      <trkpt lat="49.19707" lon="6.95159">
        <ele>332</ele>
        <time>2011-04-05T11:44:31Z</time>
      </trkpt>
      <trkpt lat="49.19707" lon="6.95161">
        <ele>332</ele>
        <time>2011-04-05T11:44:32Z</time>
      </trkpt>
      <trkpt lat="49.19709" lon="6.95163">
        <ele>332</ele>
        <time>2011-04-05T11:44:33Z</time>
      </trkpt>
      <trkpt lat="49.19709" lon="6.95165">
        <ele>333</ele>
        <time>2011-04-05T11:44:34Z</time>
      </trkpt>
      <trkpt lat="49.19709" lon="6.95167">
        <ele>333</ele>
        <time>2011-04-05T11:44:35Z</time>
      </trkpt>
      <trkpt lat="49.19709" lon="6.95169">
        <ele>333</ele>
        <time>2011-04-05T11:44:36Z</time>
      </trkpt>
      <trkpt lat="49.1971" lon="6.95171">
        <ele>333</ele>
        <time>2011-04-05T11:44:38Z</time>
      </trkpt>
      <trkpt lat="49.19713" lon="6.95172">
        <ele>334</ele>
        <time>2011-04-05T11:44:40Z</time>
      </trkpt>
      <trkpt lat="49.19714" lon="6.95173">
        <ele>335</ele>
        <time>2011-04-05T11:44:42Z</time>
      </trkpt>
      <trkpt lat="49.19716" lon="6.95174">
        <ele>337</ele>
        <time>2011-04-05T11:44:44Z</time>
      </trkpt>
      <trkpt lat="49.19717" lon="6.95176">
        <ele>338</ele>
        <time>2011-04-05T11:44:47Z</time>
      </trkpt>
      <trkpt lat="49.19719" lon="6.95179">
        <ele>339</ele>
        <time>2011-04-05T11:44:49Z</time>
      </trkpt>
      <trkpt lat="49.19719" lon="6.95181">
        <ele>339</ele>
        <time>2011-04-05T11:44:51Z</time>
      </trkpt>
      <trkpt lat="49.1972" lon="6.95183">
        <ele>339</ele>
        <time>2011-04-05T11:44:52Z</time>
      </trkpt>
      <trkpt lat="49.19721" lon="6.95185">
        <ele>339</ele>
        <time>2011-04-05T11:44:53Z</time>
      </trkpt>
      <trkpt lat="49.19722" lon="6.95188">
        <ele>339</ele>
        <time>2011-04-05T11:44:55Z</time>
      </trkpt>
      <trkpt lat="49.19724" lon="6.9519">
        <ele>339</ele>
        <time>2011-04-05T11:44:57Z</time>
      </trkpt>
      <trkpt lat="49.19725" lon="6.95192">
        <ele>339</ele>
        <time>2011-04-05T11:44:59Z</time>
      </trkpt>
      <trkpt lat="49.19726" lon="6.95195">
        <ele>339</ele>
        <time>2011-04-05T11:45:01Z</time>
      </trkpt>
      <trkpt lat="49.19727" lon="6.95197">
        <ele>339</ele>
        <time>2011-04-05T11:45:02Z</time>
      </trkpt>
      <trkpt lat="49.19727" lon="6.95199">
        <ele>339</ele>
        <time>2011-04-05T11:45:03Z</time>
      </trkpt>
      <trkpt lat="49.19728" lon="6.952">
        <ele>339</ele>
        <time>2011-04-05T11:45:04Z</time>
      </trkpt>
      <trkpt lat="49.1973" lon="6.95201">
        <ele>339</ele>
        <time>2011-04-05T11:45:05Z</time>
      </trkpt>
      <trkpt lat="49.19732" lon="6.95204">
        <ele>339</ele>
        <time>2011-04-05T11:45:07Z</time>
      </trkpt>
      <trkpt lat="49.19732" lon="6.95206">
        <ele>339</ele>
        <time>2011-04-05T11:45:08Z</time>
      </trkpt>
      <trkpt lat="49.19734" lon="6.95209">
        <ele>339</ele>
        <time>2011-04-05T11:45:10Z</time>
      </trkpt>
      <trkpt lat="49.19734" lon="6.95211">
        <ele>339</ele>
        <time>2011-04-05T11:45:11Z</time>
      </trkpt>
      <trkpt lat="49.19736" lon="6.95214">
        <ele>339</ele>
        <time>2011-04-05T11:45:13Z</time>
      </trkpt>
      <trkpt lat="49.19738" lon="6.95215">
        <ele>339</ele>
        <time>2011-04-05T11:45:14Z</time>
      </trkpt>
      <trkpt lat="49.1974" lon="6.95217">
        <ele>339</ele>
        <time>2011-04-05T11:45:16Z</time>
      </trkpt>
      <trkpt lat="49.19742" lon="6.95219">
        <ele>339</ele>
        <time>2011-04-05T11:45:18Z</time>
      </trkpt>
      <trkpt lat="49.19743" lon="6.95221">
        <ele>339</ele>
        <time>2011-04-05T11:45:20Z</time>
      </trkpt>
      <trkpt lat="49.19745" lon="6.95221">
        <ele>339</ele>
        <time>2011-04-05T11:45:21Z</time>
      </trkpt>
      <trkpt lat="49.19746" lon="6.95222">
        <ele>339</ele>
        <time>2011-04-05T11:45:22Z</time>
      </trkpt>
      <trkpt lat="49.19748" lon="6.95223">
        <ele>339</ele>
        <time>2011-04-05T11:45:23Z</time>
      </trkpt>
      <trkpt lat="49.19749" lon="6.95223">
        <ele>339</ele>
        <time>2011-04-05T11:45:24Z</time>
      </trkpt>
      <trkpt lat="49.19751" lon="6.95223">
        <ele>339</ele>
        <time>2011-04-05T11:45:25Z</time>
      </trkpt>
      <trkpt lat="49.19752" lon="6.95224">
        <ele>339</ele>
        <time>2011-04-05T11:45:26Z</time>
      </trkpt>
      <trkpt lat="49.19755" lon="6.95222">
        <ele>339</ele>
        <time>2011-04-05T11:45:28Z</time>
      </trkpt>
      <trkpt lat="49.19756" lon="6.95221">
        <ele>339</ele>
        <time>2011-04-05T11:45:29Z</time>
      </trkpt>
      <trkpt lat="49.19758" lon="6.95219">
        <ele>339</ele>
        <time>2011-04-05T11:45:31Z</time>
      </trkpt>
      <trkpt lat="49.19759" lon="6.95218">
        <ele>339</ele>
        <time>2011-04-05T11:45:33Z</time>
      </trkpt>
      <trkpt lat="49.19761" lon="6.95216">
        <ele>339</ele>
        <time>2011-04-05T11:45:34Z</time>
      </trkpt>
      <trkpt lat="49.19763" lon="6.95214">
        <ele>339</ele>
        <time>2011-04-05T11:45:36Z</time>
      </trkpt>
      <trkpt lat="49.19765" lon="6.95213">
        <ele>339</ele>
        <time>2011-04-05T11:45:37Z</time>
      </trkpt>
      <trkpt lat="49.19766" lon="6.95212">
        <ele>339</ele>
        <time>2011-04-05T11:45:38Z</time>
      </trkpt>
      <trkpt lat="49.19768" lon="6.95211">
        <ele>339</ele>
        <time>2011-04-05T11:45:39Z</time>
      </trkpt>
      <trkpt lat="49.19769" lon="6.9521">
        <ele>339</ele>
        <time>2011-04-05T11:45:40Z</time>
      </trkpt>
      <trkpt lat="49.19771" lon="6.95209">
        <ele>339</ele>
        <time>2011-04-05T11:45:41Z</time>
      </trkpt>
      <trkpt lat="49.19772" lon="6.95208">
        <ele>339</ele>
        <time>2011-04-05T11:45:42Z</time>
      </trkpt>
      <trkpt lat="49.19775" lon="6.95207">
        <ele>339</ele>
        <time>2011-04-05T11:45:44Z</time>
      </trkpt>
      <trkpt lat="49.19776" lon="6.95206">
        <ele>338</ele>
        <time>2011-04-05T11:45:45Z</time>
      </trkpt>
      <trkpt lat="49.19777" lon="6.95205">
        <ele>338</ele>
        <time>2011-04-05T11:45:46Z</time>
      </trkpt>
      <trkpt lat="49.19778" lon="6.95204">
        <ele>338</ele>
        <time>2011-04-05T11:45:47Z</time>
      </trkpt>
      <trkpt lat="49.1978" lon="6.95203">
        <ele>338</ele>
        <time>2011-04-05T11:45:48Z</time>
      </trkpt>
      <trkpt lat="49.19781" lon="6.95202">
        <ele>338</ele>
        <time>2011-04-05T11:45:49Z</time>
      </trkpt>
      <trkpt lat="49.19783" lon="6.95202">
        <ele>338</ele>
        <time>2011-04-05T11:45:50Z</time>
      </trkpt>
      <trkpt lat="49.19784" lon="6.95202">
        <ele>338</ele>
        <time>2011-04-05T11:45:51Z</time>
      </trkpt>
      <trkpt lat="49.19786" lon="6.95201">
        <ele>338</ele>
        <time>2011-04-05T11:45:53Z</time>
      </trkpt>
      <trkpt lat="49.19787" lon="6.95201">
        <ele>337</ele>
        <time>2011-04-05T11:45:54Z</time>
      </trkpt>
      <trkpt lat="49.19788" lon="6.952">
        <ele>337</ele>
        <time>2011-04-05T11:45:55Z</time>
      </trkpt>
      <trkpt lat="49.1979" lon="6.952">
        <ele>337</ele>
        <time>2011-04-05T11:45:56Z</time>
      </trkpt>
      <trkpt lat="49.19791" lon="6.95199">
        <ele>337</ele>
        <time>2011-04-05T11:45:57Z</time>
      </trkpt>
      <trkpt lat="49.19792" lon="6.95198">
        <ele>336</ele>
        <time>2011-04-05T11:45:58Z</time>
      </trkpt>
      <trkpt lat="49.19794" lon="6.95197">
        <ele>336</ele>
        <time>2011-04-05T11:45:59Z</time>
      </trkpt>
      <trkpt lat="49.19795" lon="6.95196">
        <ele>336</ele>
        <time>2011-04-05T11:46:00Z</time>
      </trkpt>
      <trkpt lat="49.19796" lon="6.95195">
        <ele>336</ele>
        <time>2011-04-05T11:46:01Z</time>
      </trkpt>
      <trkpt lat="49.19797" lon="6.95195">
        <ele>336</ele>
        <time>2011-04-05T11:46:02Z</time>
      </trkpt>
      <trkpt lat="49.19799" lon="6.95194">
        <ele>335</ele>
        <time>2011-04-05T11:46:03Z</time>
      </trkpt>
      <trkpt lat="49.198" lon="6.95193">
        <ele>335</ele>
        <time>2011-04-05T11:46:04Z</time>
      </trkpt>
      <trkpt lat="49.19802" lon="6.95193">
        <ele>335</ele>
        <time>2011-04-05T11:46:05Z</time>
      </trkpt>
      <trkpt lat="49.19803" lon="6.95193">
        <ele>335</ele>
        <time>2011-04-05T11:46:06Z</time>
      </trkpt>
      <trkpt lat="49.19805" lon="6.95192">
        <ele>335</ele>
        <time>2011-04-05T11:46:07Z</time>
      </trkpt>
      <trkpt lat="49.19807" lon="6.95192">
        <ele>335</ele>
        <time>2011-04-05T11:46:08Z</time>
      </trkpt>
      <trkpt lat="49.19808" lon="6.95192">
        <ele>335</ele>
        <time>2011-04-05T11:46:09Z</time>
      </trkpt>
      <trkpt lat="49.1981" lon="6.95192">
        <ele>335</ele>
        <time>2011-04-05T11:46:11Z</time>
      </trkpt>
      <trkpt lat="49.19812" lon="6.95192">
        <ele>335</ele>
        <time>2011-04-05T11:46:12Z</time>
      </trkpt>
      <trkpt lat="49.19813" lon="6.95193">
        <ele>335</ele>
        <time>2011-04-05T11:46:13Z</time>
      </trkpt>
      <trkpt lat="49.19815" lon="6.95193">
        <ele>335</ele>
        <time>2011-04-05T11:46:14Z</time>
      </trkpt>
      <trkpt lat="49.19817" lon="6.95194">
        <ele>335</ele>
        <time>2011-04-05T11:46:16Z</time>
      </trkpt>
      <trkpt lat="49.1982" lon="6.95194">
        <ele>335</ele>
        <time>2011-04-05T11:46:17Z</time>
      </trkpt>
      <trkpt lat="49.19822" lon="6.95195">
        <ele>335</ele>
        <time>2011-04-05T11:46:19Z</time>
      </trkpt>
      <trkpt lat="49.19824" lon="6.95196">
        <ele>335</ele>
        <time>2011-04-05T11:46:20Z</time>
      </trkpt>
      <trkpt lat="49.19826" lon="6.95196">
        <ele>335</ele>
        <time>2011-04-05T11:46:21Z</time>
      </trkpt>
      <trkpt lat="49.19828" lon="6.95196">
        <ele>335</ele>
        <time>2011-04-05T11:46:22Z</time>
      </trkpt>
      <trkpt lat="49.19829" lon="6.95196">
        <ele>335</ele>
        <time>2011-04-05T11:46:23Z</time>
      </trkpt>
      <trkpt lat="49.19831" lon="6.95196">
        <ele>335</ele>
        <time>2011-04-05T11:46:24Z</time>
      </trkpt>
      <trkpt lat="49.19832" lon="6.95196">
        <ele>335</ele>
        <time>2011-04-05T11:46:25Z</time>
      </trkpt>
      <trkpt lat="49.19834" lon="6.95196">
        <ele>335</ele>
        <time>2011-04-05T11:46:26Z</time>
      </trkpt>
      <trkpt lat="49.19835" lon="6.95195">
        <ele>335</ele>
        <time>2011-04-05T11:46:27Z</time>
      </trkpt>
      <trkpt lat="49.19836" lon="6.95195">
        <ele>335</ele>
        <time>2011-04-05T11:46:28Z</time>
      </trkpt>
      <trkpt lat="49.19838" lon="6.95194">
        <ele>335</ele>
        <time>2011-04-05T11:46:29Z</time>
      </trkpt>
      <trkpt lat="49.19839" lon="6.95193">
        <ele>335</ele>
        <time>2011-04-05T11:46:30Z</time>
      </trkpt>
      <trkpt lat="49.1984" lon="6.95193">
        <ele>335</ele>
        <time>2011-04-05T11:46:31Z</time>
      </trkpt>
      <trkpt lat="49.19842" lon="6.95192">
        <ele>335</ele>
        <time>2011-04-05T11:46:32Z</time>
      </trkpt>
      <trkpt lat="49.19843" lon="6.95192">
        <ele>335</ele>
        <time>2011-04-05T11:46:33Z</time>
      </trkpt>
      <trkpt lat="49.19845" lon="6.95192">
        <ele>335</ele>
        <time>2011-04-05T11:46:34Z</time>
      </trkpt>
      <trkpt lat="49.19846" lon="6.95192">
        <ele>335</ele>
        <time>2011-04-05T11:46:35Z</time>
      </trkpt>
      <trkpt lat="49.19848" lon="6.95192">
        <ele>335</ele>
        <time>2011-04-05T11:46:36Z</time>
      </trkpt>
      <trkpt lat="49.1985" lon="6.95192">
        <ele>335</ele>
        <time>2011-04-05T11:46:37Z</time>
      </trkpt>
      <trkpt lat="49.19852" lon="6.95192">
        <ele>335</ele>
        <time>2011-04-05T11:46:38Z</time>
      </trkpt>
      <trkpt lat="49.19853" lon="6.95191">
        <ele>335</ele>
        <time>2011-04-05T11:46:39Z</time>
      </trkpt>
      <trkpt lat="49.19854" lon="6.95191">
        <ele>335</ele>
        <time>2011-04-05T11:46:40Z</time>
      </trkpt>
      <trkpt lat="49.19856" lon="6.95191">
        <ele>335</ele>
        <time>2011-04-05T11:46:41Z</time>
      </trkpt>
      <trkpt lat="49.19857" lon="6.9519">
        <ele>335</ele>
        <time>2011-04-05T11:46:42Z</time>
      </trkpt>
      <trkpt lat="49.19859" lon="6.95189">
        <ele>335</ele>
        <time>2011-04-05T11:46:43Z</time>
      </trkpt>
      <trkpt lat="49.1986" lon="6.95186">
        <ele>335</ele>
        <time>2011-04-05T11:46:45Z</time>
      </trkpt>
      <trkpt lat="49.19862" lon="6.95185">
        <ele>335</ele>
        <time>2011-04-05T11:46:46Z</time>
      </trkpt>
      <trkpt lat="49.19864" lon="6.95183">
        <ele>335</ele>
        <time>2011-04-05T11:46:48Z</time>
      </trkpt>
      <trkpt lat="49.19864" lon="6.9518">
        <ele>335</ele>
        <time>2011-04-05T11:46:49Z</time>
      </trkpt>
      <trkpt lat="49.19864" lon="6.95178">
        <ele>335</ele>
        <time>2011-04-05T11:46:50Z</time>
      </trkpt>
      <trkpt lat="49.19864" lon="6.95176">
        <ele>335</ele>
        <time>2011-04-05T11:46:51Z</time>
      </trkpt>
      <trkpt lat="49.19864" lon="6.95174">
        <ele>335</ele>
        <time>2011-04-05T11:46:52Z</time>
      </trkpt>
      <trkpt lat="49.19863" lon="6.95172">
        <ele>335</ele>
        <time>2011-04-05T11:46:54Z</time>
      </trkpt>
      <trkpt lat="49.19863" lon="6.9517">
        <ele>335</ele>
        <time>2011-04-05T11:46:55Z</time>
      </trkpt>
      <trkpt lat="49.19863" lon="6.95168">
        <ele>335</ele>
        <time>2011-04-05T11:46:57Z</time>
      </trkpt>
      <trkpt lat="49.19862" lon="6.95165">
        <ele>335</ele>
        <time>2011-04-05T11:46:59Z</time>
      </trkpt>
      <trkpt lat="49.19861" lon="6.95162">
        <ele>335</ele>
        <time>2011-04-05T11:47:01Z</time>
      </trkpt>
      <trkpt lat="49.1986" lon="6.95159">
        <ele>335</ele>
        <time>2011-04-05T11:47:03Z</time>
      </trkpt>
      <trkpt lat="49.1986" lon="6.95157">
        <ele>334</ele>
        <time>2011-04-05T11:47:04Z</time>
      </trkpt>
      <trkpt lat="49.19859" lon="6.95155">
        <ele>333</ele>
        <time>2011-04-05T11:47:05Z</time>
      </trkpt>
      <trkpt lat="49.19859" lon="6.95153">
        <ele>333</ele>
        <time>2011-04-05T11:47:06Z</time>
      </trkpt>
      <trkpt lat="49.19859" lon="6.95151">
        <ele>332</ele>
        <time>2011-04-05T11:47:07Z</time>
      </trkpt>
      <trkpt lat="49.19858" lon="6.95149">
        <ele>332</ele>
        <time>2011-04-05T11:47:08Z</time>
      </trkpt>
      <trkpt lat="49.19858" lon="6.95146">
        <ele>331</ele>
        <time>2011-04-05T11:47:09Z</time>
      </trkpt>
      <trkpt lat="49.19857" lon="6.95145">
        <ele>331</ele>
        <time>2011-04-05T11:47:10Z</time>
      </trkpt>
      <trkpt lat="49.19857" lon="6.95142">
        <ele>329</ele>
        <time>2011-04-05T11:47:12Z</time>
      </trkpt>
      <trkpt lat="49.19856" lon="6.9514">
        <ele>329</ele>
        <time>2011-04-05T11:47:13Z</time>
      </trkpt>
      <trkpt lat="49.19856" lon="6.95139">
        <ele>328</ele>
        <time>2011-04-05T11:47:14Z</time>
      </trkpt>
      <trkpt lat="49.19856" lon="6.95137">
        <ele>327</ele>
        <time>2011-04-05T11:47:15Z</time>
      </trkpt>
      <trkpt lat="49.19855" lon="6.95134">
        <ele>327</ele>
        <time>2011-04-05T11:47:17Z</time>
      </trkpt>
      <trkpt lat="49.19853" lon="6.95131">
        <ele>326</ele>
        <time>2011-04-05T11:47:19Z</time>
      </trkpt>
      <trkpt lat="49.19852" lon="6.95129">
        <ele>326</ele>
        <time>2011-04-05T11:47:21Z</time>
      </trkpt>
      <trkpt lat="49.19851" lon="6.95128">
        <ele>326</ele>
        <time>2011-04-05T11:47:22Z</time>
      </trkpt>
      <trkpt lat="49.19849" lon="6.95125">
        <ele>326</ele>
        <time>2011-04-05T11:47:24Z</time>
      </trkpt>
      <trkpt lat="49.19849" lon="6.95123">
        <ele>326</ele>
        <time>2011-04-05T11:47:25Z</time>
      </trkpt>
      <trkpt lat="49.19848" lon="6.95121">
        <ele>326</ele>
        <time>2011-04-05T11:47:26Z</time>
      </trkpt>
      <trkpt lat="49.19846" lon="6.95119">
        <ele>326</ele>
        <time>2011-04-05T11:47:28Z</time>
      </trkpt>
      <trkpt lat="49.19844" lon="6.95117">
        <ele>326</ele>
        <time>2011-04-05T11:47:30Z</time>
      </trkpt>
      <trkpt lat="49.19842" lon="6.95114">
        <ele>326</ele>
        <time>2011-04-05T11:47:32Z</time>
      </trkpt>
      <trkpt lat="49.19841" lon="6.95113">
        <ele>326</ele>
        <time>2011-04-05T11:47:33Z</time>
      </trkpt>
      <trkpt lat="49.1984" lon="6.95111">
        <ele>325</ele>
        <time>2011-04-05T11:47:34Z</time>
      </trkpt>
      <trkpt lat="49.19838" lon="6.95111">
        <ele>324</ele>
        <time>2011-04-05T11:47:35Z</time>
      </trkpt>
      <trkpt lat="49.19837" lon="6.9511">
        <ele>323</ele>
        <time>2011-04-05T11:47:36Z</time>
      </trkpt>
      <trkpt lat="49.19835" lon="6.95108">
        <ele>322</ele>
        <time>2011-04-05T11:47:38Z</time>
      </trkpt>
      <trkpt lat="49.19833" lon="6.95106">
        <ele>321</ele>
        <time>2011-04-05T11:47:39Z</time>
      </trkpt>
      <trkpt lat="49.19832" lon="6.95105">
        <ele>320</ele>
        <time>2011-04-05T11:47:40Z</time>
      </trkpt>
      <trkpt lat="49.19831" lon="6.95104">
        <ele>320</ele>
        <time>2011-04-05T11:47:41Z</time>
      </trkpt>
      <trkpt lat="49.1983" lon="6.95103">
        <ele>319</ele>
        <time>2011-04-05T11:47:42Z</time>
      </trkpt>
      <trkpt lat="49.19829" lon="6.951">
        <ele>319</ele>
        <time>2011-04-05T11:47:43Z</time>
      </trkpt>
      <trkpt lat="49.19828" lon="6.95098">
        <ele>318</ele>
        <time>2011-04-05T11:47:44Z</time>
      </trkpt>
      <trkpt lat="49.19826" lon="6.95095">
        <ele>318</ele>
        <time>2011-04-05T11:47:46Z</time>
      </trkpt>
      <trkpt lat="49.19825" lon="6.95094">
        <ele>317</ele>
        <time>2011-04-05T11:47:47Z</time>
      </trkpt>
      <trkpt lat="49.19823" lon="6.95094">
        <ele>317</ele>
        <time>2011-04-05T11:47:48Z</time>
      </trkpt>
      <trkpt lat="49.19822" lon="6.95092">
        <ele>317</ele>
        <time>2011-04-05T11:47:49Z</time>
      </trkpt>
      <trkpt lat="49.19821" lon="6.9509">
        <ele>316</ele>
        <time>2011-04-05T11:47:50Z</time>
      </trkpt>
      <trkpt lat="49.1982" lon="6.95089">
        <ele>316</ele>
        <time>2011-04-05T11:47:51Z</time>
      </trkpt>
      <trkpt lat="49.19818" lon="6.95086">
        <ele>315</ele>
        <time>2011-04-05T11:47:53Z</time>
      </trkpt>
      <trkpt lat="49.19816" lon="6.95083">
        <ele>315</ele>
        <time>2011-04-05T11:47:55Z</time>
      </trkpt>
      <trkpt lat="49.19815" lon="6.95082">
        <ele>314</ele>
        <time>2011-04-05T11:47:56Z</time>
      </trkpt>
      <trkpt lat="49.19814" lon="6.9508">
        <ele>313</ele>
        <time>2011-04-05T11:47:57Z</time>
      </trkpt>
      <trkpt lat="49.19812" lon="6.95079">
        <ele>313</ele>
        <time>2011-04-05T11:47:58Z</time>
      </trkpt>
      <trkpt lat="49.19811" lon="6.95077">
        <ele>312</ele>
        <time>2011-04-05T11:47:59Z</time>
      </trkpt>
      <trkpt lat="49.1981" lon="6.95074">
        <ele>311</ele>
        <time>2011-04-05T11:48:00Z</time>
      </trkpt>
      <trkpt lat="49.19808" lon="6.95072">
        <ele>310</ele>
        <time>2011-04-05T11:48:02Z</time>
      </trkpt>
      <trkpt lat="49.19807" lon="6.95072">
        <ele>310</ele>
        <time>2011-04-05T11:48:03Z</time>
      </trkpt>
      <trkpt lat="49.19806" lon="6.9507">
        <ele>310</ele>
        <time>2011-04-05T11:48:04Z</time>
      </trkpt>
      <trkpt lat="49.19804" lon="6.95071">
        <ele>310</ele>
        <time>2011-04-05T11:48:05Z</time>
      </trkpt>
      <trkpt lat="49.19802" lon="6.95071">
        <ele>310</ele>
        <time>2011-04-05T11:48:06Z</time>
      </trkpt>
      <trkpt lat="49.198" lon="6.95068">
        <ele>310</ele>
        <time>2011-04-05T11:48:08Z</time>
      </trkpt>
      <trkpt lat="49.19798" lon="6.95066">
        <ele>310</ele>
        <time>2011-04-05T11:48:09Z</time>
      </trkpt>
      <trkpt lat="49.19797" lon="6.95064">
        <ele>310</ele>
        <time>2011-04-05T11:48:10Z</time>
      </trkpt>
      <trkpt lat="49.19796" lon="6.95062">
        <ele>310</ele>
        <time>2011-04-05T11:48:11Z</time>
      </trkpt>
      <trkpt lat="49.19795" lon="6.95061">
        <ele>310</ele>
        <time>2011-04-05T11:48:12Z</time>
      </trkpt>
      <trkpt lat="49.19793" lon="6.95059">
        <ele>310</ele>
        <time>2011-04-05T11:48:13Z</time>
      </trkpt>
      <trkpt lat="49.19793" lon="6.95057">
        <ele>310</ele>
        <time>2011-04-05T11:48:14Z</time>
      </trkpt>
      <trkpt lat="49.19792" lon="6.95054">
        <ele>310</ele>
        <time>2011-04-05T11:48:16Z</time>
      </trkpt>
      <trkpt lat="49.19791" lon="6.95051">
        <ele>310</ele>
        <time>2011-04-05T11:48:18Z</time>
      </trkpt>
      <trkpt lat="49.19791" lon="6.95049">
        <ele>310</ele>
        <time>2011-04-05T11:48:19Z</time>
      </trkpt>
      <trkpt lat="49.19791" lon="6.95046">
        <ele>309</ele>
        <time>2011-04-05T11:48:20Z</time>
      </trkpt>
      <trkpt lat="49.19791" lon="6.95044">
        <ele>309</ele>
        <time>2011-04-05T11:48:21Z</time>
      </trkpt>
      <trkpt lat="49.1979" lon="6.95041">
        <ele>308</ele>
        <time>2011-04-05T11:48:22Z</time>
      </trkpt>
      <trkpt lat="49.1979" lon="6.95038">
        <ele>308</ele>
        <time>2011-04-05T11:48:23Z</time>
      </trkpt>
      <trkpt lat="49.19789" lon="6.95036">
        <ele>307</ele>
        <time>2011-04-05T11:48:24Z</time>
      </trkpt>
      <trkpt lat="49.19788" lon="6.95034">
        <ele>306</ele>
        <time>2011-04-05T11:48:25Z</time>
      </trkpt>
      <trkpt lat="49.19788" lon="6.95032">
        <ele>305</ele>
        <time>2011-04-05T11:48:26Z</time>
      </trkpt>
      <trkpt lat="49.19787" lon="6.9503">
        <ele>304</ele>
        <time>2011-04-05T11:48:27Z</time>
      </trkpt>
      <trkpt lat="49.19787" lon="6.95028">
        <ele>303</ele>
        <time>2011-04-05T11:48:28Z</time>
      </trkpt>
      <trkpt lat="49.19786" lon="6.95025">
        <ele>301</ele>
        <time>2011-04-05T11:48:30Z</time>
      </trkpt>
      <trkpt lat="49.19785" lon="6.95023">
        <ele>301</ele>
        <time>2011-04-05T11:48:31Z</time>
      </trkpt>
      <trkpt lat="49.19785" lon="6.95021">
        <ele>300</ele>
        <time>2011-04-05T11:48:32Z</time>
      </trkpt>
      <trkpt lat="49.19785" lon="6.9502">
        <ele>300</ele>
        <time>2011-04-05T11:48:33Z</time>
      </trkpt>
      <trkpt lat="49.19784" lon="6.95018">
        <ele>299</ele>
        <time>2011-04-05T11:48:34Z</time>
      </trkpt>
      <trkpt lat="49.19783" lon="6.95016">
        <ele>298</ele>
        <time>2011-04-05T11:48:35Z</time>
      </trkpt>
      <trkpt lat="49.19783" lon="6.95014">
        <ele>298</ele>
        <time>2011-04-05T11:48:36Z</time>
      </trkpt>
      <trkpt lat="49.19783" lon="6.95012">
        <ele>297</ele>
        <time>2011-04-05T11:48:37Z</time>
      </trkpt>
      <trkpt lat="49.19782" lon="6.9501">
        <ele>297</ele>
        <time>2011-04-05T11:48:38Z</time>
      </trkpt>
      <trkpt lat="49.19781" lon="6.95008">
        <ele>296</ele>
        <time>2011-04-05T11:48:39Z</time>
      </trkpt>
      <trkpt lat="49.19781" lon="6.95006">
        <ele>296</ele>
        <time>2011-04-05T11:48:40Z</time>
      </trkpt>
      <trkpt lat="49.19781" lon="6.95004">
        <ele>295</ele>
        <time>2011-04-05T11:48:42Z</time>
      </trkpt>
      <trkpt lat="49.1978" lon="6.95003">
        <ele>295</ele>
        <time>2011-04-05T11:48:44Z</time>
      </trkpt>
      <trkpt lat="49.19778" lon="6.95001">
        <ele>295</ele>
        <time>2011-04-05T11:48:47Z</time>
      </trkpt>
      <trkpt lat="49.19777" lon="6.94999">
        <ele>295</ele>
        <time>2011-04-05T11:48:49Z</time>
      </trkpt>
      <trkpt lat="49.19777" lon="6.94997">
        <ele>295</ele>
        <time>2011-04-05T11:48:50Z</time>
      </trkpt>
      <trkpt lat="49.19776" lon="6.94995">
        <ele>295</ele>
        <time>2011-04-05T11:48:51Z</time>
      </trkpt>
      <trkpt lat="49.19775" lon="6.94994">
        <ele>295</ele>
        <time>2011-04-05T11:48:52Z</time>
      </trkpt>
      <trkpt lat="49.19774" lon="6.9499">
        <ele>295</ele>
        <time>2011-04-05T11:48:53Z</time>
      </trkpt>
      <trkpt lat="49.19772" lon="6.94987">
        <ele>295</ele>
        <time>2011-04-05T11:48:54Z</time>
      </trkpt>
      <trkpt lat="49.1977" lon="6.94984">
        <ele>296</ele>
        <time>2011-04-05T11:48:56Z</time>
      </trkpt>
      <trkpt lat="49.19769" lon="6.9498">
        <ele>297</ele>
        <time>2011-04-05T11:48:57Z</time>
      </trkpt>
      <trkpt lat="49.19768" lon="6.94979">
        <ele>298</ele>
        <time>2011-04-05T11:48:58Z</time>
      </trkpt>
      <trkpt lat="49.19766" lon="6.94977">
        <ele>299</ele>
        <time>2011-04-05T11:48:59Z</time>
      </trkpt>
      <trkpt lat="49.19765" lon="6.94976">
        <ele>300</ele>
        <time>2011-04-05T11:49:00Z</time>
      </trkpt>
      <trkpt lat="49.19764" lon="6.94973">
        <ele>300</ele>
        <time>2011-04-05T11:49:01Z</time>
      </trkpt>
      <trkpt lat="49.19763" lon="6.9497">
        <ele>301</ele>
        <time>2011-04-05T11:49:02Z</time>
      </trkpt>
      <trkpt lat="49.19762" lon="6.94967">
        <ele>301</ele>
        <time>2011-04-05T11:49:03Z</time>
      </trkpt>
      <trkpt lat="49.19762" lon="6.94964">
        <ele>302</ele>
        <time>2011-04-05T11:49:04Z</time>
      </trkpt>
      <trkpt lat="49.19761" lon="6.9496">
        <ele>303</ele>
        <time>2011-04-05T11:49:05Z</time>
      </trkpt>
      <trkpt lat="49.19761" lon="6.94957">
        <ele>304</ele>
        <time>2011-04-05T11:49:06Z</time>
      </trkpt>
      <trkpt lat="49.1976" lon="6.94954">
        <ele>305</ele>
        <time>2011-04-05T11:49:07Z</time>
      </trkpt>
      <trkpt lat="49.19759" lon="6.94952">
        <ele>306</ele>
        <time>2011-04-05T11:49:08Z</time>
      </trkpt>
      <trkpt lat="49.19758" lon="6.9495">
        <ele>307</ele>
        <time>2011-04-05T11:49:09Z</time>
      </trkpt>
      <trkpt lat="49.19756" lon="6.94948">
        <ele>308</ele>
        <time>2011-04-05T11:49:10Z</time>
      </trkpt>
      <trkpt lat="49.19755" lon="6.94946">
        <ele>309</ele>
        <time>2011-04-05T11:49:11Z</time>
      </trkpt>
      <trkpt lat="49.19755" lon="6.94944">
        <ele>310</ele>
        <time>2011-04-05T11:49:12Z</time>
      </trkpt>
      <trkpt lat="49.19754" lon="6.94942">
        <ele>311</ele>
        <time>2011-04-05T11:49:13Z</time>
      </trkpt>
      <trkpt lat="49.19754" lon="6.94939">
        <ele>312</ele>
        <time>2011-04-05T11:49:14Z</time>
      </trkpt>
      <trkpt lat="49.19753" lon="6.94936">
        <ele>313</ele>
        <time>2011-04-05T11:49:15Z</time>
      </trkpt>
      <trkpt lat="49.19751" lon="6.94934">
        <ele>314</ele>
        <time>2011-04-05T11:49:16Z</time>
      </trkpt>
      <trkpt lat="49.1975" lon="6.94933">
        <ele>315</ele>
        <time>2011-04-05T11:49:17Z</time>
      </trkpt>
      <trkpt lat="49.19748" lon="6.94931">
        <ele>316</ele>
        <time>2011-04-05T11:49:19Z</time>
      </trkpt>
      <trkpt lat="49.19747" lon="6.94928">
        <ele>316</ele>
        <time>2011-04-05T11:49:21Z</time>
      </trkpt>
      <trkpt lat="49.19745" lon="6.94926">
        <ele>316</ele>
        <time>2011-04-05T11:49:23Z</time>
      </trkpt>
      <trkpt lat="49.19743" lon="6.94925">
        <ele>316</ele>
        <time>2011-04-05T11:49:24Z</time>
      </trkpt>
      <trkpt lat="49.19742" lon="6.94924">
        <ele>316</ele>
        <time>2011-04-05T11:49:25Z</time>
      </trkpt>
      <trkpt lat="49.19741" lon="6.94924">
        <ele>316</ele>
        <time>2011-04-05T11:49:26Z</time>
      </trkpt>
      <trkpt lat="49.19739" lon="6.9492">
        <ele>316</ele>
        <time>2011-04-05T11:49:28Z</time>
      </trkpt>
      <trkpt lat="49.19738" lon="6.94918">
        <ele>316</ele>
        <time>2011-04-05T11:49:30Z</time>
      </trkpt>
      <trkpt lat="49.19736" lon="6.94916">
        <ele>316</ele>
        <time>2011-04-05T11:49:32Z</time>
      </trkpt>
      <trkpt lat="49.19735" lon="6.94914">
        <ele>314</ele>
        <time>2011-04-05T11:49:34Z</time>
      </trkpt>
      <trkpt lat="49.19735" lon="6.94911">
        <ele>312</ele>
        <time>2011-04-05T11:49:36Z</time>
      </trkpt>
      <trkpt lat="49.19735" lon="6.9491">
        <ele>310</ele>
        <time>2011-04-05T11:49:38Z</time>
      </trkpt>
      <trkpt lat="49.19734" lon="6.94906">
        <ele>306</ele>
        <time>2011-04-05T11:49:47Z</time>
      </trkpt>
      <trkpt lat="49.19733" lon="6.94905">
        <ele>306</ele>
        <time>2011-04-05T11:49:48Z</time>
      </trkpt>
      <trkpt lat="49.1973" lon="6.94905">
        <ele>306</ele>
        <time>2011-04-05T11:49:50Z</time>
      </trkpt>
      <trkpt lat="49.19729" lon="6.94906">
        <ele>306</ele>
        <time>2011-04-05T11:49:51Z</time>
      </trkpt>
      <trkpt lat="49.19727" lon="6.94906">
        <ele>306</ele>
        <time>2011-04-05T11:49:52Z</time>
      </trkpt>
      <trkpt lat="49.19726" lon="6.94906">
        <ele>306</ele>
        <time>2011-04-05T11:49:53Z</time>
      </trkpt>
      <trkpt lat="49.19724" lon="6.94904">
        <ele>306</ele>
        <time>2011-04-05T11:49:55Z</time>
      </trkpt>
      <trkpt lat="49.19723" lon="6.94903">
        <ele>306</ele>
        <time>2011-04-05T11:49:56Z</time>
      </trkpt>
      <trkpt lat="49.19721" lon="6.94903">
        <ele>306</ele>
        <time>2011-04-05T11:49:57Z</time>
      </trkpt>
      <trkpt lat="49.1972" lon="6.94901">
        <ele>306</ele>
        <time>2011-04-05T11:49:58Z</time>
      </trkpt>
      <trkpt lat="49.19718" lon="6.94899">
        <ele>306</ele>
        <time>2011-04-05T11:49:59Z</time>
      </trkpt>
      <trkpt lat="49.19717" lon="6.94897">
        <ele>306</ele>
        <time>2011-04-05T11:50:00Z</time>
      </trkpt>
      <trkpt lat="49.19716" lon="6.94895">
        <ele>306</ele>
        <time>2011-04-05T11:50:01Z</time>
      </trkpt>
      <trkpt lat="49.19714" lon="6.94893">
        <ele>306</ele>
        <time>2011-04-05T11:50:03Z</time>
      </trkpt>
      <trkpt lat="49.19712" lon="6.94891">
        <ele>306</ele>
        <time>2011-04-05T11:50:05Z</time>
      </trkpt>
      <trkpt lat="49.19711" lon="6.94889">
        <ele>306</ele>
        <time>2011-04-05T11:50:06Z</time>
      </trkpt>
      <trkpt lat="49.1971" lon="6.94887">
        <ele>306</ele>
        <time>2011-04-05T11:50:07Z</time>
      </trkpt>
      <trkpt lat="49.19708" lon="6.94884">
        <ele>306</ele>
        <time>2011-04-05T11:50:08Z</time>
      </trkpt>
      <trkpt lat="49.19706" lon="6.94883">
        <ele>306</ele>
        <time>2011-04-05T11:50:09Z</time>
      </trkpt>
      <trkpt lat="49.19705" lon="6.9488">
        <ele>306</ele>
        <time>2011-04-05T11:50:10Z</time>
      </trkpt>
      <trkpt lat="49.19704" lon="6.94877">
        <ele>306</ele>
        <time>2011-04-05T11:50:11Z</time>
      </trkpt>
      <trkpt lat="49.19703" lon="6.94874">
        <ele>307</ele>
        <time>2011-04-05T11:50:12Z</time>
      </trkpt>
      <trkpt lat="49.19701" lon="6.94872">
        <ele>307</ele>
        <time>2011-04-05T11:50:13Z</time>
      </trkpt>
      <trkpt lat="49.19699" lon="6.94869">
        <ele>308</ele>
        <time>2011-04-05T11:50:15Z</time>
      </trkpt>
      <trkpt lat="49.19698" lon="6.94867">
        <ele>308</ele>
        <time>2011-04-05T11:50:17Z</time>
      </trkpt>
      <trkpt lat="49.19697" lon="6.94866">
        <ele>308</ele>
        <time>2011-04-05T11:50:18Z</time>
      </trkpt>
      <trkpt lat="49.19696" lon="6.94864">
        <ele>308</ele>
        <time>2011-04-05T11:50:20Z</time>
      </trkpt>
      <trkpt lat="49.19695" lon="6.94862">
        <ele>308</ele>
        <time>2011-04-05T11:50:22Z</time>
      </trkpt>
      <trkpt lat="49.19693" lon="6.9486">
        <ele>308</ele>
        <time>2011-04-05T11:50:24Z</time>
      </trkpt>
      <trkpt lat="49.19691" lon="6.94858">
        <ele>308</ele>
        <time>2011-04-05T11:50:25Z</time>
      </trkpt>
      <trkpt lat="49.19689" lon="6.94856">
        <ele>308</ele>
        <time>2011-04-05T11:50:27Z</time>
      </trkpt>
      <trkpt lat="49.19688" lon="6.94854">
        <ele>308</ele>
        <time>2011-04-05T11:50:28Z</time>
      </trkpt>
      <trkpt lat="49.19687" lon="6.94851">
        <ele>307</ele>
        <time>2011-04-05T11:50:30Z</time>
      </trkpt>
      <trkpt lat="49.19685" lon="6.94849">
        <ele>306</ele>
        <time>2011-04-05T11:50:32Z</time>
      </trkpt>
      <trkpt lat="49.19684" lon="6.94848">
        <ele>306</ele>
        <time>2011-04-05T11:50:33Z</time>
      </trkpt>
      <trkpt lat="49.19682" lon="6.94846">
        <ele>304</ele>
        <time>2011-04-05T11:50:35Z</time>
      </trkpt>
      <trkpt lat="49.1968" lon="6.94843">
        <ele>303</ele>
        <time>2011-04-05T11:50:37Z</time>
      </trkpt>
      <trkpt lat="49.19679" lon="6.94839">
        <ele>303</ele>
        <time>2011-04-05T11:50:39Z</time>
      </trkpt>
      <trkpt lat="49.19677" lon="6.94837">
        <ele>302</ele>
        <time>2011-04-05T11:50:41Z</time>
      </trkpt>
      <trkpt lat="49.19675" lon="6.94834">
        <ele>301</ele>
        <time>2011-04-05T11:50:43Z</time>
      </trkpt>
      <trkpt lat="49.19674" lon="6.94832">
        <ele>301</ele>
        <time>2011-04-05T11:50:44Z</time>
      </trkpt>
      <trkpt lat="49.19674" lon="6.9483">
        <ele>300</ele>
        <time>2011-04-05T11:50:45Z</time>
      </trkpt>
      <trkpt lat="49.19672" lon="6.94829">
        <ele>299</ele>
        <time>2011-04-05T11:50:47Z</time>
      </trkpt>
      <trkpt lat="49.19671" lon="6.94828">
        <ele>298</ele>
        <time>2011-04-05T11:50:48Z</time>
      </trkpt>
      <trkpt lat="49.19669" lon="6.94827">
        <ele>296</ele>
        <time>2011-04-05T11:50:50Z</time>
      </trkpt>
      <trkpt lat="49.19667" lon="6.94827">
        <ele>295</ele>
        <time>2011-04-05T11:50:51Z</time>
      </trkpt>
      <trkpt lat="49.19665" lon="6.94827">
        <ele>294</ele>
        <time>2011-04-05T11:50:52Z</time>
      </trkpt>
      <trkpt lat="49.19664" lon="6.94825">
        <ele>293</ele>
        <time>2011-04-05T11:50:53Z</time>
      </trkpt>
      <trkpt lat="49.19663" lon="6.94822">
        <ele>291</ele>
        <time>2011-04-05T11:50:55Z</time>
      </trkpt>
      <trkpt lat="49.19661" lon="6.9482">
        <ele>290</ele>
        <time>2011-04-05T11:50:56Z</time>
      </trkpt>
      <trkpt lat="49.1966" lon="6.94817">
        <ele>290</ele>
        <time>2011-04-05T11:50:57Z</time>
      </trkpt>
      <trkpt lat="49.19659" lon="6.94815">
        <ele>290</ele>
        <time>2011-04-05T11:50:58Z</time>
      </trkpt>
      <trkpt lat="49.19659" lon="6.94814">
        <ele>290</ele>
        <time>2011-04-05T11:50:59Z</time>
      </trkpt>
      <trkpt lat="49.19658" lon="6.94811">
        <ele>290</ele>
        <time>2011-04-05T11:51:00Z</time>
      </trkpt>
      <trkpt lat="49.19656" lon="6.94811">
        <ele>290</ele>
        <time>2011-04-05T11:51:01Z</time>
      </trkpt>
      <trkpt lat="49.19655" lon="6.94808">
        <ele>290</ele>
        <time>2011-04-05T11:51:02Z</time>
      </trkpt>
      <trkpt lat="49.19652" lon="6.94806">
        <ele>290</ele>
        <time>2011-04-05T11:51:04Z</time>
      </trkpt>
      <trkpt lat="49.19651" lon="6.94805">
        <ele>290</ele>
        <time>2011-04-05T11:51:05Z</time>
      </trkpt>
      <trkpt lat="49.1965" lon="6.94803">
        <ele>290</ele>
        <time>2011-04-05T11:51:06Z</time>
      </trkpt>
      <trkpt lat="49.19648" lon="6.948">
        <ele>290</ele>
        <time>2011-04-05T11:51:07Z</time>
      </trkpt>
      <trkpt lat="49.19646" lon="6.94797">
        <ele>290</ele>
        <time>2011-04-05T11:51:09Z</time>
      </trkpt>
      <trkpt lat="49.19645" lon="6.94795">
        <ele>290</ele>
        <time>2011-04-05T11:51:10Z</time>
      </trkpt>
      <trkpt lat="49.19644" lon="6.94793">
        <ele>290</ele>
        <time>2011-04-05T11:51:11Z</time>
      </trkpt>
      <trkpt lat="49.19642" lon="6.94791">
        <ele>291</ele>
        <time>2011-04-05T11:51:12Z</time>
      </trkpt>
      <trkpt lat="49.19641" lon="6.94788">
        <ele>292</ele>
        <time>2011-04-05T11:51:13Z</time>
      </trkpt>
      <trkpt lat="49.19639" lon="6.94785">
        <ele>293</ele>
        <time>2011-04-05T11:51:14Z</time>
      </trkpt>
      <trkpt lat="49.19638" lon="6.94783">
        <ele>294</ele>
        <time>2011-04-05T11:51:15Z</time>
      </trkpt>
      <trkpt lat="49.19636" lon="6.94781">
        <ele>295</ele>
        <time>2011-04-05T11:51:16Z</time>
      </trkpt>
      <trkpt lat="49.19635" lon="6.94778">
        <ele>296</ele>
        <time>2011-04-05T11:51:17Z</time>
      </trkpt>
      <trkpt lat="49.19634" lon="6.94775">
        <ele>297</ele>
        <time>2011-04-05T11:51:18Z</time>
      </trkpt>
      <trkpt lat="49.19633" lon="6.94775">
        <ele>298</ele>
        <time>2011-04-05T11:51:19Z</time>
      </trkpt>
      <trkpt lat="49.19631" lon="6.94772">
        <ele>300</ele>
        <time>2011-04-05T11:51:21Z</time>
      </trkpt>
      <trkpt lat="49.19629" lon="6.9477">
        <ele>301</ele>
        <time>2011-04-05T11:51:22Z</time>
      </trkpt>
      <trkpt lat="49.19629" lon="6.94768">
        <ele>302</ele>
        <time>2011-04-05T11:51:24Z</time>
      </trkpt>
      <trkpt lat="49.19627" lon="6.94766">
        <ele>302</ele>
        <time>2011-04-05T11:51:26Z</time>
      </trkpt>
      <trkpt lat="49.19627" lon="6.94764">
        <ele>302</ele>
        <time>2011-04-05T11:51:27Z</time>
      </trkpt>
      <trkpt lat="49.19626" lon="6.94762">
        <ele>302</ele>
        <time>2011-04-05T11:51:28Z</time>
      </trkpt>
      <trkpt lat="49.19625" lon="6.94759">
        <ele>302</ele>
        <time>2011-04-05T11:51:30Z</time>
      </trkpt>
      <trkpt lat="49.19624" lon="6.94756">
        <ele>302</ele>
        <time>2011-04-05T11:51:31Z</time>
      </trkpt>
      <trkpt lat="49.19622" lon="6.94753">
        <ele>302</ele>
        <time>2011-04-05T11:51:32Z</time>
      </trkpt>
      <trkpt lat="49.19621" lon="6.94752">
        <ele>302</ele>
        <time>2011-04-05T11:51:34Z</time>
      </trkpt>
      <trkpt lat="49.1962" lon="6.94749">
        <ele>302</ele>
        <time>2011-04-05T11:51:35Z</time>
      </trkpt>
      <trkpt lat="49.19619" lon="6.94748">
        <ele>302</ele>
        <time>2011-04-05T11:51:36Z</time>
      </trkpt>
      <trkpt lat="49.19618" lon="6.94745">
        <ele>302</ele>
        <time>2011-04-05T11:51:37Z</time>
      </trkpt>
      <trkpt lat="49.19617" lon="6.94744">
        <ele>302</ele>
        <time>2011-04-05T11:51:38Z</time>
      </trkpt>
      <trkpt lat="49.19616" lon="6.94742">
        <ele>302</ele>
        <time>2011-04-05T11:51:40Z</time>
      </trkpt>
      <trkpt lat="49.19615" lon="6.9474">
        <ele>302</ele>
        <time>2011-04-05T11:51:41Z</time>
      </trkpt>
      <trkpt lat="49.19612" lon="6.94738">
        <ele>301</ele>
        <time>2011-04-05T11:51:43Z</time>
      </trkpt>
      <trkpt lat="49.19611" lon="6.94736">
        <ele>301</ele>
        <time>2011-04-05T11:51:44Z</time>
      </trkpt>
      <trkpt lat="49.1961" lon="6.94735">
        <ele>301</ele>
        <time>2011-04-05T11:51:45Z</time>
      </trkpt>
      <trkpt lat="49.19608" lon="6.94733">
        <ele>301</ele>
        <time>2011-04-05T11:51:47Z</time>
      </trkpt>
      <trkpt lat="49.19606" lon="6.94733">
        <ele>300</ele>
        <time>2011-04-05T11:51:48Z</time>
      </trkpt>
      <trkpt lat="49.19604" lon="6.94732">
        <ele>300</ele>
        <time>2011-04-05T11:51:49Z</time>
      </trkpt>
      <trkpt lat="49.19603" lon="6.94729">
        <ele>299</ele>
        <time>2011-04-05T11:51:51Z</time>
      </trkpt>
      <trkpt lat="49.19601" lon="6.94728">
        <ele>299</ele>
        <time>2011-04-05T11:51:52Z</time>
      </trkpt>
      <trkpt lat="49.196" lon="6.94727">
        <ele>298</ele>
        <time>2011-04-05T11:51:53Z</time>
      </trkpt>
      <trkpt lat="49.19598" lon="6.94724">
        <ele>298</ele>
        <time>2011-04-05T11:51:55Z</time>
      </trkpt>
      <trkpt lat="49.19597" lon="6.94724">
        <ele>297</ele>
        <time>2011-04-05T11:51:56Z</time>
      </trkpt>
      <trkpt lat="49.19595" lon="6.94721">
        <ele>297</ele>
        <time>2011-04-05T11:51:58Z</time>
      </trkpt>
      <trkpt lat="49.19593" lon="6.94718">
        <ele>295</ele>
        <time>2011-04-05T11:52:00Z</time>
      </trkpt>
      <trkpt lat="49.19591" lon="6.94718">
        <ele>294</ele>
        <time>2011-04-05T11:52:01Z</time>
      </trkpt>
      <trkpt lat="49.1959" lon="6.94717">
        <ele>293</ele>
        <time>2011-04-05T11:52:02Z</time>
      </trkpt>
      <trkpt lat="49.19588" lon="6.94714">
        <ele>291</ele>
        <time>2011-04-05T11:52:04Z</time>
      </trkpt>
      <trkpt lat="49.19586" lon="6.94712">
        <ele>289</ele>
        <time>2011-04-05T11:52:06Z</time>
      </trkpt>
      <trkpt lat="49.19585" lon="6.94712">
        <ele>288</ele>
        <time>2011-04-05T11:52:07Z</time>
      </trkpt>
      <trkpt lat="49.19583" lon="6.94709">
        <ele>286</ele>
        <time>2011-04-05T11:52:09Z</time>
      </trkpt>
      <trkpt lat="49.19582" lon="6.94708">
        <ele>284</ele>
        <time>2011-04-05T11:52:11Z</time>
      </trkpt>
      <trkpt lat="49.1958" lon="6.94707">
        <ele>283</ele>
        <time>2011-04-05T11:52:12Z</time>
      </trkpt>
      <trkpt lat="49.19578" lon="6.94704">
        <ele>282</ele>
        <time>2011-04-05T11:52:13Z</time>
      </trkpt>
      <trkpt lat="49.19576" lon="6.94702">
        <ele>281</ele>
        <time>2011-04-05T11:52:14Z</time>
      </trkpt>
      <trkpt lat="49.19575" lon="6.94701">
        <ele>280</ele>
        <time>2011-04-05T11:52:15Z</time>
      </trkpt>
      <trkpt lat="49.19574" lon="6.947">
        <ele>279</ele>
        <time>2011-04-05T11:52:16Z</time>
      </trkpt>
      <trkpt lat="49.19572" lon="6.94697">
        <ele>277</ele>
        <time>2011-04-05T11:52:18Z</time>
      </trkpt>
      <trkpt lat="49.1957" lon="6.94696">
        <ele>276</ele>
        <time>2011-04-05T11:52:19Z</time>
      </trkpt>
      <trkpt lat="49.19569" lon="6.94696">
        <ele>275</ele>
        <time>2011-04-05T11:52:20Z</time>
      </trkpt>
      <trkpt lat="49.19566" lon="6.94693">
        <ele>273</ele>
        <time>2011-04-05T11:52:22Z</time>
      </trkpt>
      <trkpt lat="49.19566" lon="6.94691">
        <ele>272</ele>
        <time>2011-04-05T11:52:23Z</time>
      </trkpt>
      <trkpt lat="49.19565" lon="6.94691">
        <ele>271</ele>
        <time>2011-04-05T11:52:24Z</time>
      </trkpt>
      <trkpt lat="49.19563" lon="6.94689">
        <ele>269</ele>
        <time>2011-04-05T11:52:26Z</time>
      </trkpt>
      <trkpt lat="49.19563" lon="6.94686">
        <ele>267</ele>
        <time>2011-04-05T11:52:28Z</time>
      </trkpt>
      <trkpt lat="49.19561" lon="6.94685">
        <ele>266</ele>
        <time>2011-04-05T11:52:29Z</time>
      </trkpt>
      <trkpt lat="49.1956" lon="6.94684">
        <ele>265</ele>
        <time>2011-04-05T11:52:30Z</time>
      </trkpt>
      <trkpt lat="49.19558" lon="6.94682">
        <ele>263</ele>
        <time>2011-04-05T11:52:32Z</time>
      </trkpt>
      <trkpt lat="49.19557" lon="6.94681">
        <ele>262</ele>
        <time>2011-04-05T11:52:33Z</time>
      </trkpt>
      <trkpt lat="49.19556" lon="6.9468">
        <ele>261</ele>
        <time>2011-04-05T11:52:34Z</time>
      </trkpt>
      <trkpt lat="49.19554" lon="6.94679">
        <ele>259</ele>
        <time>2011-04-05T11:52:36Z</time>
      </trkpt>
      <trkpt lat="49.19553" lon="6.94677">
        <ele>257</ele>
        <time>2011-04-05T11:52:38Z</time>
      </trkpt>
      <trkpt lat="49.19551" lon="6.94675">
        <ele>256</ele>
        <time>2011-04-05T11:52:39Z</time>
      </trkpt>
      <trkpt lat="49.1955" lon="6.94672">
        <ele>256</ele>
        <time>2011-04-05T11:52:40Z</time>
      </trkpt>
      <trkpt lat="49.19549" lon="6.9467">
        <ele>256</ele>
        <time>2011-04-05T11:52:41Z</time>
      </trkpt>
      <trkpt lat="49.19548" lon="6.94668">
        <ele>256</ele>
        <time>2011-04-05T11:52:43Z</time>
      </trkpt>
      <trkpt lat="49.19547" lon="6.94667">
        <ele>256</ele>
        <time>2011-04-05T11:52:44Z</time>
      </trkpt>
      <trkpt lat="49.19545" lon="6.94665">
        <ele>255</ele>
        <time>2011-04-05T11:52:46Z</time>
      </trkpt>
      <trkpt lat="49.19545" lon="6.94664">
        <ele>254</ele>
        <time>2011-04-05T11:52:47Z</time>
      </trkpt>
      <trkpt lat="49.19543" lon="6.94661">
        <ele>252</ele>
        <time>2011-04-05T11:52:49Z</time>
      </trkpt>
      <trkpt lat="49.19542" lon="6.9466">
        <ele>251</ele>
        <time>2011-04-05T11:52:50Z</time>
      </trkpt>
      <trkpt lat="49.19542" lon="6.94657">
        <ele>250</ele>
        <time>2011-04-05T11:52:51Z</time>
      </trkpt>
      <trkpt lat="49.1954" lon="6.94654">
        <ele>249</ele>
        <time>2011-04-05T11:52:53Z</time>
      </trkpt>
      <trkpt lat="49.19539" lon="6.94653">
        <ele>249</ele>
        <time>2011-04-05T11:52:54Z</time>
      </trkpt>
      <trkpt lat="49.19538" lon="6.94651">
        <ele>248</ele>
        <time>2011-04-05T11:52:55Z</time>
      </trkpt>
      <trkpt lat="49.19538" lon="6.94649">
        <ele>247</ele>
        <time>2011-04-05T11:52:56Z</time>
      </trkpt>
      <trkpt lat="49.19537" lon="6.94646">
        <ele>247</ele>
        <time>2011-04-05T11:52:57Z</time>
      </trkpt>
      <trkpt lat="49.19537" lon="6.94643">
        <ele>246</ele>
        <time>2011-04-05T11:52:58Z</time>
      </trkpt>
      <trkpt lat="49.19537" lon="6.94641">
        <ele>246</ele>
        <time>2011-04-05T11:52:59Z</time>
      </trkpt>
      <trkpt lat="49.19536" lon="6.94639">
        <ele>246</ele>
        <time>2011-04-05T11:53:00Z</time>
      </trkpt>
      <trkpt lat="49.19536" lon="6.94635">
        <ele>246</ele>
        <time>2011-04-05T11:53:02Z</time>
      </trkpt>
      <trkpt lat="49.19534" lon="6.94633">
        <ele>245</ele>
        <time>2011-04-05T11:53:04Z</time>
      </trkpt>
      <trkpt lat="49.19532" lon="6.94632">
        <ele>245</ele>
        <time>2011-04-05T11:53:06Z</time>
      </trkpt>
      <trkpt lat="49.19529" lon="6.9463">
        <ele>245</ele>
        <time>2011-04-05T11:53:08Z</time>
      </trkpt>
      <trkpt lat="49.19527" lon="6.94627">
        <ele>245</ele>
        <time>2011-04-05T11:53:10Z</time>
      </trkpt>
      <trkpt lat="49.19526" lon="6.94628">
        <ele>245</ele>
        <time>2011-04-05T11:53:11Z</time>
      </trkpt>
      <trkpt lat="49.19524" lon="6.94628">
        <ele>245</ele>
        <time>2011-04-05T11:53:12Z</time>
      </trkpt>
      <trkpt lat="49.19523" lon="6.94626">
        <ele>245</ele>
        <time>2011-04-05T11:53:14Z</time>
      </trkpt>
      <trkpt lat="49.19521" lon="6.94626">
        <ele>245</ele>
        <time>2011-04-05T11:53:15Z</time>
      </trkpt>
      <trkpt lat="49.19521" lon="6.94624">
        <ele>245</ele>
        <time>2011-04-05T11:53:17Z</time>
      </trkpt>
      <trkpt lat="49.19519" lon="6.94622">
        <ele>245</ele>
        <time>2011-04-05T11:53:20Z</time>
      </trkpt>
      <trkpt lat="49.19517" lon="6.94619">
        <ele>245</ele>
        <time>2011-04-05T11:53:22Z</time>
      </trkpt>
      <trkpt lat="49.19517" lon="6.94617">
        <ele>245</ele>
        <time>2011-04-05T11:53:23Z</time>
      </trkpt>
      <trkpt lat="49.19517" lon="6.94616">
        <ele>245</ele>
        <time>2011-04-05T11:53:24Z</time>
      </trkpt>
      <trkpt lat="49.19516" lon="6.94614">
        <ele>245</ele>
        <time>2011-04-05T11:53:26Z</time>
      </trkpt>
      <trkpt lat="49.19516" lon="6.94612">
        <ele>246</ele>
        <time>2011-04-05T11:53:28Z</time>
      </trkpt>
      <trkpt lat="49.19515" lon="6.94609">
        <ele>248</ele>
        <time>2011-04-05T11:53:31Z</time>
      </trkpt>
      <trkpt lat="49.19514" lon="6.94607">
        <ele>250</ele>
        <time>2011-04-05T11:53:34Z</time>
      </trkpt>
      <trkpt lat="49.19512" lon="6.94607">
        <ele>254</ele>
        <time>2011-04-05T11:53:38Z</time>
      </trkpt>
      <trkpt lat="49.1951" lon="6.94611">
        <ele>256</ele>
        <time>2011-04-05T11:53:40Z</time>
      </trkpt>
      <trkpt lat="49.19509" lon="6.94613">
        <ele>257</ele>
        <time>2011-04-05T11:53:41Z</time>
      </trkpt>
      <trkpt lat="49.19508" lon="6.94615">
        <ele>260</ele>
        <time>2011-04-05T11:53:44Z</time>
      </trkpt>
      <trkpt lat="49.19507" lon="6.94616">
        <ele>263</ele>
        <time>2011-04-05T11:53:48Z</time>
      </trkpt>
      <trkpt lat="49.19506" lon="6.94614">
        <ele>265</ele>
        <time>2011-04-05T11:53:52Z</time>
      </trkpt>
      <trkpt lat="49.19506" lon="6.9461">
        <ele>272</ele>
        <time>2011-04-05T11:54:01Z</time>
      </trkpt>
      <trkpt lat="49.19507" lon="6.94607">
        <ele>280</ele>
        <time>2011-04-05T11:54:09Z</time>
      </trkpt>
      <trkpt lat="49.19507" lon="6.94605">
        <ele>282</ele>
        <time>2011-04-05T11:54:11Z</time>
      </trkpt>
      <trkpt lat="49.19508" lon="6.94602">
        <ele>283</ele>
        <time>2011-04-05T11:54:12Z</time>
      </trkpt>
      <trkpt lat="49.19509" lon="6.94598">
        <ele>284</ele>
        <time>2011-04-05T11:54:13Z</time>
      </trkpt>
      <trkpt lat="49.1951" lon="6.94595">
        <ele>285</ele>
        <time>2011-04-05T11:54:14Z</time>
      </trkpt>
      <trkpt lat="49.1951" lon="6.94593">
        <ele>285</ele>
        <time>2011-04-05T11:54:15Z</time>
      </trkpt>
      <trkpt lat="49.19511" lon="6.94589">
        <ele>285</ele>
        <time>2011-04-05T11:54:16Z</time>
      </trkpt>
      <trkpt lat="49.19512" lon="6.94586">
        <ele>286</ele>
        <time>2011-04-05T11:54:17Z</time>
      </trkpt>
      <trkpt lat="49.19513" lon="6.94583">
        <ele>286</ele>
        <time>2011-04-05T11:54:18Z</time>
      </trkpt>
      <trkpt lat="49.19515" lon="6.94581">
        <ele>286</ele>
        <time>2011-04-05T11:54:19Z</time>
      </trkpt>
      <trkpt lat="49.19516" lon="6.9458">
        <ele>286</ele>
        <time>2011-04-05T11:54:20Z</time>
      </trkpt>
      <trkpt lat="49.19518" lon="6.94577">
        <ele>286</ele>
        <time>2011-04-05T11:54:22Z</time>
      </trkpt>
      <trkpt lat="49.19519" lon="6.94575">
        <ele>286</ele>
        <time>2011-04-05T11:54:23Z</time>
      </trkpt>
      <trkpt lat="49.19521" lon="6.94575">
        <ele>286</ele>
        <time>2011-04-05T11:54:24Z</time>
      </trkpt>
      <trkpt lat="49.19522" lon="6.94574">
        <ele>286</ele>
        <time>2011-04-05T11:54:25Z</time>
      </trkpt>
      <trkpt lat="49.19524" lon="6.94574">
        <ele>286</ele>
        <time>2011-04-05T11:54:26Z</time>
      </trkpt>
      <trkpt lat="49.19526" lon="6.94572">
        <ele>285</ele>
        <time>2011-04-05T11:54:28Z</time>
      </trkpt>
      <trkpt lat="49.19528" lon="6.94572">
        <ele>283</ele>
        <time>2011-04-05T11:54:30Z</time>
      </trkpt>
      <trkpt lat="49.19529" lon="6.94571">
        <ele>282</ele>
        <time>2011-04-05T11:54:31Z</time>
      </trkpt>
      <trkpt lat="49.19531" lon="6.9457">
        <ele>280</ele>
        <time>2011-04-05T11:54:33Z</time>
      </trkpt>
      <trkpt lat="49.19534" lon="6.94567">
        <ele>277</ele>
        <time>2011-04-05T11:54:36Z</time>
      </trkpt>
      <trkpt lat="49.19535" lon="6.94567">
        <ele>276</ele>
        <time>2011-04-05T11:54:37Z</time>
      </trkpt>
      <trkpt lat="49.19536" lon="6.94567">
        <ele>275</ele>
        <time>2011-04-05T11:54:38Z</time>
      </trkpt>
      <trkpt lat="49.19538" lon="6.94565">
        <ele>272</ele>
        <time>2011-04-05T11:54:41Z</time>
      </trkpt>
      <trkpt lat="49.1954" lon="6.94565">
        <ele>271</ele>
        <time>2011-04-05T11:54:42Z</time>
      </trkpt>
      <trkpt lat="49.19542" lon="6.94563">
        <ele>270</ele>
        <time>2011-04-05T11:54:43Z</time>
      </trkpt>
      <trkpt lat="49.19543" lon="6.94564">
        <ele>269</ele>
        <time>2011-04-05T11:54:44Z</time>
      </trkpt>
      <trkpt lat="49.19545" lon="6.94562">
        <ele>267</ele>
        <time>2011-04-05T11:54:46Z</time>
      </trkpt>
      <trkpt lat="49.19548" lon="6.94561">
        <ele>265</ele>
        <time>2011-04-05T11:54:48Z</time>
      </trkpt>
      <trkpt lat="49.19549" lon="6.94561">
        <ele>264</ele>
        <time>2011-04-05T11:54:49Z</time>
      </trkpt>
      <trkpt lat="49.19551" lon="6.9456">
        <ele>263</ele>
        <time>2011-04-05T11:54:50Z</time>
      </trkpt>
      <trkpt lat="49.19553" lon="6.94561">
        <ele>262</ele>
        <time>2011-04-05T11:54:51Z</time>
      </trkpt>
      <trkpt lat="49.19555" lon="6.94561">
        <ele>261</ele>
        <time>2011-04-05T11:54:52Z</time>
      </trkpt>
      <trkpt lat="49.19556" lon="6.94561">
        <ele>260</ele>
        <time>2011-04-05T11:54:53Z</time>
      </trkpt>
      <trkpt lat="49.19558" lon="6.94562">
        <ele>259</ele>
        <time>2011-04-05T11:54:55Z</time>
      </trkpt>
      <trkpt lat="49.1956" lon="6.94561">
        <ele>258</ele>
        <time>2011-04-05T11:54:57Z</time>
      </trkpt>
      <trkpt lat="49.19562" lon="6.94561">
        <ele>257</ele>
        <time>2011-04-05T11:54:58Z</time>
      </trkpt>
      <trkpt lat="49.19563" lon="6.94561">
        <ele>257</ele>
        <time>2011-04-05T11:54:59Z</time>
      </trkpt>
      <trkpt lat="49.19564" lon="6.94563">
        <ele>256</ele>
        <time>2011-04-05T11:55:00Z</time>
      </trkpt>
      <trkpt lat="49.19566" lon="6.94563">
        <ele>254</ele>
        <time>2011-04-05T11:55:02Z</time>
      </trkpt>
      <trkpt lat="49.19568" lon="6.94563">
        <ele>254</ele>
        <time>2011-04-05T11:55:03Z</time>
      </trkpt>
      <trkpt lat="49.19569" lon="6.94563">
        <ele>254</ele>
        <time>2011-04-05T11:55:04Z</time>
      </trkpt>
      <trkpt lat="49.19571" lon="6.94565">
        <ele>252</ele>
        <time>2011-04-05T11:55:06Z</time>
      </trkpt>
      <trkpt lat="49.19574" lon="6.94565">
        <ele>251</ele>
        <time>2011-04-05T11:55:08Z</time>
      </trkpt>
      <trkpt lat="49.19575" lon="6.94565">
        <ele>251</ele>
        <time>2011-04-05T11:55:09Z</time>
      </trkpt>
      <trkpt lat="49.19578" lon="6.94565">
        <ele>251</ele>
        <time>2011-04-05T11:55:10Z</time>
      </trkpt>
      <trkpt lat="49.1958" lon="6.94565">
        <ele>251</ele>
        <time>2011-04-05T11:55:12Z</time>
      </trkpt>
      <trkpt lat="49.19582" lon="6.94564">
        <ele>251</ele>
        <time>2011-04-05T11:55:13Z</time>
      </trkpt>
      <trkpt lat="49.19584" lon="6.94563">
        <ele>251</ele>
        <time>2011-04-05T11:55:14Z</time>
      </trkpt>
      <trkpt lat="49.19585" lon="6.94563">
        <ele>251</ele>
        <time>2011-04-05T11:55:15Z</time>
      </trkpt>
      <trkpt lat="49.19587" lon="6.94565">
        <ele>251</ele>
        <time>2011-04-05T11:55:16Z</time>
      </trkpt>
      <trkpt lat="49.1959" lon="6.94566">
        <ele>251</ele>
        <time>2011-04-05T11:55:18Z</time>
      </trkpt>
      <trkpt lat="49.19592" lon="6.94566">
        <ele>251</ele>
        <time>2011-04-05T11:55:18Z</time>
      </trkpt>
      <trkpt lat="49.19594" lon="6.94566">
        <ele>251</ele>
        <time>2011-04-05T11:55:20Z</time>
      </trkpt>
      <trkpt lat="49.19595" lon="6.94567">
        <ele>251</ele>
        <time>2011-04-05T11:55:21Z</time>
      </trkpt>
      <trkpt lat="49.19597" lon="6.94567">
        <ele>251</ele>
        <time>2011-04-05T11:55:22Z</time>
      </trkpt>
      <trkpt lat="49.19598" lon="6.94567">
        <ele>251</ele>
        <time>2011-04-05T11:55:22Z</time>
      </trkpt>
      <trkpt lat="49.196" lon="6.94567">
        <ele>251</ele>
        <time>2011-04-05T11:55:24Z</time>
      </trkpt>
      <trkpt lat="49.19602" lon="6.94567">
        <ele>251</ele>
        <time>2011-04-05T11:55:25Z</time>
      </trkpt>
      <trkpt lat="49.19604" lon="6.94567">
        <ele>251</ele>
        <time>2011-04-05T11:55:25Z</time>
      </trkpt>
      <trkpt lat="49.19606" lon="6.94566">
        <ele>251</ele>
        <time>2011-04-05T11:55:27Z</time>
      </trkpt>
      <trkpt lat="49.19607" lon="6.94566">
        <ele>251</ele>
        <time>2011-04-05T11:55:28Z</time>
      </trkpt>
      <trkpt lat="49.19609" lon="6.94566">
        <ele>251</ele>
        <time>2011-04-05T11:55:29Z</time>
      </trkpt>
      <trkpt lat="49.1961" lon="6.94568">
        <ele>251</ele>
        <time>2011-04-05T11:55:31Z</time>
      </trkpt>
      <trkpt lat="49.19611" lon="6.94568">
        <ele>251</ele>
        <time>2011-04-05T11:55:32Z</time>
      </trkpt>
      <trkpt lat="49.19613" lon="6.94569">
        <ele>251</ele>
        <time>2011-04-05T11:55:34Z</time>
      </trkpt>
      <trkpt lat="49.19616" lon="6.9457">
        <ele>251</ele>
        <time>2011-04-05T11:55:36Z</time>
      </trkpt>
      <trkpt lat="49.19617" lon="6.94571">
        <ele>251</ele>
        <time>2011-04-05T11:55:36Z</time>
      </trkpt>
      <trkpt lat="49.19621" lon="6.94571">
        <ele>251</ele>
        <time>2011-04-05T11:55:39Z</time>
      </trkpt>
      <trkpt lat="49.19622" lon="6.94572">
        <ele>252</ele>
        <time>2011-04-05T11:55:40Z</time>
      </trkpt>
      <trkpt lat="49.19623" lon="6.94573">
        <ele>252</ele>
        <time>2011-04-05T11:55:41Z</time>
      </trkpt>
      <trkpt lat="49.19626" lon="6.94573">
        <ele>252</ele>
        <time>2011-04-05T11:55:43Z</time>
      </trkpt>
      <trkpt lat="49.19627" lon="6.94575">
        <ele>252</ele>
        <time>2011-04-05T11:55:45Z</time>
      </trkpt>
      <trkpt lat="49.19629" lon="6.94577">
        <ele>252</ele>
        <time>2011-04-05T11:55:47Z</time>
      </trkpt>
      <trkpt lat="49.19631" lon="6.94579">
        <ele>252</ele>
        <time>2011-04-05T11:55:49Z</time>
      </trkpt>
      <trkpt lat="49.19633" lon="6.94579">
        <ele>252</ele>
        <time>2011-04-05T11:55:50Z</time>
      </trkpt>
      <trkpt lat="49.19635" lon="6.9458">
        <ele>252</ele>
        <time>2011-04-05T11:55:52Z</time>
      </trkpt>
      <trkpt lat="49.19636" lon="6.94581">
        <ele>252</ele>
        <time>2011-04-05T11:55:53Z</time>
      </trkpt>
      <trkpt lat="49.19638" lon="6.94582">
        <ele>252</ele>
        <time>2011-04-05T11:55:54Z</time>
      </trkpt>
      <trkpt lat="49.19639" lon="6.94583">
        <ele>252</ele>
        <time>2011-04-05T11:55:55Z</time>
      </trkpt>
      <trkpt lat="49.19641" lon="6.94584">
        <ele>252</ele>
        <time>2011-04-05T11:55:57Z</time>
      </trkpt>
      <trkpt lat="49.19643" lon="6.94585">
        <ele>252</ele>
        <time>2011-04-05T11:55:57Z</time>
      </trkpt>
      <trkpt lat="49.19645" lon="6.94586">
        <ele>252</ele>
        <time>2011-04-05T11:55:59Z</time>
      </trkpt>
      <trkpt lat="49.19648" lon="6.94588">
        <ele>252</ele>
        <time>2011-04-05T11:56:01Z</time>
      </trkpt>
      <trkpt lat="49.19649" lon="6.94589">
        <ele>252</ele>
        <time>2011-04-05T11:56:02Z</time>
      </trkpt>
      <trkpt lat="49.19651" lon="6.9459">
        <ele>252</ele>
        <time>2011-04-05T11:56:03Z</time>
      </trkpt>
      <trkpt lat="49.19653" lon="6.9459">
        <ele>252</ele>
        <time>2011-04-05T11:56:04Z</time>
      </trkpt>
      <trkpt lat="49.19656" lon="6.9459">
        <ele>252</ele>
        <time>2011-04-05T11:56:05Z</time>
      </trkpt>
      <trkpt lat="49.19657" lon="6.9459">
        <ele>252</ele>
        <time>2011-04-05T11:56:06Z</time>
      </trkpt>
      <trkpt lat="49.19658" lon="6.94591">
        <ele>252</ele>
        <time>2011-04-05T11:56:07Z</time>
      </trkpt>
      <trkpt lat="49.1966" lon="6.94592">
        <ele>252</ele>
        <time>2011-04-05T11:56:08Z</time>
      </trkpt>
      <trkpt lat="49.19662" lon="6.94592">
        <ele>252</ele>
        <time>2011-04-05T11:56:09Z</time>
      </trkpt>
      <trkpt lat="49.19663" lon="6.94593">
        <ele>252</ele>
        <time>2011-04-05T11:56:10Z</time>
      </trkpt>
      <trkpt lat="49.19665" lon="6.94594">
        <ele>252</ele>
        <time>2011-04-05T11:56:11Z</time>
      </trkpt>
      <trkpt lat="49.19666" lon="6.94595">
        <ele>252</ele>
        <time>2011-04-05T11:56:12Z</time>
      </trkpt>
      <trkpt lat="49.19669" lon="6.94596">
        <ele>252</ele>
        <time>2011-04-05T11:56:13Z</time>
      </trkpt>
      <trkpt lat="49.1967" lon="6.94598">
        <ele>252</ele>
        <time>2011-04-05T11:56:14Z</time>
      </trkpt>
      <trkpt lat="49.19672" lon="6.94599">
        <ele>252</ele>
        <time>2011-04-05T11:56:15Z</time>
      </trkpt>
      <trkpt lat="49.19674" lon="6.946">
        <ele>252</ele>
        <time>2011-04-05T11:56:16Z</time>
      </trkpt>
      <trkpt lat="49.19675" lon="6.946">
        <ele>252</ele>
        <time>2011-04-05T11:56:17Z</time>
      </trkpt>
      <trkpt lat="49.19677" lon="6.94601">
        <ele>252</ele>
        <time>2011-04-05T11:56:17Z</time>
      </trkpt>
      <trkpt lat="49.19678" lon="6.94601">
        <ele>252</ele>
        <time>2011-04-05T11:56:19Z</time>
      </trkpt>
      <trkpt lat="49.1968" lon="6.94602">
        <ele>252</ele>
        <time>2011-04-05T11:56:20Z</time>
      </trkpt>
      <trkpt lat="49.19681" lon="6.94603">
        <ele>252</ele>
        <time>2011-04-05T11:56:21Z</time>
      </trkpt>
      <trkpt lat="49.19683" lon="6.94604">
        <ele>252</ele>
        <time>2011-04-05T11:56:22Z</time>
      </trkpt>
      <trkpt lat="49.19685" lon="6.94604">
        <ele>252</ele>
        <time>2011-04-05T11:56:23Z</time>
      </trkpt>
      <trkpt lat="49.19686" lon="6.94605">
        <ele>252</ele>
        <time>2011-04-05T11:56:24Z</time>
      </trkpt>
      <trkpt lat="49.19688" lon="6.94606">
        <ele>252</ele>
        <time>2011-04-05T11:56:25Z</time>
      </trkpt>
      <trkpt lat="49.1969" lon="6.94608">
        <ele>252</ele>
        <time>2011-04-05T11:56:27Z</time>
      </trkpt>
      <trkpt lat="49.19692" lon="6.94608">
        <ele>252</ele>
        <time>2011-04-05T11:56:29Z</time>
      </trkpt>
      <trkpt lat="49.19694" lon="6.94611">
        <ele>252</ele>
        <time>2011-04-05T11:56:29Z</time>
      </trkpt>
      <trkpt lat="49.19695" lon="6.94612">
        <ele>252</ele>
        <time>2011-04-05T11:56:31Z</time>
      </trkpt>
      <trkpt lat="49.19696" lon="6.94613">
        <ele>252</ele>
        <time>2011-04-05T11:56:32Z</time>
      </trkpt>
      <trkpt lat="49.19698" lon="6.94615">
        <ele>252</ele>
        <time>2011-04-05T11:56:32Z</time>
      </trkpt>
      <trkpt lat="49.19701" lon="6.94615">
        <ele>252</ele>
        <time>2011-04-05T11:56:34Z</time>
      </trkpt>
      <trkpt lat="49.19703" lon="6.94616">
        <ele>252</ele>
        <time>2011-04-05T11:56:36Z</time>
      </trkpt>
      <trkpt lat="49.19704" lon="6.94618">
        <ele>252</ele>
        <time>2011-04-05T11:56:37Z</time>
      </trkpt>
      <trkpt lat="49.19706" lon="6.94618">
        <ele>252</ele>
        <time>2011-04-05T11:56:38Z</time>
      </trkpt>
      <trkpt lat="49.19707" lon="6.94619">
        <ele>252</ele>
        <time>2011-04-05T11:56:39Z</time>
      </trkpt>
      <trkpt lat="49.19709" lon="6.9462">
        <ele>252</ele>
        <time>2011-04-05T11:56:40Z</time>
      </trkpt>
      <trkpt lat="49.1971" lon="6.94621">
        <ele>252</ele>
        <time>2011-04-05T11:56:41Z</time>
      </trkpt>
      <trkpt lat="49.19711" lon="6.94621">
        <ele>252</ele>
        <time>2011-04-05T11:56:42Z</time>
      </trkpt>
      <trkpt lat="49.19712" lon="6.94623">
        <ele>252</ele>
        <time>2011-04-05T11:56:43Z</time>
      </trkpt>
      <trkpt lat="49.19714" lon="6.94623">
        <ele>252</ele>
        <time>2011-04-05T11:56:44Z</time>
      </trkpt>
      <trkpt lat="49.19715" lon="6.94624">
        <ele>251</ele>
        <time>2011-04-05T11:56:45Z</time>
      </trkpt>
      <trkpt lat="49.19717" lon="6.94625">
        <ele>251</ele>
        <time>2011-04-05T11:56:46Z</time>
      </trkpt>
      <trkpt lat="49.19718" lon="6.94626">
        <ele>250</ele>
        <time>2011-04-05T11:56:48Z</time>
      </trkpt>
      <trkpt lat="49.1972" lon="6.94627">
        <ele>250</ele>
        <time>2011-04-05T11:56:48Z</time>
      </trkpt>
      <trkpt lat="49.19721" lon="6.94627">
        <ele>250</ele>
        <time>2011-04-05T11:56:49Z</time>
      </trkpt>
      <trkpt lat="49.19722" lon="6.94628">
        <ele>250</ele>
        <time>2011-04-05T11:56:51Z</time>
      </trkpt>
      <trkpt lat="49.19725" lon="6.94628">
        <ele>250</ele>
        <time>2011-04-05T11:56:52Z</time>
      </trkpt>
      <trkpt lat="49.19726" lon="6.94629">
        <ele>250</ele>
        <time>2011-04-05T11:56:53Z</time>
      </trkpt>
      <trkpt lat="49.19728" lon="6.94631">
        <ele>249</ele>
        <time>2011-04-05T11:56:55Z</time>
      </trkpt>
      <trkpt lat="49.1973" lon="6.94633">
        <ele>248</ele>
        <time>2011-04-05T11:56:57Z</time>
      </trkpt>
      <trkpt lat="49.19732" lon="6.94634">
        <ele>248</ele>
        <time>2011-04-05T11:56:58Z</time>
      </trkpt>
      <trkpt lat="49.19733" lon="6.94635">
        <ele>248</ele>
        <time>2011-04-05T11:56:58Z</time>
      </trkpt>
      <trkpt lat="49.19736" lon="6.94635">
        <ele>248</ele>
        <time>2011-04-05T11:56:59Z</time>
      </trkpt>
      <trkpt lat="49.19738" lon="6.94636">
        <ele>248</ele>
        <time>2011-04-05T11:57:00Z</time>
      </trkpt>
      <trkpt lat="49.1974" lon="6.94637">
        <ele>248</ele>
        <time>2011-04-05T11:57:02Z</time>
      </trkpt>
      <trkpt lat="49.19741" lon="6.94638">
        <ele>248</ele>
        <time>2011-04-05T11:57:02Z</time>
      </trkpt>
      <trkpt lat="49.19743" lon="6.9464">
        <ele>248</ele>
        <time>2011-04-05T11:57:05Z</time>
      </trkpt>
      <trkpt lat="49.19745" lon="6.94642">
        <ele>248</ele>
        <time>2011-04-05T11:57:07Z</time>
      </trkpt>
      <trkpt lat="49.19747" lon="6.94643">
        <ele>248</ele>
        <time>2011-04-05T11:57:08Z</time>
      </trkpt>
      <trkpt lat="49.19748" lon="6.94644">
        <ele>248</ele>
        <time>2011-04-05T11:57:08Z</time>
      </trkpt>
      <trkpt lat="49.19749" lon="6.94647">
        <ele>248</ele>
        <time>2011-04-05T11:57:11Z</time>
      </trkpt>
      <trkpt lat="49.19749" lon="6.94649">
        <ele>248</ele>
        <time>2011-04-05T11:57:12Z</time>
      </trkpt>
      <trkpt lat="49.19751" lon="6.9465">
        <ele>247</ele>
        <time>2011-04-05T11:57:14Z</time>
      </trkpt>
      <trkpt lat="49.19752" lon="6.94651">
        <ele>246</ele>
        <time>2011-04-05T11:57:15Z</time>
      </trkpt>
      <trkpt lat="49.19755" lon="6.94653">
        <ele>245</ele>
        <time>2011-04-05T11:57:17Z</time>
      </trkpt>
      <trkpt lat="49.19757" lon="6.94655">
        <ele>245</ele>
        <time>2011-04-05T11:57:18Z</time>
      </trkpt>
      <trkpt lat="49.19758" lon="6.94657">
        <ele>245</ele>
        <time>2011-04-05T11:57:19Z</time>
      </trkpt>
      <trkpt lat="49.19759" lon="6.94658">
        <ele>245</ele>
        <time>2011-04-05T11:57:20Z</time>
      </trkpt>
      <trkpt lat="49.19761" lon="6.9466">
        <ele>245</ele>
        <time>2011-04-05T11:57:21Z</time>
      </trkpt>
      <trkpt lat="49.19762" lon="6.94662">
        <ele>245</ele>
        <time>2011-04-05T11:57:23Z</time>
      </trkpt>
      <trkpt lat="49.19763" lon="6.94665">
        <ele>245</ele>
        <time>2011-04-05T11:57:25Z</time>
      </trkpt>
      <trkpt lat="49.19764" lon="6.94666">
        <ele>245</ele>
        <time>2011-04-05T11:57:25Z</time>
      </trkpt>
      <trkpt lat="49.19766" lon="6.94667">
        <ele>245</ele>
        <time>2011-04-05T11:57:28Z</time>
      </trkpt>
      <trkpt lat="49.19767" lon="6.94667">
        <ele>245</ele>
        <time>2011-04-05T11:57:28Z</time>
      </trkpt>
      <trkpt lat="49.19769" lon="6.94667">
        <ele>244</ele>
        <time>2011-04-05T11:57:29Z</time>
      </trkpt>
      <trkpt lat="49.19771" lon="6.94667">
        <ele>243</ele>
        <time>2011-04-05T11:57:30Z</time>
      </trkpt>
      <trkpt lat="49.19773" lon="6.94666">
        <ele>243</ele>
        <time>2011-04-05T11:57:31Z</time>
      </trkpt>
      <trkpt lat="49.19775" lon="6.94667">
        <ele>243</ele>
        <time>2011-04-05T11:57:32Z</time>
      </trkpt>
      <trkpt lat="49.19777" lon="6.94668">
        <ele>242</ele>
        <time>2011-04-05T11:57:34Z</time>
      </trkpt>
      <trkpt lat="49.19778" lon="6.94669">
        <ele>242</ele>
        <time>2011-04-05T11:57:34Z</time>
      </trkpt>
      <trkpt lat="49.1978" lon="6.94671">
        <ele>242</ele>
        <time>2011-04-05T11:57:37Z</time>
      </trkpt>
      <trkpt lat="49.19781" lon="6.94671">
        <ele>241</ele>
        <time>2011-04-05T11:57:38Z</time>
      </trkpt>
      <trkpt lat="49.19783" lon="6.9467">
        <ele>241</ele>
        <time>2011-04-05T11:57:39Z</time>
      </trkpt>
      <trkpt lat="49.19784" lon="6.94671">
        <ele>241</ele>
        <time>2011-04-05T11:57:39Z</time>
      </trkpt>
      <trkpt lat="49.19786" lon="6.94671">
        <ele>240</ele>
        <time>2011-04-05T11:57:41Z</time>
      </trkpt>
      <trkpt lat="49.19788" lon="6.94672">
        <ele>240</ele>
        <time>2011-04-05T11:57:41Z</time>
      </trkpt>
      <trkpt lat="49.1979" lon="6.94672">
        <ele>240</ele>
        <time>2011-04-05T11:57:42Z</time>
      </trkpt>
      <trkpt lat="49.19791" lon="6.94674">
        <ele>240</ele>
        <time>2011-04-05T11:57:45Z</time>
      </trkpt>
      <trkpt lat="49.19792" lon="6.94675">
        <ele>239</ele>
        <time>2011-04-05T11:57:45Z</time>
      </trkpt>
      <trkpt lat="49.19794" lon="6.94676">
        <ele>239</ele>
        <time>2011-04-05T11:57:46Z</time>
      </trkpt>
      <trkpt lat="49.19796" lon="6.94677">
        <ele>238</ele>
        <time>2011-04-05T11:57:47Z</time>
      </trkpt>
      <trkpt lat="49.19797" lon="6.94678">
        <ele>238</ele>
        <time>2011-04-05T11:57:48Z</time>
      </trkpt>
      <trkpt lat="49.19799" lon="6.9468">
        <ele>237</ele>
        <time>2011-04-05T11:57:51Z</time>
      </trkpt>
      <trkpt lat="49.19801" lon="6.94681">
        <ele>237</ele>
        <time>2011-04-05T11:57:51Z</time>
      </trkpt>
      <trkpt lat="49.19803" lon="6.94681">
        <ele>236</ele>
        <time>2011-04-05T11:57:52Z</time>
      </trkpt>
      <trkpt lat="49.19804" lon="6.94683">
        <ele>234</ele>
        <time>2011-04-05T11:57:56Z</time>
      </trkpt>
      <trkpt lat="49.19806" lon="6.94684">
        <ele>234</ele>
        <time>2011-04-05T11:57:57Z</time>
      </trkpt>
      <trkpt lat="49.19808" lon="6.94685">
        <ele>233</ele>
        <time>2011-04-05T11:57:59Z</time>
      </trkpt>
      <trkpt lat="49.19809" lon="6.94686">
        <ele>233</ele>
        <time>2011-04-05T11:58:02Z</time>
      </trkpt>
      <trkpt lat="49.19812" lon="6.94686">
        <ele>232</ele>
        <time>2011-04-05T11:58:02Z</time>
      </trkpt>
      <trkpt lat="49.19813" lon="6.94687">
        <ele>231</ele>
        <time>2011-04-05T11:58:04Z</time>
      </trkpt>
      <trkpt lat="49.19816" lon="6.94688">
        <ele>230</ele>
        <time>2011-04-05T11:58:05Z</time>
      </trkpt>
      <trkpt lat="49.19817" lon="6.94688">
        <ele>230</ele>
        <time>2011-04-05T11:58:07Z</time>
      </trkpt>
      <trkpt lat="49.1982" lon="6.94689">
        <ele>230</ele>
        <time>2011-04-05T11:58:07Z</time>
      </trkpt>
      <trkpt lat="49.19821" lon="6.9469">
        <ele>229</ele>
        <time>2011-04-05T11:58:08Z</time>
      </trkpt>
      <trkpt lat="49.19823" lon="6.94692">
        <ele>229</ele>
        <time>2011-04-05T11:58:10Z</time>
      </trkpt>
      <trkpt lat="49.19825" lon="6.94693">
        <ele>229</ele>
        <time>2011-04-05T11:58:12Z</time>
      </trkpt>
      <trkpt lat="49.19827" lon="6.94693">
        <ele>228</ele>
        <time>2011-04-05T11:58:13Z</time>
      </trkpt>
      <trkpt lat="49.19828" lon="6.94694">
        <ele>228</ele>
        <time>2011-04-05T11:58:14Z</time>
      </trkpt>
      <trkpt lat="49.1983" lon="6.94696">
        <ele>227</ele>
        <time>2011-04-05T11:58:15Z</time>
      </trkpt>
      <trkpt lat="49.19832" lon="6.94696">
        <ele>225</ele>
        <time>2011-04-05T11:58:18Z</time>
      </trkpt>
      <trkpt lat="49.19834" lon="6.94697">
        <ele>224</ele>
        <time>2011-04-05T11:58:18Z</time>
      </trkpt>
      <trkpt lat="49.19836" lon="6.94697">
        <ele>224</ele>
        <time>2011-04-05T11:58:19Z</time>
      </trkpt>
      <trkpt lat="49.19838" lon="6.94698">
        <ele>224</ele>
        <time>2011-04-05T11:58:20Z</time>
      </trkpt>
      <trkpt lat="49.19839" lon="6.947">
        <ele>224</ele>
        <time>2011-04-05T11:58:21Z</time>
      </trkpt>
      <trkpt lat="49.19841" lon="6.94703">
        <ele>224</ele>
        <time>2011-04-05T11:58:24Z</time>
      </trkpt>
      <trkpt lat="49.19842" lon="6.94704">
        <ele>224</ele>
        <time>2011-04-05T11:58:24Z</time>
      </trkpt>
      <trkpt lat="49.19843" lon="6.94706">
        <ele>224</ele>
        <time>2011-04-05T11:58:26Z</time>
      </trkpt>
      <trkpt lat="49.19845" lon="6.94707">
        <ele>224</ele>
        <time>2011-04-05T11:58:26Z</time>
      </trkpt>
      <trkpt lat="49.19848" lon="6.94709">
        <ele>224</ele>
        <time>2011-04-05T11:58:27Z</time>
      </trkpt>
      <trkpt lat="49.19851" lon="6.9471">
        <ele>224</ele>
        <time>2011-04-05T11:58:29Z</time>
      </trkpt>
      <trkpt lat="49.19854" lon="6.9471">
        <ele>224</ele>
        <time>2011-04-05T11:58:29Z</time>
      </trkpt>
      <trkpt lat="49.19855" lon="6.94712">
        <ele>225</ele>
        <time>2011-04-05T11:58:30Z</time>
      </trkpt>
      <trkpt lat="49.19858" lon="6.94713">
        <ele>226</ele>
        <time>2011-04-05T11:58:31Z</time>
      </trkpt>
      <trkpt lat="49.1986" lon="6.94712">
        <ele>227</ele>
        <time>2011-04-05T11:58:32Z</time>
      </trkpt>
      <trkpt lat="49.19862" lon="6.94714">
        <ele>228</ele>
        <time>2011-04-05T11:58:34Z</time>
      </trkpt>
      <trkpt lat="49.19864" lon="6.94714">
        <ele>230</ele>
        <time>2011-04-05T11:58:35Z</time>
      </trkpt>
      <trkpt lat="49.19866" lon="6.94715">
        <ele>231</ele>
        <time>2011-04-05T11:58:36Z</time>
      </trkpt>
      <trkpt lat="49.19868" lon="6.94715">
        <ele>232</ele>
        <time>2011-04-05T11:58:37Z</time>
      </trkpt>
      <trkpt lat="49.1987" lon="6.94716">
        <ele>233</ele>
        <time>2011-04-05T11:58:38Z</time>
      </trkpt>
      <trkpt lat="49.19872" lon="6.94718">
        <ele>234</ele>
        <time>2011-04-05T11:58:40Z</time>
      </trkpt>
      <trkpt lat="49.19873" lon="6.94719">
        <ele>234</ele>
        <time>2011-04-05T11:58:41Z</time>
      </trkpt>
      <trkpt lat="49.19875" lon="6.9472">
        <ele>235</ele>
        <time>2011-04-05T11:58:42Z</time>
      </trkpt>
      <trkpt lat="49.19877" lon="6.9472">
        <ele>235</ele>
        <time>2011-04-05T11:58:44Z</time>
      </trkpt>
      <trkpt lat="49.19878" lon="6.94721">
        <ele>235</ele>
        <time>2011-04-05T11:58:44Z</time>
      </trkpt>
      <trkpt lat="49.1988" lon="6.94724">
        <ele>236</ele>
        <time>2011-04-05T11:58:46Z</time>
      </trkpt>
      <trkpt lat="49.19881" lon="6.94725">
        <ele>236</ele>
        <time>2011-04-05T11:58:47Z</time>
      </trkpt>
      <trkpt lat="49.19883" lon="6.94726">
        <ele>236</ele>
        <time>2011-04-05T11:58:49Z</time>
      </trkpt>
      <trkpt lat="49.19884" lon="6.94726">
        <ele>236</ele>
        <time>2011-04-05T11:58:49Z</time>
      </trkpt>
      <trkpt lat="49.19885" lon="6.94727">
        <ele>236</ele>
        <time>2011-04-05T11:58:50Z</time>
      </trkpt>
      <trkpt lat="49.19888" lon="6.94729">
        <ele>236</ele>
        <time>2011-04-05T11:58:52Z</time>
      </trkpt>
      <trkpt lat="49.19889" lon="6.94729">
        <ele>236</ele>
        <time>2011-04-05T11:58:54Z</time>
      </trkpt>
      <trkpt lat="49.1989" lon="6.9473">
        <ele>236</ele>
        <time>2011-04-05T11:58:54Z</time>
      </trkpt>
      <trkpt lat="49.19891" lon="6.9473">
        <ele>235</ele>
        <time>2011-04-05T11:58:56Z</time>
      </trkpt>
      <trkpt lat="49.19893" lon="6.94731">
        <ele>234</ele>
        <time>2011-04-05T11:58:59Z</time>
      </trkpt>
      <trkpt lat="49.19895" lon="6.94731">
        <ele>233</ele>
        <time>2011-04-05T11:58:59Z</time>
      </trkpt>
      <trkpt lat="49.19897" lon="6.94732">
        <ele>232</ele>
        <time>2011-04-05T11:59:01Z</time>
      </trkpt>
      <trkpt lat="49.19899" lon="6.94733">
        <ele>230</ele>
        <time>2011-04-05T11:59:04Z</time>
      </trkpt>
      <trkpt lat="49.199" lon="6.94733">
        <ele>229</ele>
        <time>2011-04-05T11:59:04Z</time>
      </trkpt>
      <trkpt lat="49.19902" lon="6.94734">
        <ele>228</ele>
        <time>2011-04-05T11:59:05Z</time>
      </trkpt>
      <trkpt lat="49.19904" lon="6.94735">
        <ele>226</ele>
        <time>2011-04-05T11:59:07Z</time>
      </trkpt>
      <trkpt lat="49.19906" lon="6.94737">
        <ele>225</ele>
        <time>2011-04-05T11:59:09Z</time>
      </trkpt>
      <trkpt lat="49.19907" lon="6.94738">
        <ele>225</ele>
        <time>2011-04-05T11:59:09Z</time>
      </trkpt>
      <trkpt lat="49.19909" lon="6.94738">
        <ele>225</ele>
        <time>2011-04-05T11:59:10Z</time>
      </trkpt>
      <trkpt lat="49.1991" lon="6.94738">
        <ele>225</ele>
        <time>2011-04-05T11:59:11Z</time>
      </trkpt>
      <trkpt lat="49.19912" lon="6.94739">
        <ele>225</ele>
        <time>2011-04-05T11:59:12Z</time>
      </trkpt>
      <trkpt lat="49.19914" lon="6.9474">
        <ele>225</ele>
        <time>2011-04-05T11:59:14Z</time>
      </trkpt>
      <trkpt lat="49.19915" lon="6.9474">
        <ele>225</ele>
        <time>2011-04-05T11:59:14Z</time>
      </trkpt>
      <trkpt lat="49.19917" lon="6.9474">
        <ele>225</ele>
        <time>2011-04-05T11:59:15Z</time>
      </trkpt>
      <trkpt lat="49.19918" lon="6.94742">
        <ele>225</ele>
        <time>2011-04-05T11:59:17Z</time>
      </trkpt>
      <trkpt lat="49.19921" lon="6.94743">
        <ele>225</ele>
        <time>2011-04-05T11:59:20Z</time>
      </trkpt>
      <trkpt lat="49.19922" lon="6.94744">
        <ele>225</ele>
        <time>2011-04-05T11:59:20Z</time>
      </trkpt>
      <trkpt lat="49.19923" lon="6.94741">
        <ele>225</ele>
        <time>2011-04-05T11:59:22Z</time>
      </trkpt>
      <trkpt lat="49.19924" lon="6.9474">
        <ele>225</ele>
        <time>2011-04-05T11:59:25Z</time>
      </trkpt>
      <trkpt lat="49.19926" lon="6.94738">
        <ele>225</ele>
        <time>2011-04-05T11:59:27Z</time>
      </trkpt>
      <trkpt lat="49.19927" lon="6.94736">
        <ele>226</ele>
        <time>2011-04-05T11:59:33Z</time>
      </trkpt>
      <trkpt lat="49.19928" lon="6.94735">
        <ele>227</ele>
        <time>2011-04-05T11:59:34Z</time>
      </trkpt>
      <trkpt lat="49.1993" lon="6.94738">
        <ele>227</ele>
        <time>2011-04-05T11:59:35Z</time>
      </trkpt>
      <trkpt lat="49.19932" lon="6.94739">
        <ele>227</ele>
        <time>2011-04-05T11:59:36Z</time>
      </trkpt>
      <trkpt lat="49.19933" lon="6.94741">
        <ele>227</ele>
        <time>2011-04-05T11:59:38Z</time>
      </trkpt>
      <trkpt lat="49.19935" lon="6.94741">
        <ele>227</ele>
        <time>2011-04-05T11:59:38Z</time>
      </trkpt>
      <trkpt lat="49.19936" lon="6.94742">
        <ele>227</ele>
        <time>2011-04-05T11:59:39Z</time>
      </trkpt>
      <trkpt lat="49.19938" lon="6.94743">
        <ele>227</ele>
        <time>2011-04-05T11:59:41Z</time>
      </trkpt>
      <trkpt lat="49.19939" lon="6.94745">
        <ele>227</ele>
        <time>2011-04-05T11:59:41Z</time>
      </trkpt>
      <trkpt lat="49.19941" lon="6.94746">
        <ele>227</ele>
        <time>2011-04-05T11:59:43Z</time>
      </trkpt>
      <trkpt lat="49.19942" lon="6.94747">
        <ele>227</ele>
        <time>2011-04-05T11:59:43Z</time>
      </trkpt>
      <trkpt lat="49.19943" lon="6.94748">
        <ele>227</ele>
        <time>2011-04-05T11:59:45Z</time>
      </trkpt>
      <trkpt lat="49.19944" lon="6.94749">
        <ele>227</ele>
        <time>2011-04-05T11:59:45Z</time>
      </trkpt>
      <trkpt lat="49.19946" lon="6.9475">
        <ele>227</ele>
        <time>2011-04-05T11:59:46Z</time>
      </trkpt>
      <trkpt lat="49.19947" lon="6.94751">
        <ele>227</ele>
        <time>2011-04-05T11:59:48Z</time>
      </trkpt>
      <trkpt lat="49.19949" lon="6.94752">
        <ele>227</ele>
        <time>2011-04-05T11:59:48Z</time>
      </trkpt>
      <trkpt lat="49.1995" lon="6.94753">
        <ele>227</ele>
        <time>2011-04-05T11:59:49Z</time>
      </trkpt>
      <trkpt lat="49.19952" lon="6.94754">
        <ele>227</ele>
        <time>2011-04-05T11:59:51Z</time>
      </trkpt>
      <trkpt lat="49.19954" lon="6.94755">
        <ele>227</ele>
        <time>2011-04-05T11:59:51Z</time>
      </trkpt>
      <trkpt lat="49.19956" lon="6.94756">
        <ele>227</ele>
        <time>2011-04-05T11:59:53Z</time>
      </trkpt>
      <trkpt lat="49.19957" lon="6.94757">
        <ele>227</ele>
        <time>2011-04-05T11:59:54Z</time>
      </trkpt>
      <trkpt lat="49.19959" lon="6.94758">
        <ele>227</ele>
        <time>2011-04-05T11:59:56Z</time>
      </trkpt>
      <trkpt lat="49.19962" lon="6.94759">
        <ele>227</ele>
        <time>2011-04-05T11:59:58Z</time>
      </trkpt>
      <trkpt lat="49.19964" lon="6.9476">
        <ele>227</ele>
        <time>2011-04-05T12:00:00Z</time>
      </trkpt>
      <trkpt lat="49.19966" lon="6.94761">
        <ele>227</ele>
        <time>2011-04-05T12:00:01Z</time>
      </trkpt>
      <trkpt lat="49.19968" lon="6.94761">
        <ele>227</ele>
        <time>2011-04-05T12:00:02Z</time>
      </trkpt>
      <trkpt lat="49.1997" lon="6.94762">
        <ele>227</ele>
        <time>2011-04-05T12:00:02Z</time>
      </trkpt>
      <trkpt lat="49.19971" lon="6.94763">
        <ele>228</ele>
        <time>2011-04-05T12:00:04Z</time>
      </trkpt>
      <trkpt lat="49.19973" lon="6.94763">
        <ele>228</ele>
        <time>2011-04-05T12:00:05Z</time>
      </trkpt>
      <trkpt lat="49.19974" lon="6.94763">
        <ele>228</ele>
        <time>2011-04-05T12:00:06Z</time>
      </trkpt>
      <trkpt lat="49.19977" lon="6.94764">
        <ele>228</ele>
        <time>2011-04-05T12:00:08Z</time>
      </trkpt>
      <trkpt lat="49.19978" lon="6.94765">
        <ele>228</ele>
        <time>2011-04-05T12:00:09Z</time>
      </trkpt>
      <trkpt lat="49.1998" lon="6.94766">
        <ele>228</ele>
        <time>2011-04-05T12:00:10Z</time>
      </trkpt>
      <trkpt lat="49.19981" lon="6.94767">
        <ele>228</ele>
        <time>2011-04-05T12:00:12Z</time>
      </trkpt>
      <trkpt lat="49.19984" lon="6.94769">
        <ele>228</ele>
        <time>2011-04-05T12:00:14Z</time>
      </trkpt>
      <trkpt lat="49.19985" lon="6.9477">
        <ele>228</ele>
        <time>2011-04-05T12:00:15Z</time>
      </trkpt>
      <trkpt lat="49.19987" lon="6.94771">
        <ele>228</ele>
        <time>2011-04-05T12:00:17Z</time>
      </trkpt>
      <trkpt lat="49.19989" lon="6.94772">
        <ele>228</ele>
        <time>2011-04-05T12:00:18Z</time>
      </trkpt>
      <trkpt lat="49.1999" lon="6.94772">
        <ele>228</ele>
        <time>2011-04-05T12:00:19Z</time>
      </trkpt>
      <trkpt lat="49.19992" lon="6.94773">
        <ele>228</ele>
        <time>2011-04-05T12:00:21Z</time>
      </trkpt>
      <trkpt lat="49.19993" lon="6.94773">
        <ele>228</ele>
        <time>2011-04-05T12:00:22Z</time>
      </trkpt>
      <trkpt lat="49.19994" lon="6.94773">
        <ele>228</ele>
        <time>2011-04-05T12:00:23Z</time>
      </trkpt>
      <trkpt lat="49.19995" lon="6.94774">
        <ele>228</ele>
        <time>2011-04-05T12:00:24Z</time>
      </trkpt>
      <trkpt lat="49.19997" lon="6.94775">
        <ele>228</ele>
        <time>2011-04-05T12:00:25Z</time>
      </trkpt>
      <trkpt lat="49.19999" lon="6.94776">
        <ele>228</ele>
        <time>2011-04-05T12:00:26Z</time>
      </trkpt>
      <trkpt lat="49.2" lon="6.94777">
        <ele>228</ele>
        <time>2011-04-05T12:00:27Z</time>
      </trkpt>
      <trkpt lat="49.20002" lon="6.94778">
        <ele>228</ele>
        <time>2011-04-05T12:00:28Z</time>
      </trkpt>
      <trkpt lat="49.20004" lon="6.94778">
        <ele>228</ele>
        <time>2011-04-05T12:00:29Z</time>
      </trkpt>
      <trkpt lat="49.20005" lon="6.94778">
        <ele>228</ele>
        <time>2011-04-05T12:00:30Z</time>
      </trkpt>
      <trkpt lat="49.20007" lon="6.94778">
        <ele>228</ele>
        <time>2011-04-05T12:00:31Z</time>
      </trkpt>
      <trkpt lat="49.20008" lon="6.94779">
        <ele>228</ele>
        <time>2011-04-05T12:00:32Z</time>
      </trkpt>
      <trkpt lat="49.2001" lon="6.94779">
        <ele>228</ele>
        <time>2011-04-05T12:00:33Z</time>
      </trkpt>
      <trkpt lat="49.20011" lon="6.9478">
        <ele>228</ele>
        <time>2011-04-05T12:00:34Z</time>
      </trkpt>
      <trkpt lat="49.20013" lon="6.94781">
        <ele>228</ele>
        <time>2011-04-05T12:00:34Z</time>
      </trkpt>
      <trkpt lat="49.20015" lon="6.94781">
        <ele>228</ele>
        <time>2011-04-05T12:00:35Z</time>
      </trkpt>
      <trkpt lat="49.20016" lon="6.94782">
        <ele>228</ele>
        <time>2011-04-05T12:00:37Z</time>
      </trkpt>
      <trkpt lat="49.20018" lon="6.94784">
        <ele>228</ele>
        <time>2011-04-05T12:00:38Z</time>
      </trkpt>
      <trkpt lat="49.2002" lon="6.94785">
        <ele>228</ele>
        <time>2011-04-05T12:00:41Z</time>
      </trkpt>
      <trkpt lat="49.20022" lon="6.94786">
        <ele>228</ele>
        <time>2011-04-05T12:00:42Z</time>
      </trkpt>
      <trkpt lat="49.20024" lon="6.94788">
        <ele>228</ele>
        <time>2011-04-05T12:00:44Z</time>
      </trkpt>
      <trkpt lat="49.20026" lon="6.94788">
        <ele>228</ele>
        <time>2011-04-05T12:00:44Z</time>
      </trkpt>
      <trkpt lat="49.20028" lon="6.94789">
        <ele>228</ele>
        <time>2011-04-05T12:00:46Z</time>
      </trkpt>
      <trkpt lat="49.20029" lon="6.94788">
        <ele>228</ele>
        <time>2011-04-05T12:00:47Z</time>
      </trkpt>
      <trkpt lat="49.20031" lon="6.94789">
        <ele>228</ele>
        <time>2011-04-05T12:00:48Z</time>
      </trkpt>
      <trkpt lat="49.20032" lon="6.9479">
        <ele>228</ele>
        <time>2011-04-05T12:00:49Z</time>
      </trkpt>
      <trkpt lat="49.20033" lon="6.94791">
        <ele>228</ele>
        <time>2011-04-05T12:00:50Z</time>
      </trkpt>
      <trkpt lat="49.20034" lon="6.94791">
        <ele>228</ele>
        <time>2011-04-05T12:00:51Z</time>
      </trkpt>
      <trkpt lat="49.20037" lon="6.94792">
        <ele>228</ele>
        <time>2011-04-05T12:00:53Z</time>
      </trkpt>
      <trkpt lat="49.20039" lon="6.94793">
        <ele>228</ele>
        <time>2011-04-05T12:00:54Z</time>
      </trkpt>
      <trkpt lat="49.20041" lon="6.94794">
        <ele>228</ele>
        <time>2011-04-05T12:00:55Z</time>
      </trkpt>
      <trkpt lat="49.20043" lon="6.94794">
        <ele>228</ele>
        <time>2011-04-05T12:00:57Z</time>
      </trkpt>
      <trkpt lat="49.20045" lon="6.94795">
        <ele>228</ele>
        <time>2011-04-05T12:00:57Z</time>
      </trkpt>
      <trkpt lat="49.20047" lon="6.94797">
        <ele>228</ele>
        <time>2011-04-05T12:01:00Z</time>
      </trkpt>
      <trkpt lat="49.20049" lon="6.94797">
        <ele>228</ele>
        <time>2011-04-05T12:01:00Z</time>
      </trkpt>
      <trkpt lat="49.20052" lon="6.94797">
        <ele>228</ele>
        <time>2011-04-05T12:01:01Z</time>
      </trkpt>
      <trkpt lat="49.20053" lon="6.94798">
        <ele>228</ele>
        <time>2011-04-05T12:01:02Z</time>
      </trkpt>
      <trkpt lat="49.20055" lon="6.94798">
        <ele>228</ele>
        <time>2011-04-05T12:01:03Z</time>
      </trkpt>
      <trkpt lat="49.20057" lon="6.94798">
        <ele>229</ele>
        <time>2011-04-05T12:01:05Z</time>
      </trkpt>
      <trkpt lat="49.20058" lon="6.94799">
        <ele>229</ele>
        <time>2011-04-05T12:01:05Z</time>
      </trkpt>
      <trkpt lat="49.2006" lon="6.948">
        <ele>230</ele>
        <time>2011-04-05T12:01:06Z</time>
      </trkpt>
      <trkpt lat="49.20061" lon="6.94802">
        <ele>230</ele>
        <time>2011-04-05T12:01:08Z</time>
      </trkpt>
      <trkpt lat="49.20062" lon="6.94803">
        <ele>230</ele>
        <time>2011-04-05T12:01:09Z</time>
      </trkpt>
      <trkpt lat="49.20062" lon="6.94805">
        <ele>230</ele>
        <time>2011-04-05T12:01:10Z</time>
      </trkpt>
      <trkpt lat="49.20063" lon="6.94806">
        <ele>230</ele>
        <time>2011-04-05T12:01:10Z</time>
      </trkpt>
      <trkpt lat="49.20066" lon="6.94808">
        <ele>230</ele>
        <time>2011-04-05T12:01:12Z</time>
      </trkpt>
      <trkpt lat="49.20067" lon="6.94808">
        <ele>230</ele>
        <time>2011-04-05T12:01:14Z</time>
      </trkpt>
      <trkpt lat="49.20069" lon="6.94808">
        <ele>230</ele>
        <time>2011-04-05T12:01:14Z</time>
      </trkpt>
      <trkpt lat="49.20068" lon="6.9481">
        <ele>231</ele>
        <time>2011-04-05T12:01:23Z</time>
      </trkpt>
      <trkpt lat="49.20067" lon="6.94812">
        <ele>231</ele>
        <time>2011-04-05T12:01:26Z</time>
      </trkpt>
      <trkpt lat="49.20066" lon="6.94814">
        <ele>231</ele>
        <time>2011-04-05T12:01:31Z</time>
      </trkpt>
      <trkpt lat="49.20066" lon="6.94815">
        <ele>231</ele>
        <time>2011-04-05T12:01:40Z</time>
      </trkpt>
      <trkpt lat="49.20068" lon="6.94816">
        <ele>231</ele>
        <time>2011-04-05T12:01:45Z</time>
      </trkpt>
      <trkpt lat="49.2007" lon="6.94815">
        <ele>231</ele>
        <time>2011-04-05T12:01:45Z</time>
      </trkpt>
      <trkpt lat="49.20071" lon="6.94815">
        <ele>231</ele>
        <time>2011-04-05T12:01:46Z</time>
      </trkpt>
      <trkpt lat="49.20073" lon="6.94814">
        <ele>231</ele>
        <time>2011-04-05T12:01:47Z</time>
      </trkpt>
      <trkpt lat="49.20074" lon="6.94814">
        <ele>231</ele>
        <time>2011-04-05T12:01:48Z</time>
      </trkpt>
      <trkpt lat="49.20075" lon="6.94814">
        <ele>231</ele>
        <time>2011-04-05T12:01:50Z</time>
      </trkpt>
      <trkpt lat="49.20078" lon="6.94814">
        <ele>231</ele>
        <time>2011-04-05T12:01:51Z</time>
      </trkpt>
      <trkpt lat="49.20079" lon="6.94814">
        <ele>231</ele>
        <time>2011-04-05T12:01:52Z</time>
      </trkpt>
      <trkpt lat="49.20081" lon="6.94814">
        <ele>231</ele>
        <time>2011-04-05T12:01:53Z</time>
      </trkpt>
      <trkpt lat="49.20082" lon="6.94814">
        <ele>231</ele>
        <time>2011-04-05T12:01:55Z</time>
      </trkpt>
      <trkpt lat="49.20084" lon="6.94813">
        <ele>231</ele>
        <time>2011-04-05T12:01:55Z</time>
      </trkpt>
      <trkpt lat="49.20085" lon="6.94811">
        <ele>231</ele>
        <time>2011-04-05T12:01:56Z</time>
      </trkpt>
      <trkpt lat="49.20087" lon="6.9481">
        <ele>231</ele>
        <time>2011-04-05T12:01:57Z</time>
      </trkpt>
      <trkpt lat="49.20088" lon="6.94809">
        <ele>231</ele>
        <time>2011-04-05T12:01:58Z</time>
      </trkpt>
      <trkpt lat="49.20089" lon="6.94807">
        <ele>231</ele>
        <time>2011-04-05T12:02:00Z</time>
      </trkpt>
      <trkpt lat="49.2009" lon="6.94807">
        <ele>231</ele>
        <time>2011-04-05T12:02:01Z</time>
      </trkpt>
      <trkpt lat="49.20092" lon="6.94805">
        <ele>231</ele>
        <time>2011-04-05T12:02:02Z</time>
      </trkpt>
      <trkpt lat="49.20093" lon="6.94803">
        <ele>231</ele>
        <time>2011-04-05T12:02:05Z</time>
      </trkpt>
      <trkpt lat="49.20095" lon="6.948">
        <ele>231</ele>
        <time>2011-04-05T12:02:06Z</time>
      </trkpt>
      <trkpt lat="49.20097" lon="6.94797">
        <ele>231</ele>
        <time>2011-04-05T12:02:08Z</time>
      </trkpt>
      <trkpt lat="49.20097" lon="6.94795">
        <ele>231</ele>
        <time>2011-04-05T12:02:10Z</time>
      </trkpt>
      <trkpt lat="49.20099" lon="6.94792">
        <ele>233</ele>
        <time>2011-04-05T12:02:11Z</time>
      </trkpt>
      <trkpt lat="49.20101" lon="6.9479">
        <ele>233</ele>
        <time>2011-04-05T12:02:14Z</time>
      </trkpt>
      <trkpt lat="49.20102" lon="6.94788">
        <ele>234</ele>
        <time>2011-04-05T12:02:16Z</time>
      </trkpt>
      <trkpt lat="49.20103" lon="6.94786">
        <ele>235</ele>
        <time>2011-04-05T12:02:17Z</time>
      </trkpt>
      <trkpt lat="49.20104" lon="6.94782">
        <ele>236</ele>
        <time>2011-04-05T12:02:19Z</time>
      </trkpt>
      <trkpt lat="49.20106" lon="6.9478">
        <ele>237</ele>
        <time>2011-04-05T12:02:21Z</time>
      </trkpt>
      <trkpt lat="49.20107" lon="6.94778">
        <ele>238</ele>
        <time>2011-04-05T12:02:23Z</time>
      </trkpt>
      <trkpt lat="49.20109" lon="6.94776">
        <ele>240</ele>
        <time>2011-04-05T12:02:25Z</time>
      </trkpt>
      <trkpt lat="49.2011" lon="6.94774">
        <ele>241</ele>
        <time>2011-04-05T12:02:27Z</time>
      </trkpt>
      <trkpt lat="49.20112" lon="6.94772">
        <ele>242</ele>
        <time>2011-04-05T12:02:29Z</time>
      </trkpt>
      <trkpt lat="49.20112" lon="6.9477">
        <ele>242</ele>
        <time>2011-04-05T12:02:30Z</time>
      </trkpt>
      <trkpt lat="49.20113" lon="6.94768">
        <ele>243</ele>
        <time>2011-04-05T12:02:31Z</time>
      </trkpt>
      <trkpt lat="49.20113" lon="6.94766">
        <ele>244</ele>
        <time>2011-04-05T12:02:32Z</time>
      </trkpt>
      <trkpt lat="49.20113" lon="6.94765">
        <ele>245</ele>
        <time>2011-04-05T12:02:33Z</time>
      </trkpt>
      <trkpt lat="49.20114" lon="6.94762">
        <ele>247</ele>
        <time>2011-04-05T12:02:35Z</time>
      </trkpt>
      <trkpt lat="49.20115" lon="6.9476">
        <ele>249</ele>
        <time>2011-04-05T12:02:37Z</time>
      </trkpt>
      <trkpt lat="49.20115" lon="6.94757">
        <ele>250</ele>
        <time>2011-04-05T12:02:39Z</time>
      </trkpt>
      <trkpt lat="49.20116" lon="6.94755">
        <ele>251</ele>
        <time>2011-04-05T12:02:41Z</time>
      </trkpt>
      <trkpt lat="49.20115" lon="6.94753">
        <ele>253</ele>
        <time>2011-04-05T12:02:43Z</time>
      </trkpt>
      <trkpt lat="49.20115" lon="6.9475">
        <ele>254</ele>
        <time>2011-04-05T12:02:45Z</time>
      </trkpt>
      <trkpt lat="49.20116" lon="6.94747">
        <ele>255</ele>
        <time>2011-04-05T12:02:47Z</time>
      </trkpt>
      <trkpt lat="49.20116" lon="6.94746">
        <ele>256</ele>
        <time>2011-04-05T12:02:49Z</time>
      </trkpt>
      <trkpt lat="49.20116" lon="6.94744">
        <ele>257</ele>
        <time>2011-04-05T12:02:50Z</time>
      </trkpt>
      <trkpt lat="49.20116" lon="6.94741">
        <ele>257</ele>
        <time>2011-04-05T12:02:53Z</time>
      </trkpt>
      <trkpt lat="49.20116" lon="6.94739">
        <ele>257</ele>
        <time>2011-04-05T12:02:55Z</time>
      </trkpt>
      <trkpt lat="49.20116" lon="6.94737">
        <ele>257</ele>
        <time>2011-04-05T12:02:57Z</time>
      </trkpt>
      <trkpt lat="49.20115" lon="6.94736">
        <ele>257</ele>
        <time>2011-04-05T12:03:00Z</time>
      </trkpt>
      <trkpt lat="49.20115" lon="6.94734">
        <ele>257</ele>
        <time>2011-04-05T12:03:02Z</time>
      </trkpt>
      <trkpt lat="49.20116" lon="6.94733">
        <ele>257</ele>
        <time>2011-04-05T12:03:10Z</time>
      </trkpt>
      <trkpt lat="49.20117" lon="6.94731">
        <ele>255</ele>
        <time>2011-04-05T12:03:21Z</time>
      </trkpt>
      <trkpt lat="49.20117" lon="6.94729">
        <ele>254</ele>
        <time>2011-04-05T12:03:23Z</time>
      </trkpt>
      <trkpt lat="49.20116" lon="6.94727">
        <ele>252</ele>
        <time>2011-04-05T12:03:28Z</time>
      </trkpt>
      <trkpt lat="49.20115" lon="6.94725">
        <ele>251</ele>
        <time>2011-04-05T12:03:29Z</time>
      </trkpt>
      <trkpt lat="49.20114" lon="6.94723">
        <ele>251</ele>
        <time>2011-04-05T12:03:33Z</time>
      </trkpt>
      <trkpt lat="49.20112" lon="6.94722">
        <ele>251</ele>
        <time>2011-04-05T12:03:36Z</time>
      </trkpt>
      <trkpt lat="49.20111" lon="6.94721">
        <ele>251</ele>
        <time>2011-04-05T12:03:40Z</time>
      </trkpt>
      <trkpt lat="49.2011" lon="6.94719">
        <ele>251</ele>
        <time>2011-04-05T12:03:41Z</time>
      </trkpt>
      <trkpt lat="49.2011" lon="6.94717">
        <ele>251</ele>
        <time>2011-04-05T12:03:43Z</time>
      </trkpt>
      <trkpt lat="49.20108" lon="6.94714">
        <ele>251</ele>
        <time>2011-04-05T12:03:46Z</time>
      </trkpt>
      <trkpt lat="49.20108" lon="6.94712">
        <ele>251</ele>
        <time>2011-04-05T12:03:46Z</time>
      </trkpt>
      <trkpt lat="49.20108" lon="6.9471">
        <ele>251</ele>
        <time>2011-04-05T12:03:48Z</time>
      </trkpt>
      <trkpt lat="49.20106" lon="6.94708">
        <ele>251</ele>
        <time>2011-04-05T12:03:52Z</time>
      </trkpt>
      <trkpt lat="49.20105" lon="6.94705">
        <ele>251</ele>
        <time>2011-04-05T12:03:53Z</time>
      </trkpt>
      <trkpt lat="49.20104" lon="6.94703">
        <ele>251</ele>
        <time>2011-04-05T12:03:55Z</time>
      </trkpt>
      <trkpt lat="49.20103" lon="6.94701">
        <ele>251</ele>
        <time>2011-04-05T12:03:58Z</time>
      </trkpt>
      <trkpt lat="49.20102" lon="6.947">
        <ele>251</ele>
        <time>2011-04-05T12:03:59Z</time>
      </trkpt>
      <trkpt lat="49.20101" lon="6.94699">
        <ele>251</ele>
        <time>2011-04-05T12:04:02Z</time>
      </trkpt>
      <trkpt lat="49.201" lon="6.94697">
        <ele>251</ele>
        <time>2011-04-05T12:04:04Z</time>
      </trkpt>
      <trkpt lat="49.201" lon="6.94694">
        <ele>251</ele>
        <time>2011-04-05T12:04:05Z</time>
      </trkpt>
      <trkpt lat="49.20099" lon="6.94691">
        <ele>250</ele>
        <time>2011-04-05T12:04:08Z</time>
      </trkpt>
      <trkpt lat="49.20098" lon="6.94689">
        <ele>250</ele>
        <time>2011-04-05T12:04:10Z</time>
      </trkpt>
      <trkpt lat="49.20098" lon="6.94687">
        <ele>250</ele>
        <time>2011-04-05T12:04:11Z</time>
      </trkpt>
      <trkpt lat="49.20097" lon="6.94685">
        <ele>249</ele>
        <time>2011-04-05T12:04:13Z</time>
      </trkpt>
      <trkpt lat="49.20097" lon="6.94683">
        <ele>247</ele>
        <time>2011-04-05T12:04:16Z</time>
      </trkpt>
      <trkpt lat="49.20095" lon="6.94682">
        <ele>246</ele>
        <time>2011-04-05T12:04:18Z</time>
      </trkpt>
      <trkpt lat="49.20094" lon="6.94681">
        <ele>245</ele>
        <time>2011-04-05T12:04:22Z</time>
      </trkpt>
      <trkpt lat="49.20091" lon="6.94679">
        <ele>245</ele>
        <time>2011-04-05T12:04:23Z</time>
      </trkpt>
      <trkpt lat="49.2009" lon="6.94677">
        <ele>245</ele>
        <time>2011-04-05T12:04:25Z</time>
      </trkpt>
      <trkpt lat="49.20088" lon="6.94673">
        <ele>245</ele>
        <time>2011-04-05T12:04:28Z</time>
      </trkpt>
      <trkpt lat="49.20087" lon="6.94671">
        <ele>245</ele>
        <time>2011-04-05T12:04:28Z</time>
      </trkpt>
      <trkpt lat="49.20087" lon="6.94669">
        <ele>245</ele>
        <time>2011-04-05T12:04:29Z</time>
      </trkpt>
      <trkpt lat="49.20086" lon="6.94666">
        <ele>245</ele>
        <time>2011-04-05T12:04:31Z</time>
      </trkpt>
      <trkpt lat="49.20085" lon="6.94664">
        <ele>245</ele>
        <time>2011-04-05T12:04:34Z</time>
      </trkpt>
      <trkpt lat="49.20084" lon="6.94662">
        <ele>245</ele>
        <time>2011-04-05T12:04:34Z</time>
      </trkpt>
      <trkpt lat="49.20083" lon="6.9466">
        <ele>245</ele>
        <time>2011-04-05T12:04:36Z</time>
      </trkpt>
      <trkpt lat="49.20081" lon="6.94657">
        <ele>245</ele>
        <time>2011-04-05T12:04:39Z</time>
      </trkpt>
      <trkpt lat="49.2008" lon="6.94656">
        <ele>246</ele>
        <time>2011-04-05T12:04:40Z</time>
      </trkpt>
      <trkpt lat="49.20078" lon="6.94657">
        <ele>248</ele>
        <time>2011-04-05T12:04:42Z</time>
      </trkpt>
      <trkpt lat="49.20077" lon="6.94658">
        <ele>249</ele>
        <time>2011-04-05T12:04:44Z</time>
      </trkpt>
      <trkpt lat="49.20076" lon="6.94658">
        <ele>250</ele>
        <time>2011-04-05T12:04:44Z</time>
      </trkpt>
      <trkpt lat="49.20073" lon="6.94657">
        <ele>252</ele>
        <time>2011-04-05T12:04:46Z</time>
      </trkpt>
      <trkpt lat="49.20072" lon="6.94657">
        <ele>253</ele>
        <time>2011-04-05T12:04:47Z</time>
      </trkpt>
      <trkpt lat="49.20071" lon="6.94656">
        <ele>254</ele>
        <time>2011-04-05T12:04:48Z</time>
      </trkpt>
      <trkpt lat="49.2007" lon="6.94656">
        <ele>256</ele>
        <time>2011-04-05T12:04:51Z</time>
      </trkpt>
      <trkpt lat="49.20068" lon="6.94658">
        <ele>258</ele>
        <time>2011-04-05T12:04:52Z</time>
      </trkpt>
      <trkpt lat="49.20065" lon="6.9466">
        <ele>258</ele>
        <time>2011-04-05T12:04:54Z</time>
      </trkpt>
      <trkpt lat="49.20063" lon="6.9466">
        <ele>258</ele>
        <time>2011-04-05T12:04:57Z</time>
      </trkpt>
      <trkpt lat="49.20065" lon="6.94658">
        <ele>258</ele>
        <time>2011-04-05T12:04:59Z</time>
      </trkpt>
      <trkpt lat="49.20066" lon="6.94657">
        <ele>258</ele>
        <time>2011-04-05T12:05:02Z</time>
      </trkpt>
      <trkpt lat="49.20068" lon="6.94658">
        <ele>258</ele>
        <time>2011-04-05T12:05:03Z</time>
      </trkpt>
      <trkpt lat="49.20069" lon="6.9466">
        <ele>258</ele>
        <time>2011-04-05T12:05:05Z</time>
      </trkpt>
      <trkpt lat="49.20069" lon="6.94658">
        <ele>260</ele>
        <time>2011-04-05T12:05:11Z</time>
      </trkpt>
      <trkpt lat="49.20071" lon="6.94657">
        <ele>260</ele>
        <time>2011-04-05T12:05:13Z</time>
      </trkpt>
      <trkpt lat="49.20073" lon="6.94656">
        <ele>260</ele>
        <time>2011-04-05T12:05:14Z</time>
      </trkpt>
      <trkpt lat="49.20074" lon="6.94653">
        <ele>260</ele>
        <time>2011-04-05T12:05:17Z</time>
      </trkpt>
      <trkpt lat="49.20074" lon="6.94651">
        <ele>260</ele>
        <time>2011-04-05T12:05:17Z</time>
      </trkpt>
      <trkpt lat="49.20074" lon="6.94649">
        <ele>260</ele>
        <time>2011-04-05T12:05:18Z</time>
      </trkpt>
      <trkpt lat="49.20075" lon="6.94644">
        <ele>260</ele>
        <time>2011-04-05T12:05:20Z</time>
      </trkpt>
      <trkpt lat="49.20075" lon="6.94643">
        <ele>260</ele>
        <time>2011-04-05T12:05:22Z</time>
      </trkpt>
      <trkpt lat="49.20076" lon="6.94641">
        <ele>260</ele>
        <time>2011-04-05T12:05:23Z</time>
      </trkpt>
      <trkpt lat="49.20076" lon="6.94639">
        <ele>260</ele>
        <time>2011-04-05T12:05:27Z</time>
      </trkpt>
      <trkpt lat="49.20076" lon="6.94636">
        <ele>260</ele>
        <time>2011-04-05T12:05:28Z</time>
      </trkpt>
      <trkpt lat="49.20075" lon="6.94631">
        <ele>260</ele>
        <time>2011-04-05T12:05:30Z</time>
      </trkpt>
      <trkpt lat="49.20075" lon="6.9463">
        <ele>259</ele>
        <time>2011-04-05T12:05:32Z</time>
      </trkpt>
      <trkpt lat="49.20075" lon="6.94628">
        <ele>259</ele>
        <time>2011-04-05T12:05:32Z</time>
      </trkpt>
      <trkpt lat="49.20074" lon="6.94626">
        <ele>258</ele>
        <time>2011-04-05T12:05:34Z</time>
      </trkpt>
      <trkpt lat="49.20073" lon="6.94623">
        <ele>256</ele>
        <time>2011-04-05T12:05:37Z</time>
      </trkpt>
      <trkpt lat="49.20073" lon="6.9462">
        <ele>255</ele>
        <time>2011-04-05T12:05:38Z</time>
      </trkpt>
      <trkpt lat="49.20073" lon="6.94617">
        <ele>254</ele>
        <time>2011-04-05T12:05:40Z</time>
      </trkpt>
      <trkpt lat="49.20073" lon="6.94614">
        <ele>253</ele>
        <time>2011-04-05T12:05:43Z</time>
      </trkpt>
      <trkpt lat="49.20074" lon="6.9461">
        <ele>252</ele>
        <time>2011-04-05T12:05:44Z</time>
      </trkpt>
      <trkpt lat="49.20074" lon="6.94607">
        <ele>251</ele>
        <time>2011-04-05T12:05:46Z</time>
      </trkpt>
      <trkpt lat="49.20074" lon="6.94605">
        <ele>251</ele>
        <time>2011-04-05T12:05:48Z</time>
      </trkpt>
      <trkpt lat="49.20073" lon="6.94601">
        <ele>250</ele>
        <time>2011-04-05T12:05:50Z</time>
      </trkpt>
      <trkpt lat="49.20072" lon="6.94598">
        <ele>249</ele>
        <time>2011-04-05T12:05:52Z</time>
      </trkpt>
      <trkpt lat="49.20071" lon="6.94596">
        <ele>248</ele>
        <time>2011-04-05T12:05:54Z</time>
      </trkpt>
      <trkpt lat="49.2007" lon="6.94593">
        <ele>247</ele>
        <time>2011-04-05T12:05:55Z</time>
      </trkpt>
      <trkpt lat="49.20069" lon="6.94591">
        <ele>246</ele>
        <time>2011-04-05T12:05:57Z</time>
      </trkpt>
      <trkpt lat="49.20069" lon="6.94588">
        <ele>244</ele>
        <time>2011-04-05T12:06:00Z</time>
      </trkpt>
      <trkpt lat="49.20068" lon="6.94585">
        <ele>242</ele>
        <time>2011-04-05T12:06:01Z</time>
      </trkpt>
      <trkpt lat="49.20068" lon="6.94583">
        <ele>241</ele>
        <time>2011-04-05T12:06:02Z</time>
      </trkpt>
      <trkpt lat="49.20066" lon="6.9458">
        <ele>240</ele>
        <time>2011-04-05T12:06:05Z</time>
      </trkpt>
      <trkpt lat="49.20066" lon="6.94578">
        <ele>239</ele>
        <time>2011-04-05T12:06:05Z</time>
      </trkpt>
      <trkpt lat="49.20065" lon="6.94576">
        <ele>239</ele>
        <time>2011-04-05T12:06:06Z</time>
      </trkpt>
      <trkpt lat="49.20064" lon="6.94574">
        <ele>238</ele>
        <time>2011-04-05T12:06:07Z</time>
      </trkpt>
      <trkpt lat="49.20064" lon="6.94572">
        <ele>238</ele>
        <time>2011-04-05T12:06:08Z</time>
      </trkpt>
      <trkpt lat="49.20063" lon="6.9457">
        <ele>238</ele>
        <time>2011-04-05T12:06:09Z</time>
      </trkpt>
      <trkpt lat="49.20063" lon="6.94567">
        <ele>238</ele>
        <time>2011-04-05T12:06:10Z</time>
      </trkpt>
      <trkpt lat="49.20062" lon="6.94565">
        <ele>238</ele>
        <time>2011-04-05T12:06:11Z</time>
      </trkpt>
      <trkpt lat="49.20061" lon="6.94563">
        <ele>238</ele>
        <time>2011-04-05T12:06:12Z</time>
      </trkpt>
      <trkpt lat="49.20061" lon="6.94561">
        <ele>238</ele>
        <time>2011-04-05T12:06:13Z</time>
      </trkpt>
      <trkpt lat="49.20061" lon="6.94559">
        <ele>238</ele>
        <time>2011-04-05T12:06:15Z</time>
      </trkpt>
      <trkpt lat="49.20061" lon="6.94558">
        <ele>238</ele>
        <time>2011-04-05T12:06:15Z</time>
      </trkpt>
      <trkpt lat="49.20061" lon="6.94556">
        <ele>238</ele>
        <time>2011-04-05T12:06:16Z</time>
      </trkpt>
      <trkpt lat="49.20061" lon="6.94554">
        <ele>238</ele>
        <time>2011-04-05T12:06:17Z</time>
      </trkpt>
      <trkpt lat="49.20061" lon="6.94552">
        <ele>238</ele>
        <time>2011-04-05T12:06:18Z</time>
      </trkpt>
      <trkpt lat="49.20061" lon="6.9455">
        <ele>238</ele>
        <time>2011-04-05T12:06:19Z</time>
      </trkpt>
      <trkpt lat="49.2006" lon="6.94548">
        <ele>238</ele>
        <time>2011-04-05T12:06:20Z</time>
      </trkpt>
      <trkpt lat="49.2006" lon="6.94545">
        <ele>238</ele>
        <time>2011-04-05T12:06:21Z</time>
      </trkpt>
      <trkpt lat="49.20059" lon="6.94543">
        <ele>238</ele>
        <time>2011-04-05T12:06:22Z</time>
      </trkpt>
      <trkpt lat="49.20059" lon="6.94541">
        <ele>238</ele>
        <time>2011-04-05T12:06:23Z</time>
      </trkpt>
      <trkpt lat="49.20058" lon="6.94539">
        <ele>238</ele>
        <time>2011-04-05T12:06:24Z</time>
      </trkpt>
      <trkpt lat="49.20058" lon="6.94537">
        <ele>238</ele>
        <time>2011-04-05T12:06:25Z</time>
      </trkpt>
      <trkpt lat="49.20058" lon="6.94535">
        <ele>238</ele>
        <time>2011-04-05T12:06:26Z</time>
      </trkpt>
      <trkpt lat="49.20058" lon="6.94533">
        <ele>238</ele>
        <time>2011-04-05T12:06:27Z</time>
      </trkpt>
      <trkpt lat="49.20057" lon="6.9453">
        <ele>237</ele>
        <time>2011-04-05T12:06:29Z</time>
      </trkpt>
      <trkpt lat="49.20057" lon="6.94528">
        <ele>237</ele>
        <time>2011-04-05T12:06:30Z</time>
      </trkpt>
      <trkpt lat="49.20057" lon="6.94525">
        <ele>237</ele>
        <time>2011-04-05T12:06:32Z</time>
      </trkpt>
      <trkpt lat="49.20057" lon="6.94522">
        <ele>236</ele>
        <time>2011-04-05T12:06:33Z</time>
      </trkpt>
      <trkpt lat="49.20057" lon="6.9452">
        <ele>236</ele>
        <time>2011-04-05T12:06:34Z</time>
      </trkpt>
      <trkpt lat="49.20057" lon="6.94518">
        <ele>236</ele>
        <time>2011-04-05T12:06:35Z</time>
      </trkpt>
      <trkpt lat="49.20057" lon="6.94516">
        <ele>235</ele>
        <time>2011-04-05T12:06:36Z</time>
      </trkpt>
      <trkpt lat="49.20057" lon="6.94514">
        <ele>235</ele>
        <time>2011-04-05T12:06:37Z</time>
      </trkpt>
      <trkpt lat="49.20057" lon="6.94512">
        <ele>235</ele>
        <time>2011-04-05T12:06:38Z</time>
      </trkpt>
      <trkpt lat="49.20056" lon="6.9451">
        <ele>235</ele>
        <time>2011-04-05T12:06:39Z</time>
      </trkpt>
      <trkpt lat="49.20056" lon="6.94508">
        <ele>235</ele>
        <time>2011-04-05T12:06:40Z</time>
      </trkpt>
      <trkpt lat="49.20057" lon="6.94506">
        <ele>235</ele>
        <time>2011-04-05T12:06:41Z</time>
      </trkpt>
      <trkpt lat="49.20056" lon="6.94504">
        <ele>235</ele>
        <time>2011-04-05T12:06:42Z</time>
      </trkpt>
      <trkpt lat="49.20056" lon="6.94501">
        <ele>235</ele>
        <time>2011-04-05T12:06:43Z</time>
      </trkpt>
      <trkpt lat="49.20055" lon="6.94499">
        <ele>235</ele>
        <time>2011-04-05T12:06:44Z</time>
      </trkpt>
      <trkpt lat="49.20055" lon="6.94497">
        <ele>235</ele>
        <time>2011-04-05T12:06:45Z</time>
      </trkpt>
      <trkpt lat="49.20055" lon="6.94493">
        <ele>235</ele>
        <time>2011-04-05T12:06:47Z</time>
      </trkpt>
      <trkpt lat="49.20054" lon="6.94491">
        <ele>235</ele>
        <time>2011-04-05T12:06:48Z</time>
      </trkpt>
      <trkpt lat="49.20053" lon="6.94488">
        <ele>235</ele>
        <time>2011-04-05T12:06:49Z</time>
      </trkpt>
      <trkpt lat="49.20052" lon="6.94483">
        <ele>235</ele>
        <time>2011-04-05T12:06:50Z</time>
      </trkpt>
      <trkpt lat="49.20052" lon="6.94482">
        <ele>235</ele>
        <time>2011-04-05T12:06:51Z</time>
      </trkpt>
      <trkpt lat="49.20049" lon="6.94479">
        <ele>236</ele>
        <time>2011-04-05T12:06:53Z</time>
      </trkpt>
      <trkpt lat="49.20048" lon="6.94479">
        <ele>236</ele>
        <time>2011-04-05T12:06:54Z</time>
      </trkpt>
      <trkpt lat="49.20045" lon="6.94476">
        <ele>237</ele>
        <time>2011-04-05T12:06:56Z</time>
      </trkpt>
      <trkpt lat="49.20044" lon="6.94473">
        <ele>238</ele>
        <time>2011-04-05T12:06:57Z</time>
      </trkpt>
      <trkpt lat="49.20042" lon="6.94473">
        <ele>239</ele>
        <time>2011-04-05T12:06:58Z</time>
      </trkpt>
      <trkpt lat="49.20041" lon="6.94471">
        <ele>241</ele>
        <time>2011-04-05T12:07:00Z</time>
      </trkpt>
      <trkpt lat="49.20039" lon="6.94469">
        <ele>242</ele>
        <time>2011-04-05T12:07:02Z</time>
      </trkpt>
      <trkpt lat="49.20037" lon="6.94467">
        <ele>242</ele>
        <time>2011-04-05T12:07:04Z</time>
      </trkpt>
      <trkpt lat="49.20036" lon="6.94465">
        <ele>242</ele>
        <time>2011-04-05T12:07:05Z</time>
      </trkpt>
      <trkpt lat="49.20034" lon="6.94465">
        <ele>242</ele>
        <time>2011-04-05T12:07:06Z</time>
      </trkpt>
      <trkpt lat="49.20032" lon="6.94464">
        <ele>242</ele>
        <time>2011-04-05T12:07:07Z</time>
      </trkpt>
      <trkpt lat="49.20031" lon="6.94464">
        <ele>242</ele>
        <time>2011-04-05T12:07:08Z</time>
      </trkpt>
      <trkpt lat="49.20029" lon="6.94463">
        <ele>242</ele>
        <time>2011-04-05T12:07:09Z</time>
      </trkpt>
      <trkpt lat="49.20028" lon="6.94462">
        <ele>242</ele>
        <time>2011-04-05T12:07:11Z</time>
      </trkpt>
      <trkpt lat="49.20026" lon="6.9446">
        <ele>242</ele>
        <time>2011-04-05T12:07:13Z</time>
      </trkpt>
      <trkpt lat="49.20025" lon="6.94458">
        <ele>242</ele>
        <time>2011-04-05T12:07:15Z</time>
      </trkpt>
      <trkpt lat="49.20023" lon="6.94457">
        <ele>242</ele>
        <time>2011-04-05T12:07:16Z</time>
      </trkpt>
      <trkpt lat="49.20022" lon="6.94456">
        <ele>242</ele>
        <time>2011-04-05T12:07:17Z</time>
      </trkpt>
      <trkpt lat="49.20021" lon="6.94455">
        <ele>242</ele>
        <time>2011-04-05T12:07:18Z</time>
      </trkpt>
      <trkpt lat="49.2002" lon="6.94454">
        <ele>242</ele>
        <time>2011-04-05T12:07:19Z</time>
      </trkpt>
      <trkpt lat="49.20018" lon="6.94451">
        <ele>242</ele>
        <time>2011-04-05T12:07:20Z</time>
      </trkpt>
      <trkpt lat="49.20017" lon="6.94448">
        <ele>242</ele>
        <time>2011-04-05T12:07:22Z</time>
      </trkpt>
      <trkpt lat="49.20015" lon="6.94447">
        <ele>242</ele>
        <time>2011-04-05T12:07:24Z</time>
      </trkpt>
      <trkpt lat="49.20014" lon="6.94446">
        <ele>242</ele>
        <time>2011-04-05T12:07:25Z</time>
      </trkpt>
      <trkpt lat="49.20012" lon="6.94444">
        <ele>242</ele>
        <time>2011-04-05T12:07:27Z</time>
      </trkpt>
      <trkpt lat="49.2001" lon="6.94442">
        <ele>242</ele>
        <time>2011-04-05T12:07:29Z</time>
      </trkpt>
      <trkpt lat="49.20008" lon="6.9444">
        <ele>242</ele>
        <time>2011-04-05T12:07:31Z</time>
      </trkpt>
      <trkpt lat="49.20006" lon="6.94438">
        <ele>241</ele>
        <time>2011-04-05T12:07:33Z</time>
      </trkpt>
      <trkpt lat="49.20005" lon="6.94438">
        <ele>241</ele>
        <time>2011-04-05T12:07:34Z</time>
      </trkpt>
      <trkpt lat="49.20003" lon="6.94437">
        <ele>240</ele>
        <time>2011-04-05T12:07:35Z</time>
      </trkpt>
      <trkpt lat="49.20001" lon="6.94432">
        <ele>240</ele>
        <time>2011-04-05T12:07:36Z</time>
      </trkpt>
      <trkpt lat="49.19999" lon="6.94429">
        <ele>240</ele>
        <time>2011-04-05T12:07:37Z</time>
      </trkpt>
      <trkpt lat="49.19998" lon="6.94426">
        <ele>240</ele>
        <time>2011-04-05T12:07:38Z</time>
      </trkpt>
      <trkpt lat="49.19996" lon="6.94425">
        <ele>240</ele>
        <time>2011-04-05T12:07:39Z</time>
      </trkpt>
      <trkpt lat="49.19994" lon="6.94423">
        <ele>242</ele>
        <time>2011-04-05T12:07:41Z</time>
      </trkpt>
      <trkpt lat="49.19993" lon="6.94422">
        <ele>243</ele>
        <time>2011-04-05T12:07:42Z</time>
      </trkpt>
      <trkpt lat="49.19991" lon="6.94419">
        <ele>243</ele>
        <time>2011-04-05T12:07:44Z</time>
      </trkpt>
      <trkpt lat="49.1999" lon="6.94417">
        <ele>243</ele>
        <time>2011-04-05T12:07:45Z</time>
      </trkpt>
      <trkpt lat="49.19989" lon="6.94416">
        <ele>243</ele>
        <time>2011-04-05T12:07:47Z</time>
      </trkpt>
      <trkpt lat="49.19988" lon="6.94413">
        <ele>243</ele>
        <time>2011-04-05T12:07:48Z</time>
      </trkpt>
      <trkpt lat="49.19986" lon="6.94409">
        <ele>243</ele>
        <time>2011-04-05T12:07:50Z</time>
      </trkpt>
      <trkpt lat="49.19985" lon="6.94406">
        <ele>244</ele>
        <time>2011-04-05T12:07:51Z</time>
      </trkpt>
      <trkpt lat="49.19984" lon="6.94404">
        <ele>246</ele>
        <time>2011-04-05T12:07:53Z</time>
      </trkpt>
      <trkpt lat="49.19981" lon="6.94402">
        <ele>248</ele>
        <time>2011-04-05T12:07:55Z</time>
      </trkpt>
      <trkpt lat="49.1998" lon="6.94401">
        <ele>248</ele>
        <time>2011-04-05T12:07:56Z</time>
      </trkpt>
      <trkpt lat="49.19978" lon="6.94398">
        <ele>248</ele>
        <time>2011-04-05T12:07:58Z</time>
      </trkpt>
      <trkpt lat="49.19977" lon="6.94395">
        <ele>248</ele>
        <time>2011-04-05T12:08:00Z</time>
      </trkpt>
      <trkpt lat="49.19975" lon="6.94394">
        <ele>248</ele>
        <time>2011-04-05T12:08:01Z</time>
      </trkpt>
      <trkpt lat="49.19974" lon="6.94393">
        <ele>248</ele>
        <time>2011-04-05T12:08:02Z</time>
      </trkpt>
      <trkpt lat="49.19973" lon="6.94391">
        <ele>248</ele>
        <time>2011-04-05T12:08:03Z</time>
      </trkpt>
      <trkpt lat="49.19971" lon="6.94389">
        <ele>248</ele>
        <time>2011-04-05T12:08:05Z</time>
      </trkpt>
      <trkpt lat="49.1997" lon="6.94386">
        <ele>248</ele>
        <time>2011-04-05T12:08:07Z</time>
      </trkpt>
      <trkpt lat="49.19967" lon="6.94383">
        <ele>248</ele>
        <time>2011-04-05T12:08:09Z</time>
      </trkpt>
      <trkpt lat="49.19966" lon="6.94382">
        <ele>248</ele>
        <time>2011-04-05T12:08:10Z</time>
      </trkpt>
      <trkpt lat="49.19965" lon="6.94381">
        <ele>248</ele>
        <time>2011-04-05T12:08:11Z</time>
      </trkpt>
      <trkpt lat="49.19963" lon="6.94379">
        <ele>248</ele>
        <time>2011-04-05T12:08:12Z</time>
      </trkpt>
      <trkpt lat="49.19962" lon="6.94378">
        <ele>248</ele>
        <time>2011-04-05T12:08:13Z</time>
      </trkpt>
      <trkpt lat="49.1996" lon="6.94377">
        <ele>248</ele>
        <time>2011-04-05T12:08:14Z</time>
      </trkpt>
      <trkpt lat="49.19959" lon="6.94375">
        <ele>249</ele>
        <time>2011-04-05T12:08:15Z</time>
      </trkpt>
      <trkpt lat="49.19958" lon="6.94373">
        <ele>249</ele>
        <time>2011-04-05T12:08:16Z</time>
      </trkpt>
      <trkpt lat="49.19957" lon="6.94372">
        <ele>249</ele>
        <time>2011-04-05T12:08:17Z</time>
      </trkpt>
      <trkpt lat="49.19956" lon="6.94367">
        <ele>250</ele>
        <time>2011-04-05T12:08:19Z</time>
      </trkpt>
      <trkpt lat="49.19954" lon="6.94366">
        <ele>251</ele>
        <time>2011-04-05T12:08:22Z</time>
      </trkpt>
      <trkpt lat="49.19952" lon="6.94365">
        <ele>251</ele>
        <time>2011-04-05T12:08:22Z</time>
      </trkpt>
      <trkpt lat="49.19951" lon="6.94365">
        <ele>251</ele>
        <time>2011-04-05T12:08:23Z</time>
      </trkpt>
      <trkpt lat="49.19949" lon="6.94364">
        <ele>251</ele>
        <time>2011-04-05T12:08:24Z</time>
      </trkpt>
      <trkpt lat="49.19948" lon="6.94363">
        <ele>251</ele>
        <time>2011-04-05T12:08:25Z</time>
      </trkpt>
      <trkpt lat="49.19946" lon="6.94362">
        <ele>251</ele>
        <time>2011-04-05T12:08:27Z</time>
      </trkpt>
      <trkpt lat="49.19944" lon="6.94359">
        <ele>251</ele>
        <time>2011-04-05T12:08:28Z</time>
      </trkpt>
      <trkpt lat="49.19943" lon="6.94358">
        <ele>251</ele>
        <time>2011-04-05T12:08:29Z</time>
      </trkpt>
      <trkpt lat="49.19942" lon="6.94357">
        <ele>251</ele>
        <time>2011-04-05T12:08:30Z</time>
      </trkpt>
      <trkpt lat="49.1994" lon="6.94356">
        <ele>251</ele>
        <time>2011-04-05T12:08:31Z</time>
      </trkpt>
      <trkpt lat="49.19939" lon="6.94356">
        <ele>251</ele>
        <time>2011-04-05T12:08:32Z</time>
      </trkpt>
      <trkpt lat="49.19938" lon="6.94355">
        <ele>251</ele>
        <time>2011-04-05T12:08:33Z</time>
      </trkpt>
      <trkpt lat="49.19936" lon="6.94354">
        <ele>250</ele>
        <time>2011-04-05T12:08:35Z</time>
      </trkpt>
      <trkpt lat="49.19934" lon="6.94352">
        <ele>248</ele>
        <time>2011-04-05T12:08:37Z</time>
      </trkpt>
      <trkpt lat="49.19933" lon="6.94351">
        <ele>246</ele>
        <time>2011-04-05T12:08:39Z</time>
      </trkpt>
      <trkpt lat="49.19932" lon="6.94349">
        <ele>244</ele>
        <time>2011-04-05T12:08:41Z</time>
      </trkpt>
      <trkpt lat="49.1993" lon="6.94349">
        <ele>243</ele>
        <time>2011-04-05T12:08:42Z</time>
      </trkpt>
      <trkpt lat="49.19929" lon="6.94349">
        <ele>242</ele>
        <time>2011-04-05T12:08:43Z</time>
      </trkpt>
      <trkpt lat="49.19928" lon="6.94347">
        <ele>240</ele>
        <time>2011-04-05T12:08:45Z</time>
      </trkpt>
      <trkpt lat="49.19925" lon="6.94345">
        <ele>239</ele>
        <time>2011-04-05T12:08:47Z</time>
      </trkpt>
      <trkpt lat="49.19923" lon="6.94343">
        <ele>238</ele>
        <time>2011-04-05T12:08:49Z</time>
      </trkpt>
      <trkpt lat="49.19921" lon="6.94342">
        <ele>238</ele>
        <time>2011-04-05T12:08:50Z</time>
      </trkpt>
      <trkpt lat="49.1992" lon="6.94341">
        <ele>237</ele>
        <time>2011-04-05T12:08:51Z</time>
      </trkpt>
      <trkpt lat="49.19918" lon="6.94341">
        <ele>237</ele>
        <time>2011-04-05T12:08:52Z</time>
      </trkpt>
      <trkpt lat="49.19917" lon="6.9434">
        <ele>236</ele>
        <time>2011-04-05T12:08:53Z</time>
      </trkpt>
      <trkpt lat="49.19915" lon="6.94339">
        <ele>235</ele>
        <time>2011-04-05T12:08:54Z</time>
      </trkpt>
      <trkpt lat="49.19914" lon="6.94339">
        <ele>235</ele>
        <time>2011-04-05T12:08:55Z</time>
      </trkpt>
      <trkpt lat="49.19912" lon="6.94339">
        <ele>234</ele>
        <time>2011-04-05T12:08:56Z</time>
      </trkpt>
      <trkpt lat="49.19911" lon="6.94338">
        <ele>234</ele>
        <time>2011-04-05T12:08:57Z</time>
      </trkpt>
      <trkpt lat="49.1991" lon="6.94337">
        <ele>234</ele>
        <time>2011-04-05T12:08:58Z</time>
      </trkpt>
      <trkpt lat="49.19909" lon="6.94336">
        <ele>233</ele>
        <time>2011-04-05T12:08:59Z</time>
      </trkpt>
      <trkpt lat="49.19907" lon="6.94335">
        <ele>233</ele>
        <time>2011-04-05T12:09:00Z</time>
      </trkpt>
      <trkpt lat="49.19906" lon="6.94335">
        <ele>233</ele>
        <time>2011-04-05T12:09:01Z</time>
      </trkpt>
      <trkpt lat="49.19904" lon="6.94334">
        <ele>232</ele>
        <time>2011-04-05T12:09:03Z</time>
      </trkpt>
      <trkpt lat="49.19902" lon="6.94332">
        <ele>232</ele>
        <time>2011-04-05T12:09:05Z</time>
      </trkpt>
      <trkpt lat="49.199" lon="6.94329">
        <ele>231</ele>
        <time>2011-04-05T12:09:07Z</time>
      </trkpt>
      <trkpt lat="49.19898" lon="6.94328">
        <ele>231</ele>
        <time>2011-04-05T12:09:08Z</time>
      </trkpt>
      <trkpt lat="49.19897" lon="6.94326">
        <ele>231</ele>
        <time>2011-04-05T12:09:09Z</time>
      </trkpt>
      <trkpt lat="49.19895" lon="6.94324">
        <ele>231</ele>
        <time>2011-04-05T12:09:11Z</time>
      </trkpt>
      <trkpt lat="49.19894" lon="6.94323">
        <ele>231</ele>
        <time>2011-04-05T12:09:12Z</time>
      </trkpt>
      <trkpt lat="49.19892" lon="6.94322">
        <ele>231</ele>
        <time>2011-04-05T12:09:13Z</time>
      </trkpt>
      <trkpt lat="49.19891" lon="6.94321">
        <ele>231</ele>
        <time>2011-04-05T12:09:14Z</time>
      </trkpt>
      <trkpt lat="49.19889" lon="6.94319">
        <ele>231</ele>
        <time>2011-04-05T12:09:16Z</time>
      </trkpt>
      <trkpt lat="49.19888" lon="6.94318">
        <ele>231</ele>
        <time>2011-04-05T12:09:17Z</time>
      </trkpt>
      <trkpt lat="49.19886" lon="6.94316">
        <ele>231</ele>
        <time>2011-04-05T12:09:19Z</time>
      </trkpt>
      <trkpt lat="49.19884" lon="6.94314">
        <ele>231</ele>
        <time>2011-04-05T12:09:20Z</time>
      </trkpt>
      <trkpt lat="49.19883" lon="6.94313">
        <ele>232</ele>
        <time>2011-04-05T12:09:21Z</time>
      </trkpt>
      <trkpt lat="49.19881" lon="6.94312">
        <ele>233</ele>
        <time>2011-04-05T12:09:22Z</time>
      </trkpt>
      <trkpt lat="49.1988" lon="6.94312">
        <ele>233</ele>
        <time>2011-04-05T12:09:23Z</time>
      </trkpt>
      <trkpt lat="49.19878" lon="6.94311">
        <ele>234</ele>
        <time>2011-04-05T12:09:24Z</time>
      </trkpt>
      <trkpt lat="49.19877" lon="6.9431">
        <ele>234</ele>
        <time>2011-04-05T12:09:25Z</time>
      </trkpt>
      <trkpt lat="49.19876" lon="6.94309">
        <ele>235</ele>
        <time>2011-04-05T12:09:26Z</time>
      </trkpt>
      <trkpt lat="49.19874" lon="6.94308">
        <ele>235</ele>
        <time>2011-04-05T12:09:27Z</time>
      </trkpt>
      <trkpt lat="49.19872" lon="6.94306">
        <ele>236</ele>
        <time>2011-04-05T12:09:29Z</time>
      </trkpt>
      <trkpt lat="49.1987" lon="6.94304">
        <ele>236</ele>
        <time>2011-04-05T12:09:31Z</time>
      </trkpt>
      <trkpt lat="49.19869" lon="6.94303">
        <ele>236</ele>
        <time>2011-04-05T12:09:32Z</time>
      </trkpt>
      <trkpt lat="49.19868" lon="6.94303">
        <ele>236</ele>
        <time>2011-04-05T12:09:33Z</time>
      </trkpt>
      <trkpt lat="49.19866" lon="6.94302">
        <ele>236</ele>
        <time>2011-04-05T12:09:34Z</time>
      </trkpt>
      <trkpt lat="49.19864" lon="6.94301">
        <ele>236</ele>
        <time>2011-04-05T12:09:35Z</time>
      </trkpt>
      <trkpt lat="49.19862" lon="6.94299">
        <ele>236</ele>
        <time>2011-04-05T12:09:37Z</time>
      </trkpt>
      <trkpt lat="49.1986" lon="6.94296">
        <ele>237</ele>
        <time>2011-04-05T12:09:39Z</time>
      </trkpt>
      <trkpt lat="49.19859" lon="6.94296">
        <ele>238</ele>
        <time>2011-04-05T12:09:40Z</time>
      </trkpt>
      <trkpt lat="49.19857" lon="6.94295">
        <ele>238</ele>
        <time>2011-04-05T12:09:41Z</time>
      </trkpt>
      <trkpt lat="49.19856" lon="6.94295">
        <ele>239</ele>
        <time>2011-04-05T12:09:42Z</time>
      </trkpt>
      <trkpt lat="49.19854" lon="6.94295">
        <ele>239</ele>
        <time>2011-04-05T12:09:43Z</time>
      </trkpt>
      <trkpt lat="49.19853" lon="6.94294">
        <ele>239</ele>
        <time>2011-04-05T12:09:44Z</time>
      </trkpt>
      <trkpt lat="49.19851" lon="6.94294">
        <ele>239</ele>
        <time>2011-04-05T12:09:45Z</time>
      </trkpt>
      <trkpt lat="49.19849" lon="6.94294">
        <ele>239</ele>
        <time>2011-04-05T12:09:46Z</time>
      </trkpt>
      <trkpt lat="49.19847" lon="6.94293">
        <ele>239</ele>
        <time>2011-04-05T12:09:47Z</time>
      </trkpt>
      <trkpt lat="49.19846" lon="6.94293">
        <ele>239</ele>
        <time>2011-04-05T12:09:48Z</time>
      </trkpt>
      <trkpt lat="49.19844" lon="6.94292">
        <ele>239</ele>
        <time>2011-04-05T12:09:49Z</time>
      </trkpt>
      <trkpt lat="49.19843" lon="6.94291">
        <ele>239</ele>
        <time>2011-04-05T12:09:50Z</time>
      </trkpt>
      <trkpt lat="49.19841" lon="6.94291">
        <ele>239</ele>
        <time>2011-04-05T12:09:51Z</time>
      </trkpt>
      <trkpt lat="49.19838" lon="6.94291">
        <ele>239</ele>
        <time>2011-04-05T12:09:52Z</time>
      </trkpt>
      <trkpt lat="49.19836" lon="6.9429">
        <ele>239</ele>
        <time>2011-04-05T12:09:53Z</time>
      </trkpt>
      <trkpt lat="49.19835" lon="6.94289">
        <ele>239</ele>
        <time>2011-04-05T12:09:54Z</time>
      </trkpt>
      <trkpt lat="49.19833" lon="6.94288">
        <ele>239</ele>
        <time>2011-04-05T12:09:55Z</time>
      </trkpt>
      <trkpt lat="49.19832" lon="6.94288">
        <ele>239</ele>
        <time>2011-04-05T12:09:56Z</time>
      </trkpt>
      <trkpt lat="49.19831" lon="6.94286">
        <ele>239</ele>
        <time>2011-04-05T12:09:57Z</time>
      </trkpt>
      <trkpt lat="49.1983" lon="6.94285">
        <ele>239</ele>
        <time>2011-04-05T12:09:58Z</time>
      </trkpt>
      <trkpt lat="49.19828" lon="6.94284">
        <ele>238</ele>
        <time>2011-04-05T12:10:00Z</time>
      </trkpt>
      <trkpt lat="49.19825" lon="6.94282">
        <ele>237</ele>
        <time>2011-04-05T12:10:02Z</time>
      </trkpt>
      <trkpt lat="49.19823" lon="6.94279">
        <ele>236</ele>
        <time>2011-04-05T12:10:04Z</time>
      </trkpt>
      <trkpt lat="49.19823" lon="6.94277">
        <ele>236</ele>
        <time>2011-04-05T12:10:05Z</time>
      </trkpt>
      <trkpt lat="49.19821" lon="6.94274">
        <ele>236</ele>
        <time>2011-04-05T12:10:07Z</time>
      </trkpt>
      <trkpt lat="49.1982" lon="6.94272">
        <ele>236</ele>
        <time>2011-04-05T12:10:08Z</time>
      </trkpt>
      <trkpt lat="49.19819" lon="6.94271">
        <ele>236</ele>
        <time>2011-04-05T12:10:09Z</time>
      </trkpt>
      <trkpt lat="49.19816" lon="6.94265">
        <ele>236</ele>
        <time>2011-04-05T12:10:11Z</time>
      </trkpt>
      <trkpt lat="49.19815" lon="6.94262">
        <ele>236</ele>
        <time>2011-04-05T12:10:12Z</time>
      </trkpt>
      <trkpt lat="49.19813" lon="6.9426">
        <ele>238</ele>
        <time>2011-04-05T12:10:14Z</time>
      </trkpt>
      <trkpt lat="49.19812" lon="6.94259">
        <ele>239</ele>
        <time>2011-04-05T12:10:15Z</time>
      </trkpt>
      <trkpt lat="49.1981" lon="6.94256">
        <ele>241</ele>
        <time>2011-04-05T12:10:17Z</time>
      </trkpt>
      <trkpt lat="49.19809" lon="6.94255">
        <ele>241</ele>
        <time>2011-04-05T12:10:18Z</time>
      </trkpt>
      <trkpt lat="49.19807" lon="6.94255">
        <ele>241</ele>
        <time>2011-04-05T12:10:19Z</time>
      </trkpt>
      <trkpt lat="49.19806" lon="6.94254">
        <ele>241</ele>
        <time>2011-04-05T12:10:20Z</time>
      </trkpt>
      <trkpt lat="49.19804" lon="6.94253">
        <ele>241</ele>
        <time>2011-04-05T12:10:21Z</time>
      </trkpt>
      <trkpt lat="49.19803" lon="6.94252">
        <ele>241</ele>
        <time>2011-04-05T12:10:22Z</time>
      </trkpt>
      <trkpt lat="49.19802" lon="6.94251">
        <ele>241</ele>
        <time>2011-04-05T12:10:23Z</time>
      </trkpt>
      <trkpt lat="49.198" lon="6.9425">
        <ele>241</ele>
        <time>2011-04-05T12:10:24Z</time>
      </trkpt>
      <trkpt lat="49.19799" lon="6.94249">
        <ele>241</ele>
        <time>2011-04-05T12:10:25Z</time>
      </trkpt>
      <trkpt lat="49.19798" lon="6.94248">
        <ele>241</ele>
        <time>2011-04-05T12:10:26Z</time>
      </trkpt>
      <trkpt lat="49.19796" lon="6.94247">
        <ele>241</ele>
        <time>2011-04-05T12:10:27Z</time>
      </trkpt>
      <trkpt lat="49.19794" lon="6.94246">
        <ele>241</ele>
        <time>2011-04-05T12:10:28Z</time>
      </trkpt>
      <trkpt lat="49.19793" lon="6.94246">
        <ele>241</ele>
        <time>2011-04-05T12:10:29Z</time>
      </trkpt>
      <trkpt lat="49.19791" lon="6.94246">
        <ele>241</ele>
        <time>2011-04-05T12:10:30Z</time>
      </trkpt>
      <trkpt lat="49.19789" lon="6.94245">
        <ele>241</ele>
        <time>2011-04-05T12:10:31Z</time>
      </trkpt>
      <trkpt lat="49.19787" lon="6.94244">
        <ele>241</ele>
        <time>2011-04-05T12:10:33Z</time>
      </trkpt>
      <trkpt lat="49.19786" lon="6.94244">
        <ele>241</ele>
        <time>2011-04-05T12:10:34Z</time>
      </trkpt>
      <trkpt lat="49.19784" lon="6.94244">
        <ele>241</ele>
        <time>2011-04-05T12:10:35Z</time>
      </trkpt>
      <trkpt lat="49.19782" lon="6.94241">
        <ele>241</ele>
        <time>2011-04-05T12:10:37Z</time>
      </trkpt>
      <trkpt lat="49.19781" lon="6.9424">
        <ele>241</ele>
        <time>2011-04-05T12:10:38Z</time>
      </trkpt>
      <trkpt lat="49.19779" lon="6.9424">
        <ele>241</ele>
        <time>2011-04-05T12:10:39Z</time>
      </trkpt>
      <trkpt lat="49.19778" lon="6.94239">
        <ele>241</ele>
        <time>2011-04-05T12:10:40Z</time>
      </trkpt>
      <trkpt lat="49.19777" lon="6.94238">
        <ele>241</ele>
        <time>2011-04-05T12:10:41Z</time>
      </trkpt>
      <trkpt lat="49.19774" lon="6.94236">
        <ele>241</ele>
        <time>2011-04-05T12:10:43Z</time>
      </trkpt>
      <trkpt lat="49.19773" lon="6.94235">
        <ele>241</ele>
        <time>2011-04-05T12:10:44Z</time>
      </trkpt>
      <trkpt lat="49.19772" lon="6.94235">
        <ele>241</ele>
        <time>2011-04-05T12:10:45Z</time>
      </trkpt>
      <trkpt lat="49.1977" lon="6.94234">
        <ele>241</ele>
        <time>2011-04-05T12:10:46Z</time>
      </trkpt>
      <trkpt lat="49.19769" lon="6.94234">
        <ele>241</ele>
        <time>2011-04-05T12:10:47Z</time>
      </trkpt>
      <trkpt lat="49.19768" lon="6.94232">
        <ele>241</ele>
        <time>2011-04-05T12:10:48Z</time>
      </trkpt>
      <trkpt lat="49.19765" lon="6.94231">
        <ele>241</ele>
        <time>2011-04-05T12:10:50Z</time>
      </trkpt>
      <trkpt lat="49.19763" lon="6.9423">
        <ele>241</ele>
        <time>2011-04-05T12:10:51Z</time>
      </trkpt>
      <trkpt lat="49.19762" lon="6.94229">
        <ele>241</ele>
        <time>2011-04-05T12:10:52Z</time>
      </trkpt>
      <trkpt lat="49.19761" lon="6.94228">
        <ele>241</ele>
        <time>2011-04-05T12:10:53Z</time>
      </trkpt>
      <trkpt lat="49.19759" lon="6.94228">
        <ele>241</ele>
        <time>2011-04-05T12:10:54Z</time>
      </trkpt>
      <trkpt lat="49.19757" lon="6.94228">
        <ele>241</ele>
        <time>2011-04-05T12:10:55Z</time>
      </trkpt>
      <trkpt lat="49.19756" lon="6.94228">
        <ele>241</ele>
        <time>2011-04-05T12:10:56Z</time>
      </trkpt>
      <trkpt lat="49.19754" lon="6.94228">
        <ele>241</ele>
        <time>2011-04-05T12:10:57Z</time>
      </trkpt>
      <trkpt lat="49.19753" lon="6.94227">
        <ele>241</ele>
        <time>2011-04-05T12:10:58Z</time>
      </trkpt>
      <trkpt lat="49.19752" lon="6.94226">
        <ele>241</ele>
        <time>2011-04-05T12:10:59Z</time>
      </trkpt>
      <trkpt lat="49.19751" lon="6.94225">
        <ele>241</ele>
        <time>2011-04-05T12:11:00Z</time>
      </trkpt>
      <trkpt lat="49.1975" lon="6.94225">
        <ele>241</ele>
        <time>2011-04-05T12:11:01Z</time>
      </trkpt>
      <trkpt lat="49.19749" lon="6.94225">
        <ele>241</ele>
        <time>2011-04-05T12:11:02Z</time>
      </trkpt>
      <trkpt lat="49.19747" lon="6.94224">
        <ele>241</ele>
        <time>2011-04-05T12:11:03Z</time>
      </trkpt>
      <trkpt lat="49.19745" lon="6.94223">
        <ele>241</ele>
        <time>2011-04-05T12:11:05Z</time>
      </trkpt>
      <trkpt lat="49.19744" lon="6.9422">
        <ele>241</ele>
        <time>2011-04-05T12:11:07Z</time>
      </trkpt>
      <trkpt lat="49.19744" lon="6.94218">
        <ele>241</ele>
        <time>2011-04-05T12:11:09Z</time>
      </trkpt>
      <trkpt lat="49.19742" lon="6.94216">
        <ele>241</ele>
        <time>2011-04-05T12:11:11Z</time>
      </trkpt>
      <trkpt lat="49.1974" lon="6.94215">
        <ele>241</ele>
        <time>2011-04-05T12:11:12Z</time>
      </trkpt>
      <trkpt lat="49.19739" lon="6.94214">
        <ele>241</ele>
        <time>2011-04-05T12:11:13Z</time>
      </trkpt>
      <trkpt lat="49.19738" lon="6.94213">
        <ele>241</ele>
        <time>2011-04-05T12:11:14Z</time>
      </trkpt>
      <trkpt lat="49.19737" lon="6.94212">
        <ele>241</ele>
        <time>2011-04-05T12:11:15Z</time>
      </trkpt>
      <trkpt lat="49.19735" lon="6.94211">
        <ele>241</ele>
        <time>2011-04-05T12:11:16Z</time>
      </trkpt>
      <trkpt lat="49.19734" lon="6.94209">
        <ele>241</ele>
        <time>2011-04-05T12:11:17Z</time>
      </trkpt>
      <trkpt lat="49.19733" lon="6.94209">
        <ele>241</ele>
        <time>2011-04-05T12:11:18Z</time>
      </trkpt>
      <trkpt lat="49.19731" lon="6.94208">
        <ele>241</ele>
        <time>2011-04-05T12:11:19Z</time>
      </trkpt>
      <trkpt lat="49.19729" lon="6.94208">
        <ele>241</ele>
        <time>2011-04-05T12:11:20Z</time>
      </trkpt>
      <trkpt lat="49.19728" lon="6.94207">
        <ele>241</ele>
        <time>2011-04-05T12:11:21Z</time>
      </trkpt>
      <trkpt lat="49.19727" lon="6.94206">
        <ele>241</ele>
        <time>2011-04-05T12:11:22Z</time>
      </trkpt>
      <trkpt lat="49.19726" lon="6.94205">
        <ele>241</ele>
        <time>2011-04-05T12:11:23Z</time>
      </trkpt>
      <trkpt lat="49.19724" lon="6.94205">
        <ele>241</ele>
        <time>2011-04-05T12:11:24Z</time>
      </trkpt>
      <trkpt lat="49.19723" lon="6.94204">
        <ele>241</ele>
        <time>2011-04-05T12:11:25Z</time>
      </trkpt>
      <trkpt lat="49.19721" lon="6.94203">
        <ele>241</ele>
        <time>2011-04-05T12:11:26Z</time>
      </trkpt>
      <trkpt lat="49.1972" lon="6.94203">
        <ele>241</ele>
        <time>2011-04-05T12:11:27Z</time>
      </trkpt>
      <trkpt lat="49.19718" lon="6.94202">
        <ele>241</ele>
        <time>2011-04-05T12:11:28Z</time>
      </trkpt>
      <trkpt lat="49.19717" lon="6.94202">
        <ele>241</ele>
        <time>2011-04-05T12:11:29Z</time>
      </trkpt>
      <trkpt lat="49.19715" lon="6.94201">
        <ele>241</ele>
        <time>2011-04-05T12:11:30Z</time>
      </trkpt>
      <trkpt lat="49.19714" lon="6.94201">
        <ele>241</ele>
        <time>2011-04-05T12:11:32Z</time>
      </trkpt>
      <trkpt lat="49.19712" lon="6.942">
        <ele>241</ele>
        <time>2011-04-05T12:11:34Z</time>
      </trkpt>
      <trkpt lat="49.19711" lon="6.942">
        <ele>241</ele>
        <time>2011-04-05T12:11:35Z</time>
      </trkpt>
      <trkpt lat="49.19709" lon="6.942">
        <ele>240</ele>
        <time>2011-04-05T12:11:36Z</time>
      </trkpt>
      <trkpt lat="49.19707" lon="6.94199">
        <ele>240</ele>
        <time>2011-04-05T12:11:37Z</time>
      </trkpt>
      <trkpt lat="49.19706" lon="6.94198">
        <ele>239</ele>
        <time>2011-04-05T12:11:38Z</time>
      </trkpt>
      <trkpt lat="49.19704" lon="6.94197">
        <ele>239</ele>
        <time>2011-04-05T12:11:39Z</time>
      </trkpt>
      <trkpt lat="49.19703" lon="6.94197">
        <ele>239</ele>
        <time>2011-04-05T12:11:40Z</time>
      </trkpt>
      <trkpt lat="49.19702" lon="6.94197">
        <ele>239</ele>
        <time>2011-04-05T12:11:41Z</time>
      </trkpt>
      <trkpt lat="49.19701" lon="6.94195">
        <ele>239</ele>
        <time>2011-04-05T12:11:42Z</time>
      </trkpt>
      <trkpt lat="49.197" lon="6.94193">
        <ele>239</ele>
        <time>2011-04-05T12:11:43Z</time>
      </trkpt>
      <trkpt lat="49.19698" lon="6.94193">
        <ele>239</ele>
        <time>2011-04-05T12:11:44Z</time>
      </trkpt>
      <trkpt lat="49.19697" lon="6.94191">
        <ele>239</ele>
        <time>2011-04-05T12:11:46Z</time>
      </trkpt>
      <trkpt lat="49.19695" lon="6.9419">
        <ele>239</ele>
        <time>2011-04-05T12:11:47Z</time>
      </trkpt>
      <trkpt lat="49.19694" lon="6.9419">
        <ele>239</ele>
        <time>2011-04-05T12:11:48Z</time>
      </trkpt>
      <trkpt lat="49.19693" lon="6.94189">
        <ele>238</ele>
        <time>2011-04-05T12:11:49Z</time>
      </trkpt>
      <trkpt lat="49.19691" lon="6.94189">
        <ele>238</ele>
        <time>2011-04-05T12:11:50Z</time>
      </trkpt>
      <trkpt lat="49.1969" lon="6.94188">
        <ele>237</ele>
        <time>2011-04-05T12:11:51Z</time>
      </trkpt>
      <trkpt lat="49.19688" lon="6.94186">
        <ele>237</ele>
        <time>2011-04-05T12:11:53Z</time>
      </trkpt>
      <trkpt lat="49.19686" lon="6.94186">
        <ele>236</ele>
        <time>2011-04-05T12:11:54Z</time>
      </trkpt>
      <trkpt lat="49.19685" lon="6.94185">
        <ele>236</ele>
        <time>2011-04-05T12:11:55Z</time>
      </trkpt>
      <trkpt lat="49.19683" lon="6.94185">
        <ele>236</ele>
        <time>2011-04-05T12:11:56Z</time>
      </trkpt>
      <trkpt lat="49.19682" lon="6.94185">
        <ele>236</ele>
        <time>2011-04-05T12:11:57Z</time>
      </trkpt>
      <trkpt lat="49.1968" lon="6.94184">
        <ele>235</ele>
        <time>2011-04-05T12:11:58Z</time>
      </trkpt>
      <trkpt lat="49.19678" lon="6.94181">
        <ele>235</ele>
        <time>2011-04-05T12:12:00Z</time>
      </trkpt>
      <trkpt lat="49.19677" lon="6.9418">
        <ele>235</ele>
        <time>2011-04-05T12:12:01Z</time>
      </trkpt>
      <trkpt lat="49.19675" lon="6.94179">
        <ele>235</ele>
        <time>2011-04-05T12:12:02Z</time>
      </trkpt>
      <trkpt lat="49.19674" lon="6.94178">
        <ele>235</ele>
        <time>2011-04-05T12:12:03Z</time>
      </trkpt>
      <trkpt lat="49.19672" lon="6.94177">
        <ele>235</ele>
        <time>2011-04-05T12:12:05Z</time>
      </trkpt>
      <trkpt lat="49.1967" lon="6.94176">
        <ele>235</ele>
        <time>2011-04-05T12:12:06Z</time>
      </trkpt>
      <trkpt lat="49.19669" lon="6.94175">
        <ele>235</ele>
        <time>2011-04-05T12:12:07Z</time>
      </trkpt>
      <trkpt lat="49.19667" lon="6.94175">
        <ele>235</ele>
        <time>2011-04-05T12:12:08Z</time>
      </trkpt>
      <trkpt lat="49.19666" lon="6.94174">
        <ele>235</ele>
        <time>2011-04-05T12:12:09Z</time>
      </trkpt>
      <trkpt lat="49.19664" lon="6.94174">
        <ele>235</ele>
        <time>2011-04-05T12:12:10Z</time>
      </trkpt>
      <trkpt lat="49.19663" lon="6.94173">
        <ele>235</ele>
        <time>2011-04-05T12:12:11Z</time>
      </trkpt>
      <trkpt lat="49.19662" lon="6.94172">
        <ele>235</ele>
        <time>2011-04-05T12:12:12Z</time>
      </trkpt>
      <trkpt lat="49.1966" lon="6.94172">
        <ele>235</ele>
        <time>2011-04-05T12:12:13Z</time>
      </trkpt>
      <trkpt lat="49.19659" lon="6.94171">
        <ele>235</ele>
        <time>2011-04-05T12:12:14Z</time>
      </trkpt>
      <trkpt lat="49.19657" lon="6.94169">
        <ele>235</ele>
        <time>2011-04-05T12:12:16Z</time>
      </trkpt>
      <trkpt lat="49.19655" lon="6.94168">
        <ele>235</ele>
        <time>2011-04-05T12:12:17Z</time>
      </trkpt>
      <trkpt lat="49.19654" lon="6.94168">
        <ele>235</ele>
        <time>2011-04-05T12:12:18Z</time>
      </trkpt>
      <trkpt lat="49.19654" lon="6.94165">
        <ele>235</ele>
        <time>2011-04-05T12:12:19Z</time>
      </trkpt>
      <trkpt lat="49.19653" lon="6.94163">
        <ele>235</ele>
        <time>2011-04-05T12:12:20Z</time>
      </trkpt>
      <trkpt lat="49.19651" lon="6.94162">
        <ele>235</ele>
        <time>2011-04-05T12:12:21Z</time>
      </trkpt>
      <trkpt lat="49.1965" lon="6.94162">
        <ele>235</ele>
        <time>2011-04-05T12:12:22Z</time>
      </trkpt>
      <trkpt lat="49.19648" lon="6.94162">
        <ele>235</ele>
        <time>2011-04-05T12:12:23Z</time>
      </trkpt>
      <trkpt lat="49.19646" lon="6.94162">
        <ele>235</ele>
        <time>2011-04-05T12:12:24Z</time>
      </trkpt>
      <trkpt lat="49.19645" lon="6.94161">
        <ele>235</ele>
        <time>2011-04-05T12:12:25Z</time>
      </trkpt>
      <trkpt lat="49.19644" lon="6.9416">
        <ele>235</ele>
        <time>2011-04-05T12:12:26Z</time>
      </trkpt>
      <trkpt lat="49.19643" lon="6.94158">
        <ele>235</ele>
        <time>2011-04-05T12:12:27Z</time>
      </trkpt>
      <trkpt lat="49.19642" lon="6.94157">
        <ele>235</ele>
        <time>2011-04-05T12:12:28Z</time>
      </trkpt>
      <trkpt lat="49.1964" lon="6.94156">
        <ele>235</ele>
        <time>2011-04-05T12:12:29Z</time>
      </trkpt>
      <trkpt lat="49.19639" lon="6.94156">
        <ele>235</ele>
        <time>2011-04-05T12:12:30Z</time>
      </trkpt>
      <trkpt lat="49.19638" lon="6.94156">
        <ele>235</ele>
        <time>2011-04-05T12:12:31Z</time>
      </trkpt>
      <trkpt lat="49.19636" lon="6.94155">
        <ele>235</ele>
        <time>2011-04-05T12:12:32Z</time>
      </trkpt>
      <trkpt lat="49.19634" lon="6.94154">
        <ele>235</ele>
        <time>2011-04-05T12:12:33Z</time>
      </trkpt>
      <trkpt lat="49.19633" lon="6.94154">
        <ele>235</ele>
        <time>2011-04-05T12:12:34Z</time>
      </trkpt>
      <trkpt lat="49.19631" lon="6.94154">
        <ele>235</ele>
        <time>2011-04-05T12:12:35Z</time>
      </trkpt>
      <trkpt lat="49.1963" lon="6.94153">
        <ele>235</ele>
        <time>2011-04-05T12:12:36Z</time>
      </trkpt>
      <trkpt lat="49.19628" lon="6.94151">
        <ele>235</ele>
        <time>2011-04-05T12:12:38Z</time>
      </trkpt>
      <trkpt lat="49.19626" lon="6.9415">
        <ele>235</ele>
        <time>2011-04-05T12:12:40Z</time>
      </trkpt>
      <trkpt lat="49.19624" lon="6.9415">
        <ele>235</ele>
        <time>2011-04-05T12:12:41Z</time>
      </trkpt>
      <trkpt lat="49.19623" lon="6.94149">
        <ele>235</ele>
        <time>2011-04-05T12:12:42Z</time>
      </trkpt>
      <trkpt lat="49.19621" lon="6.94149">
        <ele>235</ele>
        <time>2011-04-05T12:12:43Z</time>
      </trkpt>
      <trkpt lat="49.1962" lon="6.94149">
        <ele>235</ele>
        <time>2011-04-05T12:12:44Z</time>
      </trkpt>
      <trkpt lat="49.19618" lon="6.94147">
        <ele>235</ele>
        <time>2011-04-05T12:12:46Z</time>
      </trkpt>
      <trkpt lat="49.19616" lon="6.94146">
        <ele>235</ele>
        <time>2011-04-05T12:12:47Z</time>
      </trkpt>
      <trkpt lat="49.19616" lon="6.94144">
        <ele>235</ele>
        <time>2011-04-05T12:12:48Z</time>
      </trkpt>
      <trkpt lat="49.19614" lon="6.94142">
        <ele>235</ele>
        <time>2011-04-05T12:12:49Z</time>
      </trkpt>
      <trkpt lat="49.19612" lon="6.94142">
        <ele>235</ele>
        <time>2011-04-05T12:12:50Z</time>
      </trkpt>
      <trkpt lat="49.19611" lon="6.94141">
        <ele>235</ele>
        <time>2011-04-05T12:12:51Z</time>
      </trkpt>
      <trkpt lat="49.19609" lon="6.9414">
        <ele>235</ele>
        <time>2011-04-05T12:12:52Z</time>
      </trkpt>
      <trkpt lat="49.19608" lon="6.94139">
        <ele>235</ele>
        <time>2011-04-05T12:12:53Z</time>
      </trkpt>
      <trkpt lat="49.19606" lon="6.94138">
        <ele>235</ele>
        <time>2011-04-05T12:12:54Z</time>
      </trkpt>
      <trkpt lat="49.19605" lon="6.94136">
        <ele>235</ele>
        <time>2011-04-05T12:12:55Z</time>
      </trkpt>
      <trkpt lat="49.19603" lon="6.94136">
        <ele>235</ele>
        <time>2011-04-05T12:12:56Z</time>
      </trkpt>
      <trkpt lat="49.19602" lon="6.94134">
        <ele>235</ele>
        <time>2011-04-05T12:12:57Z</time>
      </trkpt>
      <trkpt lat="49.19601" lon="6.94133">
        <ele>235</ele>
        <time>2011-04-05T12:12:58Z</time>
      </trkpt>
      <trkpt lat="49.19599" lon="6.94131">
        <ele>235</ele>
        <time>2011-04-05T12:12:59Z</time>
      </trkpt>
      <trkpt lat="49.19598" lon="6.9413">
        <ele>235</ele>
        <time>2011-04-05T12:13:00Z</time>
      </trkpt>
      <trkpt lat="49.19597" lon="6.94127">
        <ele>236</ele>
        <time>2011-04-05T12:13:02Z</time>
      </trkpt>
      <trkpt lat="49.19595" lon="6.94126">
        <ele>236</ele>
        <time>2011-04-05T12:13:02Z</time>
      </trkpt>
      <trkpt lat="49.19594" lon="6.94125">
        <ele>237</ele>
        <time>2011-04-05T12:13:03Z</time>
      </trkpt>
      <trkpt lat="49.19593" lon="6.94123">
        <ele>238</ele>
        <time>2011-04-05T12:13:04Z</time>
      </trkpt>
      <trkpt lat="49.19591" lon="6.94123">
        <ele>238</ele>
        <time>2011-04-05T12:13:05Z</time>
      </trkpt>
      <trkpt lat="49.1959" lon="6.94121">
        <ele>239</ele>
        <time>2011-04-05T12:13:06Z</time>
      </trkpt>
      <trkpt lat="49.19588" lon="6.9412">
        <ele>239</ele>
        <time>2011-04-05T12:13:07Z</time>
      </trkpt>
      <trkpt lat="49.19587" lon="6.94118">
        <ele>240</ele>
        <time>2011-04-05T12:13:08Z</time>
      </trkpt>
      <trkpt lat="49.19586" lon="6.94117">
        <ele>241</ele>
        <time>2011-04-05T12:13:09Z</time>
      </trkpt>
      <trkpt lat="49.19584" lon="6.94117">
        <ele>242</ele>
        <time>2011-04-05T12:13:10Z</time>
      </trkpt>
      <trkpt lat="49.19583" lon="6.94116">
        <ele>243</ele>
        <time>2011-04-05T12:13:11Z</time>
      </trkpt>
      <trkpt lat="49.19582" lon="6.94114">
        <ele>243</ele>
        <time>2011-04-05T12:13:12Z</time>
      </trkpt>
      <trkpt lat="49.1958" lon="6.94112">
        <ele>243</ele>
        <time>2011-04-05T12:13:14Z</time>
      </trkpt>
      <trkpt lat="49.19579" lon="6.94111">
        <ele>244</ele>
        <time>2011-04-05T12:13:15Z</time>
      </trkpt>
      <trkpt lat="49.19577" lon="6.94108">
        <ele>244</ele>
        <time>2011-04-05T12:13:18Z</time>
      </trkpt>
      <trkpt lat="49.19576" lon="6.94106">
        <ele>245</ele>
        <time>2011-04-05T12:13:18Z</time>
      </trkpt>
      <trkpt lat="49.19574" lon="6.94104">
        <ele>246</ele>
        <time>2011-04-05T12:13:19Z</time>
      </trkpt>
      <trkpt lat="49.19573" lon="6.94103">
        <ele>247</ele>
        <time>2011-04-05T12:13:20Z</time>
      </trkpt>
      <trkpt lat="49.19572" lon="6.941">
        <ele>248</ele>
        <time>2011-04-05T12:13:21Z</time>
      </trkpt>
      <trkpt lat="49.1957" lon="6.94099">
        <ele>249</ele>
        <time>2011-04-05T12:13:22Z</time>
      </trkpt>
      <trkpt lat="49.19569" lon="6.94097">
        <ele>250</ele>
        <time>2011-04-05T12:13:23Z</time>
      </trkpt>
      <trkpt lat="49.19568" lon="6.94095">
        <ele>251</ele>
        <time>2011-04-05T12:13:24Z</time>
      </trkpt>
      <trkpt lat="49.19567" lon="6.94092">
        <ele>252</ele>
        <time>2011-04-05T12:13:25Z</time>
      </trkpt>
      <trkpt lat="49.19566" lon="6.9409">
        <ele>253</ele>
        <time>2011-04-05T12:13:26Z</time>
      </trkpt>
      <trkpt lat="49.19564" lon="6.94088">
        <ele>254</ele>
        <time>2011-04-05T12:13:28Z</time>
      </trkpt>
      <trkpt lat="49.19562" lon="6.94085">
        <ele>255</ele>
        <time>2011-04-05T12:13:28Z</time>
      </trkpt>
      <trkpt lat="49.19561" lon="6.94083">
        <ele>256</ele>
        <time>2011-04-05T12:13:29Z</time>
      </trkpt>
      <trkpt lat="49.19559" lon="6.94081">
        <ele>257</ele>
        <time>2011-04-05T12:13:30Z</time>
      </trkpt>
      <trkpt lat="49.19558" lon="6.94078">
        <ele>258</ele>
        <time>2011-04-05T12:13:31Z</time>
      </trkpt>
      <trkpt lat="49.19557" lon="6.94076">
        <ele>259</ele>
        <time>2011-04-05T12:13:33Z</time>
      </trkpt>
      <trkpt lat="49.19556" lon="6.94072">
        <ele>261</ele>
        <time>2011-04-05T12:13:33Z</time>
      </trkpt>
      <trkpt lat="49.19554" lon="6.94069">
        <ele>263</ele>
        <time>2011-04-05T12:13:34Z</time>
      </trkpt>
      <trkpt lat="49.19553" lon="6.94066">
        <ele>265</ele>
        <time>2011-04-05T12:13:35Z</time>
      </trkpt>
      <trkpt lat="49.19551" lon="6.94063">
        <ele>267</ele>
        <time>2011-04-05T12:13:36Z</time>
      </trkpt>
      <trkpt lat="49.19549" lon="6.9406">
        <ele>269</ele>
        <time>2011-04-05T12:13:37Z</time>
      </trkpt>
      <trkpt lat="49.19548" lon="6.94058">
        <ele>271</ele>
        <time>2011-04-05T12:13:38Z</time>
      </trkpt>
      <trkpt lat="49.19546" lon="6.94052">
        <ele>273</ele>
        <time>2011-04-05T12:13:39Z</time>
      </trkpt>
      <trkpt lat="49.19545" lon="6.9405">
        <ele>275</ele>
        <time>2011-04-05T12:13:40Z</time>
      </trkpt>
      <trkpt lat="49.19544" lon="6.94046">
        <ele>277</ele>
        <time>2011-04-05T12:13:41Z</time>
      </trkpt>
      <trkpt lat="49.19543" lon="6.94043">
        <ele>279</ele>
        <time>2011-04-05T12:13:42Z</time>
      </trkpt>
      <trkpt lat="49.19542" lon="6.94038">
        <ele>281</ele>
        <time>2011-04-05T12:13:43Z</time>
      </trkpt>
      <trkpt lat="49.19541" lon="6.94036">
        <ele>283</ele>
        <time>2011-04-05T12:13:44Z</time>
      </trkpt>
      <trkpt lat="49.1954" lon="6.94032">
        <ele>285</ele>
        <time>2011-04-05T12:13:45Z</time>
      </trkpt>
      <trkpt lat="49.1954" lon="6.9403">
        <ele>289</ele>
        <time>2011-04-05T12:13:48Z</time>
      </trkpt>
      <trkpt lat="49.19539" lon="6.94027">
        <ele>291</ele>
        <time>2011-04-05T12:13:48Z</time>
      </trkpt>
      <trkpt lat="49.19538" lon="6.94024">
        <ele>292</ele>
        <time>2011-04-05T12:13:49Z</time>
      </trkpt>
      <trkpt lat="49.19538" lon="6.94021">
        <ele>294</ele>
        <time>2011-04-05T12:13:52Z</time>
      </trkpt>
      <trkpt lat="49.19538" lon="6.94023">
        <ele>295</ele>
        <time>2011-04-05T12:13:53Z</time>
      </trkpt>
      <trkpt lat="49.19537" lon="6.94023">
        <ele>296</ele>
        <time>2011-04-05T12:13:54Z</time>
      </trkpt>
      <trkpt lat="49.19535" lon="6.94022">
        <ele>294</ele>
        <time>2011-04-05T12:13:58Z</time>
      </trkpt>
      <trkpt lat="49.19533" lon="6.94023">
        <ele>292</ele>
        <time>2011-04-05T12:14:00Z</time>
      </trkpt>
      <trkpt lat="49.19531" lon="6.94024">
        <ele>288</ele>
        <time>2011-04-05T12:14:02Z</time>
      </trkpt>
      <trkpt lat="49.19529" lon="6.94024">
        <ele>286</ele>
        <time>2011-04-05T12:14:03Z</time>
      </trkpt>
      <trkpt lat="49.19528" lon="6.94025">
        <ele>285</ele>
        <time>2011-04-05T12:14:04Z</time>
      </trkpt>
      <trkpt lat="49.19527" lon="6.94024">
        <ele>283</ele>
        <time>2011-04-05T12:14:06Z</time>
      </trkpt>
      <trkpt lat="49.19525" lon="6.94025">
        <ele>281</ele>
        <time>2011-04-05T12:14:08Z</time>
      </trkpt>
      <trkpt lat="49.19524" lon="6.94027">
        <ele>279</ele>
        <time>2011-04-05T12:14:10Z</time>
      </trkpt>
      <trkpt lat="49.19521" lon="6.94026">
        <ele>276</ele>
        <time>2011-04-05T12:14:13Z</time>
      </trkpt>
      <trkpt lat="49.19518" lon="6.94026">
        <ele>275</ele>
        <time>2011-04-05T12:14:15Z</time>
      </trkpt>
      <trkpt lat="49.19516" lon="6.94027">
        <ele>275</ele>
        <time>2011-04-05T12:14:17Z</time>
      </trkpt>
      <trkpt lat="49.19515" lon="6.94028">
        <ele>274</ele>
        <time>2011-04-05T12:14:18Z</time>
      </trkpt>
      <trkpt lat="49.19513" lon="6.94029">
        <ele>274</ele>
        <time>2011-04-05T12:14:19Z</time>
      </trkpt>
      <trkpt lat="49.19511" lon="6.9403">
        <ele>273</ele>
        <time>2011-04-05T12:14:20Z</time>
      </trkpt>
      <trkpt lat="49.19509" lon="6.94031">
        <ele>272</ele>
        <time>2011-04-05T12:14:21Z</time>
      </trkpt>
      <trkpt lat="49.19507" lon="6.94033">
        <ele>271</ele>
        <time>2011-04-05T12:14:23Z</time>
      </trkpt>
      <trkpt lat="49.19506" lon="6.94034">
        <ele>271</ele>
        <time>2011-04-05T12:14:24Z</time>
      </trkpt>
      <trkpt lat="49.19504" lon="6.94035">
        <ele>271</ele>
        <time>2011-04-05T12:14:26Z</time>
      </trkpt>
      <trkpt lat="49.19503" lon="6.94036">
        <ele>271</ele>
        <time>2011-04-05T12:14:27Z</time>
      </trkpt>
      <trkpt lat="49.19502" lon="6.94033">
        <ele>271</ele>
        <time>2011-04-05T12:14:29Z</time>
      </trkpt>
      <trkpt lat="49.19501" lon="6.94031">
        <ele>271</ele>
        <time>2011-04-05T12:14:31Z</time>
      </trkpt>
      <trkpt lat="49.195" lon="6.94029">
        <ele>271</ele>
        <time>2011-04-05T12:14:32Z</time>
      </trkpt>
      <trkpt lat="49.195" lon="6.94027">
        <ele>271</ele>
        <time>2011-04-05T12:14:33Z</time>
      </trkpt>
      <trkpt lat="49.19498" lon="6.94024">
        <ele>271</ele>
        <time>2011-04-05T12:14:35Z</time>
      </trkpt>
      <trkpt lat="49.19498" lon="6.94022">
        <ele>272</ele>
        <time>2011-04-05T12:14:36Z</time>
      </trkpt>
      <trkpt lat="49.19497" lon="6.9402">
        <ele>273</ele>
        <time>2011-04-05T12:14:37Z</time>
      </trkpt>
      <trkpt lat="49.19497" lon="6.94017">
        <ele>274</ele>
        <time>2011-04-05T12:14:39Z</time>
      </trkpt>
      <trkpt lat="49.19495" lon="6.94015">
        <ele>276</ele>
        <time>2011-04-05T12:14:41Z</time>
      </trkpt>
      <trkpt lat="49.19493" lon="6.94015">
        <ele>278</ele>
        <time>2011-04-05T12:14:43Z</time>
      </trkpt>
      <trkpt lat="49.19492" lon="6.94014">
        <ele>280</ele>
        <time>2011-04-05T12:14:44Z</time>
      </trkpt>
      <trkpt lat="49.1949" lon="6.94013">
        <ele>282</ele>
        <time>2011-04-05T12:14:45Z</time>
      </trkpt>
      <trkpt lat="49.19489" lon="6.9401">
        <ele>286</ele>
        <time>2011-04-05T12:14:47Z</time>
      </trkpt>
      <trkpt lat="49.19488" lon="6.94009">
        <ele>292</ele>
        <time>2011-04-05T12:14:49Z</time>
      </trkpt>
      <trkpt lat="49.19487" lon="6.94011">
        <ele>308</ele>
        <time>2011-04-05T12:14:58Z</time>
      </trkpt>
      <trkpt lat="49.19487" lon="6.94008">
        <ele>311</ele>
        <time>2011-04-05T12:15:03Z</time>
      </trkpt>
      <trkpt lat="49.19486" lon="6.94006">
        <ele>312</ele>
        <time>2011-04-05T12:15:05Z</time>
      </trkpt>
      <trkpt lat="49.19488" lon="6.94008">
        <ele>321</ele>
        <time>2011-04-05T12:15:14Z</time>
      </trkpt>
      <trkpt lat="49.19489" lon="6.9401">
        <ele>322</ele>
        <time>2011-04-05T12:15:15Z</time>
      </trkpt>
      <trkpt lat="49.1949" lon="6.94012">
        <ele>323</ele>
        <time>2011-04-05T12:15:16Z</time>
      </trkpt>
      <trkpt lat="49.19491" lon="6.94014">
        <ele>324</ele>
        <time>2011-04-05T12:15:19Z</time>
      </trkpt>
      <trkpt lat="49.19491" lon="6.94015">
        <ele>323</ele>
        <time>2011-04-05T12:15:24Z</time>
      </trkpt>
      <trkpt lat="49.19492" lon="6.94017">
        <ele>321</ele>
        <time>2011-04-05T12:15:26Z</time>
      </trkpt>
      <trkpt lat="49.19489" lon="6.9402">
        <ele>318</ele>
        <time>2011-04-05T12:15:28Z</time>
      </trkpt>
      <trkpt lat="49.19487" lon="6.94022">
        <ele>314</ele>
        <time>2011-04-05T12:15:30Z</time>
      </trkpt>
      <trkpt lat="49.19486" lon="6.94022">
        <ele>310</ele>
        <time>2011-04-05T12:15:32Z</time>
      </trkpt>
      <trkpt lat="49.19485" lon="6.94023">
        <ele>304</ele>
        <time>2011-04-05T12:15:35Z</time>
      </trkpt>
      <trkpt lat="49.19484" lon="6.94025">
        <ele>302</ele>
        <time>2011-04-05T12:15:36Z</time>
      </trkpt>
      <trkpt lat="49.19483" lon="6.94027">
        <ele>300</ele>
        <time>2011-04-05T12:15:37Z</time>
      </trkpt>
      <trkpt lat="49.19482" lon="6.94028">
        <ele>298</ele>
        <time>2011-04-05T12:15:38Z</time>
      </trkpt>
      <trkpt lat="49.1948" lon="6.94028">
        <ele>296</ele>
        <time>2011-04-05T12:15:40Z</time>
      </trkpt>
      <trkpt lat="49.19479" lon="6.9403">
        <ele>295</ele>
        <time>2011-04-05T12:15:41Z</time>
      </trkpt>
      <trkpt lat="49.19479" lon="6.94031">
        <ele>294</ele>
        <time>2011-04-05T12:15:43Z</time>
      </trkpt>
      <trkpt lat="49.19477" lon="6.94031">
        <ele>294</ele>
        <time>2011-04-05T12:15:44Z</time>
      </trkpt>
      <trkpt lat="49.19476" lon="6.9403">
        <ele>294</ele>
        <time>2011-04-05T12:15:45Z</time>
      </trkpt>
      <trkpt lat="49.19474" lon="6.94029">
        <ele>295</ele>
        <time>2011-04-05T12:15:47Z</time>
      </trkpt>
      <trkpt lat="49.19472" lon="6.9403">
        <ele>296</ele>
        <time>2011-04-05T12:15:48Z</time>
      </trkpt>
      <trkpt lat="49.1947" lon="6.94031">
        <ele>297</ele>
        <time>2011-04-05T12:15:49Z</time>
      </trkpt>
      <trkpt lat="49.19468" lon="6.94031">
        <ele>298</ele>
        <time>2011-04-05T12:15:50Z</time>
      </trkpt>
      <trkpt lat="49.19466" lon="6.9403">
        <ele>298</ele>
        <time>2011-04-05T12:15:51Z</time>
      </trkpt>
      <trkpt lat="49.19465" lon="6.94029">
        <ele>298</ele>
        <time>2011-04-05T12:15:52Z</time>
      </trkpt>
      <trkpt lat="49.19464" lon="6.94027">
        <ele>298</ele>
        <time>2011-04-05T12:15:53Z</time>
      </trkpt>
      <trkpt lat="49.19463" lon="6.94025">
        <ele>298</ele>
        <time>2011-04-05T12:15:54Z</time>
      </trkpt>
      <trkpt lat="49.19462" lon="6.94023">
        <ele>298</ele>
        <time>2011-04-05T12:15:55Z</time>
      </trkpt>
      <trkpt lat="49.19461" lon="6.94021">
        <ele>298</ele>
        <time>2011-04-05T12:15:56Z</time>
      </trkpt>
      <trkpt lat="49.1946" lon="6.9402">
        <ele>298</ele>
        <time>2011-04-05T12:15:57Z</time>
      </trkpt>
      <trkpt lat="49.19458" lon="6.94021">
        <ele>298</ele>
        <time>2011-04-05T12:15:58Z</time>
      </trkpt>
      <trkpt lat="49.19457" lon="6.9402">
        <ele>298</ele>
        <time>2011-04-05T12:15:59Z</time>
      </trkpt>
      <trkpt lat="49.19455" lon="6.94018">
        <ele>298</ele>
        <time>2011-04-05T12:16:00Z</time>
      </trkpt>
      <trkpt lat="49.19454" lon="6.94015">
        <ele>298</ele>
        <time>2011-04-05T12:16:01Z</time>
      </trkpt>
      <trkpt lat="49.19453" lon="6.94013">
        <ele>298</ele>
        <time>2011-04-05T12:16:02Z</time>
      </trkpt>
      <trkpt lat="49.19452" lon="6.9401">
        <ele>298</ele>
        <time>2011-04-05T12:16:03Z</time>
      </trkpt>
      <trkpt lat="49.19451" lon="6.94008">
        <ele>298</ele>
        <time>2011-04-05T12:16:04Z</time>
      </trkpt>
      <trkpt lat="49.19451" lon="6.94007">
        <ele>298</ele>
        <time>2011-04-05T12:16:05Z</time>
      </trkpt>
      <trkpt lat="49.19449" lon="6.94002">
        <ele>298</ele>
        <time>2011-04-05T12:16:07Z</time>
      </trkpt>
      <trkpt lat="49.19447" lon="6.93999">
        <ele>298</ele>
        <time>2011-04-05T12:16:10Z</time>
      </trkpt>
      <trkpt lat="49.19446" lon="6.93998">
        <ele>298</ele>
        <time>2011-04-05T12:16:11Z</time>
      </trkpt>
      <trkpt lat="49.19445" lon="6.93996">
        <ele>298</ele>
        <time>2011-04-05T12:16:12Z</time>
      </trkpt>
      <trkpt lat="49.19444" lon="6.93994">
        <ele>298</ele>
        <time>2011-04-05T12:16:14Z</time>
      </trkpt>
      <trkpt lat="49.19444" lon="6.93992">
        <ele>298</ele>
        <time>2011-04-05T12:16:15Z</time>
      </trkpt>
      <trkpt lat="49.19443" lon="6.93989">
        <ele>298</ele>
        <time>2011-04-05T12:16:17Z</time>
      </trkpt>
      <trkpt lat="49.19443" lon="6.93986">
        <ele>298</ele>
        <time>2011-04-05T12:16:18Z</time>
      </trkpt>
      <trkpt lat="49.19442" lon="6.93984">
        <ele>298</ele>
        <time>2011-04-05T12:16:19Z</time>
      </trkpt>
      <trkpt lat="49.19442" lon="6.93982">
        <ele>298</ele>
        <time>2011-04-05T12:16:20Z</time>
      </trkpt>
      <trkpt lat="49.19442" lon="6.93981">
        <ele>298</ele>
        <time>2011-04-05T12:16:22Z</time>
      </trkpt>
      <trkpt lat="49.19442" lon="6.93979">
        <ele>298</ele>
        <time>2011-04-05T12:16:23Z</time>
      </trkpt>
      <trkpt lat="49.19442" lon="6.93974">
        <ele>299</ele>
        <time>2011-04-05T12:16:25Z</time>
      </trkpt>
      <trkpt lat="49.19442" lon="6.93969">
        <ele>300</ele>
        <time>2011-04-05T12:16:26Z</time>
      </trkpt>
      <trkpt lat="49.19442" lon="6.93967">
        <ele>301</ele>
        <time>2011-04-05T12:16:27Z</time>
      </trkpt>
      <trkpt lat="49.19443" lon="6.93962">
        <ele>303</ele>
        <time>2011-04-05T12:16:29Z</time>
      </trkpt>
      <trkpt lat="49.19442" lon="6.93959">
        <ele>305</ele>
        <time>2011-04-05T12:16:30Z</time>
      </trkpt>
      <trkpt lat="49.19442" lon="6.93957">
        <ele>306</ele>
        <time>2011-04-05T12:16:31Z</time>
      </trkpt>
      <trkpt lat="49.19442" lon="6.93954">
        <ele>307</ele>
        <time>2011-04-05T12:16:32Z</time>
      </trkpt>
      <trkpt lat="49.19444" lon="6.93953">
        <ele>309</ele>
        <time>2011-04-05T12:16:34Z</time>
      </trkpt>
      <trkpt lat="49.19445" lon="6.93951">
        <ele>310</ele>
        <time>2011-04-05T12:16:35Z</time>
      </trkpt>
      <trkpt lat="49.19445" lon="6.93949">
        <ele>311</ele>
        <time>2011-04-05T12:16:36Z</time>
      </trkpt>
      <trkpt lat="49.19446" lon="6.93948">
        <ele>312</ele>
        <time>2011-04-05T12:16:37Z</time>
      </trkpt>
      <trkpt lat="49.19448" lon="6.93947">
        <ele>312</ele>
        <time>2011-04-05T12:16:39Z</time>
      </trkpt>
      <trkpt lat="49.1945" lon="6.93948">
        <ele>312</ele>
        <time>2011-04-05T12:16:40Z</time>
      </trkpt>
      <trkpt lat="49.19452" lon="6.93948">
        <ele>312</ele>
        <time>2011-04-05T12:16:41Z</time>
      </trkpt>
      <trkpt lat="49.19453" lon="6.93946">
        <ele>312</ele>
        <time>2011-04-05T12:16:42Z</time>
      </trkpt>
      <trkpt lat="49.19453" lon="6.93943">
        <ele>312</ele>
        <time>2011-04-05T12:16:43Z</time>
      </trkpt>
      <trkpt lat="49.19454" lon="6.93941">
        <ele>312</ele>
        <time>2011-04-05T12:16:44Z</time>
      </trkpt>
      <trkpt lat="49.19457" lon="6.9394">
        <ele>313</ele>
        <time>2011-04-05T12:16:46Z</time>
      </trkpt>
      <trkpt lat="49.19459" lon="6.9394">
        <ele>314</ele>
        <time>2011-04-05T12:16:47Z</time>
      </trkpt>
      <trkpt lat="49.19461" lon="6.93941">
        <ele>315</ele>
        <time>2011-04-05T12:16:48Z</time>
      </trkpt>
      <trkpt lat="49.19462" lon="6.93941">
        <ele>315</ele>
        <time>2011-04-05T12:16:49Z</time>
      </trkpt>
      <trkpt lat="49.19463" lon="6.93941">
        <ele>315</ele>
        <time>2011-04-05T12:16:50Z</time>
      </trkpt>
      <trkpt lat="49.19465" lon="6.93939">
        <ele>315</ele>
        <time>2011-04-05T12:16:52Z</time>
      </trkpt>
      <trkpt lat="49.19466" lon="6.93939">
        <ele>315</ele>
        <time>2011-04-05T12:16:53Z</time>
      </trkpt>
      <trkpt lat="49.19468" lon="6.93939">
        <ele>315</ele>
        <time>2011-04-05T12:16:54Z</time>
      </trkpt>
      <trkpt lat="49.19469" lon="6.93939">
        <ele>315</ele>
        <time>2011-04-05T12:16:55Z</time>
      </trkpt>
      <trkpt lat="49.19471" lon="6.93939">
        <ele>313</ele>
        <time>2011-04-05T12:16:57Z</time>
      </trkpt>
      <trkpt lat="49.19474" lon="6.93937">
        <ele>310</ele>
        <time>2011-04-05T12:17:00Z</time>
      </trkpt>
      <trkpt lat="49.19475" lon="6.93935">
        <ele>309</ele>
        <time>2011-04-05T12:17:01Z</time>
      </trkpt>
      <trkpt lat="49.19476" lon="6.93935">
        <ele>308</ele>
        <time>2011-04-05T12:17:02Z</time>
      </trkpt>
      <trkpt lat="49.19478" lon="6.93934">
        <ele>307</ele>
        <time>2011-04-05T12:17:03Z</time>
      </trkpt>
      <trkpt lat="49.1948" lon="6.93934">
        <ele>306</ele>
        <time>2011-04-05T12:17:04Z</time>
      </trkpt>
      <trkpt lat="49.19481" lon="6.93934">
        <ele>305</ele>
        <time>2011-04-05T12:17:05Z</time>
      </trkpt>
      <trkpt lat="49.19482" lon="6.93932">
        <ele>304</ele>
        <time>2011-04-05T12:17:06Z</time>
      </trkpt>
      <trkpt lat="49.19484" lon="6.93929">
        <ele>303</ele>
        <time>2011-04-05T12:17:08Z</time>
      </trkpt>
      <trkpt lat="49.19485" lon="6.93929">
        <ele>303</ele>
        <time>2011-04-05T12:17:09Z</time>
      </trkpt>
      <trkpt lat="49.19487" lon="6.93928">
        <ele>303</ele>
        <time>2011-04-05T12:17:10Z</time>
      </trkpt>
      <trkpt lat="49.19489" lon="6.93926">
        <ele>302</ele>
        <time>2011-04-05T12:17:12Z</time>
      </trkpt>
      <trkpt lat="49.1949" lon="6.93926">
        <ele>301</ele>
        <time>2011-04-05T12:17:13Z</time>
      </trkpt>
      <trkpt lat="49.19492" lon="6.93925">
        <ele>301</ele>
        <time>2011-04-05T12:17:14Z</time>
      </trkpt>
      <trkpt lat="49.19493" lon="6.93924">
        <ele>300</ele>
        <time>2011-04-05T12:17:15Z</time>
      </trkpt>
      <trkpt lat="49.19494" lon="6.93922">
        <ele>300</ele>
        <time>2011-04-05T12:17:16Z</time>
      </trkpt>
      <trkpt lat="49.19495" lon="6.9392">
        <ele>300</ele>
        <time>2011-04-05T12:17:17Z</time>
      </trkpt>
      <trkpt lat="49.19496" lon="6.93919">
        <ele>300</ele>
        <time>2011-04-05T12:17:19Z</time>
      </trkpt>
      <trkpt lat="49.19497" lon="6.93919">
        <ele>300</ele>
        <time>2011-04-05T12:17:20Z</time>
      </trkpt>
      <trkpt lat="49.19498" lon="6.93921">
        <ele>300</ele>
        <time>2011-04-05T12:17:22Z</time>
      </trkpt>
      <trkpt lat="49.19501" lon="6.93921">
        <ele>299</ele>
        <time>2011-04-05T12:17:24Z</time>
      </trkpt>
      <trkpt lat="49.19503" lon="6.9392">
        <ele>299</ele>
        <time>2011-04-05T12:17:25Z</time>
      </trkpt>
      <trkpt lat="49.19505" lon="6.9392">
        <ele>299</ele>
        <time>2011-04-05T12:17:26Z</time>
      </trkpt>
      <trkpt lat="49.19506" lon="6.9392">
        <ele>299</ele>
        <time>2011-04-05T12:17:27Z</time>
      </trkpt>
      <trkpt lat="49.19507" lon="6.93919">
        <ele>299</ele>
        <time>2011-04-05T12:17:28Z</time>
      </trkpt>
      <trkpt lat="49.19508" lon="6.93919">
        <ele>299</ele>
        <time>2011-04-05T12:17:29Z</time>
      </trkpt>
      <trkpt lat="49.1951" lon="6.93918">
        <ele>299</ele>
        <time>2011-04-05T12:17:30Z</time>
      </trkpt>
      <trkpt lat="49.19512" lon="6.93918">
        <ele>299</ele>
        <time>2011-04-05T12:17:31Z</time>
      </trkpt>
      <trkpt lat="49.19513" lon="6.93918">
        <ele>299</ele>
        <time>2011-04-05T12:17:32Z</time>
      </trkpt>
      <trkpt lat="49.19514" lon="6.93918">
        <ele>299</ele>
        <time>2011-04-05T12:17:33Z</time>
      </trkpt>
      <trkpt lat="49.19516" lon="6.93918">
        <ele>298</ele>
        <time>2011-04-05T12:17:34Z</time>
      </trkpt>
      <trkpt lat="49.19517" lon="6.93917">
        <ele>297</ele>
        <time>2011-04-05T12:17:35Z</time>
      </trkpt>
      <trkpt lat="49.19518" lon="6.93916">
        <ele>296</ele>
        <time>2011-04-05T12:17:36Z</time>
      </trkpt>
      <trkpt lat="49.19521" lon="6.93915">
        <ele>294</ele>
        <time>2011-04-05T12:17:38Z</time>
      </trkpt>
      <trkpt lat="49.19523" lon="6.93914">
        <ele>294</ele>
        <time>2011-04-05T12:17:40Z</time>
      </trkpt>
      <trkpt lat="49.19525" lon="6.93914">
        <ele>294</ele>
        <time>2011-04-05T12:17:41Z</time>
      </trkpt>
      <trkpt lat="49.19528" lon="6.93916">
        <ele>294</ele>
        <time>2011-04-05T12:17:43Z</time>
      </trkpt>
      <trkpt lat="49.19529" lon="6.93916">
        <ele>294</ele>
        <time>2011-04-05T12:17:44Z</time>
      </trkpt>
      <trkpt lat="49.19531" lon="6.93915">
        <ele>294</ele>
        <time>2011-04-05T12:17:45Z</time>
      </trkpt>
      <trkpt lat="49.19533" lon="6.93915">
        <ele>294</ele>
        <time>2011-04-05T12:17:47Z</time>
      </trkpt>
      <trkpt lat="49.19534" lon="6.93915">
        <ele>294</ele>
        <time>2011-04-05T12:17:48Z</time>
      </trkpt>
      <trkpt lat="49.19537" lon="6.93915">
        <ele>294</ele>
        <time>2011-04-05T12:17:50Z</time>
      </trkpt>
      <trkpt lat="49.19538" lon="6.93914">
        <ele>294</ele>
        <time>2011-04-05T12:17:51Z</time>
      </trkpt>
      <trkpt lat="49.19539" lon="6.93913">
        <ele>294</ele>
        <time>2011-04-05T12:17:52Z</time>
      </trkpt>
      <trkpt lat="49.19541" lon="6.93913">
        <ele>294</ele>
        <time>2011-04-05T12:17:53Z</time>
      </trkpt>
      <trkpt lat="49.19542" lon="6.93911">
        <ele>294</ele>
        <time>2011-04-05T12:17:54Z</time>
      </trkpt>
      <trkpt lat="49.19543" lon="6.93911">
        <ele>294</ele>
        <time>2011-04-05T12:17:55Z</time>
      </trkpt>
      <trkpt lat="49.19545" lon="6.93911">
        <ele>294</ele>
        <time>2011-04-05T12:17:56Z</time>
      </trkpt>
      <trkpt lat="49.19548" lon="6.93911">
        <ele>294</ele>
        <time>2011-04-05T12:17:57Z</time>
      </trkpt>
      <trkpt lat="49.19549" lon="6.93911">
        <ele>294</ele>
        <time>2011-04-05T12:17:58Z</time>
      </trkpt>
      <trkpt lat="49.19551" lon="6.9391">
        <ele>294</ele>
        <time>2011-04-05T12:18:00Z</time>
      </trkpt>
      <trkpt lat="49.19553" lon="6.9391">
        <ele>294</ele>
        <time>2011-04-05T12:18:02Z</time>
      </trkpt>
      <trkpt lat="49.19555" lon="6.93907">
        <ele>294</ele>
        <time>2011-04-05T12:18:05Z</time>
      </trkpt>
      <trkpt lat="49.19557" lon="6.93906">
        <ele>294</ele>
        <time>2011-04-05T12:18:06Z</time>
      </trkpt>
      <trkpt lat="49.19558" lon="6.93905">
        <ele>294</ele>
        <time>2011-04-05T12:18:07Z</time>
      </trkpt>
      <trkpt lat="49.1956" lon="6.93905">
        <ele>293</ele>
        <time>2011-04-05T12:18:09Z</time>
      </trkpt>
      <trkpt lat="49.19563" lon="6.93905">
        <ele>292</ele>
        <time>2011-04-05T12:18:10Z</time>
      </trkpt>
      <trkpt lat="49.19566" lon="6.93906">
        <ele>291</ele>
        <time>2011-04-05T12:18:12Z</time>
      </trkpt>
      <trkpt lat="49.19568" lon="6.93906">
        <ele>290</ele>
        <time>2011-04-05T12:18:14Z</time>
      </trkpt>
      <trkpt lat="49.1957" lon="6.93906">
        <ele>290</ele>
        <time>2011-04-05T12:18:15Z</time>
      </trkpt>
      <trkpt lat="49.19572" lon="6.93906">
        <ele>289</ele>
        <time>2011-04-05T12:18:16Z</time>
      </trkpt>
      <trkpt lat="49.19573" lon="6.93905">
        <ele>288</ele>
        <time>2011-04-05T12:18:17Z</time>
      </trkpt>
      <trkpt lat="49.19575" lon="6.93905">
        <ele>288</ele>
        <time>2011-04-05T12:18:18Z</time>
      </trkpt>
      <trkpt lat="49.19577" lon="6.93904">
        <ele>287</ele>
        <time>2011-04-05T12:18:20Z</time>
      </trkpt>
      <trkpt lat="49.19579" lon="6.93903">
        <ele>286</ele>
        <time>2011-04-05T12:18:22Z</time>
      </trkpt>
      <trkpt lat="49.19581" lon="6.93902">
        <ele>285</ele>
        <time>2011-04-05T12:18:24Z</time>
      </trkpt>
      <trkpt lat="49.19583" lon="6.93902">
        <ele>285</ele>
        <time>2011-04-05T12:18:25Z</time>
      </trkpt>
      <trkpt lat="49.19584" lon="6.939">
        <ele>284</ele>
        <time>2011-04-05T12:18:27Z</time>
      </trkpt>
      <trkpt lat="49.19586" lon="6.939">
        <ele>284</ele>
        <time>2011-04-05T12:18:28Z</time>
      </trkpt>
      <trkpt lat="49.19587" lon="6.939">
        <ele>284</ele>
        <time>2011-04-05T12:18:29Z</time>
      </trkpt>
      <trkpt lat="49.1959" lon="6.93901">
        <ele>284</ele>
        <time>2011-04-05T12:18:30Z</time>
      </trkpt>
      <trkpt lat="49.19591" lon="6.93901">
        <ele>284</ele>
        <time>2011-04-05T12:18:31Z</time>
      </trkpt>
      <trkpt lat="49.19593" lon="6.93901">
        <ele>284</ele>
        <time>2011-04-05T12:18:33Z</time>
      </trkpt>
      <trkpt lat="49.19595" lon="6.93901">
        <ele>284</ele>
        <time>2011-04-05T12:18:34Z</time>
      </trkpt>
      <trkpt lat="49.19596" lon="6.93901">
        <ele>284</ele>
        <time>2011-04-05T12:18:35Z</time>
      </trkpt>
      <trkpt lat="49.19597" lon="6.939">
        <ele>284</ele>
        <time>2011-04-05T12:18:36Z</time>
      </trkpt>
      <trkpt lat="49.19599" lon="6.939">
        <ele>283</ele>
        <time>2011-04-05T12:18:37Z</time>
      </trkpt>
      <trkpt lat="49.196" lon="6.93901">
        <ele>283</ele>
        <time>2011-04-05T12:18:38Z</time>
      </trkpt>
      <trkpt lat="49.19601" lon="6.93901">
        <ele>283</ele>
        <time>2011-04-05T12:18:39Z</time>
      </trkpt>
      <trkpt lat="49.19603" lon="6.939">
        <ele>283</ele>
        <time>2011-04-05T12:18:40Z</time>
      </trkpt>
      <trkpt lat="49.19605" lon="6.93899">
        <ele>283</ele>
        <time>2011-04-05T12:18:41Z</time>
      </trkpt>
      <trkpt lat="49.19607" lon="6.939">
        <ele>283</ele>
        <time>2011-04-05T12:18:42Z</time>
      </trkpt>
      <trkpt lat="49.19609" lon="6.939">
        <ele>283</ele>
        <time>2011-04-05T12:18:43Z</time>
      </trkpt>
      <trkpt lat="49.1961" lon="6.939">
        <ele>282</ele>
        <time>2011-04-05T12:18:44Z</time>
      </trkpt>
      <trkpt lat="49.19611" lon="6.93899">
        <ele>281</ele>
        <time>2011-04-05T12:18:46Z</time>
      </trkpt>
      <trkpt lat="49.19614" lon="6.939">
        <ele>281</ele>
        <time>2011-04-05T12:18:48Z</time>
      </trkpt>
      <trkpt lat="49.19616" lon="6.93901">
        <ele>281</ele>
        <time>2011-04-05T12:18:50Z</time>
      </trkpt>
      <trkpt lat="49.19618" lon="6.93901">
        <ele>281</ele>
        <time>2011-04-05T12:18:50Z</time>
      </trkpt>
      <trkpt lat="49.19619" lon="6.93902">
        <ele>281</ele>
        <time>2011-04-05T12:18:51Z</time>
      </trkpt>
      <trkpt lat="49.19621" lon="6.93903">
        <ele>281</ele>
        <time>2011-04-05T12:18:53Z</time>
      </trkpt>
      <trkpt lat="49.19623" lon="6.93902">
        <ele>281</ele>
        <time>2011-04-05T12:18:54Z</time>
      </trkpt>
      <trkpt lat="49.19624" lon="6.93904">
        <ele>279</ele>
        <time>2011-04-05T12:18:56Z</time>
      </trkpt>
      <trkpt lat="49.19626" lon="6.93904">
        <ele>279</ele>
        <time>2011-04-05T12:18:57Z</time>
      </trkpt>
      <trkpt lat="49.19629" lon="6.93905">
        <ele>278</ele>
        <time>2011-04-05T12:18:58Z</time>
      </trkpt>
      <trkpt lat="49.1963" lon="6.93905">
        <ele>278</ele>
        <time>2011-04-05T12:18:59Z</time>
      </trkpt>
      <trkpt lat="49.19633" lon="6.93905">
        <ele>278</ele>
        <time>2011-04-05T12:19:00Z</time>
      </trkpt>
      <trkpt lat="49.19635" lon="6.93906">
        <ele>278</ele>
        <time>2011-04-05T12:19:02Z</time>
      </trkpt>
      <trkpt lat="49.19638" lon="6.93905">
        <ele>278</ele>
        <time>2011-04-05T12:19:04Z</time>
      </trkpt>
      <trkpt lat="49.1964" lon="6.93905">
        <ele>278</ele>
        <time>2011-04-05T12:19:05Z</time>
      </trkpt>
      <trkpt lat="49.19642" lon="6.93904">
        <ele>278</ele>
        <time>2011-04-05T12:19:06Z</time>
      </trkpt>
      <trkpt lat="49.19643" lon="6.93904">
        <ele>277</ele>
        <time>2011-04-05T12:19:07Z</time>
      </trkpt>
      <trkpt lat="49.19645" lon="6.93904">
        <ele>277</ele>
        <time>2011-04-05T12:19:08Z</time>
      </trkpt>
      <trkpt lat="49.19646" lon="6.93904">
        <ele>276</ele>
        <time>2011-04-05T12:19:09Z</time>
      </trkpt>
      <trkpt lat="49.19648" lon="6.93904">
        <ele>276</ele>
        <time>2011-04-05T12:19:10Z</time>
      </trkpt>
      <trkpt lat="49.19649" lon="6.93904">
        <ele>276</ele>
        <time>2011-04-05T12:19:11Z</time>
      </trkpt>
      <trkpt lat="49.19651" lon="6.93903">
        <ele>276</ele>
        <time>2011-04-05T12:19:13Z</time>
      </trkpt>
      <trkpt lat="49.19653" lon="6.93903">
        <ele>275</ele>
        <time>2011-04-05T12:19:14Z</time>
      </trkpt>
      <trkpt lat="49.19654" lon="6.93906">
        <ele>275</ele>
        <time>2011-04-05T12:19:16Z</time>
      </trkpt>
      <trkpt lat="49.19656" lon="6.93907">
        <ele>274</ele>
        <time>2011-04-05T12:19:17Z</time>
      </trkpt>
      <trkpt lat="49.19659" lon="6.93908">
        <ele>274</ele>
        <time>2011-04-05T12:19:18Z</time>
      </trkpt>
      <trkpt lat="49.1966" lon="6.93908">
        <ele>274</ele>
        <time>2011-04-05T12:19:21Z</time>
      </trkpt>
      <trkpt lat="49.19662" lon="6.93909">
        <ele>274</ele>
        <time>2011-04-05T12:19:22Z</time>
      </trkpt>
      <trkpt lat="49.19665" lon="6.93911">
        <ele>274</ele>
        <time>2011-04-05T12:19:23Z</time>
      </trkpt>
      <trkpt lat="49.19667" lon="6.93912">
        <ele>276</ele>
        <time>2011-04-05T12:19:25Z</time>
      </trkpt>
      <trkpt lat="49.19669" lon="6.93912">
        <ele>277</ele>
        <time>2011-04-05T12:19:26Z</time>
      </trkpt>
      <trkpt lat="49.19671" lon="6.93912">
        <ele>277</ele>
        <time>2011-04-05T12:19:27Z</time>
      </trkpt>
      <trkpt lat="49.19673" lon="6.93914">
        <ele>277</ele>
        <time>2011-04-05T12:19:28Z</time>
      </trkpt>
      <trkpt lat="49.19676" lon="6.93914">
        <ele>277</ele>
        <time>2011-04-05T12:19:29Z</time>
      </trkpt>
      <trkpt lat="49.19678" lon="6.93915">
        <ele>278</ele>
        <time>2011-04-05T12:19:30Z</time>
      </trkpt>
      <trkpt lat="49.1968" lon="6.93916">
        <ele>279</ele>
        <time>2011-04-05T12:19:31Z</time>
      </trkpt>
      <trkpt lat="49.19682" lon="6.93917">
        <ele>280</ele>
        <time>2011-04-05T12:19:32Z</time>
      </trkpt>
      <trkpt lat="49.19683" lon="6.93919">
        <ele>282</ele>
        <time>2011-04-05T12:19:35Z</time>
      </trkpt>
      <trkpt lat="49.19685" lon="6.93919">
        <ele>282</ele>
        <time>2011-04-05T12:19:36Z</time>
      </trkpt>
      <trkpt lat="49.19686" lon="6.93919">
        <ele>282</ele>
        <time>2011-04-05T12:19:37Z</time>
      </trkpt>
      <trkpt lat="49.19688" lon="6.93919">
        <ele>282</ele>
        <time>2011-04-05T12:19:39Z</time>
      </trkpt>
      <trkpt lat="49.19689" lon="6.9392">
        <ele>282</ele>
        <time>2011-04-05T12:19:40Z</time>
      </trkpt>
      <trkpt lat="49.19691" lon="6.93919">
        <ele>282</ele>
        <time>2011-04-05T12:19:41Z</time>
      </trkpt>
      <trkpt lat="49.19693" lon="6.93919">
        <ele>282</ele>
        <time>2011-04-05T12:19:43Z</time>
      </trkpt>
      <trkpt lat="49.19694" lon="6.93919">
        <ele>282</ele>
        <time>2011-04-05T12:19:44Z</time>
      </trkpt>
      <trkpt lat="49.19696" lon="6.93918">
        <ele>280</ele>
        <time>2011-04-05T12:19:46Z</time>
      </trkpt>
      <trkpt lat="49.19697" lon="6.93917">
        <ele>278</ele>
        <time>2011-04-05T12:19:48Z</time>
      </trkpt>
      <trkpt lat="49.19698" lon="6.93916">
        <ele>277</ele>
        <time>2011-04-05T12:19:49Z</time>
      </trkpt>
      <trkpt lat="49.19699" lon="6.93916">
        <ele>276</ele>
        <time>2011-04-05T12:19:50Z</time>
      </trkpt>
      <trkpt lat="49.19701" lon="6.93915">
        <ele>276</ele>
        <time>2011-04-05T12:19:51Z</time>
      </trkpt>
      <trkpt lat="49.19703" lon="6.93914">
        <ele>274</ele>
        <time>2011-04-05T12:19:53Z</time>
      </trkpt>
      <trkpt lat="49.19704" lon="6.93913">
        <ele>273</ele>
        <time>2011-04-05T12:19:54Z</time>
      </trkpt>
      <trkpt lat="49.19706" lon="6.9391">
        <ele>271</ele>
        <time>2011-04-05T12:19:56Z</time>
      </trkpt>
      <trkpt lat="49.19708" lon="6.93909">
        <ele>270</ele>
        <time>2011-04-05T12:19:57Z</time>
      </trkpt>
      <trkpt lat="49.1971" lon="6.93906">
        <ele>269</ele>
        <time>2011-04-05T12:19:59Z</time>
      </trkpt>
      <trkpt lat="49.19712" lon="6.93907">
        <ele>269</ele>
        <time>2011-04-05T12:20:00Z</time>
      </trkpt>
      <trkpt lat="49.19714" lon="6.93907">
        <ele>269</ele>
        <time>2011-04-05T12:20:01Z</time>
      </trkpt>
      <trkpt lat="49.19716" lon="6.93907">
        <ele>269</ele>
        <time>2011-04-05T12:20:02Z</time>
      </trkpt>
      <trkpt lat="49.19719" lon="6.93905">
        <ele>269</ele>
        <time>2011-04-05T12:20:04Z</time>
      </trkpt>
      <trkpt lat="49.1972" lon="6.93902">
        <ele>271</ele>
        <time>2011-04-05T12:20:06Z</time>
      </trkpt>
      <trkpt lat="49.19722" lon="6.93899">
        <ele>273</ele>
        <time>2011-04-05T12:20:08Z</time>
      </trkpt>
      <trkpt lat="49.19723" lon="6.93896">
        <ele>274</ele>
        <time>2011-04-05T12:20:09Z</time>
      </trkpt>
      <trkpt lat="49.19724" lon="6.93893">
        <ele>275</ele>
        <time>2011-04-05T12:20:10Z</time>
      </trkpt>
      <trkpt lat="49.19725" lon="6.93891">
        <ele>276</ele>
        <time>2011-04-05T12:20:11Z</time>
      </trkpt>
      <trkpt lat="49.19726" lon="6.93889">
        <ele>277</ele>
        <time>2011-04-05T12:20:12Z</time>
      </trkpt>
      <trkpt lat="49.19726" lon="6.93886">
        <ele>278</ele>
        <time>2011-04-05T12:20:13Z</time>
      </trkpt>
      <trkpt lat="49.19728" lon="6.93884">
        <ele>280</ele>
        <time>2011-04-05T12:20:15Z</time>
      </trkpt>
      <trkpt lat="49.19729" lon="6.93882">
        <ele>281</ele>
        <time>2011-04-05T12:20:16Z</time>
      </trkpt>
      <trkpt lat="49.19731" lon="6.93881">
        <ele>282</ele>
        <time>2011-04-05T12:20:17Z</time>
      </trkpt>
      <trkpt lat="49.19733" lon="6.93878">
        <ele>283</ele>
        <time>2011-04-05T12:20:19Z</time>
      </trkpt>
      <trkpt lat="49.19735" lon="6.93877">
        <ele>284</ele>
        <time>2011-04-05T12:20:20Z</time>
      </trkpt>
      <trkpt lat="49.19736" lon="6.93875">
        <ele>285</ele>
        <time>2011-04-05T12:20:21Z</time>
      </trkpt>
      <trkpt lat="49.19737" lon="6.93873">
        <ele>286</ele>
        <time>2011-04-05T12:20:22Z</time>
      </trkpt>
      <trkpt lat="49.19738" lon="6.9387">
        <ele>286</ele>
        <time>2011-04-05T12:20:24Z</time>
      </trkpt>
      <trkpt lat="49.19739" lon="6.93867">
        <ele>286</ele>
        <time>2011-04-05T12:20:26Z</time>
      </trkpt>
      <trkpt lat="49.19739" lon="6.93865">
        <ele>286</ele>
        <time>2011-04-05T12:20:27Z</time>
      </trkpt>
      <trkpt lat="49.19739" lon="6.93864">
        <ele>286</ele>
        <time>2011-04-05T12:20:28Z</time>
      </trkpt>
      <trkpt lat="49.1974" lon="6.93861">
        <ele>285</ele>
        <time>2011-04-05T12:20:30Z</time>
      </trkpt>
      <trkpt lat="49.1974" lon="6.93859">
        <ele>284</ele>
        <time>2011-04-05T12:20:31Z</time>
      </trkpt>
      <trkpt lat="49.1974" lon="6.93856">
        <ele>283</ele>
        <time>2011-04-05T12:20:32Z</time>
      </trkpt>
      <trkpt lat="49.19741" lon="6.93854">
        <ele>281</ele>
        <time>2011-04-05T12:20:34Z</time>
      </trkpt>
      <trkpt lat="49.19741" lon="6.93852">
        <ele>281</ele>
        <time>2011-04-05T12:20:35Z</time>
      </trkpt>
      <trkpt lat="49.19741" lon="6.93851">
        <ele>280</ele>
        <time>2011-04-05T12:20:36Z</time>
      </trkpt>
      <trkpt lat="49.19741" lon="6.93849">
        <ele>280</ele>
        <time>2011-04-05T12:20:37Z</time>
      </trkpt>
      <trkpt lat="49.19741" lon="6.93846">
        <ele>278</ele>
        <time>2011-04-05T12:20:39Z</time>
      </trkpt>
      <trkpt lat="49.19741" lon="6.93844">
        <ele>277</ele>
        <time>2011-04-05T12:20:41Z</time>
      </trkpt>
      <trkpt lat="49.19741" lon="6.93843">
        <ele>276</ele>
        <time>2011-04-05T12:20:42Z</time>
      </trkpt>
      <trkpt lat="49.1974" lon="6.93839">
        <ele>274</ele>
        <time>2011-04-05T12:20:44Z</time>
      </trkpt>
      <trkpt lat="49.1974" lon="6.93836">
        <ele>273</ele>
        <time>2011-04-05T12:20:46Z</time>
      </trkpt>
      <trkpt lat="49.19739" lon="6.93833">
        <ele>272</ele>
        <time>2011-04-05T12:20:48Z</time>
      </trkpt>
      <trkpt lat="49.19738" lon="6.93831">
        <ele>271</ele>
        <time>2011-04-05T12:20:49Z</time>
      </trkpt>
      <trkpt lat="49.19738" lon="6.93828">
        <ele>270</ele>
        <time>2011-04-05T12:20:51Z</time>
      </trkpt>
      <trkpt lat="49.19738" lon="6.93825">
        <ele>269</ele>
        <time>2011-04-05T12:20:53Z</time>
      </trkpt>
      <trkpt lat="49.19736" lon="6.93822">
        <ele>268</ele>
        <time>2011-04-05T12:20:54Z</time>
      </trkpt>
      <trkpt lat="49.19735" lon="6.9382">
        <ele>268</ele>
        <time>2011-04-05T12:20:55Z</time>
      </trkpt>
      <trkpt lat="49.19734" lon="6.93818">
        <ele>268</ele>
        <time>2011-04-05T12:20:56Z</time>
      </trkpt>
      <trkpt lat="49.19733" lon="6.93816">
        <ele>267</ele>
        <time>2011-04-05T12:20:57Z</time>
      </trkpt>
      <trkpt lat="49.19732" lon="6.93813">
        <ele>267</ele>
        <time>2011-04-05T12:20:58Z</time>
      </trkpt>
      <trkpt lat="49.1973" lon="6.9381">
        <ele>267</ele>
        <time>2011-04-05T12:21:00Z</time>
      </trkpt>
      <trkpt lat="49.19729" lon="6.93808">
        <ele>267</ele>
        <time>2011-04-05T12:21:01Z</time>
      </trkpt>
      <trkpt lat="49.19728" lon="6.93806">
        <ele>267</ele>
        <time>2011-04-05T12:21:02Z</time>
      </trkpt>
      <trkpt lat="49.19727" lon="6.93804">
        <ele>267</ele>
        <time>2011-04-05T12:21:03Z</time>
      </trkpt>
      <trkpt lat="49.19727" lon="6.93802">
        <ele>267</ele>
        <time>2011-04-05T12:21:05Z</time>
      </trkpt>
      <trkpt lat="49.19726" lon="6.938">
        <ele>267</ele>
        <time>2011-04-05T12:21:06Z</time>
      </trkpt>
      <trkpt lat="49.19725" lon="6.93797">
        <ele>267</ele>
        <time>2011-04-05T12:21:08Z</time>
      </trkpt>
      <trkpt lat="49.19725" lon="6.93795">
        <ele>267</ele>
        <time>2011-04-05T12:21:09Z</time>
      </trkpt>
      <trkpt lat="49.19724" lon="6.93794">
        <ele>267</ele>
        <time>2011-04-05T12:21:10Z</time>
      </trkpt>
      <trkpt lat="49.19724" lon="6.93792">
        <ele>267</ele>
        <time>2011-04-05T12:21:11Z</time>
      </trkpt>
      <trkpt lat="49.19723" lon="6.9379">
        <ele>268</ele>
        <time>2011-04-05T12:21:12Z</time>
      </trkpt>
      <trkpt lat="49.19723" lon="6.93788">
        <ele>269</ele>
        <time>2011-04-05T12:21:13Z</time>
      </trkpt>
      <trkpt lat="49.19723" lon="6.93786">
        <ele>270</ele>
        <time>2011-04-05T12:21:14Z</time>
      </trkpt>
      <trkpt lat="49.19721" lon="6.9378">
        <ele>271</ele>
        <time>2011-04-05T12:21:15Z</time>
      </trkpt>
      <trkpt lat="49.19719" lon="6.93776">
        <ele>275</ele>
        <time>2011-04-05T12:21:17Z</time>
      </trkpt>
      <trkpt lat="49.19718" lon="6.93773">
        <ele>277</ele>
        <time>2011-04-05T12:21:18Z</time>
      </trkpt>
      <trkpt lat="49.19717" lon="6.93771">
        <ele>279</ele>
        <time>2011-04-05T12:21:19Z</time>
      </trkpt>
      <trkpt lat="49.19716" lon="6.93769">
        <ele>281</ele>
        <time>2011-04-05T12:21:20Z</time>
      </trkpt>
      <trkpt lat="49.19715" lon="6.93767">
        <ele>283</ele>
        <time>2011-04-05T12:21:21Z</time>
      </trkpt>
      <trkpt lat="49.19714" lon="6.93765">
        <ele>285</ele>
        <time>2011-04-05T12:21:23Z</time>
      </trkpt>
      <trkpt lat="49.19713" lon="6.93763">
        <ele>287</ele>
        <time>2011-04-05T12:21:25Z</time>
      </trkpt>
      <trkpt lat="49.19712" lon="6.93761">
        <ele>288</ele>
        <time>2011-04-05T12:21:27Z</time>
      </trkpt>
      <trkpt lat="49.1971" lon="6.9376">
        <ele>288</ele>
        <time>2011-04-05T12:21:29Z</time>
      </trkpt>
      <trkpt lat="49.19709" lon="6.93758">
        <ele>288</ele>
        <time>2011-04-05T12:21:31Z</time>
      </trkpt>
      <trkpt lat="49.19707" lon="6.93756">
        <ele>288</ele>
        <time>2011-04-05T12:21:33Z</time>
      </trkpt>
      <trkpt lat="49.19706" lon="6.93753">
        <ele>287</ele>
        <time>2011-04-05T12:21:35Z</time>
      </trkpt>
      <trkpt lat="49.19705" lon="6.93752">
        <ele>287</ele>
        <time>2011-04-05T12:21:36Z</time>
      </trkpt>
      <trkpt lat="49.19704" lon="6.9375">
        <ele>286</ele>
        <time>2011-04-05T12:21:38Z</time>
      </trkpt>
      <trkpt lat="49.19703" lon="6.93747">
        <ele>285</ele>
        <time>2011-04-05T12:21:40Z</time>
      </trkpt>
      <trkpt lat="49.19702" lon="6.93746">
        <ele>283</ele>
        <time>2011-04-05T12:21:42Z</time>
      </trkpt>
      <trkpt lat="49.19701" lon="6.93743">
        <ele>281</ele>
        <time>2011-04-05T12:21:44Z</time>
      </trkpt>
      <trkpt lat="49.19699" lon="6.93741">
        <ele>279</ele>
        <time>2011-04-05T12:21:46Z</time>
      </trkpt>
      <trkpt lat="49.19698" lon="6.93739">
        <ele>278</ele>
        <time>2011-04-05T12:21:47Z</time>
      </trkpt>
      <trkpt lat="49.19696" lon="6.93736">
        <ele>278</ele>
        <time>2011-04-05T12:21:49Z</time>
      </trkpt>
      <trkpt lat="49.19693" lon="6.9373">
        <ele>278</ele>
        <time>2011-04-05T12:21:51Z</time>
      </trkpt>
      <trkpt lat="49.19691" lon="6.93729">
        <ele>278</ele>
        <time>2011-04-05T12:21:52Z</time>
      </trkpt>
      <trkpt lat="49.19689" lon="6.93725">
        <ele>278</ele>
        <time>2011-04-05T12:21:53Z</time>
      </trkpt>
      <trkpt lat="49.19688" lon="6.93727">
        <ele>279</ele>
        <time>2011-04-05T12:21:54Z</time>
      </trkpt>
      <trkpt lat="49.19687" lon="6.93729">
        <ele>280</ele>
        <time>2011-04-05T12:21:55Z</time>
      </trkpt>
      <trkpt lat="49.19687" lon="6.93731">
        <ele>281</ele>
        <time>2011-04-05T12:21:56Z</time>
      </trkpt>
      <trkpt lat="49.19688" lon="6.93734">
        <ele>282</ele>
        <time>2011-04-05T12:21:58Z</time>
      </trkpt>
      <trkpt lat="49.19688" lon="6.93736">
        <ele>282</ele>
        <time>2011-04-05T12:21:59Z</time>
      </trkpt>
      <trkpt lat="49.19689" lon="6.93739">
        <ele>282</ele>
        <time>2011-04-05T12:22:01Z</time>
      </trkpt>
      <trkpt lat="49.1969" lon="6.93742">
        <ele>282</ele>
        <time>2011-04-05T12:22:03Z</time>
      </trkpt>
      <trkpt lat="49.19692" lon="6.93744">
        <ele>282</ele>
        <time>2011-04-05T12:22:05Z</time>
      </trkpt>
      <trkpt lat="49.19693" lon="6.93747">
        <ele>282</ele>
        <time>2011-04-05T12:22:07Z</time>
      </trkpt>
      <trkpt lat="49.19693" lon="6.93749">
        <ele>282</ele>
        <time>2011-04-05T12:22:08Z</time>
      </trkpt>
      <trkpt lat="49.19696" lon="6.93752">
        <ele>282</ele>
        <time>2011-04-05T12:22:10Z</time>
      </trkpt>
      <trkpt lat="49.19696" lon="6.93755">
        <ele>282</ele>
        <time>2011-04-05T12:22:11Z</time>
      </trkpt>
      <trkpt lat="49.19696" lon="6.93758">
        <ele>282</ele>
        <time>2011-04-05T12:22:12Z</time>
      </trkpt>
      <trkpt lat="49.19696" lon="6.9376">
        <ele>282</ele>
        <time>2011-04-05T12:22:13Z</time>
      </trkpt>
      <trkpt lat="49.19696" lon="6.93762">
        <ele>282</ele>
        <time>2011-04-05T12:22:15Z</time>
      </trkpt>
      <trkpt lat="49.19695" lon="6.93765">
        <ele>282</ele>
        <time>2011-04-05T12:22:17Z</time>
      </trkpt>
      <trkpt lat="49.19695" lon="6.93767">
        <ele>282</ele>
        <time>2011-04-05T12:22:19Z</time>
      </trkpt>
      <trkpt lat="49.19695" lon="6.93769">
        <ele>282</ele>
        <time>2011-04-05T12:22:20Z</time>
      </trkpt>
      <trkpt lat="49.19695" lon="6.93772">
        <ele>282</ele>
        <time>2011-04-05T12:22:21Z</time>
      </trkpt>
      <trkpt lat="49.19696" lon="6.93774">
        <ele>282</ele>
        <time>2011-04-05T12:22:22Z</time>
      </trkpt>
      <trkpt lat="49.19696" lon="6.93776">
        <ele>282</ele>
        <time>2011-04-05T12:22:24Z</time>
      </trkpt>
      <trkpt lat="49.19697" lon="6.93778">
        <ele>280</ele>
        <time>2011-04-05T12:22:26Z</time>
      </trkpt>
      <trkpt lat="49.19696" lon="6.9378">
        <ele>278</ele>
        <time>2011-04-05T12:22:28Z</time>
      </trkpt>
      <trkpt lat="49.19696" lon="6.93782">
        <ele>277</ele>
        <time>2011-04-05T12:22:29Z</time>
      </trkpt>
      <trkpt lat="49.19696" lon="6.93784">
        <ele>276</ele>
        <time>2011-04-05T12:22:31Z</time>
      </trkpt>
      <trkpt lat="49.19696" lon="6.93786">
        <ele>275</ele>
        <time>2011-04-05T12:22:33Z</time>
      </trkpt>
      <trkpt lat="49.19697" lon="6.93788">
        <ele>274</ele>
        <time>2011-04-05T12:22:34Z</time>
      </trkpt>
      <trkpt lat="49.19697" lon="6.93791">
        <ele>274</ele>
        <time>2011-04-05T12:22:36Z</time>
      </trkpt>
      <trkpt lat="49.19698" lon="6.93793">
        <ele>274</ele>
        <time>2011-04-05T12:22:38Z</time>
      </trkpt>
      <trkpt lat="49.19698" lon="6.93796">
        <ele>274</ele>
        <time>2011-04-05T12:22:40Z</time>
      </trkpt>
      <trkpt lat="49.19698" lon="6.93798">
        <ele>273</ele>
        <time>2011-04-05T12:22:41Z</time>
      </trkpt>
      <trkpt lat="49.19698" lon="6.93801">
        <ele>273</ele>
        <time>2011-04-05T12:22:43Z</time>
      </trkpt>
      <trkpt lat="49.19699" lon="6.93803">
        <ele>273</ele>
        <time>2011-04-05T12:22:45Z</time>
      </trkpt>
      <trkpt lat="49.19699" lon="6.93805">
        <ele>272</ele>
        <time>2011-04-05T12:22:47Z</time>
      </trkpt>
      <trkpt lat="49.19699" lon="6.93808">
        <ele>272</ele>
        <time>2011-04-05T12:22:49Z</time>
      </trkpt>
      <trkpt lat="49.19699" lon="6.93811">
        <ele>272</ele>
        <time>2011-04-05T12:22:51Z</time>
      </trkpt>
      <trkpt lat="49.19699" lon="6.93814">
        <ele>272</ele>
        <time>2011-04-05T12:22:53Z</time>
      </trkpt>
      <trkpt lat="49.19698" lon="6.93816">
        <ele>272</ele>
        <time>2011-04-05T12:22:54Z</time>
      </trkpt>
      <trkpt lat="49.19698" lon="6.93818">
        <ele>272</ele>
        <time>2011-04-05T12:22:55Z</time>
      </trkpt>
      <trkpt lat="49.19698" lon="6.9382">
        <ele>272</ele>
        <time>2011-04-05T12:22:56Z</time>
      </trkpt>
      <trkpt lat="49.19698" lon="6.93821">
        <ele>272</ele>
        <time>2011-04-05T12:22:58Z</time>
      </trkpt>
      <trkpt lat="49.19698" lon="6.93824">
        <ele>272</ele>
        <time>2011-04-05T12:23:00Z</time>
      </trkpt>
      <trkpt lat="49.19699" lon="6.93827">
        <ele>272</ele>
        <time>2011-04-05T12:23:02Z</time>
      </trkpt>
      <trkpt lat="49.19699" lon="6.93829">
        <ele>272</ele>
        <time>2011-04-05T12:23:04Z</time>
      </trkpt>
      <trkpt lat="49.19698" lon="6.93831">
        <ele>272</ele>
        <time>2011-04-05T12:23:06Z</time>
      </trkpt>
      <trkpt lat="49.19697" lon="6.93833">
        <ele>272</ele>
        <time>2011-04-05T12:23:08Z</time>
      </trkpt>
      <trkpt lat="49.19695" lon="6.93836">
        <ele>272</ele>
        <time>2011-04-05T12:23:10Z</time>
      </trkpt>
      <trkpt lat="49.19695" lon="6.93837">
        <ele>272</ele>
        <time>2011-04-05T12:23:11Z</time>
      </trkpt>
      <trkpt lat="49.19694" lon="6.9384">
        <ele>272</ele>
        <time>2011-04-05T12:23:13Z</time>
      </trkpt>
      <trkpt lat="49.19695" lon="6.93843">
        <ele>272</ele>
        <time>2011-04-05T12:23:15Z</time>
      </trkpt>
      <trkpt lat="49.19693" lon="6.93846">
        <ele>274</ele>
        <time>2011-04-05T12:23:17Z</time>
      </trkpt>
      <trkpt lat="49.19692" lon="6.93849">
        <ele>276</ele>
        <time>2011-04-05T12:23:19Z</time>
      </trkpt>
      <trkpt lat="49.1969" lon="6.93851">
        <ele>278</ele>
        <time>2011-04-05T12:23:21Z</time>
      </trkpt>
      <trkpt lat="49.19688" lon="6.93851">
        <ele>280</ele>
        <time>2011-04-05T12:23:23Z</time>
      </trkpt>
      <trkpt lat="49.19687" lon="6.93852">
        <ele>281</ele>
        <time>2011-04-05T12:23:24Z</time>
      </trkpt>
      <trkpt lat="49.19686" lon="6.93853">
        <ele>283</ele>
        <time>2011-04-05T12:23:26Z</time>
      </trkpt>
      <trkpt lat="49.19684" lon="6.93853">
        <ele>285</ele>
        <time>2011-04-05T12:23:29Z</time>
      </trkpt>
      <trkpt lat="49.19683" lon="6.93853">
        <ele>286</ele>
        <time>2011-04-05T12:23:31Z</time>
      </trkpt>
      <trkpt lat="49.19681" lon="6.93852">
        <ele>287</ele>
        <time>2011-04-05T12:23:33Z</time>
      </trkpt>
      <trkpt lat="49.19679" lon="6.93851">
        <ele>288</ele>
        <time>2011-04-05T12:23:35Z</time>
      </trkpt>
      <trkpt lat="49.19677" lon="6.93851">
        <ele>289</ele>
        <time>2011-04-05T12:23:37Z</time>
      </trkpt>
      <trkpt lat="49.19676" lon="6.93851">
        <ele>289</ele>
        <time>2011-04-05T12:23:38Z</time>
      </trkpt>
      <trkpt lat="49.19674" lon="6.9385">
        <ele>290</ele>
        <time>2011-04-05T12:23:39Z</time>
      </trkpt>
      <trkpt lat="49.19672" lon="6.93848">
        <ele>291</ele>
        <time>2011-04-05T12:23:41Z</time>
      </trkpt>
      <trkpt lat="49.1967" lon="6.93845">
        <ele>293</ele>
        <time>2011-04-05T12:23:43Z</time>
      </trkpt>
      <trkpt lat="49.19669" lon="6.93843">
        <ele>295</ele>
        <time>2011-04-05T12:23:45Z</time>
      </trkpt>
      <trkpt lat="49.19667" lon="6.9384">
        <ele>297</ele>
        <time>2011-04-05T12:23:47Z</time>
      </trkpt>
      <trkpt lat="49.19665" lon="6.9384">
        <ele>298</ele>
        <time>2011-04-05T12:23:48Z</time>
      </trkpt>
      <trkpt lat="49.19664" lon="6.93839">
        <ele>299</ele>
        <time>2011-04-05T12:23:50Z</time>
      </trkpt>
      <trkpt lat="49.19662" lon="6.93838">
        <ele>300</ele>
        <time>2011-04-05T12:23:53Z</time>
      </trkpt>
      <trkpt lat="49.19661" lon="6.93838">
        <ele>300</ele>
        <time>2011-04-05T12:23:54Z</time>
      </trkpt>
      <trkpt lat="49.1966" lon="6.93837">
        <ele>300</ele>
        <time>2011-04-05T12:23:56Z</time>
      </trkpt>
      <trkpt lat="49.19659" lon="6.93836">
        <ele>300</ele>
        <time>2011-04-05T12:23:58Z</time>
      </trkpt>
      <trkpt lat="49.19657" lon="6.93836">
        <ele>300</ele>
        <time>2011-04-05T12:23:59Z</time>
      </trkpt>
      <trkpt lat="49.19656" lon="6.93835">
        <ele>300</ele>
        <time>2011-04-05T12:24:00Z</time>
      </trkpt>
      <trkpt lat="49.19654" lon="6.93835">
        <ele>300</ele>
        <time>2011-04-05T12:24:01Z</time>
      </trkpt>
      <trkpt lat="49.19653" lon="6.93835">
        <ele>300</ele>
        <time>2011-04-05T12:24:02Z</time>
      </trkpt>
      <trkpt lat="49.19652" lon="6.93835">
        <ele>300</ele>
        <time>2011-04-05T12:24:03Z</time>
      </trkpt>
      <trkpt lat="49.1965" lon="6.93834">
        <ele>300</ele>
        <time>2011-04-05T12:24:05Z</time>
      </trkpt>
      <trkpt lat="49.19649" lon="6.93834">
        <ele>300</ele>
        <time>2011-04-05T12:24:07Z</time>
      </trkpt>
      <trkpt lat="49.19648" lon="6.93832">
        <ele>300</ele>
        <time>2011-04-05T12:24:10Z</time>
      </trkpt>
      <trkpt lat="49.19646" lon="6.93831">
        <ele>301</ele>
        <time>2011-04-05T12:24:13Z</time>
      </trkpt>
      <trkpt lat="49.19645" lon="6.93831">
        <ele>301</ele>
        <time>2011-04-05T12:24:14Z</time>
      </trkpt>
      <trkpt lat="49.19643" lon="6.9383">
        <ele>302</ele>
        <time>2011-04-05T12:24:16Z</time>
      </trkpt>
      <trkpt lat="49.19641" lon="6.9383">
        <ele>303</ele>
        <time>2011-04-05T12:24:18Z</time>
      </trkpt>
      <trkpt lat="49.1964" lon="6.9383">
        <ele>303</ele>
        <time>2011-04-05T12:24:20Z</time>
      </trkpt>
      <trkpt lat="49.19638" lon="6.9383">
        <ele>303</ele>
        <time>2011-04-05T12:24:22Z</time>
      </trkpt>
      <trkpt lat="49.19636" lon="6.93829">
        <ele>304</ele>
        <time>2011-04-05T12:24:24Z</time>
      </trkpt>
      <trkpt lat="49.19635" lon="6.93828">
        <ele>304</ele>
        <time>2011-04-05T12:24:26Z</time>
      </trkpt>
      <trkpt lat="49.19633" lon="6.93827">
        <ele>304</ele>
        <time>2011-04-05T12:24:28Z</time>
      </trkpt>
      <trkpt lat="49.19631" lon="6.93826">
        <ele>304</ele>
        <time>2011-04-05T12:24:29Z</time>
      </trkpt>
      <trkpt lat="49.19629" lon="6.93826">
        <ele>304</ele>
        <time>2011-04-05T12:24:31Z</time>
      </trkpt>
      <trkpt lat="49.19628" lon="6.93826">
        <ele>304</ele>
        <time>2011-04-05T12:24:32Z</time>
      </trkpt>
      <trkpt lat="49.19627" lon="6.93826">
        <ele>305</ele>
        <time>2011-04-05T12:24:33Z</time>
      </trkpt>
      <trkpt lat="49.19626" lon="6.93825">
        <ele>305</ele>
        <time>2011-04-05T12:24:35Z</time>
      </trkpt>
      <trkpt lat="49.19624" lon="6.93825">
        <ele>305</ele>
        <time>2011-04-05T12:24:36Z</time>
      </trkpt>
      <trkpt lat="49.19623" lon="6.93824">
        <ele>305</ele>
        <time>2011-04-05T12:24:37Z</time>
      </trkpt>
      <trkpt lat="49.19621" lon="6.93824">
        <ele>305</ele>
        <time>2011-04-05T12:24:39Z</time>
      </trkpt>
      <trkpt lat="49.19619" lon="6.93822">
        <ele>305</ele>
        <time>2011-04-05T12:24:41Z</time>
      </trkpt>
      <trkpt lat="49.19617" lon="6.93822">
        <ele>305</ele>
        <time>2011-04-05T12:24:42Z</time>
      </trkpt>
      <trkpt lat="49.19615" lon="6.93821">
        <ele>305</ele>
        <time>2011-04-05T12:24:43Z</time>
      </trkpt>
      <trkpt lat="49.19614" lon="6.93821">
        <ele>305</ele>
        <time>2011-04-05T12:24:44Z</time>
      </trkpt>
      <trkpt lat="49.19613" lon="6.9382">
        <ele>305</ele>
        <time>2011-04-05T12:24:45Z</time>
      </trkpt>
      <trkpt lat="49.19611" lon="6.93819">
        <ele>305</ele>
        <time>2011-04-05T12:24:46Z</time>
      </trkpt>
      <trkpt lat="49.1961" lon="6.93819">
        <ele>305</ele>
        <time>2011-04-05T12:24:47Z</time>
      </trkpt>
      <trkpt lat="49.19609" lon="6.93818">
        <ele>305</ele>
        <time>2011-04-05T12:24:48Z</time>
      </trkpt>
      <trkpt lat="49.19608" lon="6.93815">
        <ele>305</ele>
        <time>2011-04-05T12:24:50Z</time>
      </trkpt>
      <trkpt lat="49.19606" lon="6.93815">
        <ele>305</ele>
        <time>2011-04-05T12:24:51Z</time>
      </trkpt>
      <trkpt lat="49.19605" lon="6.93814">
        <ele>305</ele>
        <time>2011-04-05T12:24:52Z</time>
      </trkpt>
      <trkpt lat="49.19603" lon="6.93815">
        <ele>305</ele>
        <time>2011-04-05T12:24:53Z</time>
      </trkpt>
      <trkpt lat="49.19601" lon="6.93813">
        <ele>305</ele>
        <time>2011-04-05T12:24:55Z</time>
      </trkpt>
      <trkpt lat="49.196" lon="6.93813">
        <ele>305</ele>
        <time>2011-04-05T12:24:56Z</time>
      </trkpt>
      <trkpt lat="49.19598" lon="6.93812">
        <ele>306</ele>
        <time>2011-04-05T12:24:58Z</time>
      </trkpt>
      <trkpt lat="49.19597" lon="6.93812">
        <ele>306</ele>
        <time>2011-04-05T12:24:59Z</time>
      </trkpt>
      <trkpt lat="49.19595" lon="6.93811">
        <ele>306</ele>
        <time>2011-04-05T12:25:01Z</time>
      </trkpt>
      <trkpt lat="49.19593" lon="6.93811">
        <ele>306</ele>
        <time>2011-04-05T12:25:02Z</time>
      </trkpt>
      <trkpt lat="49.19592" lon="6.9381">
        <ele>306</ele>
        <time>2011-04-05T12:25:03Z</time>
      </trkpt>
      <trkpt lat="49.1959" lon="6.93807">
        <ele>306</ele>
        <time>2011-04-05T12:25:05Z</time>
      </trkpt>
      <trkpt lat="49.19588" lon="6.93807">
        <ele>306</ele>
        <time>2011-04-05T12:25:07Z</time>
      </trkpt>
      <trkpt lat="49.19587" lon="6.93807">
        <ele>306</ele>
        <time>2011-04-05T12:25:09Z</time>
      </trkpt>
      <trkpt lat="49.19585" lon="6.93806">
        <ele>306</ele>
        <time>2011-04-05T12:25:11Z</time>
      </trkpt>
      <trkpt lat="49.19584" lon="6.93806">
        <ele>306</ele>
        <time>2011-04-05T12:25:12Z</time>
      </trkpt>
      <trkpt lat="49.19582" lon="6.93806">
        <ele>306</ele>
        <time>2011-04-05T12:25:13Z</time>
      </trkpt>
      <trkpt lat="49.19581" lon="6.93806">
        <ele>306</ele>
        <time>2011-04-05T12:25:14Z</time>
      </trkpt>
      <trkpt lat="49.19579" lon="6.93806">
        <ele>306</ele>
        <time>2011-04-05T12:25:16Z</time>
      </trkpt>
      <trkpt lat="49.19577" lon="6.93804">
        <ele>306</ele>
        <time>2011-04-05T12:25:18Z</time>
      </trkpt>
      <trkpt lat="49.19575" lon="6.93803">
        <ele>307</ele>
        <time>2011-04-05T12:25:20Z</time>
      </trkpt>
      <trkpt lat="49.19573" lon="6.93803">
        <ele>308</ele>
        <time>2011-04-05T12:25:22Z</time>
      </trkpt>
      <trkpt lat="49.19572" lon="6.93804">
        <ele>309</ele>
        <time>2011-04-05T12:25:24Z</time>
      </trkpt>
      <trkpt lat="49.1957" lon="6.93805">
        <ele>309</ele>
        <time>2011-04-05T12:25:25Z</time>
      </trkpt>
      <trkpt lat="49.19568" lon="6.93805">
        <ele>309</ele>
        <time>2011-04-05T12:25:26Z</time>
      </trkpt>
      <trkpt lat="49.19566" lon="6.93806">
        <ele>309</ele>
        <time>2011-04-05T12:25:27Z</time>
      </trkpt>
      <trkpt lat="49.19564" lon="6.93806">
        <ele>309</ele>
        <time>2011-04-05T12:25:29Z</time>
      </trkpt>
      <trkpt lat="49.19563" lon="6.93805">
        <ele>309</ele>
        <time>2011-04-05T12:25:30Z</time>
      </trkpt>
      <trkpt lat="49.19561" lon="6.93804">
        <ele>309</ele>
        <time>2011-04-05T12:25:32Z</time>
      </trkpt>
      <trkpt lat="49.1956" lon="6.93804">
        <ele>309</ele>
        <time>2011-04-05T12:25:33Z</time>
      </trkpt>
      <trkpt lat="49.19558" lon="6.93804">
        <ele>309</ele>
        <time>2011-04-05T12:25:35Z</time>
      </trkpt>
      <trkpt lat="49.19557" lon="6.93804">
        <ele>309</ele>
        <time>2011-04-05T12:25:36Z</time>
      </trkpt>
      <trkpt lat="49.19555" lon="6.93804">
        <ele>309</ele>
        <time>2011-04-05T12:25:37Z</time>
      </trkpt>
      <trkpt lat="49.19553" lon="6.93804">
        <ele>309</ele>
        <time>2011-04-05T12:25:38Z</time>
      </trkpt>
      <trkpt lat="49.19552" lon="6.93803">
        <ele>309</ele>
        <time>2011-04-05T12:25:40Z</time>
      </trkpt>
      <trkpt lat="49.1955" lon="6.93802">
        <ele>309</ele>
        <time>2011-04-05T12:25:42Z</time>
      </trkpt>
      <trkpt lat="49.19549" lon="6.93801">
        <ele>310</ele>
        <time>2011-04-05T12:25:44Z</time>
      </trkpt>
      <trkpt lat="49.19548" lon="6.93801">
        <ele>311</ele>
        <time>2011-04-05T12:25:45Z</time>
      </trkpt>
      <trkpt lat="49.19546" lon="6.93802">
        <ele>312</ele>
        <time>2011-04-05T12:25:47Z</time>
      </trkpt>
      <trkpt lat="49.19545" lon="6.93803">
        <ele>313</ele>
        <time>2011-04-05T12:25:49Z</time>
      </trkpt>
      <trkpt lat="49.19543" lon="6.93803">
        <ele>314</ele>
        <time>2011-04-05T12:25:50Z</time>
      </trkpt>
      <trkpt lat="49.1954" lon="6.93804">
        <ele>314</ele>
        <time>2011-04-05T12:25:52Z</time>
      </trkpt>
      <trkpt lat="49.19539" lon="6.93804">
        <ele>314</ele>
        <time>2011-04-05T12:25:53Z</time>
      </trkpt>
      <trkpt lat="49.19537" lon="6.93804">
        <ele>314</ele>
        <time>2011-04-05T12:25:54Z</time>
      </trkpt>
      <trkpt lat="49.19536" lon="6.93802">
        <ele>314</ele>
        <time>2011-04-05T12:25:56Z</time>
      </trkpt>
      <trkpt lat="49.19534" lon="6.93802">
        <ele>314</ele>
        <time>2011-04-05T12:25:57Z</time>
      </trkpt>
      <trkpt lat="49.19532" lon="6.93803">
        <ele>314</ele>
        <time>2011-04-05T12:25:58Z</time>
      </trkpt>
      <trkpt lat="49.1953" lon="6.93804">
        <ele>314</ele>
        <time>2011-04-05T12:25:59Z</time>
      </trkpt>
      <trkpt lat="49.19529" lon="6.93805">
        <ele>314</ele>
        <time>2011-04-05T12:26:01Z</time>
      </trkpt>
      <trkpt lat="49.19527" lon="6.93805">
        <ele>314</ele>
        <time>2011-04-05T12:26:02Z</time>
      </trkpt>
      <trkpt lat="49.19526" lon="6.93804">
        <ele>314</ele>
        <time>2011-04-05T12:26:04Z</time>
      </trkpt>
      <trkpt lat="49.19525" lon="6.93804">
        <ele>314</ele>
        <time>2011-04-05T12:26:05Z</time>
      </trkpt>
      <trkpt lat="49.19524" lon="6.93804">
        <ele>314</ele>
        <time>2011-04-05T12:26:06Z</time>
      </trkpt>
      <trkpt lat="49.19522" lon="6.93804">
        <ele>315</ele>
        <time>2011-04-05T12:26:07Z</time>
      </trkpt>
      <trkpt lat="49.19521" lon="6.93802">
        <ele>315</ele>
        <time>2011-04-05T12:26:09Z</time>
      </trkpt>
      <trkpt lat="49.1952" lon="6.93801">
        <ele>316</ele>
        <time>2011-04-05T12:26:10Z</time>
      </trkpt>
      <trkpt lat="49.19519" lon="6.938">
        <ele>316</ele>
        <time>2011-04-05T12:26:11Z</time>
      </trkpt>
      <trkpt lat="49.19518" lon="6.938">
        <ele>317</ele>
        <time>2011-04-05T12:26:12Z</time>
      </trkpt>
      <trkpt lat="49.19516" lon="6.93799">
        <ele>317</ele>
        <time>2011-04-05T12:26:13Z</time>
      </trkpt>
      <trkpt lat="49.19515" lon="6.93799">
        <ele>318</ele>
        <time>2011-04-05T12:26:14Z</time>
      </trkpt>
      <trkpt lat="49.19513" lon="6.93798">
        <ele>318</ele>
        <time>2011-04-05T12:26:16Z</time>
      </trkpt>
      <trkpt lat="49.1951" lon="6.93799">
        <ele>318</ele>
        <time>2011-04-05T12:26:17Z</time>
      </trkpt>
      <trkpt lat="49.19509" lon="6.938">
        <ele>318</ele>
        <time>2011-04-05T12:26:18Z</time>
      </trkpt>
      <trkpt lat="49.19507" lon="6.93801">
        <ele>318</ele>
        <time>2011-04-05T12:26:19Z</time>
      </trkpt>
      <trkpt lat="49.19505" lon="6.93801">
        <ele>318</ele>
        <time>2011-04-05T12:26:20Z</time>
      </trkpt>
      <trkpt lat="49.19504" lon="6.938">
        <ele>318</ele>
        <time>2011-04-05T12:26:21Z</time>
      </trkpt>
      <trkpt lat="49.19502" lon="6.938">
        <ele>318</ele>
        <time>2011-04-05T12:26:23Z</time>
      </trkpt>
      <trkpt lat="49.195" lon="6.938">
        <ele>318</ele>
        <time>2011-04-05T12:26:25Z</time>
      </trkpt>
      <trkpt lat="49.19498" lon="6.93798">
        <ele>318</ele>
        <time>2011-04-05T12:26:27Z</time>
      </trkpt>
      <trkpt lat="49.19497" lon="6.93797">
        <ele>318</ele>
        <time>2011-04-05T12:26:29Z</time>
      </trkpt>
      <trkpt lat="49.19495" lon="6.93797">
        <ele>318</ele>
        <time>2011-04-05T12:26:33Z</time>
      </trkpt>
      <trkpt lat="49.19493" lon="6.93798">
        <ele>318</ele>
        <time>2011-04-05T12:26:35Z</time>
      </trkpt>
      <trkpt lat="49.19492" lon="6.93799">
        <ele>318</ele>
        <time>2011-04-05T12:26:37Z</time>
      </trkpt>
      <trkpt lat="49.19492" lon="6.93801">
        <ele>318</ele>
        <time>2011-04-05T12:26:42Z</time>
      </trkpt>
      <trkpt lat="49.19493" lon="6.93801">
        <ele>319</ele>
        <time>2011-04-05T12:26:47Z</time>
      </trkpt>
      <trkpt lat="49.19492" lon="6.93801">
        <ele>321</ele>
        <time>2011-04-05T12:26:53Z</time>
      </trkpt>
      <trkpt lat="49.1949" lon="6.93801">
        <ele>322</ele>
        <time>2011-04-05T12:26:55Z</time>
      </trkpt>
      <trkpt lat="49.19488" lon="6.93799">
        <ele>322</ele>
        <time>2011-04-05T12:26:57Z</time>
      </trkpt>
      <trkpt lat="49.19487" lon="6.93799">
        <ele>323</ele>
        <time>2011-04-05T12:26:59Z</time>
      </trkpt>
      <trkpt lat="49.19486" lon="6.93797">
        <ele>323</ele>
        <time>2011-04-05T12:27:02Z</time>
      </trkpt>
      <trkpt lat="49.19484" lon="6.93796">
        <ele>323</ele>
        <time>2011-04-05T12:27:04Z</time>
      </trkpt>
      <trkpt lat="49.19482" lon="6.93794">
        <ele>323</ele>
        <time>2011-04-05T12:27:06Z</time>
      </trkpt>
      <trkpt lat="49.19481" lon="6.93794">
        <ele>324</ele>
        <time>2011-04-05T12:27:07Z</time>
      </trkpt>
      <trkpt lat="49.19479" lon="6.93793">
        <ele>324</ele>
        <time>2011-04-05T12:27:08Z</time>
      </trkpt>
      <trkpt lat="49.19478" lon="6.93792">
        <ele>324</ele>
        <time>2011-04-05T12:27:09Z</time>
      </trkpt>
      <trkpt lat="49.19475" lon="6.93792">
        <ele>324</ele>
        <time>2011-04-05T12:27:11Z</time>
      </trkpt>
      <trkpt lat="49.19474" lon="6.93792">
        <ele>324</ele>
        <time>2011-04-05T12:27:12Z</time>
      </trkpt>
      <trkpt lat="49.19472" lon="6.93792">
        <ele>324</ele>
        <time>2011-04-05T12:27:13Z</time>
      </trkpt>
      <trkpt lat="49.1947" lon="6.93792">
        <ele>324</ele>
        <time>2011-04-05T12:27:14Z</time>
      </trkpt>
      <trkpt lat="49.19469" lon="6.93792">
        <ele>324</ele>
        <time>2011-04-05T12:27:15Z</time>
      </trkpt>
      <trkpt lat="49.19467" lon="6.93792">
        <ele>324</ele>
        <time>2011-04-05T12:27:17Z</time>
      </trkpt>
      <trkpt lat="49.19466" lon="6.93791">
        <ele>324</ele>
        <time>2011-04-05T12:27:18Z</time>
      </trkpt>
      <trkpt lat="49.19464" lon="6.9379">
        <ele>324</ele>
        <time>2011-04-05T12:27:19Z</time>
      </trkpt>
      <trkpt lat="49.19463" lon="6.93788">
        <ele>324</ele>
        <time>2011-04-05T12:27:21Z</time>
      </trkpt>
      <trkpt lat="49.19461" lon="6.93788">
        <ele>324</ele>
        <time>2011-04-05T12:27:22Z</time>
      </trkpt>
      <trkpt lat="49.19459" lon="6.93787">
        <ele>324</ele>
        <time>2011-04-05T12:27:24Z</time>
      </trkpt>
      <trkpt lat="49.19457" lon="6.93784">
        <ele>324</ele>
        <time>2011-04-05T12:27:26Z</time>
      </trkpt>
      <trkpt lat="49.19455" lon="6.93783">
        <ele>324</ele>
        <time>2011-04-05T12:27:27Z</time>
      </trkpt>
      <trkpt lat="49.19453" lon="6.93782">
        <ele>324</ele>
        <time>2011-04-05T12:27:28Z</time>
      </trkpt>
      <trkpt lat="49.19452" lon="6.93781">
        <ele>324</ele>
        <time>2011-04-05T12:27:29Z</time>
      </trkpt>
      <trkpt lat="49.1945" lon="6.93778">
        <ele>324</ele>
        <time>2011-04-05T12:27:31Z</time>
      </trkpt>
      <trkpt lat="49.19449" lon="6.93777">
        <ele>324</ele>
        <time>2011-04-05T12:27:32Z</time>
      </trkpt>
      <trkpt lat="49.19447" lon="6.93774">
        <ele>324</ele>
        <time>2011-04-05T12:27:34Z</time>
      </trkpt>
      <trkpt lat="49.19447" lon="6.93773">
        <ele>324</ele>
        <time>2011-04-05T12:27:35Z</time>
      </trkpt>
      <trkpt lat="49.19445" lon="6.93772">
        <ele>324</ele>
        <time>2011-04-05T12:27:37Z</time>
      </trkpt>
      <trkpt lat="49.19443" lon="6.93771">
        <ele>324</ele>
        <time>2011-04-05T12:27:38Z</time>
      </trkpt>
      <trkpt lat="49.19441" lon="6.9377">
        <ele>324</ele>
        <time>2011-04-05T12:27:40Z</time>
      </trkpt>
      <trkpt lat="49.1944" lon="6.93769">
        <ele>324</ele>
        <time>2011-04-05T12:27:42Z</time>
      </trkpt>
      <trkpt lat="49.19438" lon="6.93768">
        <ele>324</ele>
        <time>2011-04-05T12:27:44Z</time>
      </trkpt>
      <trkpt lat="49.19436" lon="6.93767">
        <ele>324</ele>
        <time>2011-04-05T12:27:46Z</time>
      </trkpt>
      <trkpt lat="49.19434" lon="6.93767">
        <ele>324</ele>
        <time>2011-04-05T12:27:47Z</time>
      </trkpt>
      <trkpt lat="49.19432" lon="6.93766">
        <ele>324</ele>
        <time>2011-04-05T12:27:49Z</time>
      </trkpt>
      <trkpt lat="49.19431" lon="6.93765">
        <ele>324</ele>
        <time>2011-04-05T12:27:50Z</time>
      </trkpt>
      <trkpt lat="49.1943" lon="6.93764">
        <ele>324</ele>
        <time>2011-04-05T12:27:52Z</time>
      </trkpt>
      <trkpt lat="49.19429" lon="6.93765">
        <ele>324</ele>
        <time>2011-04-05T12:27:56Z</time>
      </trkpt>
      <trkpt lat="49.19427" lon="6.93766">
        <ele>324</ele>
        <time>2011-04-05T12:27:58Z</time>
      </trkpt>
      <trkpt lat="49.19426" lon="6.93764">
        <ele>325</ele>
        <time>2011-04-05T12:28:05Z</time>
      </trkpt>
      <trkpt lat="49.19427" lon="6.93762">
        <ele>331</ele>
        <time>2011-04-05T12:28:11Z</time>
      </trkpt>
      <trkpt lat="49.19425" lon="6.9376">
        <ele>333</ele>
        <time>2011-04-05T12:28:13Z</time>
      </trkpt>
      <trkpt lat="49.19424" lon="6.93758">
        <ele>335</ele>
        <time>2011-04-05T12:28:15Z</time>
      </trkpt>
      <trkpt lat="49.19422" lon="6.93756">
        <ele>336</ele>
        <time>2011-04-05T12:28:17Z</time>
      </trkpt>
      <trkpt lat="49.1942" lon="6.93754">
        <ele>336</ele>
        <time>2011-04-05T12:28:18Z</time>
      </trkpt>
      <trkpt lat="49.19419" lon="6.93755">
        <ele>336</ele>
        <time>2011-04-05T12:28:19Z</time>
      </trkpt>
      <trkpt lat="49.19417" lon="6.93754">
        <ele>336</ele>
        <time>2011-04-05T12:28:20Z</time>
      </trkpt>
      <trkpt lat="49.19416" lon="6.93754">
        <ele>336</ele>
        <time>2011-04-05T12:28:21Z</time>
      </trkpt>
      <trkpt lat="49.19414" lon="6.93753">
        <ele>336</ele>
        <time>2011-04-05T12:28:23Z</time>
      </trkpt>
      <trkpt lat="49.19413" lon="6.93754">
        <ele>336</ele>
        <time>2011-04-05T12:28:24Z</time>
      </trkpt>
      <trkpt lat="49.19411" lon="6.93754">
        <ele>336</ele>
        <time>2011-04-05T12:28:26Z</time>
      </trkpt>
      <trkpt lat="49.19409" lon="6.93753">
        <ele>336</ele>
        <time>2011-04-05T12:28:28Z</time>
      </trkpt>
      <trkpt lat="49.19408" lon="6.93753">
        <ele>336</ele>
        <time>2011-04-05T12:28:29Z</time>
      </trkpt>
      <trkpt lat="49.19406" lon="6.93753">
        <ele>336</ele>
        <time>2011-04-05T12:28:31Z</time>
      </trkpt>
      <trkpt lat="49.19405" lon="6.93753">
        <ele>336</ele>
        <time>2011-04-05T12:28:32Z</time>
      </trkpt>
      <trkpt lat="49.19403" lon="6.93752">
        <ele>336</ele>
        <time>2011-04-05T12:28:35Z</time>
      </trkpt>
      <trkpt lat="49.19401" lon="6.93751">
        <ele>336</ele>
        <time>2011-04-05T12:28:37Z</time>
      </trkpt>
      <trkpt lat="49.194" lon="6.93751">
        <ele>336</ele>
        <time>2011-04-05T12:28:38Z</time>
      </trkpt>
      <trkpt lat="49.19399" lon="6.93752">
        <ele>336</ele>
        <time>2011-04-05T12:28:39Z</time>
      </trkpt>
      <trkpt lat="49.19397" lon="6.93753">
        <ele>336</ele>
        <time>2011-04-05T12:28:40Z</time>
      </trkpt>
      <trkpt lat="49.19396" lon="6.93754">
        <ele>336</ele>
        <time>2011-04-05T12:28:41Z</time>
      </trkpt>
      <trkpt lat="49.19394" lon="6.93755">
        <ele>336</ele>
        <time>2011-04-05T12:28:43Z</time>
      </trkpt>
      <trkpt lat="49.19392" lon="6.93756">
        <ele>336</ele>
        <time>2011-04-05T12:28:44Z</time>
      </trkpt>
      <trkpt lat="49.1939" lon="6.93756">
        <ele>336</ele>
        <time>2011-04-05T12:28:45Z</time>
      </trkpt>
      <trkpt lat="49.19389" lon="6.93757">
        <ele>336</ele>
        <time>2011-04-05T12:28:46Z</time>
      </trkpt>
      <trkpt lat="49.19388" lon="6.93757">
        <ele>336</ele>
        <time>2011-04-05T12:28:48Z</time>
      </trkpt>
      <trkpt lat="49.19387" lon="6.93758">
        <ele>336</ele>
        <time>2011-04-05T12:28:49Z</time>
      </trkpt>
      <trkpt lat="49.19384" lon="6.93759">
        <ele>336</ele>
        <time>2011-04-05T12:28:50Z</time>
      </trkpt>
      <trkpt lat="49.19383" lon="6.9376">
        <ele>336</ele>
        <time>2011-04-05T12:28:51Z</time>
      </trkpt>
      <trkpt lat="49.19382" lon="6.93759">
        <ele>336</ele>
        <time>2011-04-05T12:28:54Z</time>
      </trkpt>
      <trkpt lat="49.19381" lon="6.9376">
        <ele>336</ele>
        <time>2011-04-05T12:28:56Z</time>
      </trkpt>
      <trkpt lat="49.19379" lon="6.9376">
        <ele>336</ele>
        <time>2011-04-05T12:29:00Z</time>
      </trkpt>
      <trkpt lat="49.19376" lon="6.9376">
        <ele>336</ele>
        <time>2011-04-05T12:29:02Z</time>
      </trkpt>
      <trkpt lat="49.19375" lon="6.9376">
        <ele>336</ele>
        <time>2011-04-05T12:29:03Z</time>
      </trkpt>
      <trkpt lat="49.19374" lon="6.9376">
        <ele>336</ele>
        <time>2011-04-05T12:29:04Z</time>
      </trkpt>
      <trkpt lat="49.19372" lon="6.93759">
        <ele>336</ele>
        <time>2011-04-05T12:29:06Z</time>
      </trkpt>
      <trkpt lat="49.19371" lon="6.93757">
        <ele>336</ele>
        <time>2011-04-05T12:29:08Z</time>
      </trkpt>
      <trkpt lat="49.1937" lon="6.93756">
        <ele>336</ele>
        <time>2011-04-05T12:29:10Z</time>
      </trkpt>
      <trkpt lat="49.19368" lon="6.93754">
        <ele>336</ele>
        <time>2011-04-05T12:29:12Z</time>
      </trkpt>
      <trkpt lat="49.19367" lon="6.93755">
        <ele>336</ele>
        <time>2011-04-05T12:29:13Z</time>
      </trkpt>
      <trkpt lat="49.19365" lon="6.93754">
        <ele>336</ele>
        <time>2011-04-05T12:29:15Z</time>
      </trkpt>
      <trkpt lat="49.19363" lon="6.93754">
        <ele>336</ele>
        <time>2011-04-05T12:29:17Z</time>
      </trkpt>
      <trkpt lat="49.19362" lon="6.93753">
        <ele>336</ele>
        <time>2011-04-05T12:29:18Z</time>
      </trkpt>
      <trkpt lat="49.19361" lon="6.93752">
        <ele>336</ele>
        <time>2011-04-05T12:29:19Z</time>
      </trkpt>
      <trkpt lat="49.1936" lon="6.93752">
        <ele>336</ele>
        <time>2011-04-05T12:29:20Z</time>
      </trkpt>
      <trkpt lat="49.19359" lon="6.93752">
        <ele>336</ele>
        <time>2011-04-05T12:29:21Z</time>
      </trkpt>
      <trkpt lat="49.19357" lon="6.93752">
        <ele>336</ele>
        <time>2011-04-05T12:29:22Z</time>
      </trkpt>
      <trkpt lat="49.19356" lon="6.93752">
        <ele>336</ele>
        <time>2011-04-05T12:29:23Z</time>
      </trkpt>
      <trkpt lat="49.19355" lon="6.93752">
        <ele>336</ele>
        <time>2011-04-05T12:29:24Z</time>
      </trkpt>
      <trkpt lat="49.19353" lon="6.93752">
        <ele>336</ele>
        <time>2011-04-05T12:29:26Z</time>
      </trkpt>
      <trkpt lat="49.19352" lon="6.93752">
        <ele>337</ele>
        <time>2011-04-05T12:29:28Z</time>
      </trkpt>
      <trkpt lat="49.19351" lon="6.93752">
        <ele>338</ele>
        <time>2011-04-05T12:29:30Z</time>
      </trkpt>
      <trkpt lat="49.19351" lon="6.93754">
        <ele>338</ele>
        <time>2011-04-05T12:29:39Z</time>
      </trkpt>
      <trkpt lat="49.19349" lon="6.93753">
        <ele>338</ele>
        <time>2011-04-05T12:29:44Z</time>
      </trkpt>
      <trkpt lat="49.19347" lon="6.93753">
        <ele>338</ele>
        <time>2011-04-05T12:29:45Z</time>
      </trkpt>
      <trkpt lat="49.19345" lon="6.93754">
        <ele>338</ele>
        <time>2011-04-05T12:29:47Z</time>
      </trkpt>
      <trkpt lat="49.19344" lon="6.93754">
        <ele>338</ele>
        <time>2011-04-05T12:29:48Z</time>
      </trkpt>
      <trkpt lat="49.19343" lon="6.93754">
        <ele>338</ele>
        <time>2011-04-05T12:29:49Z</time>
      </trkpt>
      <trkpt lat="49.19342" lon="6.93753">
        <ele>338</ele>
        <time>2011-04-05T12:29:51Z</time>
      </trkpt>
      <trkpt lat="49.1934" lon="6.93753">
        <ele>339</ele>
        <time>2011-04-05T12:29:53Z</time>
      </trkpt>
      <trkpt lat="49.19338" lon="6.93753">
        <ele>340</ele>
        <time>2011-04-05T12:29:55Z</time>
      </trkpt>
      <trkpt lat="49.19336" lon="6.93754">
        <ele>341</ele>
        <time>2011-04-05T12:29:57Z</time>
      </trkpt>
      <trkpt lat="49.19334" lon="6.93754">
        <ele>341</ele>
        <time>2011-04-05T12:29:59Z</time>
      </trkpt>
      <trkpt lat="49.19333" lon="6.93755">
        <ele>341</ele>
        <time>2011-04-05T12:30:02Z</time>
      </trkpt>
      <trkpt lat="49.19335" lon="6.93755">
        <ele>341</ele>
        <time>2011-04-05T12:30:07Z</time>
      </trkpt>
      <trkpt lat="49.19336" lon="6.93755">
        <ele>341</ele>
        <time>2011-04-05T12:30:09Z</time>
      </trkpt>
      <trkpt lat="49.19338" lon="6.93755">
        <ele>343</ele>
        <time>2011-04-05T12:30:12Z</time>
      </trkpt>
      <trkpt lat="49.19336" lon="6.93757">
        <ele>347</ele>
        <time>2011-04-05T12:30:18Z</time>
      </trkpt>
      <trkpt lat="49.19337" lon="6.93758">
        <ele>348</ele>
        <time>2011-04-05T12:30:20Z</time>
      </trkpt>
      <trkpt lat="49.19336" lon="6.93758">
        <ele>349</ele>
        <time>2011-04-05T12:30:22Z</time>
      </trkpt>
      <trkpt lat="49.19334" lon="6.93759">
        <ele>351</ele>
        <time>2011-04-05T12:30:24Z</time>
      </trkpt>
      <trkpt lat="49.19333" lon="6.93761">
        <ele>351</ele>
        <time>2011-04-05T12:30:25Z</time>
      </trkpt>
      <trkpt lat="49.19331" lon="6.93762">
        <ele>351</ele>
        <time>2011-04-05T12:30:26Z</time>
      </trkpt>
      <trkpt lat="49.19329" lon="6.93762">
        <ele>352</ele>
        <time>2011-04-05T12:30:31Z</time>
      </trkpt>
      <trkpt lat="49.19328" lon="6.93762">
        <ele>352</ele>
        <time>2011-04-05T12:30:32Z</time>
      </trkpt>
      <trkpt lat="49.19326" lon="6.93763">
        <ele>352</ele>
        <time>2011-04-05T12:30:33Z</time>
      </trkpt>
      <trkpt lat="49.19324" lon="6.93764">
        <ele>352</ele>
        <time>2011-04-05T12:30:34Z</time>
      </trkpt>
      <trkpt lat="49.19322" lon="6.93765">
        <ele>352</ele>
        <time>2011-04-05T12:30:35Z</time>
      </trkpt>
      <trkpt lat="49.1932" lon="6.93766">
        <ele>352</ele>
        <time>2011-04-05T12:30:36Z</time>
      </trkpt>
      <trkpt lat="49.19318" lon="6.93767">
        <ele>352</ele>
        <time>2011-04-05T12:30:37Z</time>
      </trkpt>
      <trkpt lat="49.19317" lon="6.93768">
        <ele>352</ele>
        <time>2011-04-05T12:30:38Z</time>
      </trkpt>
      <trkpt lat="49.19316" lon="6.93768">
        <ele>352</ele>
        <time>2011-04-05T12:30:39Z</time>
      </trkpt>
      <trkpt lat="49.19314" lon="6.93769">
        <ele>352</ele>
        <time>2011-04-05T12:30:40Z</time>
      </trkpt>
      <trkpt lat="49.19313" lon="6.93768">
        <ele>352</ele>
        <time>2011-04-05T12:30:42Z</time>
      </trkpt>
      <trkpt lat="49.1931" lon="6.93769">
        <ele>352</ele>
        <time>2011-04-05T12:30:44Z</time>
      </trkpt>
      <trkpt lat="49.19308" lon="6.93769">
        <ele>352</ele>
        <time>2011-04-05T12:30:46Z</time>
      </trkpt>
      <trkpt lat="49.19307" lon="6.93769">
        <ele>352</ele>
        <time>2011-04-05T12:30:48Z</time>
      </trkpt>
      <trkpt lat="49.19305" lon="6.93769">
        <ele>352</ele>
        <time>2011-04-05T12:30:50Z</time>
      </trkpt>
      <trkpt lat="49.19304" lon="6.9377">
        <ele>352</ele>
        <time>2011-04-05T12:30:51Z</time>
      </trkpt>
      <trkpt lat="49.19302" lon="6.93771">
        <ele>352</ele>
        <time>2011-04-05T12:30:52Z</time>
      </trkpt>
      <trkpt lat="49.19301" lon="6.93771">
        <ele>352</ele>
        <time>2011-04-05T12:30:55Z</time>
      </trkpt>
      <trkpt lat="49.193" lon="6.93771">
        <ele>352</ele>
        <time>2011-04-05T12:30:57Z</time>
      </trkpt>
      <trkpt lat="49.19298" lon="6.93771">
        <ele>352</ele>
        <time>2011-04-05T12:30:59Z</time>
      </trkpt>
      <trkpt lat="49.19297" lon="6.93771">
        <ele>352</ele>
        <time>2011-04-05T12:31:01Z</time>
      </trkpt>
      <trkpt lat="49.19295" lon="6.93773">
        <ele>352</ele>
        <time>2011-04-05T12:31:03Z</time>
      </trkpt>
      <trkpt lat="49.19294" lon="6.93774">
        <ele>352</ele>
        <time>2011-04-05T12:31:05Z</time>
      </trkpt>
      <trkpt lat="49.19292" lon="6.93774">
        <ele>352</ele>
        <time>2011-04-05T12:31:07Z</time>
      </trkpt>
      <trkpt lat="49.19291" lon="6.93774">
        <ele>352</ele>
        <time>2011-04-05T12:31:10Z</time>
      </trkpt>
      <trkpt lat="49.19289" lon="6.93774">
        <ele>352</ele>
        <time>2011-04-05T12:31:12Z</time>
      </trkpt>
      <trkpt lat="49.19288" lon="6.93775">
        <ele>352</ele>
        <time>2011-04-05T12:31:14Z</time>
      </trkpt>
      <trkpt lat="49.19287" lon="6.93775">
        <ele>352</ele>
        <time>2011-04-05T12:31:16Z</time>
      </trkpt>
      <trkpt lat="49.19285" lon="6.93776">
        <ele>352</ele>
        <time>2011-04-05T12:31:18Z</time>
      </trkpt>
      <trkpt lat="49.19283" lon="6.93775">
        <ele>352</ele>
        <time>2011-04-05T12:31:20Z</time>
      </trkpt>
      <trkpt lat="49.19282" lon="6.93776">
        <ele>352</ele>
        <time>2011-04-05T12:31:22Z</time>
      </trkpt>
      <trkpt lat="49.19281" lon="6.93775">
        <ele>352</ele>
        <time>2011-04-05T12:31:25Z</time>
      </trkpt>
      <trkpt lat="49.19279" lon="6.93776">
        <ele>353</ele>
        <time>2011-04-05T12:31:26Z</time>
      </trkpt>
      <trkpt lat="49.19278" lon="6.93777">
        <ele>353</ele>
        <time>2011-04-05T12:31:27Z</time>
      </trkpt>
      <trkpt lat="49.19276" lon="6.93778">
        <ele>354</ele>
        <time>2011-04-05T12:31:29Z</time>
      </trkpt>
      <trkpt lat="49.19275" lon="6.93778">
        <ele>355</ele>
        <time>2011-04-05T12:31:31Z</time>
      </trkpt>
      <trkpt lat="49.19273" lon="6.93778">
        <ele>356</ele>
        <time>2011-04-05T12:31:34Z</time>
      </trkpt>
      <trkpt lat="49.19272" lon="6.93779">
        <ele>356</ele>
        <time>2011-04-05T12:31:35Z</time>
      </trkpt>
      <trkpt lat="49.1927" lon="6.93781">
        <ele>357</ele>
        <time>2011-04-05T12:31:37Z</time>
      </trkpt>
      <trkpt lat="49.19268" lon="6.93782">
        <ele>357</ele>
        <time>2011-04-05T12:31:39Z</time>
      </trkpt>
      <trkpt lat="49.19266" lon="6.93783">
        <ele>357</ele>
        <time>2011-04-05T12:31:41Z</time>
      </trkpt>
      <trkpt lat="49.19264" lon="6.93783">
        <ele>358</ele>
        <time>2011-04-05T12:31:43Z</time>
      </trkpt>
      <trkpt lat="49.19263" lon="6.93784">
        <ele>358</ele>
        <time>2011-04-05T12:31:44Z</time>
      </trkpt>
      <trkpt lat="49.19261" lon="6.93785">
        <ele>358</ele>
        <time>2011-04-05T12:31:46Z</time>
      </trkpt>
      <trkpt lat="49.1926" lon="6.93784">
        <ele>358</ele>
        <time>2011-04-05T12:31:47Z</time>
      </trkpt>
      <trkpt lat="49.19258" lon="6.93785">
        <ele>358</ele>
        <time>2011-04-05T12:31:48Z</time>
      </trkpt>
      <trkpt lat="49.19257" lon="6.93785">
        <ele>358</ele>
        <time>2011-04-05T12:31:50Z</time>
      </trkpt>
      <trkpt lat="49.19256" lon="6.93786">
        <ele>358</ele>
        <time>2011-04-05T12:31:51Z</time>
      </trkpt>
      <trkpt lat="49.19254" lon="6.93787">
        <ele>358</ele>
        <time>2011-04-05T12:31:52Z</time>
      </trkpt>
      <trkpt lat="49.19253" lon="6.93788">
        <ele>358</ele>
        <time>2011-04-05T12:31:53Z</time>
      </trkpt>
      <trkpt lat="49.19252" lon="6.93788">
        <ele>358</ele>
        <time>2011-04-05T12:31:54Z</time>
      </trkpt>
      <trkpt lat="49.1925" lon="6.93789">
        <ele>358</ele>
        <time>2011-04-05T12:31:55Z</time>
      </trkpt>
      <trkpt lat="49.19249" lon="6.9379">
        <ele>358</ele>
        <time>2011-04-05T12:31:56Z</time>
      </trkpt>
      <trkpt lat="49.19247" lon="6.9379">
        <ele>358</ele>
        <time>2011-04-05T12:31:57Z</time>
      </trkpt>
      <trkpt lat="49.19246" lon="6.93791">
        <ele>358</ele>
        <time>2011-04-05T12:31:59Z</time>
      </trkpt>
      <trkpt lat="49.19245" lon="6.93791">
        <ele>358</ele>
        <time>2011-04-05T12:32:00Z</time>
      </trkpt>
      <trkpt lat="49.19243" lon="6.93792">
        <ele>358</ele>
        <time>2011-04-05T12:32:02Z</time>
      </trkpt>
      <trkpt lat="49.19241" lon="6.93793">
        <ele>359</ele>
        <time>2011-04-05T12:32:04Z</time>
      </trkpt>
      <trkpt lat="49.1924" lon="6.93793">
        <ele>360</ele>
        <time>2011-04-05T12:32:05Z</time>
      </trkpt>
      <trkpt lat="49.19239" lon="6.93793">
        <ele>360</ele>
        <time>2011-04-05T12:32:06Z</time>
      </trkpt>
      <trkpt lat="49.19237" lon="6.93796">
        <ele>362</ele>
        <time>2011-04-05T12:32:08Z</time>
      </trkpt>
      <trkpt lat="49.19235" lon="6.93796">
        <ele>364</ele>
        <time>2011-04-05T12:32:10Z</time>
      </trkpt>
      <trkpt lat="49.19233" lon="6.93797">
        <ele>365</ele>
        <time>2011-04-05T12:32:11Z</time>
      </trkpt>
      <trkpt lat="49.19232" lon="6.93797">
        <ele>365</ele>
        <time>2011-04-05T12:32:12Z</time>
      </trkpt>
      <trkpt lat="49.1923" lon="6.93797">
        <ele>366</ele>
        <time>2011-04-05T12:32:14Z</time>
      </trkpt>
      <trkpt lat="49.19229" lon="6.93797">
        <ele>366</ele>
        <time>2011-04-05T12:32:15Z</time>
      </trkpt>
      <trkpt lat="49.19227" lon="6.938">
        <ele>367</ele>
        <time>2011-04-05T12:32:17Z</time>
      </trkpt>
      <trkpt lat="49.19225" lon="6.938">
        <ele>367</ele>
        <time>2011-04-05T12:32:19Z</time>
      </trkpt>
      <trkpt lat="49.19227" lon="6.938">
        <ele>368</ele>
        <time>2011-04-05T12:32:27Z</time>
      </trkpt>
      <trkpt lat="49.19225" lon="6.93801">
        <ele>368</ele>
        <time>2011-04-05T12:32:33Z</time>
      </trkpt>
      <trkpt lat="49.19223" lon="6.93801">
        <ele>368</ele>
        <time>2011-04-05T12:32:35Z</time>
      </trkpt>
      <trkpt lat="49.19222" lon="6.93801">
        <ele>368</ele>
        <time>2011-04-05T12:32:36Z</time>
      </trkpt>
      <trkpt lat="49.1922" lon="6.93802">
        <ele>368</ele>
        <time>2011-04-05T12:32:37Z</time>
      </trkpt>
      <trkpt lat="49.19218" lon="6.93802">
        <ele>368</ele>
        <time>2011-04-05T12:32:39Z</time>
      </trkpt>
      <trkpt lat="49.19217" lon="6.93803">
        <ele>368</ele>
        <time>2011-04-05T12:32:40Z</time>
      </trkpt>
      <trkpt lat="49.19216" lon="6.93804">
        <ele>368</ele>
        <time>2011-04-05T12:32:41Z</time>
      </trkpt>
      <trkpt lat="49.19214" lon="6.93802">
        <ele>368</ele>
        <time>2011-04-05T12:32:43Z</time>
      </trkpt>
      <trkpt lat="49.19212" lon="6.93801">
        <ele>369</ele>
        <time>2011-04-05T12:32:45Z</time>
      </trkpt>
      <trkpt lat="49.1921" lon="6.93802">
        <ele>370</ele>
        <time>2011-04-05T12:32:46Z</time>
      </trkpt>
      <trkpt lat="49.19209" lon="6.93802">
        <ele>371</ele>
        <time>2011-04-05T12:32:47Z</time>
      </trkpt>
      <trkpt lat="49.19208" lon="6.93801">
        <ele>372</ele>
        <time>2011-04-05T12:32:48Z</time>
      </trkpt>
      <trkpt lat="49.19206" lon="6.93798">
        <ele>374</ele>
        <time>2011-04-05T12:32:50Z</time>
      </trkpt>
      <trkpt lat="49.19204" lon="6.93797">
        <ele>376</ele>
        <time>2011-04-05T12:32:52Z</time>
      </trkpt>
      <trkpt lat="49.19202" lon="6.93797">
        <ele>377</ele>
        <time>2011-04-05T12:32:53Z</time>
      </trkpt>
      <trkpt lat="49.192" lon="6.93796">
        <ele>378</ele>
        <time>2011-04-05T12:32:55Z</time>
      </trkpt>
      <trkpt lat="49.19198" lon="6.93795">
        <ele>379</ele>
        <time>2011-04-05T12:32:57Z</time>
      </trkpt>
      <trkpt lat="49.19196" lon="6.93795">
        <ele>380</ele>
        <time>2011-04-05T12:32:59Z</time>
      </trkpt>
      <trkpt lat="49.19195" lon="6.93795">
        <ele>380</ele>
        <time>2011-04-05T12:33:00Z</time>
      </trkpt>
      <trkpt lat="49.19194" lon="6.93795">
        <ele>380</ele>
        <time>2011-04-05T12:33:01Z</time>
      </trkpt>
      <trkpt lat="49.19191" lon="6.93794">
        <ele>380</ele>
        <time>2011-04-05T12:33:02Z</time>
      </trkpt>
      <trkpt lat="49.1919" lon="6.93794">
        <ele>380</ele>
        <time>2011-04-05T12:33:03Z</time>
      </trkpt>
      <trkpt lat="49.19189" lon="6.93793">
        <ele>380</ele>
        <time>2011-04-05T12:33:04Z</time>
      </trkpt>
      <trkpt lat="49.19187" lon="6.93793">
        <ele>380</ele>
        <time>2011-04-05T12:33:05Z</time>
      </trkpt>
      <trkpt lat="49.19186" lon="6.93792">
        <ele>380</ele>
        <time>2011-04-05T12:33:06Z</time>
      </trkpt>
      <trkpt lat="49.19185" lon="6.93792">
        <ele>380</ele>
        <time>2011-04-05T12:33:07Z</time>
      </trkpt>
      <trkpt lat="49.19184" lon="6.93792">
        <ele>380</ele>
        <time>2011-04-05T12:33:08Z</time>
      </trkpt>
      <trkpt lat="49.19182" lon="6.93791">
        <ele>380</ele>
        <time>2011-04-05T12:33:09Z</time>
      </trkpt>
      <trkpt lat="49.19181" lon="6.93791">
        <ele>380</ele>
        <time>2011-04-05T12:33:10Z</time>
      </trkpt>
      <trkpt lat="49.19179" lon="6.93791">
        <ele>380</ele>
        <time>2011-04-05T12:33:12Z</time>
      </trkpt>
      <trkpt lat="49.19177" lon="6.93791">
        <ele>380</ele>
        <time>2011-04-05T12:33:14Z</time>
      </trkpt>
      <trkpt lat="49.19176" lon="6.93789">
        <ele>380</ele>
        <time>2011-04-05T12:33:16Z</time>
      </trkpt>
      <trkpt lat="49.19174" lon="6.93788">
        <ele>380</ele>
        <time>2011-04-05T12:33:18Z</time>
      </trkpt>
      <trkpt lat="49.19172" lon="6.93787">
        <ele>380</ele>
        <time>2011-04-05T12:33:20Z</time>
      </trkpt>
      <trkpt lat="49.19171" lon="6.93787">
        <ele>380</ele>
        <time>2011-04-05T12:33:21Z</time>
      </trkpt>
      <trkpt lat="49.19169" lon="6.93787">
        <ele>380</ele>
        <time>2011-04-05T12:33:22Z</time>
      </trkpt>
      <trkpt lat="49.19167" lon="6.93786">
        <ele>380</ele>
        <time>2011-04-05T12:33:24Z</time>
      </trkpt>
      <trkpt lat="49.19166" lon="6.93787">
        <ele>380</ele>
        <time>2011-04-05T12:33:25Z</time>
      </trkpt>
      <trkpt lat="49.19165" lon="6.93787">
        <ele>380</ele>
        <time>2011-04-05T12:33:26Z</time>
      </trkpt>
      <trkpt lat="49.19163" lon="6.93786">
        <ele>380</ele>
        <time>2011-04-05T12:33:27Z</time>
      </trkpt>
      <trkpt lat="49.19161" lon="6.93786">
        <ele>380</ele>
        <time>2011-04-05T12:33:29Z</time>
      </trkpt>
      <trkpt lat="49.19159" lon="6.93785">
        <ele>380</ele>
        <time>2011-04-05T12:33:30Z</time>
      </trkpt>
      <trkpt lat="49.19158" lon="6.93785">
        <ele>380</ele>
        <time>2011-04-05T12:33:31Z</time>
      </trkpt>
      <trkpt lat="49.19157" lon="6.93785">
        <ele>380</ele>
        <time>2011-04-05T12:33:32Z</time>
      </trkpt>
      <trkpt lat="49.19155" lon="6.93785">
        <ele>380</ele>
        <time>2011-04-05T12:33:33Z</time>
      </trkpt>
      <trkpt lat="49.19154" lon="6.93785">
        <ele>380</ele>
        <time>2011-04-05T12:33:34Z</time>
      </trkpt>
      <trkpt lat="49.19151" lon="6.93785">
        <ele>380</ele>
        <time>2011-04-05T12:33:36Z</time>
      </trkpt>
      <trkpt lat="49.19149" lon="6.93785">
        <ele>380</ele>
        <time>2011-04-05T12:33:37Z</time>
      </trkpt>
      <trkpt lat="49.19148" lon="6.93786">
        <ele>380</ele>
        <time>2011-04-05T12:33:38Z</time>
      </trkpt>
      <trkpt lat="49.19147" lon="6.93787">
        <ele>380</ele>
        <time>2011-04-05T12:33:39Z</time>
      </trkpt>
      <trkpt lat="49.19144" lon="6.93787">
        <ele>380</ele>
        <time>2011-04-05T12:33:41Z</time>
      </trkpt>
      <trkpt lat="49.19143" lon="6.93787">
        <ele>380</ele>
        <time>2011-04-05T12:33:42Z</time>
      </trkpt>
      <trkpt lat="49.19142" lon="6.93788">
        <ele>380</ele>
        <time>2011-04-05T12:33:43Z</time>
      </trkpt>
      <trkpt lat="49.19141" lon="6.93787">
        <ele>379</ele>
        <time>2011-04-05T12:33:44Z</time>
      </trkpt>
      <trkpt lat="49.19139" lon="6.93786">
        <ele>379</ele>
        <time>2011-04-05T12:33:45Z</time>
      </trkpt>
      <trkpt lat="49.19137" lon="6.93785">
        <ele>378</ele>
        <time>2011-04-05T12:33:47Z</time>
      </trkpt>
      <trkpt lat="49.19135" lon="6.93784">
        <ele>378</ele>
        <time>2011-04-05T12:33:49Z</time>
      </trkpt>
      <trkpt lat="49.19133" lon="6.93783">
        <ele>378</ele>
        <time>2011-04-05T12:33:51Z</time>
      </trkpt>
      <trkpt lat="49.19132" lon="6.93782">
        <ele>377</ele>
        <time>2011-04-05T12:33:52Z</time>
      </trkpt>
      <trkpt lat="49.1913" lon="6.93781">
        <ele>376</ele>
        <time>2011-04-05T12:33:54Z</time>
      </trkpt>
      <trkpt lat="49.19128" lon="6.93779">
        <ele>374</ele>
        <time>2011-04-05T12:33:56Z</time>
      </trkpt>
      <trkpt lat="49.19125" lon="6.93775">
        <ele>373</ele>
        <time>2011-04-05T12:33:58Z</time>
      </trkpt>
      <trkpt lat="49.19123" lon="6.93775">
        <ele>373</ele>
        <time>2011-04-05T12:33:59Z</time>
      </trkpt>
      <trkpt lat="49.19122" lon="6.93774">
        <ele>373</ele>
        <time>2011-04-05T12:34:00Z</time>
      </trkpt>
      <trkpt lat="49.19121" lon="6.93774">
        <ele>373</ele>
        <time>2011-04-05T12:34:01Z</time>
      </trkpt>
      <trkpt lat="49.19119" lon="6.93774">
        <ele>373</ele>
        <time>2011-04-05T12:34:02Z</time>
      </trkpt>
      <trkpt lat="49.19118" lon="6.93774">
        <ele>372</ele>
        <time>2011-04-05T12:34:03Z</time>
      </trkpt>
      <trkpt lat="49.19117" lon="6.93775">
        <ele>372</ele>
        <time>2011-04-05T12:34:04Z</time>
      </trkpt>
      <trkpt lat="49.19115" lon="6.93776">
        <ele>371</ele>
        <time>2011-04-05T12:34:06Z</time>
      </trkpt>
      <trkpt lat="49.19114" lon="6.93775">
        <ele>371</ele>
        <time>2011-04-05T12:34:09Z</time>
      </trkpt>
      <trkpt lat="49.19112" lon="6.93776">
        <ele>371</ele>
        <time>2011-04-05T12:34:11Z</time>
      </trkpt>
      <trkpt lat="49.19111" lon="6.93776">
        <ele>371</ele>
        <time>2011-04-05T12:34:12Z</time>
      </trkpt>
      <trkpt lat="49.19109" lon="6.93776">
        <ele>371</ele>
        <time>2011-04-05T12:34:14Z</time>
      </trkpt>
      <trkpt lat="49.19108" lon="6.93776">
        <ele>371</ele>
        <time>2011-04-05T12:34:15Z</time>
      </trkpt>
      <trkpt lat="49.19106" lon="6.93775">
        <ele>371</ele>
        <time>2011-04-05T12:34:16Z</time>
      </trkpt>
      <trkpt lat="49.19105" lon="6.93775">
        <ele>371</ele>
        <time>2011-04-05T12:34:17Z</time>
      </trkpt>
      <trkpt lat="49.19102" lon="6.93774">
        <ele>371</ele>
        <time>2011-04-05T12:34:19Z</time>
      </trkpt>
      <trkpt lat="49.19101" lon="6.93774">
        <ele>371</ele>
        <time>2011-04-05T12:34:20Z</time>
      </trkpt>
      <trkpt lat="49.19099" lon="6.93773">
        <ele>371</ele>
        <time>2011-04-05T12:34:21Z</time>
      </trkpt>
      <trkpt lat="49.19097" lon="6.93771">
        <ele>371</ele>
        <time>2011-04-05T12:34:23Z</time>
      </trkpt>
      <trkpt lat="49.19094" lon="6.9377">
        <ele>371</ele>
        <time>2011-04-05T12:34:25Z</time>
      </trkpt>
      <trkpt lat="49.19093" lon="6.9377">
        <ele>371</ele>
        <time>2011-04-05T12:34:26Z</time>
      </trkpt>
      <trkpt lat="49.19091" lon="6.9377">
        <ele>371</ele>
        <time>2011-04-05T12:34:27Z</time>
      </trkpt>
      <trkpt lat="49.1909" lon="6.93769">
        <ele>371</ele>
        <time>2011-04-05T12:34:28Z</time>
      </trkpt>
      <trkpt lat="49.19088" lon="6.93768">
        <ele>371</ele>
        <time>2011-04-05T12:34:29Z</time>
      </trkpt>
      <trkpt lat="49.19087" lon="6.93767">
        <ele>371</ele>
        <time>2011-04-05T12:34:30Z</time>
      </trkpt>
      <trkpt lat="49.19085" lon="6.93766">
        <ele>371</ele>
        <time>2011-04-05T12:34:32Z</time>
      </trkpt>
      <trkpt lat="49.19084" lon="6.93765">
        <ele>371</ele>
        <time>2011-04-05T12:34:33Z</time>
      </trkpt>
      <trkpt lat="49.19082" lon="6.93765">
        <ele>371</ele>
        <time>2011-04-05T12:34:35Z</time>
      </trkpt>
      <trkpt lat="49.19081" lon="6.93765">
        <ele>371</ele>
        <time>2011-04-05T12:34:36Z</time>
      </trkpt>
      <trkpt lat="49.1908" lon="6.93762">
        <ele>371</ele>
        <time>2011-04-05T12:34:38Z</time>
      </trkpt>
      <trkpt lat="49.19078" lon="6.93761">
        <ele>372</ele>
        <time>2011-04-05T12:34:39Z</time>
      </trkpt>
      <trkpt lat="49.19077" lon="6.93761">
        <ele>372</ele>
        <time>2011-04-05T12:34:40Z</time>
      </trkpt>
      <trkpt lat="49.19076" lon="6.9376">
        <ele>373</ele>
        <time>2011-04-05T12:34:41Z</time>
      </trkpt>
      <trkpt lat="49.19074" lon="6.93759">
        <ele>374</ele>
        <time>2011-04-05T12:34:42Z</time>
      </trkpt>
      <trkpt lat="49.19072" lon="6.93758">
        <ele>375</ele>
        <time>2011-04-05T12:34:43Z</time>
      </trkpt>
      <trkpt lat="49.1907" lon="6.93758">
        <ele>376</ele>
        <time>2011-04-05T12:34:44Z</time>
      </trkpt>
      <trkpt lat="49.19068" lon="6.93759">
        <ele>376</ele>
        <time>2011-04-05T12:34:45Z</time>
      </trkpt>
      <trkpt lat="49.19066" lon="6.93759">
        <ele>376</ele>
        <time>2011-04-05T12:34:46Z</time>
      </trkpt>
      <trkpt lat="49.19065" lon="6.93756">
        <ele>376</ele>
        <time>2011-04-05T12:34:48Z</time>
      </trkpt>
      <trkpt lat="49.19062" lon="6.93755">
        <ele>376</ele>
        <time>2011-04-05T12:34:50Z</time>
      </trkpt>
      <trkpt lat="49.1906" lon="6.93754">
        <ele>376</ele>
        <time>2011-04-05T12:34:52Z</time>
      </trkpt>
      <trkpt lat="49.19059" lon="6.93754">
        <ele>376</ele>
        <time>2011-04-05T12:34:53Z</time>
      </trkpt>
      <trkpt lat="49.19057" lon="6.93754">
        <ele>376</ele>
        <time>2011-04-05T12:34:54Z</time>
      </trkpt>
      <trkpt lat="49.19056" lon="6.93753">
        <ele>376</ele>
        <time>2011-04-05T12:34:55Z</time>
      </trkpt>
      <trkpt lat="49.19055" lon="6.93751">
        <ele>376</ele>
        <time>2011-04-05T12:34:56Z</time>
      </trkpt>
      <trkpt lat="49.19054" lon="6.93751">
        <ele>376</ele>
        <time>2011-04-05T12:34:58Z</time>
      </trkpt>
      <trkpt lat="49.19051" lon="6.9375">
        <ele>376</ele>
        <time>2011-04-05T12:35:00Z</time>
      </trkpt>
      <trkpt lat="49.1905" lon="6.9375">
        <ele>376</ele>
        <time>2011-04-05T12:35:01Z</time>
      </trkpt>
      <trkpt lat="49.19049" lon="6.9375">
        <ele>376</ele>
        <time>2011-04-05T12:35:02Z</time>
      </trkpt>
      <trkpt lat="49.19048" lon="6.93748">
        <ele>376</ele>
        <time>2011-04-05T12:35:03Z</time>
      </trkpt>
      <trkpt lat="49.19046" lon="6.93747">
        <ele>376</ele>
        <time>2011-04-05T12:35:04Z</time>
      </trkpt>
      <trkpt lat="49.19045" lon="6.93744">
        <ele>376</ele>
        <time>2011-04-05T12:35:06Z</time>
      </trkpt>
      <trkpt lat="49.19043" lon="6.93744">
        <ele>376</ele>
        <time>2011-04-05T12:35:08Z</time>
      </trkpt>
      <trkpt lat="49.19041" lon="6.93742">
        <ele>376</ele>
        <time>2011-04-05T12:35:10Z</time>
      </trkpt>
      <trkpt lat="49.1904" lon="6.93742">
        <ele>376</ele>
        <time>2011-04-05T12:35:12Z</time>
      </trkpt>
      <trkpt lat="49.19038" lon="6.93742">
        <ele>376</ele>
        <time>2011-04-05T12:35:14Z</time>
      </trkpt>
      <trkpt lat="49.19036" lon="6.93742">
        <ele>377</ele>
        <time>2011-04-05T12:35:17Z</time>
      </trkpt>
      <trkpt lat="49.19035" lon="6.93742">
        <ele>378</ele>
        <time>2011-04-05T12:35:19Z</time>
      </trkpt>
      <trkpt lat="49.19033" lon="6.93741">
        <ele>379</ele>
        <time>2011-04-05T12:35:21Z</time>
      </trkpt>
      <trkpt lat="49.19032" lon="6.93738">
        <ele>380</ele>
        <time>2011-04-05T12:35:25Z</time>
      </trkpt>
      <trkpt lat="49.1903" lon="6.93736">
        <ele>381</ele>
        <time>2011-04-05T12:35:27Z</time>
      </trkpt>
      <trkpt lat="49.19029" lon="6.93734">
        <ele>383</ele>
        <time>2011-04-05T12:35:29Z</time>
      </trkpt>
      <trkpt lat="49.19028" lon="6.93732">
        <ele>384</ele>
        <time>2011-04-05T12:35:31Z</time>
      </trkpt>
      <trkpt lat="49.1903" lon="6.93732">
        <ele>387</ele>
        <time>2011-04-05T12:35:35Z</time>
      </trkpt>
      <trkpt lat="49.19031" lon="6.93736">
        <ele>387</ele>
        <time>2011-04-05T12:35:37Z</time>
      </trkpt>
      <trkpt lat="49.19033" lon="6.93738">
        <ele>387</ele>
        <time>2011-04-05T12:35:39Z</time>
      </trkpt>
      <trkpt lat="49.19035" lon="6.93739">
        <ele>387</ele>
        <time>2011-04-05T12:35:40Z</time>
      </trkpt>
      <trkpt lat="49.19036" lon="6.93741">
        <ele>387</ele>
        <time>2011-04-05T12:35:42Z</time>
      </trkpt>
      <trkpt lat="49.19037" lon="6.93741">
        <ele>387</ele>
        <time>2011-04-05T12:35:44Z</time>
      </trkpt>
      <trkpt lat="49.19035" lon="6.9374">
        <ele>387</ele>
        <time>2011-04-05T12:35:47Z</time>
      </trkpt>
      <trkpt lat="49.19033" lon="6.93739">
        <ele>387</ele>
        <time>2011-04-05T12:35:49Z</time>
      </trkpt>
      <trkpt lat="49.19033" lon="6.93737">
        <ele>387</ele>
        <time>2011-04-05T12:35:50Z</time>
      </trkpt>
      <trkpt lat="49.19031" lon="6.93735">
        <ele>387</ele>
        <time>2011-04-05T12:35:52Z</time>
      </trkpt>
      <trkpt lat="49.1903" lon="6.93734">
        <ele>387</ele>
        <time>2011-04-05T12:35:53Z</time>
      </trkpt>
      <trkpt lat="49.19027" lon="6.93732">
        <ele>387</ele>
        <time>2011-04-05T12:35:55Z</time>
      </trkpt>
      <trkpt lat="49.19026" lon="6.93732">
        <ele>387</ele>
        <time>2011-04-05T12:35:56Z</time>
      </trkpt>
      <trkpt lat="49.19025" lon="6.93731">
        <ele>387</ele>
        <time>2011-04-05T12:35:57Z</time>
      </trkpt>
      <trkpt lat="49.19023" lon="6.9373">
        <ele>387</ele>
        <time>2011-04-05T12:35:58Z</time>
      </trkpt>
      <trkpt lat="49.19022" lon="6.93729">
        <ele>387</ele>
        <time>2011-04-05T12:35:59Z</time>
      </trkpt>
      <trkpt lat="49.1902" lon="6.93727">
        <ele>387</ele>
        <time>2011-04-05T12:36:00Z</time>
      </trkpt>
      <trkpt lat="49.19019" lon="6.93726">
        <ele>387</ele>
        <time>2011-04-05T12:36:01Z</time>
      </trkpt>
      <trkpt lat="49.19018" lon="6.93724">
        <ele>387</ele>
        <time>2011-04-05T12:36:02Z</time>
      </trkpt>
      <trkpt lat="49.19016" lon="6.93722">
        <ele>387</ele>
        <time>2011-04-05T12:36:04Z</time>
      </trkpt>
      <trkpt lat="49.19014" lon="6.93721">
        <ele>387</ele>
        <time>2011-04-05T12:36:05Z</time>
      </trkpt>
      <trkpt lat="49.19013" lon="6.93717">
        <ele>387</ele>
        <time>2011-04-05T12:36:07Z</time>
      </trkpt>
      <trkpt lat="49.19011" lon="6.93716">
        <ele>387</ele>
        <time>2011-04-05T12:36:08Z</time>
      </trkpt>
      <trkpt lat="49.19009" lon="6.93715">
        <ele>387</ele>
        <time>2011-04-05T12:36:09Z</time>
      </trkpt>
      <trkpt lat="49.19007" lon="6.93713">
        <ele>387</ele>
        <time>2011-04-05T12:36:10Z</time>
      </trkpt>
      <trkpt lat="49.19005" lon="6.93712">
        <ele>387</ele>
        <time>2011-04-05T12:36:11Z</time>
      </trkpt>
      <trkpt lat="49.19004" lon="6.9371">
        <ele>387</ele>
        <time>2011-04-05T12:36:12Z</time>
      </trkpt>
      <trkpt lat="49.19003" lon="6.93708">
        <ele>387</ele>
        <time>2011-04-05T12:36:14Z</time>
      </trkpt>
      <trkpt lat="49.19002" lon="6.93707">
        <ele>387</ele>
        <time>2011-04-05T12:36:15Z</time>
      </trkpt>
      <trkpt lat="49.19001" lon="6.93706">
        <ele>387</ele>
        <time>2011-04-05T12:36:16Z</time>
      </trkpt>
      <trkpt lat="49.18999" lon="6.93703">
        <ele>387</ele>
        <time>2011-04-05T12:36:18Z</time>
      </trkpt>
      <trkpt lat="49.18999" lon="6.93701">
        <ele>387</ele>
        <time>2011-04-05T12:36:19Z</time>
      </trkpt>
      <trkpt lat="49.18998" lon="6.93701">
        <ele>387</ele>
        <time>2011-04-05T12:36:21Z</time>
      </trkpt>
      <trkpt lat="49.18997" lon="6.93699">
        <ele>387</ele>
        <time>2011-04-05T12:36:22Z</time>
      </trkpt>
      <trkpt lat="49.18996" lon="6.93697">
        <ele>387</ele>
        <time>2011-04-05T12:36:23Z</time>
      </trkpt>
      <trkpt lat="49.18994" lon="6.93694">
        <ele>387</ele>
        <time>2011-04-05T12:36:25Z</time>
      </trkpt>
      <trkpt lat="49.18993" lon="6.93693">
        <ele>387</ele>
        <time>2011-04-05T12:36:26Z</time>
      </trkpt>
      <trkpt lat="49.18992" lon="6.93691">
        <ele>387</ele>
        <time>2011-04-05T12:36:27Z</time>
      </trkpt>
      <trkpt lat="49.18989" lon="6.93688">
        <ele>387</ele>
        <time>2011-04-05T12:36:29Z</time>
      </trkpt>
      <trkpt lat="49.18988" lon="6.93687">
        <ele>387</ele>
        <time>2011-04-05T12:36:30Z</time>
      </trkpt>
      <trkpt lat="49.18986" lon="6.93686">
        <ele>387</ele>
        <time>2011-04-05T12:36:31Z</time>
      </trkpt>
      <trkpt lat="49.18984" lon="6.93686">
        <ele>387</ele>
        <time>2011-04-05T12:36:32Z</time>
      </trkpt>
      <trkpt lat="49.18982" lon="6.93684">
        <ele>386</ele>
        <time>2011-04-05T12:36:34Z</time>
      </trkpt>
      <trkpt lat="49.18981" lon="6.93683">
        <ele>385</ele>
        <time>2011-04-05T12:36:35Z</time>
      </trkpt>
      <trkpt lat="49.1898" lon="6.93682">
        <ele>385</ele>
        <time>2011-04-05T12:36:36Z</time>
      </trkpt>
      <trkpt lat="49.18979" lon="6.93682">
        <ele>385</ele>
        <time>2011-04-05T12:36:37Z</time>
      </trkpt>
      <trkpt lat="49.18977" lon="6.93681">
        <ele>384</ele>
        <time>2011-04-05T12:36:39Z</time>
      </trkpt>
      <trkpt lat="49.18976" lon="6.93679">
        <ele>384</ele>
        <time>2011-04-05T12:36:41Z</time>
      </trkpt>
      <trkpt lat="49.18974" lon="6.93678">
        <ele>384</ele>
        <time>2011-04-05T12:36:42Z</time>
      </trkpt>
      <trkpt lat="49.18973" lon="6.93677">
        <ele>384</ele>
        <time>2011-04-05T12:36:43Z</time>
      </trkpt>
      <trkpt lat="49.18971" lon="6.93675">
        <ele>382</ele>
        <time>2011-04-05T12:36:45Z</time>
      </trkpt>
      <trkpt lat="49.18969" lon="6.93674">
        <ele>381</ele>
        <time>2011-04-05T12:36:46Z</time>
      </trkpt>
      <trkpt lat="49.18968" lon="6.93673">
        <ele>381</ele>
        <time>2011-04-05T12:36:47Z</time>
      </trkpt>
      <trkpt lat="49.18967" lon="6.93671">
        <ele>380</ele>
        <time>2011-04-05T12:36:48Z</time>
      </trkpt>
      <trkpt lat="49.18965" lon="6.93669">
        <ele>379</ele>
        <time>2011-04-05T12:36:50Z</time>
      </trkpt>
      <trkpt lat="49.18963" lon="6.93667">
        <ele>379</ele>
        <time>2011-04-05T12:36:52Z</time>
      </trkpt>
      <trkpt lat="49.18961" lon="6.93665">
        <ele>377</ele>
        <time>2011-04-05T12:36:54Z</time>
      </trkpt>
      <trkpt lat="49.18959" lon="6.93664">
        <ele>377</ele>
        <time>2011-04-05T12:36:55Z</time>
      </trkpt>
      <trkpt lat="49.18958" lon="6.93662">
        <ele>377</ele>
        <time>2011-04-05T12:36:56Z</time>
      </trkpt>
      <trkpt lat="49.18957" lon="6.93661">
        <ele>376</ele>
        <time>2011-04-05T12:36:57Z</time>
      </trkpt>
      <trkpt lat="49.18955" lon="6.9366">
        <ele>376</ele>
        <time>2011-04-05T12:36:58Z</time>
      </trkpt>
      <trkpt lat="49.18953" lon="6.93657">
        <ele>376</ele>
        <time>2011-04-05T12:37:00Z</time>
      </trkpt>
      <trkpt lat="49.18951" lon="6.93653">
        <ele>376</ele>
        <time>2011-04-05T12:37:01Z</time>
      </trkpt>
      <trkpt lat="49.18949" lon="6.93651">
        <ele>376</ele>
        <time>2011-04-05T12:37:03Z</time>
      </trkpt>
      <trkpt lat="49.18947" lon="6.9365">
        <ele>376</ele>
        <time>2011-04-05T12:37:04Z</time>
      </trkpt>
      <trkpt lat="49.18945" lon="6.9365">
        <ele>376</ele>
        <time>2011-04-05T12:37:05Z</time>
      </trkpt>
      <trkpt lat="49.18944" lon="6.9365">
        <ele>376</ele>
        <time>2011-04-05T12:37:06Z</time>
      </trkpt>
      <trkpt lat="49.18943" lon="6.93649">
        <ele>376</ele>
        <time>2011-04-05T12:37:07Z</time>
      </trkpt>
      <trkpt lat="49.18941" lon="6.93647">
        <ele>376</ele>
        <time>2011-04-05T12:37:08Z</time>
      </trkpt>
      <trkpt lat="49.1894" lon="6.93645">
        <ele>376</ele>
        <time>2011-04-05T12:37:09Z</time>
      </trkpt>
      <trkpt lat="49.18938" lon="6.93645">
        <ele>376</ele>
        <time>2011-04-05T12:37:10Z</time>
      </trkpt>
      <trkpt lat="49.18937" lon="6.93644">
        <ele>375</ele>
        <time>2011-04-05T12:37:11Z</time>
      </trkpt>
      <trkpt lat="49.18935" lon="6.93642">
        <ele>375</ele>
        <time>2011-04-05T12:37:12Z</time>
      </trkpt>
      <trkpt lat="49.18934" lon="6.9364">
        <ele>375</ele>
        <time>2011-04-05T12:37:13Z</time>
      </trkpt>
      <trkpt lat="49.18932" lon="6.93638">
        <ele>375</ele>
        <time>2011-04-05T12:37:14Z</time>
      </trkpt>
      <trkpt lat="49.1893" lon="6.93637">
        <ele>375</ele>
        <time>2011-04-05T12:37:15Z</time>
      </trkpt>
      <trkpt lat="49.18929" lon="6.93636">
        <ele>375</ele>
        <time>2011-04-05T12:37:16Z</time>
      </trkpt>
      <trkpt lat="49.18928" lon="6.93635">
        <ele>375</ele>
        <time>2011-04-05T12:37:17Z</time>
      </trkpt>
      <trkpt lat="49.18926" lon="6.93632">
        <ele>375</ele>
        <time>2011-04-05T12:37:19Z</time>
      </trkpt>
      <trkpt lat="49.18924" lon="6.93629">
        <ele>375</ele>
        <time>2011-04-05T12:37:21Z</time>
      </trkpt>
      <trkpt lat="49.18923" lon="6.93627">
        <ele>375</ele>
        <time>2011-04-05T12:37:22Z</time>
      </trkpt>
      <trkpt lat="49.18922" lon="6.93625">
        <ele>375</ele>
        <time>2011-04-05T12:37:23Z</time>
      </trkpt>
      <trkpt lat="49.18921" lon="6.93624">
        <ele>375</ele>
        <time>2011-04-05T12:37:24Z</time>
      </trkpt>
      <trkpt lat="49.18919" lon="6.93623">
        <ele>375</ele>
        <time>2011-04-05T12:37:25Z</time>
      </trkpt>
      <trkpt lat="49.18918" lon="6.93622">
        <ele>375</ele>
        <time>2011-04-05T12:37:26Z</time>
      </trkpt>
      <trkpt lat="49.18916" lon="6.93619">
        <ele>375</ele>
        <time>2011-04-05T12:37:28Z</time>
      </trkpt>
      <trkpt lat="49.18915" lon="6.93617">
        <ele>373</ele>
        <time>2011-04-05T12:37:30Z</time>
      </trkpt>
      <trkpt lat="49.18914" lon="6.93616">
        <ele>373</ele>
        <time>2011-04-05T12:37:31Z</time>
      </trkpt>
      <trkpt lat="49.18912" lon="6.93612">
        <ele>372</ele>
        <time>2011-04-05T12:37:33Z</time>
      </trkpt>
      <trkpt lat="49.18911" lon="6.9361">
        <ele>372</ele>
        <time>2011-04-05T12:37:34Z</time>
      </trkpt>
      <trkpt lat="49.18911" lon="6.93608">
        <ele>372</ele>
        <time>2011-04-05T12:37:35Z</time>
      </trkpt>
      <trkpt lat="49.18909" lon="6.93607">
        <ele>372</ele>
        <time>2011-04-05T12:37:36Z</time>
      </trkpt>
      <trkpt lat="49.18908" lon="6.93603">
        <ele>372</ele>
        <time>2011-04-05T12:37:38Z</time>
      </trkpt>
      <trkpt lat="49.18906" lon="6.93598">
        <ele>372</ele>
        <time>2011-04-05T12:37:40Z</time>
      </trkpt>
      <trkpt lat="49.18906" lon="6.93596">
        <ele>372</ele>
        <time>2011-04-05T12:37:41Z</time>
      </trkpt>
      <trkpt lat="49.18905" lon="6.93594">
        <ele>372</ele>
        <time>2011-04-05T12:37:42Z</time>
      </trkpt>
      <trkpt lat="49.18903" lon="6.93591">
        <ele>373</ele>
        <time>2011-04-05T12:37:44Z</time>
      </trkpt>
      <trkpt lat="49.18904" lon="6.93588">
        <ele>374</ele>
        <time>2011-04-05T12:37:46Z</time>
      </trkpt>
      <trkpt lat="49.18903" lon="6.93586">
        <ele>374</ele>
        <time>2011-04-05T12:37:47Z</time>
      </trkpt>
      <trkpt lat="49.18903" lon="6.93585">
        <ele>374</ele>
        <time>2011-04-05T12:37:48Z</time>
      </trkpt>
      <trkpt lat="49.18902" lon="6.93583">
        <ele>374</ele>
        <time>2011-04-05T12:37:49Z</time>
      </trkpt>
      <trkpt lat="49.18901" lon="6.93581">
        <ele>374</ele>
        <time>2011-04-05T12:37:50Z</time>
      </trkpt>
      <trkpt lat="49.189" lon="6.93579">
        <ele>374</ele>
        <time>2011-04-05T12:37:51Z</time>
      </trkpt>
      <trkpt lat="49.18898" lon="6.93576">
        <ele>374</ele>
        <time>2011-04-05T12:37:53Z</time>
      </trkpt>
      <trkpt lat="49.18898" lon="6.93574">
        <ele>374</ele>
        <time>2011-04-05T12:37:54Z</time>
      </trkpt>
      <trkpt lat="49.18897" lon="6.93573">
        <ele>374</ele>
        <time>2011-04-05T12:37:55Z</time>
      </trkpt>
      <trkpt lat="49.18896" lon="6.9357">
        <ele>374</ele>
        <time>2011-04-05T12:37:56Z</time>
      </trkpt>
      <trkpt lat="49.18895" lon="6.93568">
        <ele>374</ele>
        <time>2011-04-05T12:37:57Z</time>
      </trkpt>
      <trkpt lat="49.18894" lon="6.93565">
        <ele>375</ele>
        <time>2011-04-05T12:37:58Z</time>
      </trkpt>
      <trkpt lat="49.18894" lon="6.93563">
        <ele>375</ele>
        <time>2011-04-05T12:37:59Z</time>
      </trkpt>
      <trkpt lat="49.18893" lon="6.9356">
        <ele>375</ele>
        <time>2011-04-05T12:38:00Z</time>
      </trkpt>
      <trkpt lat="49.18893" lon="6.93558">
        <ele>375</ele>
        <time>2011-04-05T12:38:01Z</time>
      </trkpt>
      <trkpt lat="49.18892" lon="6.93556">
        <ele>375</ele>
        <time>2011-04-05T12:38:02Z</time>
      </trkpt>
      <trkpt lat="49.18891" lon="6.93554">
        <ele>376</ele>
        <time>2011-04-05T12:38:03Z</time>
      </trkpt>
      <trkpt lat="49.1889" lon="6.93551">
        <ele>376</ele>
        <time>2011-04-05T12:38:04Z</time>
      </trkpt>
      <trkpt lat="49.1889" lon="6.93549">
        <ele>377</ele>
        <time>2011-04-05T12:38:05Z</time>
      </trkpt>
      <trkpt lat="49.18889" lon="6.93546">
        <ele>377</ele>
        <time>2011-04-05T12:38:07Z</time>
      </trkpt>
      <trkpt lat="49.18889" lon="6.93545">
        <ele>377</ele>
        <time>2011-04-05T12:38:08Z</time>
      </trkpt>
      <trkpt lat="49.18888" lon="6.93542">
        <ele>377</ele>
        <time>2011-04-05T12:38:09Z</time>
      </trkpt>
      <trkpt lat="49.18888" lon="6.9354">
        <ele>377</ele>
        <time>2011-04-05T12:38:10Z</time>
      </trkpt>
      <trkpt lat="49.18888" lon="6.93538">
        <ele>378</ele>
        <time>2011-04-05T12:38:11Z</time>
      </trkpt>
      <trkpt lat="49.18887" lon="6.93536">
        <ele>379</ele>
        <time>2011-04-05T12:38:13Z</time>
      </trkpt>
      <trkpt lat="49.18886" lon="6.93533">
        <ele>380</ele>
        <time>2011-04-05T12:38:15Z</time>
      </trkpt>
      <trkpt lat="49.18885" lon="6.9353">
        <ele>380</ele>
        <time>2011-04-05T12:38:16Z</time>
      </trkpt>
      <trkpt lat="49.18884" lon="6.93528">
        <ele>381</ele>
        <time>2011-04-05T12:38:18Z</time>
      </trkpt>
      <trkpt lat="49.18884" lon="6.93525">
        <ele>382</ele>
        <time>2011-04-05T12:38:19Z</time>
      </trkpt>
      <trkpt lat="49.18883" lon="6.93523">
        <ele>383</ele>
        <time>2011-04-05T12:38:20Z</time>
      </trkpt>
      <trkpt lat="49.18883" lon="6.93521">
        <ele>384</ele>
        <time>2011-04-05T12:38:21Z</time>
      </trkpt>
      <trkpt lat="49.18882" lon="6.93518">
        <ele>385</ele>
        <time>2011-04-05T12:38:22Z</time>
      </trkpt>
      <trkpt lat="49.18881" lon="6.93516">
        <ele>385</ele>
        <time>2011-04-05T12:38:23Z</time>
      </trkpt>
      <trkpt lat="49.1888" lon="6.93513">
        <ele>385</ele>
        <time>2011-04-05T12:38:24Z</time>
      </trkpt>
      <trkpt lat="49.1888" lon="6.93511">
        <ele>385</ele>
        <time>2011-04-05T12:38:25Z</time>
      </trkpt>
      <trkpt lat="49.18879" lon="6.93509">
        <ele>385</ele>
        <time>2011-04-05T12:38:26Z</time>
      </trkpt>
      <trkpt lat="49.18878" lon="6.93507">
        <ele>385</ele>
        <time>2011-04-05T12:38:27Z</time>
      </trkpt>
      <trkpt lat="49.18878" lon="6.93505">
        <ele>385</ele>
        <time>2011-04-05T12:38:28Z</time>
      </trkpt>
      <trkpt lat="49.18877" lon="6.93503">
        <ele>385</ele>
        <time>2011-04-05T12:38:29Z</time>
      </trkpt>
      <trkpt lat="49.18876" lon="6.93501">
        <ele>385</ele>
        <time>2011-04-05T12:38:30Z</time>
      </trkpt>
      <trkpt lat="49.18875" lon="6.93499">
        <ele>385</ele>
        <time>2011-04-05T12:38:31Z</time>
      </trkpt>
      <trkpt lat="49.18874" lon="6.93497">
        <ele>385</ele>
        <time>2011-04-05T12:38:32Z</time>
      </trkpt>
      <trkpt lat="49.18874" lon="6.93495">
        <ele>385</ele>
        <time>2011-04-05T12:38:33Z</time>
      </trkpt>
      <trkpt lat="49.18873" lon="6.93493">
        <ele>385</ele>
        <time>2011-04-05T12:38:34Z</time>
      </trkpt>
      <trkpt lat="49.18873" lon="6.93491">
        <ele>385</ele>
        <time>2011-04-05T12:38:35Z</time>
      </trkpt>
      <trkpt lat="49.18872" lon="6.93489">
        <ele>385</ele>
        <time>2011-04-05T12:38:36Z</time>
      </trkpt>
      <trkpt lat="49.18872" lon="6.93487">
        <ele>385</ele>
        <time>2011-04-05T12:38:37Z</time>
      </trkpt>
      <trkpt lat="49.18871" lon="6.93485">
        <ele>384</ele>
        <time>2011-04-05T12:38:38Z</time>
      </trkpt>
      <trkpt lat="49.1887" lon="6.93483">
        <ele>384</ele>
        <time>2011-04-05T12:38:39Z</time>
      </trkpt>
      <trkpt lat="49.18869" lon="6.93481">
        <ele>383</ele>
        <time>2011-04-05T12:38:40Z</time>
      </trkpt>
      <trkpt lat="49.18868" lon="6.93479">
        <ele>383</ele>
        <time>2011-04-05T12:38:41Z</time>
      </trkpt>
      <trkpt lat="49.18868" lon="6.93477">
        <ele>382</ele>
        <time>2011-04-05T12:38:42Z</time>
      </trkpt>
      <trkpt lat="49.18867" lon="6.93475">
        <ele>381</ele>
        <time>2011-04-05T12:38:43Z</time>
      </trkpt>
      <trkpt lat="49.18867" lon="6.93473">
        <ele>381</ele>
        <time>2011-04-05T12:38:44Z</time>
      </trkpt>
      <trkpt lat="49.18866" lon="6.93468">
        <ele>380</ele>
        <time>2011-04-05T12:38:46Z</time>
      </trkpt>
      <trkpt lat="49.18866" lon="6.93466">
        <ele>380</ele>
        <time>2011-04-05T12:38:47Z</time>
      </trkpt>
      <trkpt lat="49.18865" lon="6.93464">
        <ele>380</ele>
        <time>2011-04-05T12:38:48Z</time>
      </trkpt>
      <trkpt lat="49.18864" lon="6.93462">
        <ele>380</ele>
        <time>2011-04-05T12:38:49Z</time>
      </trkpt>
      <trkpt lat="49.18863" lon="6.9346">
        <ele>380</ele>
        <time>2011-04-05T12:38:50Z</time>
      </trkpt>
      <trkpt lat="49.18862" lon="6.93458">
        <ele>380</ele>
        <time>2011-04-05T12:38:51Z</time>
      </trkpt>
      <trkpt lat="49.18861" lon="6.93456">
        <ele>380</ele>
        <time>2011-04-05T12:38:52Z</time>
      </trkpt>
      <trkpt lat="49.1886" lon="6.93454">
        <ele>380</ele>
        <time>2011-04-05T12:38:53Z</time>
      </trkpt>
      <trkpt lat="49.18859" lon="6.93453">
        <ele>380</ele>
        <time>2011-04-05T12:38:54Z</time>
      </trkpt>
      <trkpt lat="49.18859" lon="6.93451">
        <ele>380</ele>
        <time>2011-04-05T12:38:55Z</time>
      </trkpt>
      <trkpt lat="49.18858" lon="6.93448">
        <ele>380</ele>
        <time>2011-04-05T12:38:57Z</time>
      </trkpt>
      <trkpt lat="49.18857" lon="6.93446">
        <ele>380</ele>
        <time>2011-04-05T12:38:58Z</time>
      </trkpt>
      <trkpt lat="49.18856" lon="6.93444">
        <ele>380</ele>
        <time>2011-04-05T12:38:59Z</time>
      </trkpt>
      <trkpt lat="49.18856" lon="6.93441">
        <ele>380</ele>
        <time>2011-04-05T12:39:00Z</time>
      </trkpt>
      <trkpt lat="49.18856" lon="6.93438">
        <ele>380</ele>
        <time>2011-04-05T12:39:02Z</time>
      </trkpt>
      <trkpt lat="49.18855" lon="6.93436">
        <ele>380</ele>
        <time>2011-04-05T12:39:03Z</time>
      </trkpt>
      <trkpt lat="49.18854" lon="6.93435">
        <ele>380</ele>
        <time>2011-04-05T12:39:04Z</time>
      </trkpt>
      <trkpt lat="49.18853" lon="6.93431">
        <ele>380</ele>
        <time>2011-04-05T12:39:06Z</time>
      </trkpt>
      <trkpt lat="49.18851" lon="6.93428">
        <ele>379</ele>
        <time>2011-04-05T12:39:08Z</time>
      </trkpt>
      <trkpt lat="49.1885" lon="6.93426">
        <ele>379</ele>
        <time>2011-04-05T12:39:09Z</time>
      </trkpt>
      <trkpt lat="49.1885" lon="6.93424">
        <ele>378</ele>
        <time>2011-04-05T12:39:10Z</time>
      </trkpt>
      <trkpt lat="49.18848" lon="6.93422">
        <ele>378</ele>
        <time>2011-04-05T12:39:11Z</time>
      </trkpt>
      <trkpt lat="49.18848" lon="6.9342">
        <ele>378</ele>
        <time>2011-04-05T12:39:12Z</time>
      </trkpt>
      <trkpt lat="49.18846" lon="6.93417">
        <ele>378</ele>
        <time>2011-04-05T12:39:14Z</time>
      </trkpt>
      <trkpt lat="49.18845" lon="6.93415">
        <ele>378</ele>
        <time>2011-04-05T12:39:15Z</time>
      </trkpt>
      <trkpt lat="49.18844" lon="6.93413">
        <ele>378</ele>
        <time>2011-04-05T12:39:16Z</time>
      </trkpt>
      <trkpt lat="49.18843" lon="6.93411">
        <ele>378</ele>
        <time>2011-04-05T12:39:17Z</time>
      </trkpt>
      <trkpt lat="49.18842" lon="6.9341">
        <ele>378</ele>
        <time>2011-04-05T12:39:18Z</time>
      </trkpt>
      <trkpt lat="49.18841" lon="6.93406">
        <ele>377</ele>
        <time>2011-04-05T12:39:20Z</time>
      </trkpt>
      <trkpt lat="49.1884" lon="6.93404">
        <ele>377</ele>
        <time>2011-04-05T12:39:21Z</time>
      </trkpt>
      <trkpt lat="49.1884" lon="6.93401">
        <ele>377</ele>
        <time>2011-04-05T12:39:22Z</time>
      </trkpt>
      <trkpt lat="49.18839" lon="6.93399">
        <ele>377</ele>
        <time>2011-04-05T12:39:23Z</time>
      </trkpt>
      <trkpt lat="49.18839" lon="6.93397">
        <ele>377</ele>
        <time>2011-04-05T12:39:24Z</time>
      </trkpt>
      <trkpt lat="49.18838" lon="6.93395">
        <ele>377</ele>
        <time>2011-04-05T12:39:25Z</time>
      </trkpt>
      <trkpt lat="49.18837" lon="6.93393">
        <ele>377</ele>
        <time>2011-04-05T12:39:26Z</time>
      </trkpt>
      <trkpt lat="49.18837" lon="6.93391">
        <ele>377</ele>
        <time>2011-04-05T12:39:27Z</time>
      </trkpt>
      <trkpt lat="49.18836" lon="6.93389">
        <ele>377</ele>
        <time>2011-04-05T12:39:28Z</time>
      </trkpt>
      <trkpt lat="49.18835" lon="6.93387">
        <ele>377</ele>
        <time>2011-04-05T12:39:29Z</time>
      </trkpt>
      <trkpt lat="49.18835" lon="6.93385">
        <ele>376</ele>
        <time>2011-04-05T12:39:30Z</time>
      </trkpt>
      <trkpt lat="49.18834" lon="6.93383">
        <ele>376</ele>
        <time>2011-04-05T12:39:31Z</time>
      </trkpt>
      <trkpt lat="49.18833" lon="6.93381">
        <ele>376</ele>
        <time>2011-04-05T12:39:32Z</time>
      </trkpt>
      <trkpt lat="49.18832" lon="6.93378">
        <ele>376</ele>
        <time>2011-04-05T12:39:34Z</time>
      </trkpt>
      <trkpt lat="49.18832" lon="6.93376">
        <ele>376</ele>
        <time>2011-04-05T12:39:35Z</time>
      </trkpt>
      <trkpt lat="49.18831" lon="6.93374">
        <ele>376</ele>
        <time>2011-04-05T12:39:36Z</time>
      </trkpt>
      <trkpt lat="49.18829" lon="6.93372">
        <ele>376</ele>
        <time>2011-04-05T12:39:38Z</time>
      </trkpt>
      <trkpt lat="49.18827" lon="6.9337">
        <ele>376</ele>
        <time>2011-04-05T12:39:39Z</time>
      </trkpt>
      <trkpt lat="49.18826" lon="6.93367">
        <ele>376</ele>
        <time>2011-04-05T12:39:41Z</time>
      </trkpt>
      <trkpt lat="49.18825" lon="6.93365">
        <ele>376</ele>
        <time>2011-04-05T12:39:42Z</time>
      </trkpt>
      <trkpt lat="49.18824" lon="6.93363">
        <ele>376</ele>
        <time>2011-04-05T12:39:43Z</time>
      </trkpt>
      <trkpt lat="49.18824" lon="6.93361">
        <ele>376</ele>
        <time>2011-04-05T12:39:44Z</time>
      </trkpt>
      <trkpt lat="49.18822" lon="6.93357">
        <ele>376</ele>
        <time>2011-04-05T12:39:46Z</time>
      </trkpt>
      <trkpt lat="49.18821" lon="6.93356">
        <ele>376</ele>
        <time>2011-04-05T12:39:47Z</time>
      </trkpt>
      <trkpt lat="49.18821" lon="6.93353">
        <ele>376</ele>
        <time>2011-04-05T12:39:48Z</time>
      </trkpt>
      <trkpt lat="49.18819" lon="6.93351">
        <ele>376</ele>
        <time>2011-04-05T12:39:49Z</time>
      </trkpt>
      <trkpt lat="49.18818" lon="6.93348">
        <ele>376</ele>
        <time>2011-04-05T12:39:51Z</time>
      </trkpt>
      <trkpt lat="49.18818" lon="6.93347">
        <ele>377</ele>
        <time>2011-04-05T12:39:52Z</time>
      </trkpt>
      <trkpt lat="49.18817" lon="6.93345">
        <ele>378</ele>
        <time>2011-04-05T12:39:53Z</time>
      </trkpt>
      <trkpt lat="49.18816" lon="6.93342">
        <ele>379</ele>
        <time>2011-04-05T12:39:55Z</time>
      </trkpt>
      <trkpt lat="49.18815" lon="6.9334">
        <ele>380</ele>
        <time>2011-04-05T12:39:57Z</time>
      </trkpt>
      <trkpt lat="49.18813" lon="6.93337">
        <ele>382</ele>
        <time>2011-04-05T12:40:00Z</time>
      </trkpt>
      <trkpt lat="49.18815" lon="6.93339">
        <ele>386</ele>
        <time>2011-04-05T12:40:17Z</time>
      </trkpt>
      <trkpt lat="49.18815" lon="6.93341">
        <ele>387</ele>
        <time>2011-04-05T12:40:20Z</time>
      </trkpt>
      <trkpt lat="49.18813" lon="6.93342">
        <ele>389</ele>
        <time>2011-04-05T12:40:22Z</time>
      </trkpt>
      <trkpt lat="49.18812" lon="6.93341">
        <ele>390</ele>
        <time>2011-04-05T12:40:24Z</time>
      </trkpt>
      <trkpt lat="49.1881" lon="6.93341">
        <ele>390</ele>
        <time>2011-04-05T12:40:26Z</time>
      </trkpt>
      <trkpt lat="49.18808" lon="6.93341">
        <ele>390</ele>
        <time>2011-04-05T12:40:27Z</time>
      </trkpt>
      <trkpt lat="49.18807" lon="6.93341">
        <ele>390</ele>
        <time>2011-04-05T12:40:28Z</time>
      </trkpt>
      <trkpt lat="49.18805" lon="6.93342">
        <ele>390</ele>
        <time>2011-04-05T12:40:30Z</time>
      </trkpt>
      <trkpt lat="49.18803" lon="6.93344">
        <ele>390</ele>
        <time>2011-04-05T12:40:32Z</time>
      </trkpt>
      <trkpt lat="49.18802" lon="6.93347">
        <ele>390</ele>
        <time>2011-04-05T12:40:34Z</time>
      </trkpt>
      <trkpt lat="49.188" lon="6.93349">
        <ele>391</ele>
        <time>2011-04-05T12:40:36Z</time>
      </trkpt>
      <trkpt lat="49.18798" lon="6.93351">
        <ele>393</ele>
        <time>2011-04-05T12:40:38Z</time>
      </trkpt>
      <trkpt lat="49.18797" lon="6.93352">
        <ele>393</ele>
        <time>2011-04-05T12:40:39Z</time>
      </trkpt>
      <trkpt lat="49.18795" lon="6.93354">
        <ele>393</ele>
        <time>2011-04-05T12:40:40Z</time>
      </trkpt>
      <trkpt lat="49.18794" lon="6.93355">
        <ele>393</ele>
        <time>2011-04-05T12:40:41Z</time>
      </trkpt>
      <trkpt lat="49.18793" lon="6.93356">
        <ele>393</ele>
        <time>2011-04-05T12:40:42Z</time>
      </trkpt>
      <trkpt lat="49.18791" lon="6.93358">
        <ele>393</ele>
        <time>2011-04-05T12:40:44Z</time>
      </trkpt>
      <trkpt lat="49.18789" lon="6.9336">
        <ele>393</ele>
        <time>2011-04-05T12:40:46Z</time>
      </trkpt>
      <trkpt lat="49.18788" lon="6.93362">
        <ele>392</ele>
        <time>2011-04-05T12:40:47Z</time>
      </trkpt>
      <trkpt lat="49.18787" lon="6.93363">
        <ele>391</ele>
        <time>2011-04-05T12:40:48Z</time>
      </trkpt>
      <trkpt lat="49.18786" lon="6.93364">
        <ele>390</ele>
        <time>2011-04-05T12:40:49Z</time>
      </trkpt>
      <trkpt lat="49.18784" lon="6.93366">
        <ele>388</ele>
        <time>2011-04-05T12:40:51Z</time>
      </trkpt>
      <trkpt lat="49.18782" lon="6.93368">
        <ele>387</ele>
        <time>2011-04-05T12:40:53Z</time>
      </trkpt>
      <trkpt lat="49.1878" lon="6.93371">
        <ele>386</ele>
        <time>2011-04-05T12:40:55Z</time>
      </trkpt>
      <trkpt lat="49.18779" lon="6.93372">
        <ele>385</ele>
        <time>2011-04-05T12:40:56Z</time>
      </trkpt>
      <trkpt lat="49.18777" lon="6.93374">
        <ele>384</ele>
        <time>2011-04-05T12:40:58Z</time>
      </trkpt>
      <trkpt lat="49.18775" lon="6.93377">
        <ele>382</ele>
        <time>2011-04-05T12:41:00Z</time>
      </trkpt>
      <trkpt lat="49.18774" lon="6.93378">
        <ele>381</ele>
        <time>2011-04-05T12:41:01Z</time>
      </trkpt>
      <trkpt lat="49.18773" lon="6.93379">
        <ele>381</ele>
        <time>2011-04-05T12:41:02Z</time>
      </trkpt>
      <trkpt lat="49.18771" lon="6.93382">
        <ele>379</ele>
        <time>2011-04-05T12:41:04Z</time>
      </trkpt>
      <trkpt lat="49.18769" lon="6.93385">
        <ele>379</ele>
        <time>2011-04-05T12:41:05Z</time>
      </trkpt>
      <trkpt lat="49.18768" lon="6.93386">
        <ele>378</ele>
        <time>2011-04-05T12:41:06Z</time>
      </trkpt>
      <trkpt lat="49.18767" lon="6.93387">
        <ele>377</ele>
        <time>2011-04-05T12:41:07Z</time>
      </trkpt>
      <trkpt lat="49.18765" lon="6.93389">
        <ele>376</ele>
        <time>2011-04-05T12:41:08Z</time>
      </trkpt>
      <trkpt lat="49.18764" lon="6.93391">
        <ele>376</ele>
        <time>2011-04-05T12:41:09Z</time>
      </trkpt>
      <trkpt lat="49.18763" lon="6.93392">
        <ele>375</ele>
        <time>2011-04-05T12:41:10Z</time>
      </trkpt>
      <trkpt lat="49.18763" lon="6.93394">
        <ele>375</ele>
        <time>2011-04-05T12:41:11Z</time>
      </trkpt>
      <trkpt lat="49.18761" lon="6.93397">
        <ele>375</ele>
        <time>2011-04-05T12:41:13Z</time>
      </trkpt>
      <trkpt lat="49.1876" lon="6.93399">
        <ele>375</ele>
        <time>2011-04-05T12:41:14Z</time>
      </trkpt>
      <trkpt lat="49.18759" lon="6.934">
        <ele>375</ele>
        <time>2011-04-05T12:41:15Z</time>
      </trkpt>
      <trkpt lat="49.18758" lon="6.93402">
        <ele>375</ele>
        <time>2011-04-05T12:41:16Z</time>
      </trkpt>
      <trkpt lat="49.18756" lon="6.93405">
        <ele>375</ele>
        <time>2011-04-05T12:41:18Z</time>
      </trkpt>
      <trkpt lat="49.18755" lon="6.93406">
        <ele>375</ele>
        <time>2011-04-05T12:41:19Z</time>
      </trkpt>
      <trkpt lat="49.18754" lon="6.93408">
        <ele>375</ele>
        <time>2011-04-05T12:41:20Z</time>
      </trkpt>
      <trkpt lat="49.18753" lon="6.9341">
        <ele>375</ele>
        <time>2011-04-05T12:41:21Z</time>
      </trkpt>
      <trkpt lat="49.18752" lon="6.93412">
        <ele>375</ele>
        <time>2011-04-05T12:41:22Z</time>
      </trkpt>
      <trkpt lat="49.1875" lon="6.93415">
        <ele>375</ele>
        <time>2011-04-05T12:41:23Z</time>
      </trkpt>
      <trkpt lat="49.18749" lon="6.93416">
        <ele>375</ele>
        <time>2011-04-05T12:41:24Z</time>
      </trkpt>
      <trkpt lat="49.18747" lon="6.93419">
        <ele>375</ele>
        <time>2011-04-05T12:41:26Z</time>
      </trkpt>
      <trkpt lat="49.18745" lon="6.93422">
        <ele>374</ele>
        <time>2011-04-05T12:41:28Z</time>
      </trkpt>
      <trkpt lat="49.18744" lon="6.93425">
        <ele>373</ele>
        <time>2011-04-05T12:41:30Z</time>
      </trkpt>
      <trkpt lat="49.18742" lon="6.93427">
        <ele>373</ele>
        <time>2011-04-05T12:41:31Z</time>
      </trkpt>
      <trkpt lat="49.18742" lon="6.93429">
        <ele>373</ele>
        <time>2011-04-05T12:41:32Z</time>
      </trkpt>
      <trkpt lat="49.18742" lon="6.9343">
        <ele>373</ele>
        <time>2011-04-05T12:41:33Z</time>
      </trkpt>
      <trkpt lat="49.1874" lon="6.93432">
        <ele>373</ele>
        <time>2011-04-05T12:41:34Z</time>
      </trkpt>
      <trkpt lat="49.18739" lon="6.93434">
        <ele>373</ele>
        <time>2011-04-05T12:41:35Z</time>
      </trkpt>
      <trkpt lat="49.18738" lon="6.93435">
        <ele>373</ele>
        <time>2011-04-05T12:41:36Z</time>
      </trkpt>
      <trkpt lat="49.18737" lon="6.93437">
        <ele>373</ele>
        <time>2011-04-05T12:41:37Z</time>
      </trkpt>
      <trkpt lat="49.18736" lon="6.93439">
        <ele>373</ele>
        <time>2011-04-05T12:41:38Z</time>
      </trkpt>
      <trkpt lat="49.18735" lon="6.93441">
        <ele>373</ele>
        <time>2011-04-05T12:41:39Z</time>
      </trkpt>
      <trkpt lat="49.18734" lon="6.93442">
        <ele>373</ele>
        <time>2011-04-05T12:41:40Z</time>
      </trkpt>
      <trkpt lat="49.18732" lon="6.93444">
        <ele>373</ele>
        <time>2011-04-05T12:41:41Z</time>
      </trkpt>
      <trkpt lat="49.18732" lon="6.93448">
        <ele>373</ele>
        <time>2011-04-05T12:41:43Z</time>
      </trkpt>
      <trkpt lat="49.18731" lon="6.9345">
        <ele>373</ele>
        <time>2011-04-05T12:41:44Z</time>
      </trkpt>
      <trkpt lat="49.18729" lon="6.93451">
        <ele>373</ele>
        <time>2011-04-05T12:41:45Z</time>
      </trkpt>
      <trkpt lat="49.18728" lon="6.93453">
        <ele>373</ele>
        <time>2011-04-05T12:41:46Z</time>
      </trkpt>
      <trkpt lat="49.18726" lon="6.93455">
        <ele>373</ele>
        <time>2011-04-05T12:41:47Z</time>
      </trkpt>
      <trkpt lat="49.18724" lon="6.93457">
        <ele>373</ele>
        <time>2011-04-05T12:41:49Z</time>
      </trkpt>
      <trkpt lat="49.18722" lon="6.93459">
        <ele>373</ele>
        <time>2011-04-05T12:41:51Z</time>
      </trkpt>
      <trkpt lat="49.18721" lon="6.93461">
        <ele>373</ele>
        <time>2011-04-05T12:41:52Z</time>
      </trkpt>
      <trkpt lat="49.1872" lon="6.93463">
        <ele>372</ele>
        <time>2011-04-05T12:41:53Z</time>
      </trkpt>
      <trkpt lat="49.18719" lon="6.93464">
        <ele>371</ele>
        <time>2011-04-05T12:41:54Z</time>
      </trkpt>
      <trkpt lat="49.18718" lon="6.93466">
        <ele>369</ele>
        <time>2011-04-05T12:41:56Z</time>
      </trkpt>
      <trkpt lat="49.18716" lon="6.93467">
        <ele>368</ele>
        <time>2011-04-05T12:41:57Z</time>
      </trkpt>
      <trkpt lat="49.18715" lon="6.93469">
        <ele>367</ele>
        <time>2011-04-05T12:41:58Z</time>
      </trkpt>
      <trkpt lat="49.18714" lon="6.93471">
        <ele>366</ele>
        <time>2011-04-05T12:41:59Z</time>
      </trkpt>
      <trkpt lat="49.18713" lon="6.93473">
        <ele>365</ele>
        <time>2011-04-05T12:42:00Z</time>
      </trkpt>
      <trkpt lat="49.18712" lon="6.93475">
        <ele>365</ele>
        <time>2011-04-05T12:42:01Z</time>
      </trkpt>
      <trkpt lat="49.18711" lon="6.93477">
        <ele>364</ele>
        <time>2011-04-05T12:42:02Z</time>
      </trkpt>
      <trkpt lat="49.1871" lon="6.93478">
        <ele>363</ele>
        <time>2011-04-05T12:42:03Z</time>
      </trkpt>
      <trkpt lat="49.18708" lon="6.9348">
        <ele>363</ele>
        <time>2011-04-05T12:42:04Z</time>
      </trkpt>
      <trkpt lat="49.18706" lon="6.93483">
        <ele>361</ele>
        <time>2011-04-05T12:42:06Z</time>
      </trkpt>
      <trkpt lat="49.18705" lon="6.93485">
        <ele>361</ele>
        <time>2011-04-05T12:42:07Z</time>
      </trkpt>
      <trkpt lat="49.18703" lon="6.93487">
        <ele>360</ele>
        <time>2011-04-05T12:42:08Z</time>
      </trkpt>
      <trkpt lat="49.18703" lon="6.93492">
        <ele>360</ele>
        <time>2011-04-05T12:42:09Z</time>
      </trkpt>
      <trkpt lat="49.18702" lon="6.93494">
        <ele>360</ele>
        <time>2011-04-05T12:42:10Z</time>
      </trkpt>
      <trkpt lat="49.18702" lon="6.93497">
        <ele>360</ele>
        <time>2011-04-05T12:42:11Z</time>
      </trkpt>
      <trkpt lat="49.18701" lon="6.93501">
        <ele>360</ele>
        <time>2011-04-05T12:42:12Z</time>
      </trkpt>
      <trkpt lat="49.18702" lon="6.93504">
        <ele>361</ele>
        <time>2011-04-05T12:42:13Z</time>
      </trkpt>
      <trkpt lat="49.18702" lon="6.93505">
        <ele>361</ele>
        <time>2011-04-05T12:42:14Z</time>
      </trkpt>
      <trkpt lat="49.18701" lon="6.93507">
        <ele>361</ele>
        <time>2011-04-05T12:42:15Z</time>
      </trkpt>
      <trkpt lat="49.187" lon="6.9351">
        <ele>361</ele>
        <time>2011-04-05T12:42:16Z</time>
      </trkpt>
      <trkpt lat="49.18699" lon="6.93511">
        <ele>361</ele>
        <time>2011-04-05T12:42:17Z</time>
      </trkpt>
      <trkpt lat="49.18696" lon="6.93514">
        <ele>361</ele>
        <time>2011-04-05T12:42:19Z</time>
      </trkpt>
      <trkpt lat="49.18695" lon="6.93516">
        <ele>361</ele>
        <time>2011-04-05T12:42:20Z</time>
      </trkpt>
      <trkpt lat="49.18694" lon="6.93518">
        <ele>361</ele>
        <time>2011-04-05T12:42:22Z</time>
      </trkpt>
      <trkpt lat="49.18693" lon="6.93521">
        <ele>361</ele>
        <time>2011-04-05T12:42:23Z</time>
      </trkpt>
      <trkpt lat="49.18692" lon="6.93523">
        <ele>361</ele>
        <time>2011-04-05T12:42:24Z</time>
      </trkpt>
      <trkpt lat="49.18692" lon="6.93525">
        <ele>360</ele>
        <time>2011-04-05T12:42:26Z</time>
      </trkpt>
      <trkpt lat="49.18692" lon="6.93527">
        <ele>360</ele>
        <time>2011-04-05T12:42:27Z</time>
      </trkpt>
      <trkpt lat="49.18691" lon="6.93529">
        <ele>359</ele>
        <time>2011-04-05T12:42:28Z</time>
      </trkpt>
      <trkpt lat="49.18691" lon="6.93531">
        <ele>358</ele>
        <time>2011-04-05T12:42:29Z</time>
      </trkpt>
      <trkpt lat="49.18691" lon="6.93533">
        <ele>357</ele>
        <time>2011-04-05T12:42:30Z</time>
      </trkpt>
      <trkpt lat="49.18691" lon="6.93535">
        <ele>357</ele>
        <time>2011-04-05T12:42:31Z</time>
      </trkpt>
      <trkpt lat="49.18692" lon="6.93537">
        <ele>356</ele>
        <time>2011-04-05T12:42:32Z</time>
      </trkpt>
      <trkpt lat="49.18692" lon="6.93539">
        <ele>355</ele>
        <time>2011-04-05T12:42:33Z</time>
      </trkpt>
      <trkpt lat="49.18692" lon="6.93541">
        <ele>354</ele>
        <time>2011-04-05T12:42:34Z</time>
      </trkpt>
      <trkpt lat="49.18692" lon="6.93543">
        <ele>353</ele>
        <time>2011-04-05T12:42:35Z</time>
      </trkpt>
      <trkpt lat="49.18692" lon="6.93544">
        <ele>353</ele>
        <time>2011-04-05T12:42:36Z</time>
      </trkpt>
      <trkpt lat="49.18694" lon="6.93547">
        <ele>352</ele>
        <time>2011-04-05T12:42:38Z</time>
      </trkpt>
      <trkpt lat="49.18694" lon="6.9355">
        <ele>352</ele>
        <time>2011-04-05T12:42:39Z</time>
      </trkpt>
      <trkpt lat="49.18693" lon="6.93553">
        <ele>352</ele>
        <time>2011-04-05T12:42:40Z</time>
      </trkpt>
      <trkpt lat="49.18693" lon="6.93555">
        <ele>352</ele>
        <time>2011-04-05T12:42:41Z</time>
      </trkpt>
      <trkpt lat="49.18692" lon="6.93557">
        <ele>352</ele>
        <time>2011-04-05T12:42:42Z</time>
      </trkpt>
      <trkpt lat="49.18692" lon="6.93559">
        <ele>352</ele>
        <time>2011-04-05T12:42:43Z</time>
      </trkpt>
      <trkpt lat="49.18692" lon="6.93563">
        <ele>352</ele>
        <time>2011-04-05T12:42:45Z</time>
      </trkpt>
      <trkpt lat="49.18692" lon="6.93565">
        <ele>352</ele>
        <time>2011-04-05T12:42:46Z</time>
      </trkpt>
      <trkpt lat="49.18692" lon="6.93567">
        <ele>352</ele>
        <time>2011-04-05T12:42:47Z</time>
      </trkpt>
      <trkpt lat="49.18694" lon="6.93571">
        <ele>352</ele>
        <time>2011-04-05T12:42:49Z</time>
      </trkpt>
      <trkpt lat="49.18696" lon="6.93574">
        <ele>351</ele>
        <time>2011-04-05T12:42:51Z</time>
      </trkpt>
      <trkpt lat="49.18696" lon="6.93576">
        <ele>350</ele>
        <time>2011-04-05T12:42:52Z</time>
      </trkpt>
      <trkpt lat="49.18697" lon="6.93578">
        <ele>349</ele>
        <time>2011-04-05T12:42:53Z</time>
      </trkpt>
      <trkpt lat="49.18697" lon="6.93581">
        <ele>348</ele>
        <time>2011-04-05T12:42:55Z</time>
      </trkpt>
      <trkpt lat="49.18696" lon="6.93583">
        <ele>348</ele>
        <time>2011-04-05T12:42:56Z</time>
      </trkpt>
      <trkpt lat="49.18696" lon="6.93585">
        <ele>348</ele>
        <time>2011-04-05T12:42:57Z</time>
      </trkpt>
      <trkpt lat="49.18696" lon="6.93587">
        <ele>348</ele>
        <time>2011-04-05T12:42:58Z</time>
      </trkpt>
      <trkpt lat="49.18697" lon="6.9359">
        <ele>347</ele>
        <time>2011-04-05T12:42:59Z</time>
      </trkpt>
      <trkpt lat="49.18696" lon="6.93592">
        <ele>347</ele>
        <time>2011-04-05T12:43:00Z</time>
      </trkpt>
      <trkpt lat="49.18696" lon="6.93594">
        <ele>347</ele>
        <time>2011-04-05T12:43:01Z</time>
      </trkpt>
      <trkpt lat="49.18696" lon="6.93596">
        <ele>346</ele>
        <time>2011-04-05T12:43:02Z</time>
      </trkpt>
      <trkpt lat="49.18697" lon="6.93598">
        <ele>346</ele>
        <time>2011-04-05T12:43:03Z</time>
      </trkpt>
      <trkpt lat="49.18696" lon="6.936">
        <ele>345</ele>
        <time>2011-04-05T12:43:04Z</time>
      </trkpt>
      <trkpt lat="49.18696" lon="6.93602">
        <ele>345</ele>
        <time>2011-04-05T12:43:05Z</time>
      </trkpt>
      <trkpt lat="49.18696" lon="6.93604">
        <ele>345</ele>
        <time>2011-04-05T12:43:06Z</time>
      </trkpt>
      <trkpt lat="49.18696" lon="6.93607">
        <ele>345</ele>
        <time>2011-04-05T12:43:07Z</time>
      </trkpt>
      <trkpt lat="49.18695" lon="6.93609">
        <ele>345</ele>
        <time>2011-04-05T12:43:08Z</time>
      </trkpt>
      <trkpt lat="49.18695" lon="6.93611">
        <ele>345</ele>
        <time>2011-04-05T12:43:09Z</time>
      </trkpt>
      <trkpt lat="49.18695" lon="6.93613">
        <ele>345</ele>
        <time>2011-04-05T12:43:10Z</time>
      </trkpt>
      <trkpt lat="49.18694" lon="6.93616">
        <ele>345</ele>
        <time>2011-04-05T12:43:12Z</time>
      </trkpt>
      <trkpt lat="49.18694" lon="6.93618">
        <ele>344</ele>
        <time>2011-04-05T12:43:13Z</time>
      </trkpt>
      <trkpt lat="49.18695" lon="6.9362">
        <ele>344</ele>
        <time>2011-04-05T12:43:14Z</time>
      </trkpt>
      <trkpt lat="49.18695" lon="6.93622">
        <ele>344</ele>
        <time>2011-04-05T12:43:15Z</time>
      </trkpt>
      <trkpt lat="49.18695" lon="6.93624">
        <ele>344</ele>
        <time>2011-04-05T12:43:16Z</time>
      </trkpt>
      <trkpt lat="49.18696" lon="6.93626">
        <ele>343</ele>
        <time>2011-04-05T12:43:17Z</time>
      </trkpt>
      <trkpt lat="49.18696" lon="6.93629">
        <ele>343</ele>
        <time>2011-04-05T12:43:18Z</time>
      </trkpt>
      <trkpt lat="49.18696" lon="6.9363">
        <ele>343</ele>
        <time>2011-04-05T12:43:19Z</time>
      </trkpt>
      <trkpt lat="49.18697" lon="6.93632">
        <ele>343</ele>
        <time>2011-04-05T12:43:20Z</time>
      </trkpt>
      <trkpt lat="49.18697" lon="6.93634">
        <ele>342</ele>
        <time>2011-04-05T12:43:21Z</time>
      </trkpt>
      <trkpt lat="49.18698" lon="6.93635">
        <ele>342</ele>
        <time>2011-04-05T12:43:22Z</time>
      </trkpt>
      <trkpt lat="49.18698" lon="6.93638">
        <ele>342</ele>
        <time>2011-04-05T12:43:23Z</time>
      </trkpt>
      <trkpt lat="49.18699" lon="6.93639">
        <ele>342</ele>
        <time>2011-04-05T12:43:24Z</time>
      </trkpt>
      <trkpt lat="49.18699" lon="6.93642">
        <ele>342</ele>
        <time>2011-04-05T12:43:25Z</time>
      </trkpt>
      <trkpt lat="49.187" lon="6.93645">
        <ele>342</ele>
        <time>2011-04-05T12:43:27Z</time>
      </trkpt>
      <trkpt lat="49.187" lon="6.93646">
        <ele>342</ele>
        <time>2011-04-05T12:43:28Z</time>
      </trkpt>
      <trkpt lat="49.18702" lon="6.93649">
        <ele>342</ele>
        <time>2011-04-05T12:43:30Z</time>
      </trkpt>
      <trkpt lat="49.18702" lon="6.93651">
        <ele>342</ele>
        <time>2011-04-05T12:43:32Z</time>
      </trkpt>
      <trkpt lat="49.18702" lon="6.93652">
        <ele>342</ele>
        <time>2011-04-05T12:43:33Z</time>
      </trkpt>
      <trkpt lat="49.18702" lon="6.93654">
        <ele>342</ele>
        <time>2011-04-05T12:43:34Z</time>
      </trkpt>
      <trkpt lat="49.18702" lon="6.93657">
        <ele>343</ele>
        <time>2011-04-05T12:43:36Z</time>
      </trkpt>
      <trkpt lat="49.18702" lon="6.93661">
        <ele>353</ele>
        <time>2011-04-05T12:43:43Z</time>
      </trkpt>
      <trkpt lat="49.18703" lon="6.93663">
        <ele>357</ele>
        <time>2011-04-05T12:43:45Z</time>
      </trkpt>
      <trkpt lat="49.18701" lon="6.93666">
        <ele>360</ele>
        <time>2011-04-05T12:43:48Z</time>
      </trkpt>
      <trkpt lat="49.187" lon="6.93668">
        <ele>363</ele>
        <time>2011-04-05T12:43:50Z</time>
      </trkpt>
      <trkpt lat="49.18699" lon="6.9367">
        <ele>366</ele>
        <time>2011-04-05T12:43:52Z</time>
      </trkpt>
      <trkpt lat="49.18698" lon="6.9367">
        <ele>368</ele>
        <time>2011-04-05T12:43:54Z</time>
      </trkpt>
      <trkpt lat="49.187" lon="6.93671">
        <ele>375</ele>
        <time>2011-04-05T12:44:02Z</time>
      </trkpt>
      <trkpt lat="49.18702" lon="6.93671">
        <ele>375</ele>
        <time>2011-04-05T12:44:03Z</time>
      </trkpt>
      <trkpt lat="49.18703" lon="6.9367">
        <ele>375</ele>
        <time>2011-04-05T12:44:04Z</time>
      </trkpt>
      <trkpt lat="49.18704" lon="6.93671">
        <ele>375</ele>
        <time>2011-04-05T12:44:07Z</time>
      </trkpt>
      <trkpt lat="49.18704" lon="6.93673">
        <ele>375</ele>
        <time>2011-04-05T12:44:09Z</time>
      </trkpt>
      <trkpt lat="49.18705" lon="6.93676">
        <ele>375</ele>
        <time>2011-04-05T12:44:11Z</time>
      </trkpt>
      <trkpt lat="49.18705" lon="6.93679">
        <ele>375</ele>
        <time>2011-04-05T12:44:13Z</time>
      </trkpt>
      <trkpt lat="49.18705" lon="6.93681">
        <ele>375</ele>
        <time>2011-04-05T12:44:14Z</time>
      </trkpt>
      <trkpt lat="49.18704" lon="6.93683">
        <ele>375</ele>
        <time>2011-04-05T12:44:16Z</time>
      </trkpt>
      <trkpt lat="49.18705" lon="6.93685">
        <ele>375</ele>
        <time>2011-04-05T12:44:17Z</time>
      </trkpt>
      <trkpt lat="49.18704" lon="6.93687">
        <ele>375</ele>
        <time>2011-04-05T12:44:19Z</time>
      </trkpt>
      <trkpt lat="49.18705" lon="6.93689">
        <ele>375</ele>
        <time>2011-04-05T12:44:21Z</time>
      </trkpt>
      <trkpt lat="49.18705" lon="6.93692">
        <ele>375</ele>
        <time>2011-04-05T12:44:23Z</time>
      </trkpt>
      <trkpt lat="49.18705" lon="6.93694">
        <ele>375</ele>
        <time>2011-04-05T12:44:25Z</time>
      </trkpt>
      <trkpt lat="49.18704" lon="6.93697">
        <ele>375</ele>
        <time>2011-04-05T12:44:27Z</time>
      </trkpt>
      <trkpt lat="49.18704" lon="6.93699">
        <ele>375</ele>
        <time>2011-04-05T12:44:28Z</time>
      </trkpt>
      <trkpt lat="49.18703" lon="6.93702">
        <ele>375</ele>
        <time>2011-04-05T12:44:30Z</time>
      </trkpt>
      <trkpt lat="49.18703" lon="6.93704">
        <ele>375</ele>
        <time>2011-04-05T12:44:32Z</time>
      </trkpt>
      <trkpt lat="49.18703" lon="6.93707">
        <ele>375</ele>
        <time>2011-04-05T12:44:34Z</time>
      </trkpt>
      <trkpt lat="49.18703" lon="6.93709">
        <ele>375</ele>
        <time>2011-04-05T12:44:36Z</time>
      </trkpt>
      <trkpt lat="49.18702" lon="6.93711">
        <ele>375</ele>
        <time>2011-04-05T12:44:37Z</time>
      </trkpt>
      <trkpt lat="49.18701" lon="6.93713">
        <ele>375</ele>
        <time>2011-04-05T12:44:39Z</time>
      </trkpt>
      <trkpt lat="49.18701" lon="6.93716">
        <ele>375</ele>
        <time>2011-04-05T12:44:41Z</time>
      </trkpt>
      <trkpt lat="49.18702" lon="6.93718">
        <ele>375</ele>
        <time>2011-04-05T12:44:42Z</time>
      </trkpt>
      <trkpt lat="49.18703" lon="6.93721">
        <ele>375</ele>
        <time>2011-04-05T12:44:43Z</time>
      </trkpt>
      <trkpt lat="49.18704" lon="6.93724">
        <ele>374</ele>
        <time>2011-04-05T12:44:44Z</time>
      </trkpt>
      <trkpt lat="49.18704" lon="6.93726">
        <ele>373</ele>
        <time>2011-04-05T12:44:45Z</time>
      </trkpt>
      <trkpt lat="49.18704" lon="6.93729">
        <ele>372</ele>
        <time>2011-04-05T12:44:47Z</time>
      </trkpt>
      <trkpt lat="49.18705" lon="6.93732">
        <ele>370</ele>
        <time>2011-04-05T12:44:49Z</time>
      </trkpt>
      <trkpt lat="49.18706" lon="6.93733">
        <ele>369</ele>
        <time>2011-04-05T12:44:50Z</time>
      </trkpt>
      <trkpt lat="49.18707" lon="6.93735">
        <ele>369</ele>
        <time>2011-04-05T12:44:51Z</time>
      </trkpt>
      <trkpt lat="49.18708" lon="6.93738">
        <ele>368</ele>
        <time>2011-04-05T12:44:53Z</time>
      </trkpt>
      <trkpt lat="49.18708" lon="6.9374">
        <ele>367</ele>
        <time>2011-04-05T12:44:54Z</time>
      </trkpt>
      <trkpt lat="49.1871" lon="6.93743">
        <ele>366</ele>
        <time>2011-04-05T12:44:56Z</time>
      </trkpt>
      <trkpt lat="49.1871" lon="6.93745">
        <ele>365</ele>
        <time>2011-04-05T12:44:57Z</time>
      </trkpt>
      <trkpt lat="49.1871" lon="6.93747">
        <ele>365</ele>
        <time>2011-04-05T12:44:58Z</time>
      </trkpt>
      <trkpt lat="49.1871" lon="6.93748">
        <ele>364</ele>
        <time>2011-04-05T12:44:59Z</time>
      </trkpt>
      <trkpt lat="49.1871" lon="6.9375">
        <ele>363</ele>
        <time>2011-04-05T12:45:00Z</time>
      </trkpt>
      <trkpt lat="49.18709" lon="6.93753">
        <ele>362</ele>
        <time>2011-04-05T12:45:02Z</time>
      </trkpt>
      <trkpt lat="49.18711" lon="6.93757">
        <ele>361</ele>
        <time>2011-04-05T12:45:04Z</time>
      </trkpt>
      <trkpt lat="49.18712" lon="6.9376">
        <ele>361</ele>
        <time>2011-04-05T12:45:06Z</time>
      </trkpt>
      <trkpt lat="49.18713" lon="6.93764">
        <ele>360</ele>
        <time>2011-04-05T12:45:08Z</time>
      </trkpt>
      <trkpt lat="49.18713" lon="6.93765">
        <ele>360</ele>
        <time>2011-04-05T12:45:09Z</time>
      </trkpt>
      <trkpt lat="49.18715" lon="6.93768">
        <ele>360</ele>
        <time>2011-04-05T12:45:11Z</time>
      </trkpt>
      <trkpt lat="49.18716" lon="6.93769">
        <ele>360</ele>
        <time>2011-04-05T12:45:13Z</time>
      </trkpt>
      <trkpt lat="49.18717" lon="6.93769">
        <ele>360</ele>
        <time>2011-04-05T12:45:14Z</time>
      </trkpt>
      <trkpt lat="49.18718" lon="6.9377">
        <ele>360</ele>
        <time>2011-04-05T12:45:15Z</time>
      </trkpt>
      <trkpt lat="49.1872" lon="6.9377">
        <ele>360</ele>
        <time>2011-04-05T12:45:16Z</time>
      </trkpt>
      <trkpt lat="49.18721" lon="6.93771">
        <ele>360</ele>
        <time>2011-04-05T12:45:17Z</time>
      </trkpt>
      <trkpt lat="49.18723" lon="6.93771">
        <ele>360</ele>
        <time>2011-04-05T12:45:19Z</time>
      </trkpt>
      <trkpt lat="49.18721" lon="6.93771">
        <ele>360</ele>
        <time>2011-04-05T12:45:23Z</time>
      </trkpt>
      <trkpt lat="49.18721" lon="6.93773">
        <ele>362</ele>
        <time>2011-04-05T12:45:25Z</time>
      </trkpt>
      <trkpt lat="49.18718" lon="6.93775">
        <ele>364</ele>
        <time>2011-04-05T12:45:27Z</time>
      </trkpt>
      <trkpt lat="49.18718" lon="6.93777">
        <ele>364</ele>
        <time>2011-04-05T12:45:28Z</time>
      </trkpt>
      <trkpt lat="49.18718" lon="6.9378">
        <ele>364</ele>
        <time>2011-04-05T12:45:29Z</time>
      </trkpt>
      <trkpt lat="49.18719" lon="6.93783">
        <ele>364</ele>
        <time>2011-04-05T12:45:30Z</time>
      </trkpt>
      <trkpt lat="49.1872" lon="6.93786">
        <ele>364</ele>
        <time>2011-04-05T12:45:31Z</time>
      </trkpt>
      <trkpt lat="49.18721" lon="6.93788">
        <ele>365</ele>
        <time>2011-04-05T12:45:32Z</time>
      </trkpt>
      <trkpt lat="49.18722" lon="6.9379">
        <ele>365</ele>
        <time>2011-04-05T12:45:33Z</time>
      </trkpt>
      <trkpt lat="49.18722" lon="6.93792">
        <ele>365</ele>
        <time>2011-04-05T12:45:34Z</time>
      </trkpt>
      <trkpt lat="49.18722" lon="6.93794">
        <ele>365</ele>
        <time>2011-04-05T12:45:35Z</time>
      </trkpt>
      <trkpt lat="49.18722" lon="6.93797">
        <ele>365</ele>
        <time>2011-04-05T12:45:36Z</time>
      </trkpt>
      <trkpt lat="49.18721" lon="6.938">
        <ele>365</ele>
        <time>2011-04-05T12:45:37Z</time>
      </trkpt>
      <trkpt lat="49.1872" lon="6.93802">
        <ele>366</ele>
        <time>2011-04-05T12:45:38Z</time>
      </trkpt>
      <trkpt lat="49.18719" lon="6.93803">
        <ele>366</ele>
        <time>2011-04-05T12:45:39Z</time>
      </trkpt>
      <trkpt lat="49.18718" lon="6.93805">
        <ele>366</ele>
        <time>2011-04-05T12:45:40Z</time>
      </trkpt>
      <trkpt lat="49.18718" lon="6.93807">
        <ele>366</ele>
        <time>2011-04-05T12:45:41Z</time>
      </trkpt>
      <trkpt lat="49.18718" lon="6.93808">
        <ele>366</ele>
        <time>2011-04-05T12:45:42Z</time>
      </trkpt>
      <trkpt lat="49.18718" lon="6.93811">
        <ele>366</ele>
        <time>2011-04-05T12:45:43Z</time>
      </trkpt>
      <trkpt lat="49.18718" lon="6.93813">
        <ele>366</ele>
        <time>2011-04-05T12:45:44Z</time>
      </trkpt>
      <trkpt lat="49.18719" lon="6.93815">
        <ele>366</ele>
        <time>2011-04-05T12:45:45Z</time>
      </trkpt>
      <trkpt lat="49.18719" lon="6.93817">
        <ele>366</ele>
        <time>2011-04-05T12:45:46Z</time>
      </trkpt>
      <trkpt lat="49.18718" lon="6.93818">
        <ele>366</ele>
        <time>2011-04-05T12:45:47Z</time>
      </trkpt>
      <trkpt lat="49.18717" lon="6.93821">
        <ele>366</ele>
        <time>2011-04-05T12:45:49Z</time>
      </trkpt>
      <trkpt lat="49.18716" lon="6.93823">
        <ele>366</ele>
        <time>2011-04-05T12:45:50Z</time>
      </trkpt>
      <trkpt lat="49.18716" lon="6.93826">
        <ele>365</ele>
        <time>2011-04-05T12:45:51Z</time>
      </trkpt>
      <trkpt lat="49.18718" lon="6.93827">
        <ele>364</ele>
        <time>2011-04-05T12:45:52Z</time>
      </trkpt>
      <trkpt lat="49.18718" lon="6.93829">
        <ele>363</ele>
        <time>2011-04-05T12:45:53Z</time>
      </trkpt>
      <trkpt lat="49.18718" lon="6.93832">
        <ele>361</ele>
        <time>2011-04-05T12:45:55Z</time>
      </trkpt>
      <trkpt lat="49.18718" lon="6.93834">
        <ele>360</ele>
        <time>2011-04-05T12:45:56Z</time>
      </trkpt>
      <trkpt lat="49.18718" lon="6.93836">
        <ele>359</ele>
        <time>2011-04-05T12:45:57Z</time>
      </trkpt>
      <trkpt lat="49.18717" lon="6.93838">
        <ele>358</ele>
        <time>2011-04-05T12:45:58Z</time>
      </trkpt>
      <trkpt lat="49.18718" lon="6.93841">
        <ele>356</ele>
        <time>2011-04-05T12:46:00Z</time>
      </trkpt>
      <trkpt lat="49.18718" lon="6.93843">
        <ele>356</ele>
        <time>2011-04-05T12:46:01Z</time>
      </trkpt>
      <trkpt lat="49.18719" lon="6.93845">
        <ele>355</ele>
        <time>2011-04-05T12:46:02Z</time>
      </trkpt>
      <trkpt lat="49.18721" lon="6.93847">
        <ele>355</ele>
        <time>2011-04-05T12:46:03Z</time>
      </trkpt>
      <trkpt lat="49.18721" lon="6.93849">
        <ele>355</ele>
        <time>2011-04-05T12:46:04Z</time>
      </trkpt>
      <trkpt lat="49.18723" lon="6.9385">
        <ele>355</ele>
        <time>2011-04-05T12:46:05Z</time>
      </trkpt>
      <trkpt lat="49.18724" lon="6.93852">
        <ele>355</ele>
        <time>2011-04-05T12:46:06Z</time>
      </trkpt>
      <trkpt lat="49.18724" lon="6.93854">
        <ele>355</ele>
        <time>2011-04-05T12:46:07Z</time>
      </trkpt>
      <trkpt lat="49.18724" lon="6.93857">
        <ele>355</ele>
        <time>2011-04-05T12:46:08Z</time>
      </trkpt>
      <trkpt lat="49.18725" lon="6.93859">
        <ele>355</ele>
        <time>2011-04-05T12:46:09Z</time>
      </trkpt>
      <trkpt lat="49.18727" lon="6.93863">
        <ele>354</ele>
        <time>2011-04-05T12:46:11Z</time>
      </trkpt>
      <trkpt lat="49.18728" lon="6.93865">
        <ele>354</ele>
        <time>2011-04-05T12:46:12Z</time>
      </trkpt>
      <trkpt lat="49.18729" lon="6.93866">
        <ele>354</ele>
        <time>2011-04-05T12:46:15Z</time>
      </trkpt>
      <trkpt lat="49.18727" lon="6.93867">
        <ele>354</ele>
        <time>2011-04-05T12:46:20Z</time>
      </trkpt>
      <trkpt lat="49.18726" lon="6.93868">
        <ele>354</ele>
        <time>2011-04-05T12:46:23Z</time>
      </trkpt>
      <trkpt lat="49.18727" lon="6.93869">
        <ele>358</ele>
        <time>2011-04-05T12:46:31Z</time>
      </trkpt>
      <trkpt lat="49.18726" lon="6.93872">
        <ele>358</ele>
        <time>2011-04-05T12:46:35Z</time>
      </trkpt>
      <trkpt lat="49.18725" lon="6.93875">
        <ele>358</ele>
        <time>2011-04-05T12:46:37Z</time>
      </trkpt>
      <trkpt lat="49.18724" lon="6.93877">
        <ele>358</ele>
        <time>2011-04-05T12:46:39Z</time>
      </trkpt>
      <trkpt lat="49.18725" lon="6.93876">
        <ele>358</ele>
        <time>2011-04-05T12:46:42Z</time>
      </trkpt>
      <trkpt lat="49.18726" lon="6.93878">
        <ele>359</ele>
        <time>2011-04-05T12:46:44Z</time>
      </trkpt>
      <trkpt lat="49.18727" lon="6.93879">
        <ele>360</ele>
        <time>2011-04-05T12:46:46Z</time>
      </trkpt>
      <trkpt lat="49.18729" lon="6.93881">
        <ele>361</ele>
        <time>2011-04-05T12:46:48Z</time>
      </trkpt>
      <trkpt lat="49.1873" lon="6.93883">
        <ele>361</ele>
        <time>2011-04-05T12:46:49Z</time>
      </trkpt>
      <trkpt lat="49.18731" lon="6.93885">
        <ele>361</ele>
        <time>2011-04-05T12:46:50Z</time>
      </trkpt>
      <trkpt lat="49.18732" lon="6.93887">
        <ele>361</ele>
        <time>2011-04-05T12:46:51Z</time>
      </trkpt>
      <trkpt lat="49.18732" lon="6.93889">
        <ele>361</ele>
        <time>2011-04-05T12:46:52Z</time>
      </trkpt>
      <trkpt lat="49.18733" lon="6.93892">
        <ele>361</ele>
        <time>2011-04-05T12:46:54Z</time>
      </trkpt>
      <trkpt lat="49.18734" lon="6.93896">
        <ele>361</ele>
        <time>2011-04-05T12:46:56Z</time>
      </trkpt>
      <trkpt lat="49.18735" lon="6.93898">
        <ele>361</ele>
        <time>2011-04-05T12:46:57Z</time>
      </trkpt>
      <trkpt lat="49.18736" lon="6.939">
        <ele>361</ele>
        <time>2011-04-05T12:46:58Z</time>
      </trkpt>
      <trkpt lat="49.18737" lon="6.93902">
        <ele>361</ele>
        <time>2011-04-05T12:46:59Z</time>
      </trkpt>
      <trkpt lat="49.18737" lon="6.93904">
        <ele>361</ele>
        <time>2011-04-05T12:47:00Z</time>
      </trkpt>
      <trkpt lat="49.18737" lon="6.93906">
        <ele>361</ele>
        <time>2011-04-05T12:47:01Z</time>
      </trkpt>
      <trkpt lat="49.18738" lon="6.93908">
        <ele>361</ele>
        <time>2011-04-05T12:47:02Z</time>
      </trkpt>
      <trkpt lat="49.18739" lon="6.9391">
        <ele>361</ele>
        <time>2011-04-05T12:47:03Z</time>
      </trkpt>
      <trkpt lat="49.18742" lon="6.93912">
        <ele>361</ele>
        <time>2011-04-05T12:47:04Z</time>
      </trkpt>
      <trkpt lat="49.18743" lon="6.93913">
        <ele>361</ele>
        <time>2011-04-05T12:47:05Z</time>
      </trkpt>
      <trkpt lat="49.18744" lon="6.93916">
        <ele>361</ele>
        <time>2011-04-05T12:47:07Z</time>
      </trkpt>
      <trkpt lat="49.18745" lon="6.93918">
        <ele>361</ele>
        <time>2011-04-05T12:47:08Z</time>
      </trkpt>
      <trkpt lat="49.18746" lon="6.9392">
        <ele>361</ele>
        <time>2011-04-05T12:47:09Z</time>
      </trkpt>
      <trkpt lat="49.18746" lon="6.93923">
        <ele>362</ele>
        <time>2011-04-05T12:47:11Z</time>
      </trkpt>
      <trkpt lat="49.18747" lon="6.93922">
        <ele>363</ele>
        <time>2011-04-05T12:47:15Z</time>
      </trkpt>
      <trkpt lat="49.18747" lon="6.93924">
        <ele>363</ele>
        <time>2011-04-05T12:47:16Z</time>
      </trkpt>
      <trkpt lat="49.18747" lon="6.93927">
        <ele>363</ele>
        <time>2011-04-05T12:47:18Z</time>
      </trkpt>
      <trkpt lat="49.18746" lon="6.93929">
        <ele>363</ele>
        <time>2011-04-05T12:47:19Z</time>
      </trkpt>
      <trkpt lat="49.18745" lon="6.93931">
        <ele>363</ele>
        <time>2011-04-05T12:47:20Z</time>
      </trkpt>
      <trkpt lat="49.18744" lon="6.93934">
        <ele>363</ele>
        <time>2011-04-05T12:47:21Z</time>
      </trkpt>
      <trkpt lat="49.18743" lon="6.93936">
        <ele>363</ele>
        <time>2011-04-05T12:47:22Z</time>
      </trkpt>
      <trkpt lat="49.18742" lon="6.93938">
        <ele>363</ele>
        <time>2011-04-05T12:47:23Z</time>
      </trkpt>
      <trkpt lat="49.18742" lon="6.9394">
        <ele>363</ele>
        <time>2011-04-05T12:47:24Z</time>
      </trkpt>
      <trkpt lat="49.18743" lon="6.93943">
        <ele>363</ele>
        <time>2011-04-05T12:47:26Z</time>
      </trkpt>
      <trkpt lat="49.18744" lon="6.93946">
        <ele>363</ele>
        <time>2011-04-05T12:47:28Z</time>
      </trkpt>
      <trkpt lat="49.18745" lon="6.93948">
        <ele>363</ele>
        <time>2011-04-05T12:47:29Z</time>
      </trkpt>
      <trkpt lat="49.18746" lon="6.93951">
        <ele>362</ele>
        <time>2011-04-05T12:47:31Z</time>
      </trkpt>
      <trkpt lat="49.18747" lon="6.93954">
        <ele>361</ele>
        <time>2011-04-05T12:47:32Z</time>
      </trkpt>
      <trkpt lat="49.18747" lon="6.93956">
        <ele>360</ele>
        <time>2011-04-05T12:47:33Z</time>
      </trkpt>
      <trkpt lat="49.18747" lon="6.93958">
        <ele>359</ele>
        <time>2011-04-05T12:47:34Z</time>
      </trkpt>
      <trkpt lat="49.18748" lon="6.9396">
        <ele>358</ele>
        <time>2011-04-05T12:47:35Z</time>
      </trkpt>
      <trkpt lat="49.18748" lon="6.93963">
        <ele>358</ele>
        <time>2011-04-05T12:47:37Z</time>
      </trkpt>
      <trkpt lat="49.18751" lon="6.93965">
        <ele>358</ele>
        <time>2011-04-05T12:47:39Z</time>
      </trkpt>
      <trkpt lat="49.18752" lon="6.93965">
        <ele>358</ele>
        <time>2011-04-05T12:47:40Z</time>
      </trkpt>
      <trkpt lat="49.18753" lon="6.93968">
        <ele>358</ele>
        <time>2011-04-05T12:47:41Z</time>
      </trkpt>
      <trkpt lat="49.18753" lon="6.93971">
        <ele>358</ele>
        <time>2011-04-05T12:47:43Z</time>
      </trkpt>
      <trkpt lat="49.18753" lon="6.93973">
        <ele>358</ele>
        <time>2011-04-05T12:47:44Z</time>
      </trkpt>
      <trkpt lat="49.18754" lon="6.93975">
        <ele>358</ele>
        <time>2011-04-05T12:47:45Z</time>
      </trkpt>
      <trkpt lat="49.18756" lon="6.93977">
        <ele>358</ele>
        <time>2011-04-05T12:47:46Z</time>
      </trkpt>
      <trkpt lat="49.18757" lon="6.9398">
        <ele>358</ele>
        <time>2011-04-05T12:47:48Z</time>
      </trkpt>
      <trkpt lat="49.18758" lon="6.93983">
        <ele>359</ele>
        <time>2011-04-05T12:47:49Z</time>
      </trkpt>
      <trkpt lat="49.18759" lon="6.93985">
        <ele>359</ele>
        <time>2011-04-05T12:47:50Z</time>
      </trkpt>
      <trkpt lat="49.18761" lon="6.93987">
        <ele>359</ele>
        <time>2011-04-05T12:47:51Z</time>
      </trkpt>
      <trkpt lat="49.18762" lon="6.93989">
        <ele>359</ele>
        <time>2011-04-05T12:47:52Z</time>
      </trkpt>
      <trkpt lat="49.18763" lon="6.93991">
        <ele>359</ele>
        <time>2011-04-05T12:47:53Z</time>
      </trkpt>
      <trkpt lat="49.18764" lon="6.93993">
        <ele>360</ele>
        <time>2011-04-05T12:47:54Z</time>
      </trkpt>
      <trkpt lat="49.18763" lon="6.93995">
        <ele>360</ele>
        <time>2011-04-05T12:47:55Z</time>
      </trkpt>
      <trkpt lat="49.18762" lon="6.93998">
        <ele>361</ele>
        <time>2011-04-05T12:47:56Z</time>
      </trkpt>
      <trkpt lat="49.1876" lon="6.93999">
        <ele>362</ele>
        <time>2011-04-05T12:47:57Z</time>
      </trkpt>
      <trkpt lat="49.18759" lon="6.94002">
        <ele>362</ele>
        <time>2011-04-05T12:47:59Z</time>
      </trkpt>
      <trkpt lat="49.18759" lon="6.94005">
        <ele>362</ele>
        <time>2011-04-05T12:48:00Z</time>
      </trkpt>
      <trkpt lat="49.18759" lon="6.94007">
        <ele>362</ele>
        <time>2011-04-05T12:48:01Z</time>
      </trkpt>
      <trkpt lat="49.1876" lon="6.94009">
        <ele>362</ele>
        <time>2011-04-05T12:48:03Z</time>
      </trkpt>
      <trkpt lat="49.18761" lon="6.9401">
        <ele>362</ele>
        <time>2011-04-05T12:48:04Z</time>
      </trkpt>
      <trkpt lat="49.18762" lon="6.94011">
        <ele>361</ele>
        <time>2011-04-05T12:48:05Z</time>
      </trkpt>
      <trkpt lat="49.18762" lon="6.94013">
        <ele>361</ele>
        <time>2011-04-05T12:48:06Z</time>
      </trkpt>
      <trkpt lat="49.18763" lon="6.94015">
        <ele>360</ele>
        <time>2011-04-05T12:48:07Z</time>
      </trkpt>
      <trkpt lat="49.18763" lon="6.94017">
        <ele>360</ele>
        <time>2011-04-05T12:48:08Z</time>
      </trkpt>
      <trkpt lat="49.18762" lon="6.94021">
        <ele>360</ele>
        <time>2011-04-05T12:48:09Z</time>
      </trkpt>
      <trkpt lat="49.18762" lon="6.94023">
        <ele>360</ele>
        <time>2011-04-05T12:48:10Z</time>
      </trkpt>
      <trkpt lat="49.18762" lon="6.94026">
        <ele>360</ele>
        <time>2011-04-05T12:48:11Z</time>
      </trkpt>
      <trkpt lat="49.18762" lon="6.94028">
        <ele>360</ele>
        <time>2011-04-05T12:48:12Z</time>
      </trkpt>
      <trkpt lat="49.18763" lon="6.9403">
        <ele>360</ele>
        <time>2011-04-05T12:48:13Z</time>
      </trkpt>
      <trkpt lat="49.18763" lon="6.94032">
        <ele>359</ele>
        <time>2011-04-05T12:48:14Z</time>
      </trkpt>
      <trkpt lat="49.18763" lon="6.94034">
        <ele>359</ele>
        <time>2011-04-05T12:48:15Z</time>
      </trkpt>
      <trkpt lat="49.18764" lon="6.94036">
        <ele>359</ele>
        <time>2011-04-05T12:48:17Z</time>
      </trkpt>
      <trkpt lat="49.18764" lon="6.94038">
        <ele>358</ele>
        <time>2011-04-05T12:48:20Z</time>
      </trkpt>
      <trkpt lat="49.18764" lon="6.9404">
        <ele>357</ele>
        <time>2011-04-05T12:48:22Z</time>
      </trkpt>
      <trkpt lat="49.18765" lon="6.94043">
        <ele>357</ele>
        <time>2011-04-05T12:48:24Z</time>
      </trkpt>
      <trkpt lat="49.18765" lon="6.94045">
        <ele>357</ele>
        <time>2011-04-05T12:48:26Z</time>
      </trkpt>
      <trkpt lat="49.18766" lon="6.94049">
        <ele>356</ele>
        <time>2011-04-05T12:48:28Z</time>
      </trkpt>
      <trkpt lat="49.18768" lon="6.94051">
        <ele>356</ele>
        <time>2011-04-05T12:48:29Z</time>
      </trkpt>
      <trkpt lat="49.18769" lon="6.94052">
        <ele>356</ele>
        <time>2011-04-05T12:48:30Z</time>
      </trkpt>
      <trkpt lat="49.18771" lon="6.94053">
        <ele>356</ele>
        <time>2011-04-05T12:48:31Z</time>
      </trkpt>
      <trkpt lat="49.18771" lon="6.94056">
        <ele>356</ele>
        <time>2011-04-05T12:48:32Z</time>
      </trkpt>
      <trkpt lat="49.18772" lon="6.94058">
        <ele>356</ele>
        <time>2011-04-05T12:48:33Z</time>
      </trkpt>
      <trkpt lat="49.18774" lon="6.94059">
        <ele>356</ele>
        <time>2011-04-05T12:48:34Z</time>
      </trkpt>
      <trkpt lat="49.18775" lon="6.9406">
        <ele>357</ele>
        <time>2011-04-05T12:48:35Z</time>
      </trkpt>
      <trkpt lat="49.18776" lon="6.94062">
        <ele>358</ele>
        <time>2011-04-05T12:48:36Z</time>
      </trkpt>
      <trkpt lat="49.18777" lon="6.94064">
        <ele>359</ele>
        <time>2011-04-05T12:48:37Z</time>
      </trkpt>
      <trkpt lat="49.18778" lon="6.94065">
        <ele>359</ele>
        <time>2011-04-05T12:48:38Z</time>
      </trkpt>
      <trkpt lat="49.1878" lon="6.94065">
        <ele>359</ele>
        <time>2011-04-05T12:48:39Z</time>
      </trkpt>
      <trkpt lat="49.18781" lon="6.94067">
        <ele>360</ele>
        <time>2011-04-05T12:48:40Z</time>
      </trkpt>
      <trkpt lat="49.18782" lon="6.94068">
        <ele>361</ele>
        <time>2011-04-05T12:48:41Z</time>
      </trkpt>
      <trkpt lat="49.18783" lon="6.94069">
        <ele>361</ele>
        <time>2011-04-05T12:48:42Z</time>
      </trkpt>
      <trkpt lat="49.18785" lon="6.94072">
        <ele>363</ele>
        <time>2011-04-05T12:48:45Z</time>
      </trkpt>
      <trkpt lat="49.18788" lon="6.94074">
        <ele>364</ele>
        <time>2011-04-05T12:48:47Z</time>
      </trkpt>
      <trkpt lat="49.18789" lon="6.94075">
        <ele>364</ele>
        <time>2011-04-05T12:48:48Z</time>
      </trkpt>
      <trkpt lat="49.18791" lon="6.94075">
        <ele>365</ele>
        <time>2011-04-05T12:48:49Z</time>
      </trkpt>
      <trkpt lat="49.18792" lon="6.94076">
        <ele>365</ele>
        <time>2011-04-05T12:48:50Z</time>
      </trkpt>
      <trkpt lat="49.18792" lon="6.94079">
        <ele>366</ele>
        <time>2011-04-05T12:48:51Z</time>
      </trkpt>
      <trkpt lat="49.18793" lon="6.94081">
        <ele>367</ele>
        <time>2011-04-05T12:48:52Z</time>
      </trkpt>
      <trkpt lat="49.18794" lon="6.94084">
        <ele>369</ele>
        <time>2011-04-05T12:48:54Z</time>
      </trkpt>
      <trkpt lat="49.18796" lon="6.94086">
        <ele>369</ele>
        <time>2011-04-05T12:48:56Z</time>
      </trkpt>
      <trkpt lat="49.18797" lon="6.94087">
        <ele>369</ele>
        <time>2011-04-05T12:48:57Z</time>
      </trkpt>
      <trkpt lat="49.18797" lon="6.9409">
        <ele>369</ele>
        <time>2011-04-05T12:48:59Z</time>
      </trkpt>
      <trkpt lat="49.18799" lon="6.94091">
        <ele>369</ele>
        <time>2011-04-05T12:49:00Z</time>
      </trkpt>
      <trkpt lat="49.188" lon="6.94093">
        <ele>369</ele>
        <time>2011-04-05T12:49:01Z</time>
      </trkpt>
      <trkpt lat="49.18801" lon="6.94095">
        <ele>369</ele>
        <time>2011-04-05T12:49:02Z</time>
      </trkpt>
      <trkpt lat="49.188" lon="6.94099">
        <ele>369</ele>
        <time>2011-04-05T12:49:04Z</time>
      </trkpt>
      <trkpt lat="49.188" lon="6.941">
        <ele>369</ele>
        <time>2011-04-05T12:49:06Z</time>
      </trkpt>
      <trkpt lat="49.188" lon="6.94102">
        <ele>371</ele>
        <time>2011-04-05T12:49:11Z</time>
      </trkpt>
      <trkpt lat="49.18802" lon="6.94104">
        <ele>371</ele>
        <time>2011-04-05T12:49:12Z</time>
      </trkpt>
      <trkpt lat="49.18802" lon="6.94106">
        <ele>371</ele>
        <time>2011-04-05T12:49:13Z</time>
      </trkpt>
      <trkpt lat="49.18805" lon="6.94106">
        <ele>371</ele>
        <time>2011-04-05T12:49:18Z</time>
      </trkpt>
      <trkpt lat="49.18806" lon="6.94107">
        <ele>372</ele>
        <time>2011-04-05T12:49:20Z</time>
      </trkpt>
      <trkpt lat="49.18808" lon="6.94108">
        <ele>372</ele>
        <time>2011-04-05T12:49:21Z</time>
      </trkpt>
      <trkpt lat="49.18809" lon="6.9411">
        <ele>372</ele>
        <time>2011-04-05T12:49:23Z</time>
      </trkpt>
      <trkpt lat="49.18811" lon="6.94113">
        <ele>372</ele>
        <time>2011-04-05T12:49:25Z</time>
      </trkpt>
      <trkpt lat="49.18812" lon="6.94114">
        <ele>372</ele>
        <time>2011-04-05T12:49:26Z</time>
      </trkpt>
      <trkpt lat="49.18813" lon="6.94116">
        <ele>372</ele>
        <time>2011-04-05T12:49:27Z</time>
      </trkpt>
      <trkpt lat="49.18814" lon="6.94119">
        <ele>372</ele>
        <time>2011-04-05T12:49:29Z</time>
      </trkpt>
      <trkpt lat="49.18817" lon="6.94121">
        <ele>372</ele>
        <time>2011-04-05T12:49:31Z</time>
      </trkpt>
      <trkpt lat="49.18819" lon="6.94123">
        <ele>372</ele>
        <time>2011-04-05T12:49:33Z</time>
      </trkpt>
      <trkpt lat="49.18821" lon="6.94125">
        <ele>372</ele>
        <time>2011-04-05T12:49:34Z</time>
      </trkpt>
      <trkpt lat="49.18822" lon="6.94126">
        <ele>372</ele>
        <time>2011-04-05T12:49:35Z</time>
      </trkpt>
      <trkpt lat="49.18824" lon="6.94127">
        <ele>372</ele>
        <time>2011-04-05T12:49:36Z</time>
      </trkpt>
      <trkpt lat="49.18826" lon="6.9413">
        <ele>372</ele>
        <time>2011-04-05T12:49:37Z</time>
      </trkpt>
      <trkpt lat="49.18826" lon="6.94132">
        <ele>372</ele>
        <time>2011-04-05T12:49:38Z</time>
      </trkpt>
      <trkpt lat="49.18828" lon="6.94132">
        <ele>372</ele>
        <time>2011-04-05T12:49:39Z</time>
      </trkpt>
      <trkpt lat="49.18829" lon="6.94133">
        <ele>372</ele>
        <time>2011-04-05T12:49:40Z</time>
      </trkpt>
      <trkpt lat="49.18829" lon="6.94135">
        <ele>372</ele>
        <time>2011-04-05T12:49:42Z</time>
      </trkpt>
      <trkpt lat="49.18831" lon="6.94137">
        <ele>372</ele>
        <time>2011-04-05T12:49:43Z</time>
      </trkpt>
      <trkpt lat="49.18832" lon="6.9414">
        <ele>372</ele>
        <time>2011-04-05T12:49:44Z</time>
      </trkpt>
      <trkpt lat="49.18833" lon="6.94142">
        <ele>372</ele>
        <time>2011-04-05T12:49:45Z</time>
      </trkpt>
      <trkpt lat="49.18834" lon="6.94146">
        <ele>371</ele>
        <time>2011-04-05T12:49:47Z</time>
      </trkpt>
      <trkpt lat="49.18835" lon="6.94147">
        <ele>371</ele>
        <time>2011-04-05T12:49:48Z</time>
      </trkpt>
      <trkpt lat="49.18837" lon="6.9415">
        <ele>370</ele>
        <time>2011-04-05T12:49:50Z</time>
      </trkpt>
      <trkpt lat="49.18839" lon="6.94151">
        <ele>370</ele>
        <time>2011-04-05T12:49:51Z</time>
      </trkpt>
      <trkpt lat="49.1884" lon="6.94153">
        <ele>370</ele>
        <time>2011-04-05T12:49:52Z</time>
      </trkpt>
      <trkpt lat="49.1884" lon="6.94155">
        <ele>370</ele>
        <time>2011-04-05T12:49:53Z</time>
      </trkpt>
      <trkpt lat="49.18838" lon="6.94157">
        <ele>370</ele>
        <time>2011-04-05T12:49:55Z</time>
      </trkpt>
      <trkpt lat="49.18837" lon="6.94158">
        <ele>370</ele>
        <time>2011-04-05T12:49:58Z</time>
      </trkpt>
      <trkpt lat="49.18836" lon="6.94159">
        <ele>370</ele>
        <time>2011-04-05T12:50:05Z</time>
      </trkpt>
      <trkpt lat="49.18835" lon="6.94159">
        <ele>370</ele>
        <time>2011-04-05T12:50:09Z</time>
      </trkpt>
      <trkpt lat="49.18833" lon="6.9416">
        <ele>370</ele>
        <time>2011-04-05T12:50:24Z</time>
      </trkpt>
      <trkpt lat="49.18832" lon="6.94161">
        <ele>370</ele>
        <time>2011-04-05T12:50:30Z</time>
      </trkpt>
      <trkpt lat="49.1883" lon="6.94161">
        <ele>370</ele>
        <time>2011-04-05T12:50:32Z</time>
      </trkpt>
      <trkpt lat="49.18829" lon="6.94161">
        <ele>370</ele>
        <time>2011-04-05T12:50:34Z</time>
      </trkpt>
      <trkpt lat="49.18827" lon="6.94162">
        <ele>371</ele>
        <time>2011-04-05T12:50:37Z</time>
      </trkpt>
      <trkpt lat="49.18826" lon="6.94161">
        <ele>374</ele>
        <time>2011-04-05T12:50:42Z</time>
      </trkpt>
      <trkpt lat="49.18827" lon="6.94162">
        <ele>375</ele>
        <time>2011-04-05T12:50:46Z</time>
      </trkpt>
      <trkpt lat="49.18829" lon="6.94161">
        <ele>376</ele>
        <time>2011-04-05T12:50:48Z</time>
      </trkpt>
      <trkpt lat="49.18831" lon="6.94163">
        <ele>376</ele>
        <time>2011-04-05T12:50:50Z</time>
      </trkpt>
      <trkpt lat="49.18832" lon="6.94164">
        <ele>376</ele>
        <time>2011-04-05T12:50:51Z</time>
      </trkpt>
      <trkpt lat="49.18833" lon="6.94166">
        <ele>376</ele>
        <time>2011-04-05T12:50:52Z</time>
      </trkpt>
      <trkpt lat="49.18835" lon="6.94167">
        <ele>376</ele>
        <time>2011-04-05T12:50:53Z</time>
      </trkpt>
      <trkpt lat="49.18837" lon="6.94169">
        <ele>376</ele>
        <time>2011-04-05T12:50:54Z</time>
      </trkpt>
      <trkpt lat="49.18838" lon="6.94171">
        <ele>376</ele>
        <time>2011-04-05T12:50:55Z</time>
      </trkpt>
      <trkpt lat="49.1884" lon="6.94173">
        <ele>376</ele>
        <time>2011-04-05T12:50:56Z</time>
      </trkpt>
      <trkpt lat="49.18841" lon="6.94175">
        <ele>376</ele>
        <time>2011-04-05T12:50:57Z</time>
      </trkpt>
      <trkpt lat="49.18841" lon="6.94178">
        <ele>376</ele>
        <time>2011-04-05T12:50:58Z</time>
      </trkpt>
      <trkpt lat="49.18842" lon="6.9418">
        <ele>376</ele>
        <time>2011-04-05T12:50:59Z</time>
      </trkpt>
      <trkpt lat="49.18844" lon="6.94181">
        <ele>375</ele>
        <time>2011-04-05T12:51:00Z</time>
      </trkpt>
      <trkpt lat="49.18846" lon="6.94182">
        <ele>375</ele>
        <time>2011-04-05T12:51:01Z</time>
      </trkpt>
      <trkpt lat="49.18848" lon="6.94183">
        <ele>374</ele>
        <time>2011-04-05T12:51:02Z</time>
      </trkpt>
      <trkpt lat="49.1885" lon="6.94185">
        <ele>373</ele>
        <time>2011-04-05T12:51:03Z</time>
      </trkpt>
      <trkpt lat="49.18852" lon="6.94186">
        <ele>372</ele>
        <time>2011-04-05T12:51:04Z</time>
      </trkpt>
      <trkpt lat="49.18854" lon="6.94187">
        <ele>371</ele>
        <time>2011-04-05T12:51:05Z</time>
      </trkpt>
      <trkpt lat="49.18854" lon="6.94189">
        <ele>370</ele>
        <time>2011-04-05T12:51:06Z</time>
      </trkpt>
      <trkpt lat="49.18856" lon="6.94191">
        <ele>369</ele>
        <time>2011-04-05T12:51:07Z</time>
      </trkpt>
      <trkpt lat="49.18858" lon="6.94192">
        <ele>368</ele>
        <time>2011-04-05T12:51:08Z</time>
      </trkpt>
      <trkpt lat="49.18858" lon="6.94194">
        <ele>367</ele>
        <time>2011-04-05T12:51:09Z</time>
      </trkpt>
      <trkpt lat="49.1886" lon="6.94196">
        <ele>366</ele>
        <time>2011-04-05T12:51:11Z</time>
      </trkpt>
      <trkpt lat="49.18861" lon="6.94198">
        <ele>366</ele>
        <time>2011-04-05T12:51:13Z</time>
      </trkpt>
      <trkpt lat="49.18863" lon="6.942">
        <ele>366</ele>
        <time>2011-04-05T12:51:15Z</time>
      </trkpt>
      <trkpt lat="49.18864" lon="6.94201">
        <ele>366</ele>
        <time>2011-04-05T12:51:16Z</time>
      </trkpt>
      <trkpt lat="49.18865" lon="6.94201">
        <ele>366</ele>
        <time>2011-04-05T12:51:17Z</time>
      </trkpt>
      <trkpt lat="49.18866" lon="6.94203">
        <ele>366</ele>
        <time>2011-04-05T12:51:18Z</time>
      </trkpt>
      <trkpt lat="49.18867" lon="6.94204">
        <ele>366</ele>
        <time>2011-04-05T12:51:19Z</time>
      </trkpt>
      <trkpt lat="49.18869" lon="6.94206">
        <ele>366</ele>
        <time>2011-04-05T12:51:20Z</time>
      </trkpt>
      <trkpt lat="49.1887" lon="6.94208">
        <ele>366</ele>
        <time>2011-04-05T12:51:21Z</time>
      </trkpt>
      <trkpt lat="49.18871" lon="6.9421">
        <ele>366</ele>
        <time>2011-04-05T12:51:22Z</time>
      </trkpt>
      <trkpt lat="49.18873" lon="6.94213">
        <ele>366</ele>
        <time>2011-04-05T12:51:24Z</time>
      </trkpt>
      <trkpt lat="49.18874" lon="6.94214">
        <ele>366</ele>
        <time>2011-04-05T12:51:25Z</time>
      </trkpt>
      <trkpt lat="49.18876" lon="6.94216">
        <ele>366</ele>
        <time>2011-04-05T12:51:26Z</time>
      </trkpt>
      <trkpt lat="49.18879" lon="6.94218">
        <ele>366</ele>
        <time>2011-04-05T12:51:28Z</time>
      </trkpt>
      <trkpt lat="49.1888" lon="6.94218">
        <ele>367</ele>
        <time>2011-04-05T12:51:29Z</time>
      </trkpt>
      <trkpt lat="49.18882" lon="6.94221">
        <ele>367</ele>
        <time>2011-04-05T12:51:31Z</time>
      </trkpt>
      <trkpt lat="49.18883" lon="6.94222">
        <ele>367</ele>
        <time>2011-04-05T12:51:32Z</time>
      </trkpt>
      <trkpt lat="49.18885" lon="6.94224">
        <ele>367</ele>
        <time>2011-04-05T12:51:33Z</time>
      </trkpt>
      <trkpt lat="49.18886" lon="6.94225">
        <ele>367</ele>
        <time>2011-04-05T12:51:34Z</time>
      </trkpt>
      <trkpt lat="49.18887" lon="6.94226">
        <ele>368</ele>
        <time>2011-04-05T12:51:35Z</time>
      </trkpt>
      <trkpt lat="49.18888" lon="6.94229">
        <ele>368</ele>
        <time>2011-04-05T12:51:37Z</time>
      </trkpt>
      <trkpt lat="49.18888" lon="6.94231">
        <ele>368</ele>
        <time>2011-04-05T12:51:38Z</time>
      </trkpt>
      <trkpt lat="49.18889" lon="6.94233">
        <ele>368</ele>
        <time>2011-04-05T12:51:39Z</time>
      </trkpt>
      <trkpt lat="49.1889" lon="6.94234">
        <ele>368</ele>
        <time>2011-04-05T12:51:40Z</time>
      </trkpt>
      <trkpt lat="49.18893" lon="6.94237">
        <ele>368</ele>
        <time>2011-04-05T12:51:42Z</time>
      </trkpt>
      <trkpt lat="49.18895" lon="6.94238">
        <ele>368</ele>
        <time>2011-04-05T12:51:44Z</time>
      </trkpt>
      <trkpt lat="49.18896" lon="6.94239">
        <ele>368</ele>
        <time>2011-04-05T12:51:45Z</time>
      </trkpt>
      <trkpt lat="49.18898" lon="6.9424">
        <ele>368</ele>
        <time>2011-04-05T12:51:46Z</time>
      </trkpt>
      <trkpt lat="49.18899" lon="6.94241">
        <ele>368</ele>
        <time>2011-04-05T12:51:47Z</time>
      </trkpt>
      <trkpt lat="49.18901" lon="6.94242">
        <ele>368</ele>
        <time>2011-04-05T12:51:48Z</time>
      </trkpt>
      <trkpt lat="49.18903" lon="6.94245">
        <ele>368</ele>
        <time>2011-04-05T12:51:50Z</time>
      </trkpt>
      <trkpt lat="49.18904" lon="6.94246">
        <ele>368</ele>
        <time>2011-04-05T12:51:51Z</time>
      </trkpt>
      <trkpt lat="49.18905" lon="6.94248">
        <ele>368</ele>
        <time>2011-04-05T12:51:52Z</time>
      </trkpt>
      <trkpt lat="49.18906" lon="6.94249">
        <ele>368</ele>
        <time>2011-04-05T12:51:53Z</time>
      </trkpt>
      <trkpt lat="49.18907" lon="6.94251">
        <ele>368</ele>
        <time>2011-04-05T12:51:54Z</time>
      </trkpt>
      <trkpt lat="49.18908" lon="6.94254">
        <ele>368</ele>
        <time>2011-04-05T12:51:56Z</time>
      </trkpt>
      <trkpt lat="49.1891" lon="6.94255">
        <ele>368</ele>
        <time>2011-04-05T12:51:57Z</time>
      </trkpt>
      <trkpt lat="49.18911" lon="6.94259">
        <ele>368</ele>
        <time>2011-04-05T12:51:59Z</time>
      </trkpt>
      <trkpt lat="49.18912" lon="6.94261">
        <ele>368</ele>
        <time>2011-04-05T12:52:00Z</time>
      </trkpt>
      <trkpt lat="49.18913" lon="6.94263">
        <ele>368</ele>
        <time>2011-04-05T12:52:02Z</time>
      </trkpt>
      <trkpt lat="49.18914" lon="6.94266">
        <ele>368</ele>
        <time>2011-04-05T12:52:04Z</time>
      </trkpt>
      <trkpt lat="49.18914" lon="6.94268">
        <ele>368</ele>
        <time>2011-04-05T12:52:05Z</time>
      </trkpt>
      <trkpt lat="49.18913" lon="6.94269">
        <ele>368</ele>
        <time>2011-04-05T12:52:06Z</time>
      </trkpt>
      <trkpt lat="49.18913" lon="6.94271">
        <ele>367</ele>
        <time>2011-04-05T12:52:07Z</time>
      </trkpt>
      <trkpt lat="49.18913" lon="6.94274">
        <ele>367</ele>
        <time>2011-04-05T12:52:09Z</time>
      </trkpt>
      <trkpt lat="49.18912" lon="6.94277">
        <ele>366</ele>
        <time>2011-04-05T12:52:11Z</time>
      </trkpt>
      <trkpt lat="49.18911" lon="6.9428">
        <ele>366</ele>
        <time>2011-04-05T12:52:12Z</time>
      </trkpt>
      <trkpt lat="49.1891" lon="6.94282">
        <ele>365</ele>
        <time>2011-04-05T12:52:14Z</time>
      </trkpt>
      <trkpt lat="49.18909" lon="6.94285">
        <ele>364</ele>
        <time>2011-04-05T12:52:16Z</time>
      </trkpt>
      <trkpt lat="49.18906" lon="6.94289">
        <ele>364</ele>
        <time>2011-04-05T12:52:18Z</time>
      </trkpt>
      <trkpt lat="49.18905" lon="6.94292">
        <ele>364</ele>
        <time>2011-04-05T12:52:20Z</time>
      </trkpt>
      <trkpt lat="49.18904" lon="6.94294">
        <ele>364</ele>
        <time>2011-04-05T12:52:21Z</time>
      </trkpt>
      <trkpt lat="49.18904" lon="6.94296">
        <ele>364</ele>
        <time>2011-04-05T12:52:22Z</time>
      </trkpt>
      <trkpt lat="49.18904" lon="6.94298">
        <ele>364</ele>
        <time>2011-04-05T12:52:23Z</time>
      </trkpt>
      <trkpt lat="49.18903" lon="6.94301">
        <ele>364</ele>
        <time>2011-04-05T12:52:25Z</time>
      </trkpt>
      <trkpt lat="49.18902" lon="6.94303">
        <ele>364</ele>
        <time>2011-04-05T12:52:26Z</time>
      </trkpt>
      <trkpt lat="49.18902" lon="6.94304">
        <ele>364</ele>
        <time>2011-04-05T12:52:27Z</time>
      </trkpt>
      <trkpt lat="49.18901" lon="6.94306">
        <ele>364</ele>
        <time>2011-04-05T12:52:28Z</time>
      </trkpt>
      <trkpt lat="49.189" lon="6.94308">
        <ele>364</ele>
        <time>2011-04-05T12:52:30Z</time>
      </trkpt>
      <trkpt lat="49.18899" lon="6.94311">
        <ele>364</ele>
        <time>2011-04-05T12:52:32Z</time>
      </trkpt>
      <trkpt lat="49.18898" lon="6.94313">
        <ele>364</ele>
        <time>2011-04-05T12:52:33Z</time>
      </trkpt>
      <trkpt lat="49.18896" lon="6.94316">
        <ele>363</ele>
        <time>2011-04-05T12:52:35Z</time>
      </trkpt>
      <trkpt lat="49.18895" lon="6.94318">
        <ele>363</ele>
        <time>2011-04-05T12:52:36Z</time>
      </trkpt>
      <trkpt lat="49.18893" lon="6.94321">
        <ele>363</ele>
        <time>2011-04-05T12:52:37Z</time>
      </trkpt>
      <trkpt lat="49.18892" lon="6.94323">
        <ele>363</ele>
        <time>2011-04-05T12:52:38Z</time>
      </trkpt>
      <trkpt lat="49.18891" lon="6.94325">
        <ele>363</ele>
        <time>2011-04-05T12:52:40Z</time>
      </trkpt>
      <trkpt lat="49.18891" lon="6.94328">
        <ele>363</ele>
        <time>2011-04-05T12:52:41Z</time>
      </trkpt>
      <trkpt lat="49.1889" lon="6.94331">
        <ele>363</ele>
        <time>2011-04-05T12:52:43Z</time>
      </trkpt>
      <trkpt lat="49.18889" lon="6.94333">
        <ele>363</ele>
        <time>2011-04-05T12:52:44Z</time>
      </trkpt>
      <trkpt lat="49.18888" lon="6.94336">
        <ele>363</ele>
        <time>2011-04-05T12:52:46Z</time>
      </trkpt>
      <trkpt lat="49.18887" lon="6.94338">
        <ele>363</ele>
        <time>2011-04-05T12:52:47Z</time>
      </trkpt>
      <trkpt lat="49.18885" lon="6.94342">
        <ele>363</ele>
        <time>2011-04-05T12:52:49Z</time>
      </trkpt>
      <trkpt lat="49.18884" lon="6.94345">
        <ele>363</ele>
        <time>2011-04-05T12:52:51Z</time>
      </trkpt>
      <trkpt lat="49.18882" lon="6.94346">
        <ele>363</ele>
        <time>2011-04-05T12:52:52Z</time>
      </trkpt>
      <trkpt lat="49.1888" lon="6.94348">
        <ele>363</ele>
        <time>2011-04-05T12:52:53Z</time>
      </trkpt>
      <trkpt lat="49.18879" lon="6.9435">
        <ele>363</ele>
        <time>2011-04-05T12:52:54Z</time>
      </trkpt>
      <trkpt lat="49.18877" lon="6.94352">
        <ele>363</ele>
        <time>2011-04-05T12:52:55Z</time>
      </trkpt>
      <trkpt lat="49.18876" lon="6.94354">
        <ele>363</ele>
        <time>2011-04-05T12:52:56Z</time>
      </trkpt>
      <trkpt lat="49.18875" lon="6.94355">
        <ele>363</ele>
        <time>2011-04-05T12:52:57Z</time>
      </trkpt>
      <trkpt lat="49.18873" lon="6.94357">
        <ele>363</ele>
        <time>2011-04-05T12:52:59Z</time>
      </trkpt>
      <trkpt lat="49.18871" lon="6.94358">
        <ele>363</ele>
        <time>2011-04-05T12:53:00Z</time>
      </trkpt>
      <trkpt lat="49.18869" lon="6.9436">
        <ele>363</ele>
        <time>2011-04-05T12:53:01Z</time>
      </trkpt>
      <trkpt lat="49.18868" lon="6.94361">
        <ele>363</ele>
        <time>2011-04-05T12:53:02Z</time>
      </trkpt>
      <trkpt lat="49.18866" lon="6.94361">
        <ele>363</ele>
        <time>2011-04-05T12:53:03Z</time>
      </trkpt>
      <trkpt lat="49.18865" lon="6.94362">
        <ele>363</ele>
        <time>2011-04-05T12:53:04Z</time>
      </trkpt>
      <trkpt lat="49.18864" lon="6.94363">
        <ele>363</ele>
        <time>2011-04-05T12:53:05Z</time>
      </trkpt>
      <trkpt lat="49.18862" lon="6.94365">
        <ele>363</ele>
        <time>2011-04-05T12:53:07Z</time>
      </trkpt>
      <trkpt lat="49.18861" lon="6.94366">
        <ele>363</ele>
        <time>2011-04-05T12:53:08Z</time>
      </trkpt>
      <trkpt lat="49.1886" lon="6.94368">
        <ele>363</ele>
        <time>2011-04-05T12:53:09Z</time>
      </trkpt>
      <trkpt lat="49.18858" lon="6.94369">
        <ele>362</ele>
        <time>2011-04-05T12:53:10Z</time>
      </trkpt>
      <trkpt lat="49.18857" lon="6.9437">
        <ele>362</ele>
        <time>2011-04-05T12:53:11Z</time>
      </trkpt>
      <trkpt lat="49.18855" lon="6.94372">
        <ele>362</ele>
        <time>2011-04-05T12:53:12Z</time>
      </trkpt>
      <trkpt lat="49.18853" lon="6.94374">
        <ele>362</ele>
        <time>2011-04-05T12:53:14Z</time>
      </trkpt>
      <trkpt lat="49.18852" lon="6.94375">
        <ele>362</ele>
        <time>2011-04-05T12:53:15Z</time>
      </trkpt>
      <trkpt lat="49.18851" lon="6.94376">
        <ele>362</ele>
        <time>2011-04-05T12:53:16Z</time>
      </trkpt>
      <trkpt lat="49.1885" lon="6.94377">
        <ele>362</ele>
        <time>2011-04-05T12:53:17Z</time>
      </trkpt>
      <trkpt lat="49.18848" lon="6.94379">
        <ele>362</ele>
        <time>2011-04-05T12:53:19Z</time>
      </trkpt>
      <trkpt lat="49.18846" lon="6.9438">
        <ele>362</ele>
        <time>2011-04-05T12:53:20Z</time>
      </trkpt>
      <trkpt lat="49.18845" lon="6.94382">
        <ele>362</ele>
        <time>2011-04-05T12:53:21Z</time>
      </trkpt>
      <trkpt lat="49.18843" lon="6.94384">
        <ele>362</ele>
        <time>2011-04-05T12:53:22Z</time>
      </trkpt>
      <trkpt lat="49.18842" lon="6.94386">
        <ele>362</ele>
        <time>2011-04-05T12:53:24Z</time>
      </trkpt>
      <trkpt lat="49.18841" lon="6.94388">
        <ele>362</ele>
        <time>2011-04-05T12:53:25Z</time>
      </trkpt>
      <trkpt lat="49.1884" lon="6.9439">
        <ele>362</ele>
        <time>2011-04-05T12:53:26Z</time>
      </trkpt>
      <trkpt lat="49.1884" lon="6.94392">
        <ele>362</ele>
        <time>2011-04-05T12:53:28Z</time>
      </trkpt>
      <trkpt lat="49.18839" lon="6.94394">
        <ele>361</ele>
        <time>2011-04-05T12:53:30Z</time>
      </trkpt>
      <trkpt lat="49.18838" lon="6.94396">
        <ele>361</ele>
        <time>2011-04-05T12:53:31Z</time>
      </trkpt>
      <trkpt lat="49.18837" lon="6.94398">
        <ele>360</ele>
        <time>2011-04-05T12:53:32Z</time>
      </trkpt>
      <trkpt lat="49.18835" lon="6.94401">
        <ele>360</ele>
        <time>2011-04-05T12:53:33Z</time>
      </trkpt>
      <trkpt lat="49.18834" lon="6.94403">
        <ele>360</ele>
        <time>2011-04-05T12:53:34Z</time>
      </trkpt>
      <trkpt lat="49.18832" lon="6.94407">
        <ele>360</ele>
        <time>2011-04-05T12:53:36Z</time>
      </trkpt>
      <trkpt lat="49.18831" lon="6.94411">
        <ele>360</ele>
        <time>2011-04-05T12:53:39Z</time>
      </trkpt>
      <trkpt lat="49.18831" lon="6.94413">
        <ele>360</ele>
        <time>2011-04-05T12:53:40Z</time>
      </trkpt>
      <trkpt lat="49.18831" lon="6.94414">
        <ele>360</ele>
        <time>2011-04-05T12:53:43Z</time>
      </trkpt>
      <trkpt lat="49.18833" lon="6.94417">
        <ele>360</ele>
        <time>2011-04-05T12:53:46Z</time>
      </trkpt>
      <trkpt lat="49.18834" lon="6.94419">
        <ele>362</ele>
        <time>2011-04-05T12:53:49Z</time>
      </trkpt>
      <trkpt lat="49.18835" lon="6.94418">
        <ele>370</ele>
        <time>2011-04-05T12:54:03Z</time>
      </trkpt>
      <trkpt lat="49.18837" lon="6.94418">
        <ele>371</ele>
        <time>2011-04-05T12:54:07Z</time>
      </trkpt>
      <trkpt lat="49.18838" lon="6.94417">
        <ele>373</ele>
        <time>2011-04-05T12:54:11Z</time>
      </trkpt>
      <trkpt lat="49.18839" lon="6.94418">
        <ele>374</ele>
        <time>2011-04-05T12:54:18Z</time>
      </trkpt>
      <trkpt lat="49.18839" lon="6.9442">
        <ele>378</ele>
        <time>2011-04-05T12:54:28Z</time>
      </trkpt>
      <trkpt lat="49.18838" lon="6.94424">
        <ele>379</ele>
        <time>2011-04-05T12:54:30Z</time>
      </trkpt>
      <trkpt lat="49.18839" lon="6.94426">
        <ele>379</ele>
        <time>2011-04-05T12:54:31Z</time>
      </trkpt>
      <trkpt lat="49.18839" lon="6.94428">
        <ele>379</ele>
        <time>2011-04-05T12:54:32Z</time>
      </trkpt>
      <trkpt lat="49.18841" lon="6.9443">
        <ele>380</ele>
        <time>2011-04-05T12:54:34Z</time>
      </trkpt>
      <trkpt lat="49.18841" lon="6.94432">
        <ele>380</ele>
        <time>2011-04-05T12:54:35Z</time>
      </trkpt>
      <trkpt lat="49.18841" lon="6.94435">
        <ele>380</ele>
        <time>2011-04-05T12:54:36Z</time>
      </trkpt>
      <trkpt lat="49.18841" lon="6.94437">
        <ele>380</ele>
        <time>2011-04-05T12:54:37Z</time>
      </trkpt>
      <trkpt lat="49.18842" lon="6.94438">
        <ele>380</ele>
        <time>2011-04-05T12:54:38Z</time>
      </trkpt>
      <trkpt lat="49.18842" lon="6.94441">
        <ele>380</ele>
        <time>2011-04-05T12:54:40Z</time>
      </trkpt>
      <trkpt lat="49.18843" lon="6.94443">
        <ele>380</ele>
        <time>2011-04-05T12:54:41Z</time>
      </trkpt>
      <trkpt lat="49.18843" lon="6.94445">
        <ele>380</ele>
        <time>2011-04-05T12:54:42Z</time>
      </trkpt>
      <trkpt lat="49.18844" lon="6.94447">
        <ele>380</ele>
        <time>2011-04-05T12:54:43Z</time>
      </trkpt>
      <trkpt lat="49.18845" lon="6.94449">
        <ele>380</ele>
        <time>2011-04-05T12:54:44Z</time>
      </trkpt>
      <trkpt lat="49.18845" lon="6.94451">
        <ele>380</ele>
        <time>2011-04-05T12:54:45Z</time>
      </trkpt>
      <trkpt lat="49.18846" lon="6.94454">
        <ele>379</ele>
        <time>2011-04-05T12:54:47Z</time>
      </trkpt>
      <trkpt lat="49.18847" lon="6.94457">
        <ele>378</ele>
        <time>2011-04-05T12:54:48Z</time>
      </trkpt>
      <trkpt lat="49.18848" lon="6.94459">
        <ele>376</ele>
        <time>2011-04-05T12:54:50Z</time>
      </trkpt>
      <trkpt lat="49.18849" lon="6.94459">
        <ele>376</ele>
        <time>2011-04-05T12:54:53Z</time>
      </trkpt>
      <trkpt lat="49.18851" lon="6.94459">
        <ele>375</ele>
        <time>2011-04-05T12:54:55Z</time>
      </trkpt>
      <trkpt lat="49.18852" lon="6.94459">
        <ele>374</ele>
        <time>2011-04-05T12:54:57Z</time>
      </trkpt>
      <trkpt lat="49.18854" lon="6.94459">
        <ele>371</ele>
        <time>2011-04-05T12:55:01Z</time>
      </trkpt>
      <trkpt lat="49.18852" lon="6.94459">
        <ele>368</ele>
        <time>2011-04-05T12:55:04Z</time>
      </trkpt>
      <trkpt lat="49.18851" lon="6.9446">
        <ele>368</ele>
        <time>2011-04-05T12:55:06Z</time>
      </trkpt>
      <trkpt lat="49.1885" lon="6.9446">
        <ele>367</ele>
        <time>2011-04-05T12:55:08Z</time>
      </trkpt>
      <trkpt lat="49.18851" lon="6.94461">
        <ele>365</ele>
        <time>2011-04-05T12:55:10Z</time>
      </trkpt>
      <trkpt lat="49.1885" lon="6.94458">
        <ele>363</ele>
        <time>2011-04-05T12:55:15Z</time>
      </trkpt>
      <trkpt lat="49.18849" lon="6.94456">
        <ele>363</ele>
        <time>2011-04-05T12:55:16Z</time>
      </trkpt>
      <trkpt lat="49.18848" lon="6.94454">
        <ele>363</ele>
        <time>2011-04-05T12:55:17Z</time>
      </trkpt>
      <trkpt lat="49.18848" lon="6.94452">
        <ele>363</ele>
        <time>2011-04-05T12:55:18Z</time>
      </trkpt>
      <trkpt lat="49.18847" lon="6.9445">
        <ele>363</ele>
        <time>2011-04-05T12:55:19Z</time>
      </trkpt>
      <trkpt lat="49.18846" lon="6.94448">
        <ele>363</ele>
        <time>2011-04-05T12:55:20Z</time>
      </trkpt>
      <trkpt lat="49.18845" lon="6.94446">
        <ele>363</ele>
        <time>2011-04-05T12:55:21Z</time>
      </trkpt>
      <trkpt lat="49.18843" lon="6.94445">
        <ele>363</ele>
        <time>2011-04-05T12:55:22Z</time>
      </trkpt>
      <trkpt lat="49.18841" lon="6.94442">
        <ele>363</ele>
        <time>2011-04-05T12:55:24Z</time>
      </trkpt>
      <trkpt lat="49.1884" lon="6.94441">
        <ele>363</ele>
        <time>2011-04-05T12:55:25Z</time>
      </trkpt>
      <trkpt lat="49.18839" lon="6.94439">
        <ele>363</ele>
        <time>2011-04-05T12:55:26Z</time>
      </trkpt>
      <trkpt lat="49.18838" lon="6.94438">
        <ele>363</ele>
        <time>2011-04-05T12:55:27Z</time>
      </trkpt>
      <trkpt lat="49.18838" lon="6.94436">
        <ele>363</ele>
        <time>2011-04-05T12:55:28Z</time>
      </trkpt>
      <trkpt lat="49.18837" lon="6.94433">
        <ele>363</ele>
        <time>2011-04-05T12:55:30Z</time>
      </trkpt>
      <trkpt lat="49.18835" lon="6.94432">
        <ele>363</ele>
        <time>2011-04-05T12:55:31Z</time>
      </trkpt>
      <trkpt lat="49.18834" lon="6.9443">
        <ele>363</ele>
        <time>2011-04-05T12:55:32Z</time>
      </trkpt>
      <trkpt lat="49.18834" lon="6.94428">
        <ele>363</ele>
        <time>2011-04-05T12:55:33Z</time>
      </trkpt>
      <trkpt lat="49.18833" lon="6.94425">
        <ele>363</ele>
        <time>2011-04-05T12:55:35Z</time>
      </trkpt>
      <trkpt lat="49.18832" lon="6.94423">
        <ele>363</ele>
        <time>2011-04-05T12:55:37Z</time>
      </trkpt>
      <trkpt lat="49.18831" lon="6.94422">
        <ele>363</ele>
        <time>2011-04-05T12:55:40Z</time>
      </trkpt>
      <trkpt lat="49.18829" lon="6.9442">
        <ele>363</ele>
        <time>2011-04-05T12:55:43Z</time>
      </trkpt>
      <trkpt lat="49.18828" lon="6.94419">
        <ele>364</ele>
        <time>2011-04-05T12:55:46Z</time>
      </trkpt>
      <trkpt lat="49.18827" lon="6.94417">
        <ele>364</ele>
        <time>2011-04-05T12:55:50Z</time>
      </trkpt>
      <trkpt lat="49.18826" lon="6.94415">
        <ele>364</ele>
        <time>2011-04-05T12:55:53Z</time>
      </trkpt>
      <trkpt lat="49.18828" lon="6.94417">
        <ele>364</ele>
        <time>2011-04-05T12:55:58Z</time>
      </trkpt>
      <trkpt lat="49.1883" lon="6.9442">
        <ele>364</ele>
        <time>2011-04-05T12:56:00Z</time>
      </trkpt>
      <trkpt lat="49.18831" lon="6.94422">
        <ele>364</ele>
        <time>2011-04-05T12:56:01Z</time>
      </trkpt>
      <trkpt lat="49.18832" lon="6.94425">
        <ele>364</ele>
        <time>2011-04-05T12:56:02Z</time>
      </trkpt>
      <trkpt lat="49.18833" lon="6.94428">
        <ele>364</ele>
        <time>2011-04-05T12:56:03Z</time>
      </trkpt>
      <trkpt lat="49.18833" lon="6.9443">
        <ele>364</ele>
        <time>2011-04-05T12:56:04Z</time>
      </trkpt>
      <trkpt lat="49.18834" lon="6.94432">
        <ele>364</ele>
        <time>2011-04-05T12:56:05Z</time>
      </trkpt>
      <trkpt lat="49.18835" lon="6.94434">
        <ele>364</ele>
        <time>2011-04-05T12:56:06Z</time>
      </trkpt>
      <trkpt lat="49.18836" lon="6.94436">
        <ele>364</ele>
        <time>2011-04-05T12:56:07Z</time>
      </trkpt>
      <trkpt lat="49.18837" lon="6.94438">
        <ele>364</ele>
        <time>2011-04-05T12:56:08Z</time>
      </trkpt>
      <trkpt lat="49.18838" lon="6.94441">
        <ele>364</ele>
        <time>2011-04-05T12:56:09Z</time>
      </trkpt>
      <trkpt lat="49.1884" lon="6.94443">
        <ele>364</ele>
        <time>2011-04-05T12:56:10Z</time>
      </trkpt>
      <trkpt lat="49.1884" lon="6.94445">
        <ele>364</ele>
        <time>2011-04-05T12:56:11Z</time>
      </trkpt>
      <trkpt lat="49.18843" lon="6.94448">
        <ele>365</ele>
        <time>2011-04-05T12:56:13Z</time>
      </trkpt>
      <trkpt lat="49.18844" lon="6.9445">
        <ele>365</ele>
        <time>2011-04-05T12:56:14Z</time>
      </trkpt>
      <trkpt lat="49.18844" lon="6.94452">
        <ele>366</ele>
        <time>2011-04-05T12:56:15Z</time>
      </trkpt>
      <trkpt lat="49.18845" lon="6.94454">
        <ele>367</ele>
        <time>2011-04-05T12:56:16Z</time>
      </trkpt>
      <trkpt lat="49.18846" lon="6.94456">
        <ele>367</ele>
        <time>2011-04-05T12:56:17Z</time>
      </trkpt>
      <trkpt lat="49.18846" lon="6.94459">
        <ele>368</ele>
        <time>2011-04-05T12:56:18Z</time>
      </trkpt>
      <trkpt lat="49.18846" lon="6.94462">
        <ele>368</ele>
        <time>2011-04-05T12:56:19Z</time>
      </trkpt>
      <trkpt lat="49.18847" lon="6.94465">
        <ele>368</ele>
        <time>2011-04-05T12:56:20Z</time>
      </trkpt>
      <trkpt lat="49.18848" lon="6.94467">
        <ele>368</ele>
        <time>2011-04-05T12:56:21Z</time>
      </trkpt>
      <trkpt lat="49.18848" lon="6.94469">
        <ele>368</ele>
        <time>2011-04-05T12:56:22Z</time>
      </trkpt>
      <trkpt lat="49.18849" lon="6.94471">
        <ele>368</ele>
        <time>2011-04-05T12:56:23Z</time>
      </trkpt>
      <trkpt lat="49.1885" lon="6.94473">
        <ele>368</ele>
        <time>2011-04-05T12:56:24Z</time>
      </trkpt>
      <trkpt lat="49.1885" lon="6.94475">
        <ele>368</ele>
        <time>2011-04-05T12:56:25Z</time>
      </trkpt>
      <trkpt lat="49.18851" lon="6.94477">
        <ele>368</ele>
        <time>2011-04-05T12:56:26Z</time>
      </trkpt>
      <trkpt lat="49.18852" lon="6.94478">
        <ele>368</ele>
        <time>2011-04-05T12:56:27Z</time>
      </trkpt>
      <trkpt lat="49.18854" lon="6.9448">
        <ele>368</ele>
        <time>2011-04-05T12:56:29Z</time>
      </trkpt>
      <trkpt lat="49.18856" lon="6.94481">
        <ele>368</ele>
        <time>2011-04-05T12:56:30Z</time>
      </trkpt>
      <trkpt lat="49.18856" lon="6.94483">
        <ele>368</ele>
        <time>2011-04-05T12:56:31Z</time>
      </trkpt>
      <trkpt lat="49.18856" lon="6.94485">
        <ele>368</ele>
        <time>2011-04-05T12:56:32Z</time>
      </trkpt>
      <trkpt lat="49.18857" lon="6.94487">
        <ele>368</ele>
        <time>2011-04-05T12:56:33Z</time>
      </trkpt>
      <trkpt lat="49.18858" lon="6.9449">
        <ele>367</ele>
        <time>2011-04-05T12:56:34Z</time>
      </trkpt>
      <trkpt lat="49.18859" lon="6.94492">
        <ele>367</ele>
        <time>2011-04-05T12:56:35Z</time>
      </trkpt>
      <trkpt lat="49.18859" lon="6.94495">
        <ele>366</ele>
        <time>2011-04-05T12:56:36Z</time>
      </trkpt>
      <trkpt lat="49.18859" lon="6.94497">
        <ele>366</ele>
        <time>2011-04-05T12:56:37Z</time>
      </trkpt>
      <trkpt lat="49.1886" lon="6.94499">
        <ele>366</ele>
        <time>2011-04-05T12:56:38Z</time>
      </trkpt>
      <trkpt lat="49.18862" lon="6.945">
        <ele>365</ele>
        <time>2011-04-05T12:56:39Z</time>
      </trkpt>
      <trkpt lat="49.18864" lon="6.94501">
        <ele>364</ele>
        <time>2011-04-05T12:56:40Z</time>
      </trkpt>
      <trkpt lat="49.18865" lon="6.94502">
        <ele>363</ele>
        <time>2011-04-05T12:56:41Z</time>
      </trkpt>
      <trkpt lat="49.18867" lon="6.94504">
        <ele>361</ele>
        <time>2011-04-05T12:56:43Z</time>
      </trkpt>
      <trkpt lat="49.18868" lon="6.94508">
        <ele>359</ele>
        <time>2011-04-05T12:56:45Z</time>
      </trkpt>
      <trkpt lat="49.18868" lon="6.9451">
        <ele>358</ele>
        <time>2011-04-05T12:56:46Z</time>
      </trkpt>
      <trkpt lat="49.18868" lon="6.94512">
        <ele>357</ele>
        <time>2011-04-05T12:56:47Z</time>
      </trkpt>
      <trkpt lat="49.18869" lon="6.94516">
        <ele>355</ele>
        <time>2011-04-05T12:56:49Z</time>
      </trkpt>
      <trkpt lat="49.18869" lon="6.94518">
        <ele>354</ele>
        <time>2011-04-05T12:56:50Z</time>
      </trkpt>
      <trkpt lat="49.1887" lon="6.94521">
        <ele>352</ele>
        <time>2011-04-05T12:56:52Z</time>
      </trkpt>
      <trkpt lat="49.1887" lon="6.94523">
        <ele>351</ele>
        <time>2011-04-05T12:56:53Z</time>
      </trkpt>
      <trkpt lat="49.18871" lon="6.94527">
        <ele>349</ele>
        <time>2011-04-05T12:56:55Z</time>
      </trkpt>
      <trkpt lat="49.18871" lon="6.9453">
        <ele>349</ele>
        <time>2011-04-05T12:56:56Z</time>
      </trkpt>
      <trkpt lat="49.18871" lon="6.94532">
        <ele>349</ele>
        <time>2011-04-05T12:56:57Z</time>
      </trkpt>
      <trkpt lat="49.18872" lon="6.94532">
        <ele>349</ele>
        <time>2011-04-05T12:56:58Z</time>
      </trkpt>
      <trkpt lat="49.18873" lon="6.94534">
        <ele>348</ele>
        <time>2011-04-05T12:57:00Z</time>
      </trkpt>
      <trkpt lat="49.18874" lon="6.94536">
        <ele>348</ele>
        <time>2011-04-05T12:57:01Z</time>
      </trkpt>
      <trkpt lat="49.18875" lon="6.94539">
        <ele>347</ele>
        <time>2011-04-05T12:57:02Z</time>
      </trkpt>
      <trkpt lat="49.18875" lon="6.94541">
        <ele>347</ele>
        <time>2011-04-05T12:57:03Z</time>
      </trkpt>
      <trkpt lat="49.18875" lon="6.94544">
        <ele>347</ele>
        <time>2011-04-05T12:57:04Z</time>
      </trkpt>
      <trkpt lat="49.18875" lon="6.94546">
        <ele>347</ele>
        <time>2011-04-05T12:57:05Z</time>
      </trkpt>
      <trkpt lat="49.18874" lon="6.94549">
        <ele>346</ele>
        <time>2011-04-05T12:57:06Z</time>
      </trkpt>
      <trkpt lat="49.18875" lon="6.94552">
        <ele>346</ele>
        <time>2011-04-05T12:57:07Z</time>
      </trkpt>
      <trkpt lat="49.18875" lon="6.94554">
        <ele>346</ele>
        <time>2011-04-05T12:57:08Z</time>
      </trkpt>
      <trkpt lat="49.18876" lon="6.94556">
        <ele>346</ele>
        <time>2011-04-05T12:57:09Z</time>
      </trkpt>
      <trkpt lat="49.18876" lon="6.94558">
        <ele>345</ele>
        <time>2011-04-05T12:57:10Z</time>
      </trkpt>
      <trkpt lat="49.18876" lon="6.9456">
        <ele>345</ele>
        <time>2011-04-05T12:57:11Z</time>
      </trkpt>
      <trkpt lat="49.18876" lon="6.94563">
        <ele>345</ele>
        <time>2011-04-05T12:57:12Z</time>
      </trkpt>
      <trkpt lat="49.18877" lon="6.94565">
        <ele>345</ele>
        <time>2011-04-05T12:57:13Z</time>
      </trkpt>
      <trkpt lat="49.18877" lon="6.94567">
        <ele>345</ele>
        <time>2011-04-05T12:57:14Z</time>
      </trkpt>
      <trkpt lat="49.18878" lon="6.94569">
        <ele>345</ele>
        <time>2011-04-05T12:57:15Z</time>
      </trkpt>
      <trkpt lat="49.18878" lon="6.94571">
        <ele>345</ele>
        <time>2011-04-05T12:57:16Z</time>
      </trkpt>
      <trkpt lat="49.18879" lon="6.94573">
        <ele>345</ele>
        <time>2011-04-05T12:57:17Z</time>
      </trkpt>
      <trkpt lat="49.18879" lon="6.94574">
        <ele>344</ele>
        <time>2011-04-05T12:57:18Z</time>
      </trkpt>
      <trkpt lat="49.18879" lon="6.94577">
        <ele>344</ele>
        <time>2011-04-05T12:57:19Z</time>
      </trkpt>
      <trkpt lat="49.18879" lon="6.94578">
        <ele>344</ele>
        <time>2011-04-05T12:57:20Z</time>
      </trkpt>
      <trkpt lat="49.18879" lon="6.9458">
        <ele>344</ele>
        <time>2011-04-05T12:57:21Z</time>
      </trkpt>
      <trkpt lat="49.18879" lon="6.94583">
        <ele>344</ele>
        <time>2011-04-05T12:57:22Z</time>
      </trkpt>
      <trkpt lat="49.1888" lon="6.94585">
        <ele>344</ele>
        <time>2011-04-05T12:57:23Z</time>
      </trkpt>
      <trkpt lat="49.1888" lon="6.94587">
        <ele>344</ele>
        <time>2011-04-05T12:57:24Z</time>
      </trkpt>
      <trkpt lat="49.18879" lon="6.9459">
        <ele>344</ele>
        <time>2011-04-05T12:57:25Z</time>
      </trkpt>
      <trkpt lat="49.18879" lon="6.94592">
        <ele>344</ele>
        <time>2011-04-05T12:57:26Z</time>
      </trkpt>
      <trkpt lat="49.1888" lon="6.94594">
        <ele>344</ele>
        <time>2011-04-05T12:57:27Z</time>
      </trkpt>
      <trkpt lat="49.1888" lon="6.94596">
        <ele>344</ele>
        <time>2011-04-05T12:57:28Z</time>
      </trkpt>
      <trkpt lat="49.1888" lon="6.94599">
        <ele>344</ele>
        <time>2011-04-05T12:57:29Z</time>
      </trkpt>
      <trkpt lat="49.18881" lon="6.946">
        <ele>344</ele>
        <time>2011-04-05T12:57:31Z</time>
      </trkpt>
      <trkpt lat="49.18882" lon="6.94602">
        <ele>344</ele>
        <time>2011-04-05T12:57:32Z</time>
      </trkpt>
      <trkpt lat="49.18882" lon="6.94604">
        <ele>344</ele>
        <time>2011-04-05T12:57:33Z</time>
      </trkpt>
      <trkpt lat="49.18882" lon="6.94606">
        <ele>343</ele>
        <time>2011-04-05T12:57:34Z</time>
      </trkpt>
      <trkpt lat="49.18883" lon="6.94609">
        <ele>342</ele>
        <time>2011-04-05T12:57:36Z</time>
      </trkpt>
      <trkpt lat="49.18883" lon="6.94611">
        <ele>342</ele>
        <time>2011-04-05T12:57:37Z</time>
      </trkpt>
      <trkpt lat="49.18883" lon="6.94614">
        <ele>341</ele>
        <time>2011-04-05T12:57:38Z</time>
      </trkpt>
      <trkpt lat="49.18884" lon="6.94616">
        <ele>341</ele>
        <time>2011-04-05T12:57:39Z</time>
      </trkpt>
      <trkpt lat="49.18883" lon="6.94618">
        <ele>341</ele>
        <time>2011-04-05T12:57:40Z</time>
      </trkpt>
      <trkpt lat="49.18883" lon="6.94621">
        <ele>340</ele>
        <time>2011-04-05T12:57:42Z</time>
      </trkpt>
      <trkpt lat="49.18883" lon="6.94623">
        <ele>340</ele>
        <time>2011-04-05T12:57:43Z</time>
      </trkpt>
      <trkpt lat="49.18883" lon="6.94625">
        <ele>340</ele>
        <time>2011-04-05T12:57:44Z</time>
      </trkpt>
      <trkpt lat="49.18883" lon="6.94627">
        <ele>339</ele>
        <time>2011-04-05T12:57:45Z</time>
      </trkpt>
      <trkpt lat="49.18884" lon="6.94629">
        <ele>339</ele>
        <time>2011-04-05T12:57:46Z</time>
      </trkpt>
      <trkpt lat="49.18885" lon="6.94631">
        <ele>339</ele>
        <time>2011-04-05T12:57:47Z</time>
      </trkpt>
      <trkpt lat="49.18884" lon="6.94635">
        <ele>339</ele>
        <time>2011-04-05T12:57:48Z</time>
      </trkpt>
      <trkpt lat="49.18883" lon="6.9464">
        <ele>339</ele>
        <time>2011-04-05T12:57:49Z</time>
      </trkpt>
      <trkpt lat="49.18884" lon="6.94641">
        <ele>339</ele>
        <time>2011-04-05T12:57:50Z</time>
      </trkpt>
      <trkpt lat="49.18885" lon="6.94643">
        <ele>339</ele>
        <time>2011-04-05T12:57:51Z</time>
      </trkpt>
      <trkpt lat="49.18886" lon="6.94644">
        <ele>339</ele>
        <time>2011-04-05T12:57:52Z</time>
      </trkpt>
      <trkpt lat="49.18887" lon="6.94646">
        <ele>339</ele>
        <time>2011-04-05T12:57:53Z</time>
      </trkpt>
      <trkpt lat="49.18888" lon="6.94648">
        <ele>339</ele>
        <time>2011-04-05T12:57:54Z</time>
      </trkpt>
      <trkpt lat="49.18889" lon="6.9465">
        <ele>339</ele>
        <time>2011-04-05T12:57:55Z</time>
      </trkpt>
      <trkpt lat="49.18889" lon="6.94653">
        <ele>339</ele>
        <time>2011-04-05T12:57:56Z</time>
      </trkpt>
      <trkpt lat="49.1889" lon="6.94655">
        <ele>339</ele>
        <time>2011-04-05T12:57:57Z</time>
      </trkpt>
      <trkpt lat="49.18892" lon="6.94657">
        <ele>340</ele>
        <time>2011-04-05T12:57:58Z</time>
      </trkpt>
      <trkpt lat="49.18893" lon="6.94659">
        <ele>340</ele>
        <time>2011-04-05T12:57:59Z</time>
      </trkpt>
      <trkpt lat="49.18894" lon="6.94661">
        <ele>340</ele>
        <time>2011-04-05T12:58:00Z</time>
      </trkpt>
      <trkpt lat="49.18894" lon="6.94663">
        <ele>340</ele>
        <time>2011-04-05T12:58:01Z</time>
      </trkpt>
      <trkpt lat="49.18894" lon="6.94665">
        <ele>341</ele>
        <time>2011-04-05T12:58:02Z</time>
      </trkpt>
      <trkpt lat="49.18895" lon="6.94668">
        <ele>341</ele>
        <time>2011-04-05T12:58:03Z</time>
      </trkpt>
      <trkpt lat="49.18895" lon="6.9467">
        <ele>341</ele>
        <time>2011-04-05T12:58:04Z</time>
      </trkpt>
      <trkpt lat="49.18895" lon="6.94672">
        <ele>341</ele>
        <time>2011-04-05T12:58:05Z</time>
      </trkpt>
      <trkpt lat="49.18896" lon="6.94675">
        <ele>341</ele>
        <time>2011-04-05T12:58:06Z</time>
      </trkpt>
      <trkpt lat="49.18896" lon="6.94677">
        <ele>341</ele>
        <time>2011-04-05T12:58:07Z</time>
      </trkpt>
      <trkpt lat="49.18896" lon="6.94679">
        <ele>341</ele>
        <time>2011-04-05T12:58:08Z</time>
      </trkpt>
      <trkpt lat="49.18896" lon="6.94682">
        <ele>341</ele>
        <time>2011-04-05T12:58:09Z</time>
      </trkpt>
      <trkpt lat="49.18896" lon="6.94684">
        <ele>341</ele>
        <time>2011-04-05T12:58:10Z</time>
      </trkpt>
      <trkpt lat="49.18895" lon="6.94686">
        <ele>341</ele>
        <time>2011-04-05T12:58:11Z</time>
      </trkpt>
      <trkpt lat="49.18894" lon="6.94688">
        <ele>341</ele>
        <time>2011-04-05T12:58:13Z</time>
      </trkpt>
      <trkpt lat="49.18894" lon="6.94692">
        <ele>341</ele>
        <time>2011-04-05T12:58:14Z</time>
      </trkpt>
      <trkpt lat="49.18894" lon="6.94694">
        <ele>341</ele>
        <time>2011-04-05T12:58:15Z</time>
      </trkpt>
      <trkpt lat="49.18894" lon="6.94697">
        <ele>341</ele>
        <time>2011-04-05T12:58:16Z</time>
      </trkpt>
      <trkpt lat="49.18894" lon="6.94699">
        <ele>341</ele>
        <time>2011-04-05T12:58:17Z</time>
      </trkpt>
      <trkpt lat="49.18894" lon="6.94701">
        <ele>341</ele>
        <time>2011-04-05T12:58:18Z</time>
      </trkpt>
      <trkpt lat="49.18895" lon="6.94703">
        <ele>341</ele>
        <time>2011-04-05T12:58:19Z</time>
      </trkpt>
      <trkpt lat="49.18895" lon="6.94706">
        <ele>341</ele>
        <time>2011-04-05T12:58:20Z</time>
      </trkpt>
      <trkpt lat="49.18895" lon="6.94709">
        <ele>341</ele>
        <time>2011-04-05T12:58:21Z</time>
      </trkpt>
      <trkpt lat="49.18895" lon="6.94711">
        <ele>341</ele>
        <time>2011-04-05T12:58:22Z</time>
      </trkpt>
      <trkpt lat="49.18895" lon="6.94713">
        <ele>341</ele>
        <time>2011-04-05T12:58:23Z</time>
      </trkpt>
      <trkpt lat="49.18895" lon="6.94715">
        <ele>341</ele>
        <time>2011-04-05T12:58:24Z</time>
      </trkpt>
      <trkpt lat="49.18895" lon="6.94718">
        <ele>342</ele>
        <time>2011-04-05T12:58:25Z</time>
      </trkpt>
      <trkpt lat="49.18894" lon="6.9472">
        <ele>342</ele>
        <time>2011-04-05T12:58:26Z</time>
      </trkpt>
      <trkpt lat="49.18894" lon="6.94721">
        <ele>342</ele>
        <time>2011-04-05T12:58:27Z</time>
      </trkpt>
      <trkpt lat="49.18892" lon="6.94724">
        <ele>342</ele>
        <time>2011-04-05T12:58:29Z</time>
      </trkpt>
      <trkpt lat="49.1889" lon="6.94727">
        <ele>342</ele>
        <time>2011-04-05T12:58:31Z</time>
      </trkpt>
      <trkpt lat="49.18889" lon="6.94729">
        <ele>342</ele>
        <time>2011-04-05T12:58:32Z</time>
      </trkpt>
      <trkpt lat="49.18887" lon="6.9473">
        <ele>342</ele>
        <time>2011-04-05T12:58:33Z</time>
      </trkpt>
      <trkpt lat="49.18886" lon="6.94731">
        <ele>342</ele>
        <time>2011-04-05T12:58:34Z</time>
      </trkpt>
      <trkpt lat="49.18885" lon="6.94732">
        <ele>342</ele>
        <time>2011-04-05T12:58:35Z</time>
      </trkpt>
      <trkpt lat="49.18884" lon="6.94733">
        <ele>342</ele>
        <time>2011-04-05T12:58:36Z</time>
      </trkpt>
      <trkpt lat="49.18882" lon="6.94732">
        <ele>343</ele>
        <time>2011-04-05T12:58:41Z</time>
      </trkpt>
      <trkpt lat="49.18881" lon="6.94733">
        <ele>346</ele>
        <time>2011-04-05T12:58:56Z</time>
      </trkpt>
      <trkpt lat="49.1888" lon="6.94733">
        <ele>347</ele>
        <time>2011-04-05T12:59:09Z</time>
      </trkpt>
      <trkpt lat="49.18879" lon="6.94734">
        <ele>347</ele>
        <time>2011-04-05T12:59:11Z</time>
      </trkpt>
      <trkpt lat="49.18877" lon="6.94736">
        <ele>347</ele>
        <time>2011-04-05T12:59:13Z</time>
      </trkpt>
      <trkpt lat="49.18875" lon="6.94737">
        <ele>347</ele>
        <time>2011-04-05T12:59:14Z</time>
      </trkpt>
      <trkpt lat="49.18874" lon="6.94737">
        <ele>347</ele>
        <time>2011-04-05T12:59:15Z</time>
      </trkpt>
      <trkpt lat="49.18873" lon="6.94738">
        <ele>347</ele>
        <time>2011-04-05T12:59:16Z</time>
      </trkpt>
      <trkpt lat="49.18872" lon="6.94739">
        <ele>347</ele>
        <time>2011-04-05T12:59:17Z</time>
      </trkpt>
      <trkpt lat="49.18871" lon="6.9474">
        <ele>347</ele>
        <time>2011-04-05T12:59:18Z</time>
      </trkpt>
      <trkpt lat="49.18869" lon="6.94741">
        <ele>347</ele>
        <time>2011-04-05T12:59:19Z</time>
      </trkpt>
      <trkpt lat="49.18868" lon="6.94741">
        <ele>347</ele>
        <time>2011-04-05T12:59:20Z</time>
      </trkpt>
      <trkpt lat="49.18866" lon="6.94743">
        <ele>347</ele>
        <time>2011-04-05T12:59:22Z</time>
      </trkpt>
      <trkpt lat="49.18865" lon="6.94745">
        <ele>349</ele>
        <time>2011-04-05T12:59:34Z</time>
      </trkpt>
      <trkpt lat="49.18864" lon="6.94747">
        <ele>349</ele>
        <time>2011-04-05T12:59:36Z</time>
      </trkpt>
      <trkpt lat="49.18862" lon="6.94748">
        <ele>349</ele>
        <time>2011-04-05T12:59:37Z</time>
      </trkpt>
      <trkpt lat="49.18861" lon="6.94749">
        <ele>349</ele>
        <time>2011-04-05T12:59:38Z</time>
      </trkpt>
      <trkpt lat="49.18859" lon="6.9475">
        <ele>349</ele>
        <time>2011-04-05T12:59:39Z</time>
      </trkpt>
      <trkpt lat="49.18858" lon="6.94751">
        <ele>349</ele>
        <time>2011-04-05T12:59:40Z</time>
      </trkpt>
      <trkpt lat="49.18857" lon="6.94752">
        <ele>349</ele>
        <time>2011-04-05T12:59:41Z</time>
      </trkpt>
      <trkpt lat="49.18856" lon="6.94754">
        <ele>349</ele>
        <time>2011-04-05T12:59:42Z</time>
      </trkpt>
      <trkpt lat="49.18854" lon="6.94757">
        <ele>349</ele>
        <time>2011-04-05T12:59:44Z</time>
      </trkpt>
      <trkpt lat="49.18851" lon="6.94759">
        <ele>349</ele>
        <time>2011-04-05T12:59:46Z</time>
      </trkpt>
      <trkpt lat="49.1885" lon="6.94761">
        <ele>349</ele>
        <time>2011-04-05T12:59:47Z</time>
      </trkpt>
      <trkpt lat="49.18849" lon="6.94762">
        <ele>349</ele>
        <time>2011-04-05T12:59:48Z</time>
      </trkpt>
      <trkpt lat="49.18848" lon="6.94763">
        <ele>349</ele>
        <time>2011-04-05T12:59:49Z</time>
      </trkpt>
      <trkpt lat="49.18847" lon="6.94765">
        <ele>349</ele>
        <time>2011-04-05T12:59:50Z</time>
      </trkpt>
      <trkpt lat="49.18846" lon="6.94767">
        <ele>349</ele>
        <time>2011-04-05T12:59:51Z</time>
      </trkpt>
      <trkpt lat="49.18845" lon="6.94768">
        <ele>349</ele>
        <time>2011-04-05T12:59:52Z</time>
      </trkpt>
      <trkpt lat="49.18843" lon="6.9477">
        <ele>349</ele>
        <time>2011-04-05T12:59:53Z</time>
      </trkpt>
      <trkpt lat="49.18841" lon="6.94772">
        <ele>349</ele>
        <time>2011-04-05T12:59:55Z</time>
      </trkpt>
      <trkpt lat="49.18839" lon="6.94775">
        <ele>349</ele>
        <time>2011-04-05T12:59:57Z</time>
      </trkpt>
      <trkpt lat="49.18838" lon="6.94776">
        <ele>349</ele>
        <time>2011-04-05T12:59:58Z</time>
      </trkpt>
      <trkpt lat="49.18837" lon="6.94778">
        <ele>349</ele>
        <time>2011-04-05T12:59:59Z</time>
      </trkpt>
      <trkpt lat="49.18835" lon="6.94779">
        <ele>348</ele>
        <time>2011-04-05T13:00:00Z</time>
      </trkpt>
      <trkpt lat="49.18834" lon="6.94781">
        <ele>348</ele>
        <time>2011-04-05T13:00:01Z</time>
      </trkpt>
      <trkpt lat="49.18833" lon="6.94782">
        <ele>347</ele>
        <time>2011-04-05T13:00:02Z</time>
      </trkpt>
      <trkpt lat="49.18832" lon="6.94784">
        <ele>347</ele>
        <time>2011-04-05T13:00:03Z</time>
      </trkpt>
      <trkpt lat="49.18831" lon="6.94785">
        <ele>347</ele>
        <time>2011-04-05T13:00:04Z</time>
      </trkpt>
      <trkpt lat="49.18829" lon="6.94787">
        <ele>346</ele>
        <time>2011-04-05T13:00:05Z</time>
      </trkpt>
      <trkpt lat="49.18828" lon="6.94788">
        <ele>346</ele>
        <time>2011-04-05T13:00:06Z</time>
      </trkpt>
      <trkpt lat="49.18827" lon="6.94789">
        <ele>345</ele>
        <time>2011-04-05T13:00:07Z</time>
      </trkpt>
      <trkpt lat="49.18826" lon="6.94791">
        <ele>345</ele>
        <time>2011-04-05T13:00:08Z</time>
      </trkpt>
      <trkpt lat="49.18824" lon="6.94793">
        <ele>344</ele>
        <time>2011-04-05T13:00:10Z</time>
      </trkpt>
      <trkpt lat="49.18823" lon="6.94795">
        <ele>344</ele>
        <time>2011-04-05T13:00:11Z</time>
      </trkpt>
      <trkpt lat="49.18821" lon="6.94797">
        <ele>343</ele>
        <time>2011-04-05T13:00:12Z</time>
      </trkpt>
      <trkpt lat="49.1882" lon="6.94799">
        <ele>343</ele>
        <time>2011-04-05T13:00:13Z</time>
      </trkpt>
      <trkpt lat="49.18819" lon="6.948">
        <ele>342</ele>
        <time>2011-04-05T13:00:14Z</time>
      </trkpt>
      <trkpt lat="49.18818" lon="6.94801">
        <ele>342</ele>
        <time>2011-04-05T13:00:15Z</time>
      </trkpt>
      <trkpt lat="49.18817" lon="6.94802">
        <ele>342</ele>
        <time>2011-04-05T13:00:16Z</time>
      </trkpt>
      <trkpt lat="49.18816" lon="6.94803">
        <ele>341</ele>
        <time>2011-04-05T13:00:17Z</time>
      </trkpt>
      <trkpt lat="49.18814" lon="6.94805">
        <ele>341</ele>
        <time>2011-04-05T13:00:18Z</time>
      </trkpt>
      <trkpt lat="49.18813" lon="6.94806">
        <ele>340</ele>
        <time>2011-04-05T13:00:19Z</time>
      </trkpt>
      <trkpt lat="49.18812" lon="6.94807">
        <ele>340</ele>
        <time>2011-04-05T13:00:20Z</time>
      </trkpt>
      <trkpt lat="49.18811" lon="6.94808">
        <ele>340</ele>
        <time>2011-04-05T13:00:21Z</time>
      </trkpt>
      <trkpt lat="49.1881" lon="6.9481">
        <ele>339</ele>
        <time>2011-04-05T13:00:22Z</time>
      </trkpt>
      <trkpt lat="49.18808" lon="6.94811">
        <ele>339</ele>
        <time>2011-04-05T13:00:23Z</time>
      </trkpt>
      <trkpt lat="49.18807" lon="6.94812">
        <ele>339</ele>
        <time>2011-04-05T13:00:24Z</time>
      </trkpt>
      <trkpt lat="49.18806" lon="6.94813">
        <ele>338</ele>
        <time>2011-04-05T13:00:25Z</time>
      </trkpt>
      <trkpt lat="49.18805" lon="6.94814">
        <ele>338</ele>
        <time>2011-04-05T13:00:26Z</time>
      </trkpt>
      <trkpt lat="49.18803" lon="6.94815">
        <ele>338</ele>
        <time>2011-04-05T13:00:27Z</time>
      </trkpt>
      <trkpt lat="49.18802" lon="6.94816">
        <ele>338</ele>
        <time>2011-04-05T13:00:28Z</time>
      </trkpt>
      <trkpt lat="49.18801" lon="6.94817">
        <ele>337</ele>
        <time>2011-04-05T13:00:29Z</time>
      </trkpt>
      <trkpt lat="49.188" lon="6.94818">
        <ele>337</ele>
        <time>2011-04-05T13:00:30Z</time>
      </trkpt>
      <trkpt lat="49.18798" lon="6.94819">
        <ele>337</ele>
        <time>2011-04-05T13:00:31Z</time>
      </trkpt>
      <trkpt lat="49.18797" lon="6.9482">
        <ele>336</ele>
        <time>2011-04-05T13:00:32Z</time>
      </trkpt>
      <trkpt lat="49.18795" lon="6.94822">
        <ele>336</ele>
        <time>2011-04-05T13:00:33Z</time>
      </trkpt>
      <trkpt lat="49.18794" lon="6.94823">
        <ele>336</ele>
        <time>2011-04-05T13:00:34Z</time>
      </trkpt>
      <trkpt lat="49.18793" lon="6.94824">
        <ele>335</ele>
        <time>2011-04-05T13:00:35Z</time>
      </trkpt>
      <trkpt lat="49.18792" lon="6.94825">
        <ele>335</ele>
        <time>2011-04-05T13:00:36Z</time>
      </trkpt>
      <trkpt lat="49.1879" lon="6.94825">
        <ele>335</ele>
        <time>2011-04-05T13:00:37Z</time>
      </trkpt>
      <trkpt lat="49.18789" lon="6.94826">
        <ele>335</ele>
        <time>2011-04-05T13:00:38Z</time>
      </trkpt>
      <trkpt lat="49.18787" lon="6.94827">
        <ele>335</ele>
        <time>2011-04-05T13:00:39Z</time>
      </trkpt>
      <trkpt lat="49.18786" lon="6.94828">
        <ele>335</ele>
        <time>2011-04-05T13:00:40Z</time>
      </trkpt>
      <trkpt lat="49.18784" lon="6.94829">
        <ele>334</ele>
        <time>2011-04-05T13:00:41Z</time>
      </trkpt>
      <trkpt lat="49.18783" lon="6.9483">
        <ele>334</ele>
        <time>2011-04-05T13:00:42Z</time>
      </trkpt>
      <trkpt lat="49.18782" lon="6.94831">
        <ele>334</ele>
        <time>2011-04-05T13:00:43Z</time>
      </trkpt>
      <trkpt lat="49.1878" lon="6.94832">
        <ele>334</ele>
        <time>2011-04-05T13:00:44Z</time>
      </trkpt>
      <trkpt lat="49.18779" lon="6.94833">
        <ele>333</ele>
        <time>2011-04-05T13:00:45Z</time>
      </trkpt>
      <trkpt lat="49.18778" lon="6.94834">
        <ele>333</ele>
        <time>2011-04-05T13:00:46Z</time>
      </trkpt>
      <trkpt lat="49.18776" lon="6.94835">
        <ele>333</ele>
        <time>2011-04-05T13:00:47Z</time>
      </trkpt>
      <trkpt lat="49.18775" lon="6.94836">
        <ele>333</ele>
        <time>2011-04-05T13:00:48Z</time>
      </trkpt>
      <trkpt lat="49.18774" lon="6.94837">
        <ele>332</ele>
        <time>2011-04-05T13:00:49Z</time>
      </trkpt>
      <trkpt lat="49.18773" lon="6.94838">
        <ele>332</ele>
        <time>2011-04-05T13:00:50Z</time>
      </trkpt>
      <trkpt lat="49.18772" lon="6.94838">
        <ele>332</ele>
        <time>2011-04-05T13:00:51Z</time>
      </trkpt>
      <trkpt lat="49.1877" lon="6.94841">
        <ele>332</ele>
        <time>2011-04-05T13:00:53Z</time>
      </trkpt>
      <trkpt lat="49.18768" lon="6.94843">
        <ele>332</ele>
        <time>2011-04-05T13:00:55Z</time>
      </trkpt>
      <trkpt lat="49.18768" lon="6.94845">
        <ele>332</ele>
        <time>2011-04-05T13:00:58Z</time>
      </trkpt>
      <trkpt lat="49.18766" lon="6.94844">
        <ele>332</ele>
        <time>2011-04-05T13:01:05Z</time>
      </trkpt>
      <trkpt lat="49.18764" lon="6.94844">
        <ele>332</ele>
        <time>2011-04-05T13:01:06Z</time>
      </trkpt>
      <trkpt lat="49.18761" lon="6.94844">
        <ele>332</ele>
        <time>2011-04-05T13:01:08Z</time>
      </trkpt>
      <trkpt lat="49.1876" lon="6.94845">
        <ele>332</ele>
        <time>2011-04-05T13:01:09Z</time>
      </trkpt>
      <trkpt lat="49.18758" lon="6.94846">
        <ele>332</ele>
        <time>2011-04-05T13:01:10Z</time>
      </trkpt>
      <trkpt lat="49.18757" lon="6.94846">
        <ele>332</ele>
        <time>2011-04-05T13:01:11Z</time>
      </trkpt>
      <trkpt lat="49.18755" lon="6.94846">
        <ele>332</ele>
        <time>2011-04-05T13:01:12Z</time>
      </trkpt>
      <trkpt lat="49.18754" lon="6.94846">
        <ele>331</ele>
        <time>2011-04-05T13:01:13Z</time>
      </trkpt>
      <trkpt lat="49.18753" lon="6.94847">
        <ele>331</ele>
        <time>2011-04-05T13:01:14Z</time>
      </trkpt>
      <trkpt lat="49.18751" lon="6.94848">
        <ele>331</ele>
        <time>2011-04-05T13:01:15Z</time>
      </trkpt>
      <trkpt lat="49.1875" lon="6.94849">
        <ele>331</ele>
        <time>2011-04-05T13:01:16Z</time>
      </trkpt>
      <trkpt lat="49.18749" lon="6.94849">
        <ele>330</ele>
        <time>2011-04-05T13:01:17Z</time>
      </trkpt>
      <trkpt lat="49.18747" lon="6.94852">
        <ele>330</ele>
        <time>2011-04-05T13:01:19Z</time>
      </trkpt>
      <trkpt lat="49.18745" lon="6.94854">
        <ele>329</ele>
        <time>2011-04-05T13:01:21Z</time>
      </trkpt>
      <trkpt lat="49.18743" lon="6.94857">
        <ele>328</ele>
        <time>2011-04-05T13:01:23Z</time>
      </trkpt>
      <trkpt lat="49.18741" lon="6.9486">
        <ele>328</ele>
        <time>2011-04-05T13:01:25Z</time>
      </trkpt>
      <trkpt lat="49.1874" lon="6.94862">
        <ele>327</ele>
        <time>2011-04-05T13:01:26Z</time>
      </trkpt>
      <trkpt lat="49.18739" lon="6.94865">
        <ele>327</ele>
        <time>2011-04-05T13:01:28Z</time>
      </trkpt>
      <trkpt lat="49.18738" lon="6.94867">
        <ele>326</ele>
        <time>2011-04-05T13:01:29Z</time>
      </trkpt>
      <trkpt lat="49.18738" lon="6.94869">
        <ele>326</ele>
        <time>2011-04-05T13:01:30Z</time>
      </trkpt>
      <trkpt lat="49.18737" lon="6.94871">
        <ele>326</ele>
        <time>2011-04-05T13:01:31Z</time>
      </trkpt>
      <trkpt lat="49.18737" lon="6.94873">
        <ele>326</ele>
        <time>2011-04-05T13:01:32Z</time>
      </trkpt>
      <trkpt lat="49.18736" lon="6.94874">
        <ele>326</ele>
        <time>2011-04-05T13:01:35Z</time>
      </trkpt>
      <trkpt lat="49.18734" lon="6.94875">
        <ele>326</ele>
        <time>2011-04-05T13:01:39Z</time>
      </trkpt>
      <trkpt lat="49.18732" lon="6.94877">
        <ele>326</ele>
        <time>2011-04-05T13:01:41Z</time>
      </trkpt>
      <trkpt lat="49.18731" lon="6.94878">
        <ele>326</ele>
        <time>2011-04-05T13:01:42Z</time>
      </trkpt>
      <trkpt lat="49.1873" lon="6.94879">
        <ele>326</ele>
        <time>2011-04-05T13:01:43Z</time>
      </trkpt>
      <trkpt lat="49.18728" lon="6.9488">
        <ele>326</ele>
        <time>2011-04-05T13:01:44Z</time>
      </trkpt>
      <trkpt lat="49.18726" lon="6.9488">
        <ele>326</ele>
        <time>2011-04-05T13:01:45Z</time>
      </trkpt>
      <trkpt lat="49.18725" lon="6.94881">
        <ele>326</ele>
        <time>2011-04-05T13:01:46Z</time>
      </trkpt>
      <trkpt lat="49.18724" lon="6.94881">
        <ele>326</ele>
        <time>2011-04-05T13:01:47Z</time>
      </trkpt>
      <trkpt lat="49.18723" lon="6.94881">
        <ele>326</ele>
        <time>2011-04-05T13:01:48Z</time>
      </trkpt>
      <trkpt lat="49.18721" lon="6.94881">
        <ele>326</ele>
        <time>2011-04-05T13:01:49Z</time>
      </trkpt>
      <trkpt lat="49.1872" lon="6.94882">
        <ele>326</ele>
        <time>2011-04-05T13:01:50Z</time>
      </trkpt>
      <trkpt lat="49.18718" lon="6.94883">
        <ele>326</ele>
        <time>2011-04-05T13:01:51Z</time>
      </trkpt>
      <trkpt lat="49.18717" lon="6.94884">
        <ele>326</ele>
        <time>2011-04-05T13:01:52Z</time>
      </trkpt>
      <trkpt lat="49.18716" lon="6.94885">
        <ele>326</ele>
        <time>2011-04-05T13:01:53Z</time>
      </trkpt>
      <trkpt lat="49.18714" lon="6.94886">
        <ele>326</ele>
        <time>2011-04-05T13:01:54Z</time>
      </trkpt>
      <trkpt lat="49.18713" lon="6.94886">
        <ele>326</ele>
        <time>2011-04-05T13:01:55Z</time>
      </trkpt>
      <trkpt lat="49.18711" lon="6.94887">
        <ele>326</ele>
        <time>2011-04-05T13:01:56Z</time>
      </trkpt>
      <trkpt lat="49.1871" lon="6.94888">
        <ele>326</ele>
        <time>2011-04-05T13:01:57Z</time>
      </trkpt>
      <trkpt lat="49.18709" lon="6.94889">
        <ele>326</ele>
        <time>2011-04-05T13:01:58Z</time>
      </trkpt>
      <trkpt lat="49.18708" lon="6.9489">
        <ele>326</ele>
        <time>2011-04-05T13:01:59Z</time>
      </trkpt>
      <trkpt lat="49.18706" lon="6.94891">
        <ele>326</ele>
        <time>2011-04-05T13:02:00Z</time>
      </trkpt>
      <trkpt lat="49.18705" lon="6.94892">
        <ele>326</ele>
        <time>2011-04-05T13:02:01Z</time>
      </trkpt>
      <trkpt lat="49.18704" lon="6.94893">
        <ele>326</ele>
        <time>2011-04-05T13:02:02Z</time>
      </trkpt>
      <trkpt lat="49.18703" lon="6.94894">
        <ele>326</ele>
        <time>2011-04-05T13:02:03Z</time>
      </trkpt>
      <trkpt lat="49.187" lon="6.94896">
        <ele>326</ele>
        <time>2011-04-05T13:02:05Z</time>
      </trkpt>
      <trkpt lat="49.18699" lon="6.94897">
        <ele>325</ele>
        <time>2011-04-05T13:02:06Z</time>
      </trkpt>
      <trkpt lat="49.18698" lon="6.94898">
        <ele>325</ele>
        <time>2011-04-05T13:02:07Z</time>
      </trkpt>
      <trkpt lat="49.18697" lon="6.94899">
        <ele>325</ele>
        <time>2011-04-05T13:02:08Z</time>
      </trkpt>
      <trkpt lat="49.18695" lon="6.94899">
        <ele>325</ele>
        <time>2011-04-05T13:02:09Z</time>
      </trkpt>
      <trkpt lat="49.18694" lon="6.949">
        <ele>325</ele>
        <time>2011-04-05T13:02:10Z</time>
      </trkpt>
      <trkpt lat="49.18693" lon="6.94901">
        <ele>325</ele>
        <time>2011-04-05T13:02:11Z</time>
      </trkpt>
      <trkpt lat="49.18692" lon="6.94901">
        <ele>325</ele>
        <time>2011-04-05T13:02:12Z</time>
      </trkpt>
      <trkpt lat="49.18691" lon="6.94902">
        <ele>325</ele>
        <time>2011-04-05T13:02:13Z</time>
      </trkpt>
      <trkpt lat="49.18689" lon="6.94902">
        <ele>325</ele>
        <time>2011-04-05T13:02:14Z</time>
      </trkpt>
      <trkpt lat="49.18688" lon="6.94903">
        <ele>325</ele>
        <time>2011-04-05T13:02:15Z</time>
      </trkpt>
      <trkpt lat="49.18687" lon="6.94904">
        <ele>325</ele>
        <time>2011-04-05T13:02:16Z</time>
      </trkpt>
      <trkpt lat="49.18686" lon="6.94904">
        <ele>325</ele>
        <time>2011-04-05T13:02:17Z</time>
      </trkpt>
      <trkpt lat="49.18684" lon="6.94905">
        <ele>325</ele>
        <time>2011-04-05T13:02:18Z</time>
      </trkpt>
      <trkpt lat="49.18683" lon="6.94906">
        <ele>325</ele>
        <time>2011-04-05T13:02:19Z</time>
      </trkpt>
      <trkpt lat="49.18681" lon="6.94907">
        <ele>325</ele>
        <time>2011-04-05T13:02:20Z</time>
      </trkpt>
      <trkpt lat="49.1868" lon="6.94908">
        <ele>324</ele>
        <time>2011-04-05T13:02:21Z</time>
      </trkpt>
      <trkpt lat="49.18679" lon="6.94909">
        <ele>324</ele>
        <time>2011-04-05T13:02:22Z</time>
      </trkpt>
      <trkpt lat="49.18677" lon="6.9491">
        <ele>324</ele>
        <time>2011-04-05T13:02:23Z</time>
      </trkpt>
      <trkpt lat="49.18676" lon="6.9491">
        <ele>324</ele>
        <time>2011-04-05T13:02:24Z</time>
      </trkpt>
      <trkpt lat="49.18675" lon="6.94911">
        <ele>323</ele>
        <time>2011-04-05T13:02:25Z</time>
      </trkpt>
      <trkpt lat="49.18673" lon="6.94911">
        <ele>323</ele>
        <time>2011-04-05T13:02:26Z</time>
      </trkpt>
      <trkpt lat="49.18672" lon="6.94912">
        <ele>322</ele>
        <time>2011-04-05T13:02:27Z</time>
      </trkpt>
      <trkpt lat="49.18671" lon="6.94913">
        <ele>322</ele>
        <time>2011-04-05T13:02:28Z</time>
      </trkpt>
      <trkpt lat="49.18669" lon="6.94913">
        <ele>322</ele>
        <time>2011-04-05T13:02:29Z</time>
      </trkpt>
      <trkpt lat="49.18668" lon="6.94914">
        <ele>321</ele>
        <time>2011-04-05T13:02:30Z</time>
      </trkpt>
      <trkpt lat="49.18666" lon="6.94914">
        <ele>321</ele>
        <time>2011-04-05T13:02:31Z</time>
      </trkpt>
      <trkpt lat="49.18665" lon="6.94915">
        <ele>321</ele>
        <time>2011-04-05T13:02:32Z</time>
      </trkpt>
      <trkpt lat="49.18663" lon="6.94916">
        <ele>321</ele>
        <time>2011-04-05T13:02:33Z</time>
      </trkpt>
      <trkpt lat="49.18662" lon="6.94917">
        <ele>321</ele>
        <time>2011-04-05T13:02:34Z</time>
      </trkpt>
      <trkpt lat="49.18661" lon="6.94918">
        <ele>321</ele>
        <time>2011-04-05T13:02:35Z</time>
      </trkpt>
      <trkpt lat="49.1866" lon="6.94919">
        <ele>321</ele>
        <time>2011-04-05T13:02:36Z</time>
      </trkpt>
      <trkpt lat="49.18658" lon="6.9492">
        <ele>321</ele>
        <time>2011-04-05T13:02:37Z</time>
      </trkpt>
      <trkpt lat="49.18657" lon="6.94922">
        <ele>321</ele>
        <time>2011-04-05T13:02:38Z</time>
      </trkpt>
      <trkpt lat="49.18656" lon="6.94922">
        <ele>321</ele>
        <time>2011-04-05T13:02:39Z</time>
      </trkpt>
      <trkpt lat="49.18654" lon="6.94923">
        <ele>321</ele>
        <time>2011-04-05T13:02:40Z</time>
      </trkpt>
      <trkpt lat="49.18653" lon="6.94924">
        <ele>321</ele>
        <time>2011-04-05T13:02:41Z</time>
      </trkpt>
      <trkpt lat="49.18652" lon="6.94925">
        <ele>321</ele>
        <time>2011-04-05T13:02:42Z</time>
      </trkpt>
      <trkpt lat="49.18649" lon="6.94928">
        <ele>321</ele>
        <time>2011-04-05T13:02:44Z</time>
      </trkpt>
      <trkpt lat="49.18648" lon="6.9493">
        <ele>321</ele>
        <time>2011-04-05T13:02:45Z</time>
      </trkpt>
      <trkpt lat="49.18647" lon="6.94931">
        <ele>321</ele>
        <time>2011-04-05T13:02:46Z</time>
      </trkpt>
      <trkpt lat="49.18646" lon="6.94933">
        <ele>321</ele>
        <time>2011-04-05T13:02:47Z</time>
      </trkpt>
      <trkpt lat="49.18644" lon="6.94934">
        <ele>321</ele>
        <time>2011-04-05T13:02:48Z</time>
      </trkpt>
      <trkpt lat="49.18643" lon="6.94935">
        <ele>321</ele>
        <time>2011-04-05T13:02:49Z</time>
      </trkpt>
      <trkpt lat="49.18642" lon="6.94937">
        <ele>321</ele>
        <time>2011-04-05T13:02:50Z</time>
      </trkpt>
      <trkpt lat="49.18641" lon="6.94938">
        <ele>321</ele>
        <time>2011-04-05T13:02:51Z</time>
      </trkpt>
      <trkpt lat="49.18639" lon="6.94939">
        <ele>321</ele>
        <time>2011-04-05T13:02:52Z</time>
      </trkpt>
      <trkpt lat="49.18638" lon="6.9494">
        <ele>321</ele>
        <time>2011-04-05T13:02:53Z</time>
      </trkpt>
      <trkpt lat="49.18637" lon="6.94941">
        <ele>321</ele>
        <time>2011-04-05T13:02:54Z</time>
      </trkpt>
      <trkpt lat="49.18635" lon="6.94942">
        <ele>321</ele>
        <time>2011-04-05T13:02:55Z</time>
      </trkpt>
      <trkpt lat="49.18634" lon="6.94942">
        <ele>321</ele>
        <time>2011-04-05T13:02:56Z</time>
      </trkpt>
      <trkpt lat="49.18633" lon="6.94943">
        <ele>321</ele>
        <time>2011-04-05T13:02:57Z</time>
      </trkpt>
      <trkpt lat="49.18632" lon="6.94944">
        <ele>320</ele>
        <time>2011-04-05T13:02:58Z</time>
      </trkpt>
      <trkpt lat="49.1863" lon="6.94944">
        <ele>320</ele>
        <time>2011-04-05T13:02:59Z</time>
      </trkpt>
      <trkpt lat="49.18629" lon="6.94945">
        <ele>320</ele>
        <time>2011-04-05T13:03:00Z</time>
      </trkpt>
      <trkpt lat="49.18628" lon="6.94946">
        <ele>320</ele>
        <time>2011-04-05T13:03:01Z</time>
      </trkpt>
      <trkpt lat="49.18626" lon="6.94947">
        <ele>320</ele>
        <time>2011-04-05T13:03:02Z</time>
      </trkpt>
      <trkpt lat="49.18625" lon="6.94948">
        <ele>320</ele>
        <time>2011-04-05T13:03:03Z</time>
      </trkpt>
      <trkpt lat="49.18623" lon="6.94949">
        <ele>320</ele>
        <time>2011-04-05T13:03:04Z</time>
      </trkpt>
      <trkpt lat="49.18622" lon="6.94949">
        <ele>320</ele>
        <time>2011-04-05T13:03:05Z</time>
      </trkpt>
      <trkpt lat="49.18621" lon="6.9495">
        <ele>320</ele>
        <time>2011-04-05T13:03:06Z</time>
      </trkpt>
      <trkpt lat="49.18619" lon="6.94951">
        <ele>320</ele>
        <time>2011-04-05T13:03:07Z</time>
      </trkpt>
      <trkpt lat="49.18618" lon="6.94952">
        <ele>320</ele>
        <time>2011-04-05T13:03:08Z</time>
      </trkpt>
      <trkpt lat="49.18616" lon="6.94953">
        <ele>320</ele>
        <time>2011-04-05T13:03:09Z</time>
      </trkpt>
      <trkpt lat="49.18615" lon="6.94954">
        <ele>320</ele>
        <time>2011-04-05T13:03:10Z</time>
      </trkpt>
      <trkpt lat="49.18614" lon="6.94955">
        <ele>320</ele>
        <time>2011-04-05T13:03:11Z</time>
      </trkpt>
      <trkpt lat="49.18612" lon="6.94956">
        <ele>319</ele>
        <time>2011-04-05T13:03:12Z</time>
      </trkpt>
      <trkpt lat="49.18611" lon="6.94957">
        <ele>319</ele>
        <time>2011-04-05T13:03:13Z</time>
      </trkpt>
      <trkpt lat="49.1861" lon="6.94959">
        <ele>319</ele>
        <time>2011-04-05T13:03:14Z</time>
      </trkpt>
      <trkpt lat="49.18608" lon="6.9496">
        <ele>319</ele>
        <time>2011-04-05T13:03:15Z</time>
      </trkpt>
      <trkpt lat="49.18607" lon="6.94961">
        <ele>319</ele>
        <time>2011-04-05T13:03:16Z</time>
      </trkpt>
      <trkpt lat="49.18606" lon="6.94962">
        <ele>319</ele>
        <time>2011-04-05T13:03:17Z</time>
      </trkpt>
      <trkpt lat="49.18604" lon="6.94963">
        <ele>319</ele>
        <time>2011-04-05T13:03:18Z</time>
      </trkpt>
      <trkpt lat="49.18603" lon="6.94964">
        <ele>319</ele>
        <time>2011-04-05T13:03:19Z</time>
      </trkpt>
      <trkpt lat="49.18602" lon="6.94965">
        <ele>319</ele>
        <time>2011-04-05T13:03:20Z</time>
      </trkpt>
      <trkpt lat="49.186" lon="6.94966">
        <ele>319</ele>
        <time>2011-04-05T13:03:21Z</time>
      </trkpt>
      <trkpt lat="49.18599" lon="6.94968">
        <ele>319</ele>
        <time>2011-04-05T13:03:22Z</time>
      </trkpt>
      <trkpt lat="49.18598" lon="6.94968">
        <ele>319</ele>
        <time>2011-04-05T13:03:23Z</time>
      </trkpt>
      <trkpt lat="49.18596" lon="6.9497">
        <ele>319</ele>
        <time>2011-04-05T13:03:24Z</time>
      </trkpt>
      <trkpt lat="49.18595" lon="6.94971">
        <ele>319</ele>
        <time>2011-04-05T13:03:25Z</time>
      </trkpt>
      <trkpt lat="49.18594" lon="6.94973">
        <ele>319</ele>
        <time>2011-04-05T13:03:26Z</time>
      </trkpt>
      <trkpt lat="49.18592" lon="6.94974">
        <ele>319</ele>
        <time>2011-04-05T13:03:27Z</time>
      </trkpt>
      <trkpt lat="49.18591" lon="6.94975">
        <ele>319</ele>
        <time>2011-04-05T13:03:28Z</time>
      </trkpt>
      <trkpt lat="49.1859" lon="6.94976">
        <ele>319</ele>
        <time>2011-04-05T13:03:29Z</time>
      </trkpt>
      <trkpt lat="49.18588" lon="6.94977">
        <ele>319</ele>
        <time>2011-04-05T13:03:30Z</time>
      </trkpt>
      <trkpt lat="49.18587" lon="6.94978">
        <ele>319</ele>
        <time>2011-04-05T13:03:31Z</time>
      </trkpt>
      <trkpt lat="49.18586" lon="6.9498">
        <ele>319</ele>
        <time>2011-04-05T13:03:32Z</time>
      </trkpt>
      <trkpt lat="49.18585" lon="6.94981">
        <ele>319</ele>
        <time>2011-04-05T13:03:33Z</time>
      </trkpt>
      <trkpt lat="49.18583" lon="6.94982">
        <ele>319</ele>
        <time>2011-04-05T13:03:34Z</time>
      </trkpt>
      <trkpt lat="49.18582" lon="6.94983">
        <ele>319</ele>
        <time>2011-04-05T13:03:35Z</time>
      </trkpt>
      <trkpt lat="49.18581" lon="6.94985">
        <ele>319</ele>
        <time>2011-04-05T13:03:36Z</time>
      </trkpt>
      <trkpt lat="49.18579" lon="6.94986">
        <ele>319</ele>
        <time>2011-04-05T13:03:37Z</time>
      </trkpt>
      <trkpt lat="49.18578" lon="6.94987">
        <ele>319</ele>
        <time>2011-04-05T13:03:38Z</time>
      </trkpt>
      <trkpt lat="49.18576" lon="6.94988">
        <ele>319</ele>
        <time>2011-04-05T13:03:39Z</time>
      </trkpt>
      <trkpt lat="49.18575" lon="6.94989">
        <ele>319</ele>
        <time>2011-04-05T13:03:40Z</time>
      </trkpt>
      <trkpt lat="49.18573" lon="6.94991">
        <ele>319</ele>
        <time>2011-04-05T13:03:41Z</time>
      </trkpt>
      <trkpt lat="49.18572" lon="6.94992">
        <ele>319</ele>
        <time>2011-04-05T13:03:42Z</time>
      </trkpt>
      <trkpt lat="49.18571" lon="6.94994">
        <ele>319</ele>
        <time>2011-04-05T13:03:43Z</time>
      </trkpt>
      <trkpt lat="49.1857" lon="6.94995">
        <ele>319</ele>
        <time>2011-04-05T13:03:44Z</time>
      </trkpt>
      <trkpt lat="49.18568" lon="6.94997">
        <ele>319</ele>
        <time>2011-04-05T13:03:45Z</time>
      </trkpt>
      <trkpt lat="49.18567" lon="6.94998">
        <ele>319</ele>
        <time>2011-04-05T13:03:46Z</time>
      </trkpt>
      <trkpt lat="49.18565" lon="6.94999">
        <ele>319</ele>
        <time>2011-04-05T13:03:47Z</time>
      </trkpt>
      <trkpt lat="49.18564" lon="6.95">
        <ele>319</ele>
        <time>2011-04-05T13:03:48Z</time>
      </trkpt>
      <trkpt lat="49.18563" lon="6.95001">
        <ele>319</ele>
        <time>2011-04-05T13:03:49Z</time>
      </trkpt>
      <trkpt lat="49.18562" lon="6.95003">
        <ele>319</ele>
        <time>2011-04-05T13:03:50Z</time>
      </trkpt>
      <trkpt lat="49.1856" lon="6.95004">
        <ele>319</ele>
        <time>2011-04-05T13:03:51Z</time>
      </trkpt>
      <trkpt lat="49.18559" lon="6.95005">
        <ele>319</ele>
        <time>2011-04-05T13:03:52Z</time>
      </trkpt>
      <trkpt lat="49.18558" lon="6.95006">
        <ele>319</ele>
        <time>2011-04-05T13:03:53Z</time>
      </trkpt>
      <trkpt lat="49.18556" lon="6.95008">
        <ele>319</ele>
        <time>2011-04-05T13:03:54Z</time>
      </trkpt>
      <trkpt lat="49.18555" lon="6.95009">
        <ele>319</ele>
        <time>2011-04-05T13:03:55Z</time>
      </trkpt>
      <trkpt lat="49.18554" lon="6.9501">
        <ele>319</ele>
        <time>2011-04-05T13:03:56Z</time>
      </trkpt>
      <trkpt lat="49.18552" lon="6.95012">
        <ele>319</ele>
        <time>2011-04-05T13:03:57Z</time>
      </trkpt>
      <trkpt lat="49.1855" lon="6.95013">
        <ele>318</ele>
        <time>2011-04-05T13:03:58Z</time>
      </trkpt>
      <trkpt lat="49.18549" lon="6.95015">
        <ele>318</ele>
        <time>2011-04-05T13:03:59Z</time>
      </trkpt>
      <trkpt lat="49.18547" lon="6.95016">
        <ele>318</ele>
        <time>2011-04-05T13:04:00Z</time>
      </trkpt>
      <trkpt lat="49.18546" lon="6.95018">
        <ele>318</ele>
        <time>2011-04-05T13:04:01Z</time>
      </trkpt>
      <trkpt lat="49.18544" lon="6.9502">
        <ele>318</ele>
        <time>2011-04-05T13:04:02Z</time>
      </trkpt>
      <trkpt lat="49.18543" lon="6.95021">
        <ele>318</ele>
        <time>2011-04-05T13:04:03Z</time>
      </trkpt>
      <trkpt lat="49.18542" lon="6.95022">
        <ele>318</ele>
        <time>2011-04-05T13:04:04Z</time>
      </trkpt>
      <trkpt lat="49.1854" lon="6.95023">
        <ele>318</ele>
        <time>2011-04-05T13:04:05Z</time>
      </trkpt>
      <trkpt lat="49.18539" lon="6.95024">
        <ele>318</ele>
        <time>2011-04-05T13:04:06Z</time>
      </trkpt>
      <trkpt lat="49.18538" lon="6.95026">
        <ele>318</ele>
        <time>2011-04-05T13:04:07Z</time>
      </trkpt>
      <trkpt lat="49.18536" lon="6.95026">
        <ele>318</ele>
        <time>2011-04-05T13:04:08Z</time>
      </trkpt>
      <trkpt lat="49.18535" lon="6.95027">
        <ele>318</ele>
        <time>2011-04-05T13:04:09Z</time>
      </trkpt>
      <trkpt lat="49.18533" lon="6.95028">
        <ele>318</ele>
        <time>2011-04-05T13:04:10Z</time>
      </trkpt>
      <trkpt lat="49.18532" lon="6.95029">
        <ele>318</ele>
        <time>2011-04-05T13:04:11Z</time>
      </trkpt>
      <trkpt lat="49.1853" lon="6.95031">
        <ele>318</ele>
        <time>2011-04-05T13:04:13Z</time>
      </trkpt>
      <trkpt lat="49.18528" lon="6.95032">
        <ele>318</ele>
        <time>2011-04-05T13:04:14Z</time>
      </trkpt>
      <trkpt lat="49.18527" lon="6.95033">
        <ele>318</ele>
        <time>2011-04-05T13:04:15Z</time>
      </trkpt>
      <trkpt lat="49.18525" lon="6.95034">
        <ele>318</ele>
        <time>2011-04-05T13:04:16Z</time>
      </trkpt>
      <trkpt lat="49.18524" lon="6.95035">
        <ele>318</ele>
        <time>2011-04-05T13:04:17Z</time>
      </trkpt>
      <trkpt lat="49.18523" lon="6.95036">
        <ele>318</ele>
        <time>2011-04-05T13:04:18Z</time>
      </trkpt>
      <trkpt lat="49.18521" lon="6.95037">
        <ele>318</ele>
        <time>2011-04-05T13:04:19Z</time>
      </trkpt>
      <trkpt lat="49.1852" lon="6.95037">
        <ele>318</ele>
        <time>2011-04-05T13:04:20Z</time>
      </trkpt>
      <trkpt lat="49.18518" lon="6.95038">
        <ele>318</ele>
        <time>2011-04-05T13:04:21Z</time>
      </trkpt>
      <trkpt lat="49.18517" lon="6.95039">
        <ele>318</ele>
        <time>2011-04-05T13:04:22Z</time>
      </trkpt>
      <trkpt lat="49.18515" lon="6.95039">
        <ele>318</ele>
        <time>2011-04-05T13:04:23Z</time>
      </trkpt>
      <trkpt lat="49.18514" lon="6.9504">
        <ele>318</ele>
        <time>2011-04-05T13:04:24Z</time>
      </trkpt>
      <trkpt lat="49.18512" lon="6.95041">
        <ele>318</ele>
        <time>2011-04-05T13:04:25Z</time>
      </trkpt>
      <trkpt lat="49.18511" lon="6.95041">
        <ele>318</ele>
        <time>2011-04-05T13:04:26Z</time>
      </trkpt>
      <trkpt lat="49.1851" lon="6.95043">
        <ele>318</ele>
        <time>2011-04-05T13:04:27Z</time>
      </trkpt>
      <trkpt lat="49.18508" lon="6.95044">
        <ele>318</ele>
        <time>2011-04-05T13:04:28Z</time>
      </trkpt>
      <trkpt lat="49.18506" lon="6.95046">
        <ele>318</ele>
        <time>2011-04-05T13:04:29Z</time>
      </trkpt>
      <trkpt lat="49.18505" lon="6.95047">
        <ele>318</ele>
        <time>2011-04-05T13:04:30Z</time>
      </trkpt>
      <trkpt lat="49.18504" lon="6.95048">
        <ele>318</ele>
        <time>2011-04-05T13:04:31Z</time>
      </trkpt>
      <trkpt lat="49.18502" lon="6.95049">
        <ele>318</ele>
        <time>2011-04-05T13:04:32Z</time>
      </trkpt>
      <trkpt lat="49.18501" lon="6.95049">
        <ele>318</ele>
        <time>2011-04-05T13:04:33Z</time>
      </trkpt>
      <trkpt lat="49.18499" lon="6.9505">
        <ele>318</ele>
        <time>2011-04-05T13:04:34Z</time>
      </trkpt>
      <trkpt lat="49.18498" lon="6.95051">
        <ele>318</ele>
        <time>2011-04-05T13:04:35Z</time>
      </trkpt>
      <trkpt lat="49.18496" lon="6.95052">
        <ele>317</ele>
        <time>2011-04-05T13:04:36Z</time>
      </trkpt>
      <trkpt lat="49.18495" lon="6.95053">
        <ele>317</ele>
        <time>2011-04-05T13:04:37Z</time>
      </trkpt>
      <trkpt lat="49.18493" lon="6.95055">
        <ele>317</ele>
        <time>2011-04-05T13:04:38Z</time>
      </trkpt>
      <trkpt lat="49.18491" lon="6.95057">
        <ele>317</ele>
        <time>2011-04-05T13:04:39Z</time>
      </trkpt>
      <trkpt lat="49.1849" lon="6.95058">
        <ele>317</ele>
        <time>2011-04-05T13:04:40Z</time>
      </trkpt>
      <trkpt lat="49.18488" lon="6.95059">
        <ele>317</ele>
        <time>2011-04-05T13:04:41Z</time>
      </trkpt>
      <trkpt lat="49.18487" lon="6.95059">
        <ele>317</ele>
        <time>2011-04-05T13:04:42Z</time>
      </trkpt>
      <trkpt lat="49.18486" lon="6.9506">
        <ele>317</ele>
        <time>2011-04-05T13:04:43Z</time>
      </trkpt>
      <trkpt lat="49.18484" lon="6.9506">
        <ele>317</ele>
        <time>2011-04-05T13:04:44Z</time>
      </trkpt>
      <trkpt lat="49.18483" lon="6.95061">
        <ele>317</ele>
        <time>2011-04-05T13:04:45Z</time>
      </trkpt>
      <trkpt lat="49.18481" lon="6.95062">
        <ele>317</ele>
        <time>2011-04-05T13:04:46Z</time>
      </trkpt>
      <trkpt lat="49.1848" lon="6.95063">
        <ele>317</ele>
        <time>2011-04-05T13:04:47Z</time>
      </trkpt>
      <trkpt lat="49.18479" lon="6.95064">
        <ele>317</ele>
        <time>2011-04-05T13:04:48Z</time>
      </trkpt>
      <trkpt lat="49.18478" lon="6.95065">
        <ele>317</ele>
        <time>2011-04-05T13:04:49Z</time>
      </trkpt>
      <trkpt lat="49.18476" lon="6.95066">
        <ele>317</ele>
        <time>2011-04-05T13:04:50Z</time>
      </trkpt>
      <trkpt lat="49.18475" lon="6.95066">
        <ele>317</ele>
        <time>2011-04-05T13:04:51Z</time>
      </trkpt>
      <trkpt lat="49.18473" lon="6.95068">
        <ele>317</ele>
        <time>2011-04-05T13:04:52Z</time>
      </trkpt>
      <trkpt lat="49.18472" lon="6.95069">
        <ele>317</ele>
        <time>2011-04-05T13:04:53Z</time>
      </trkpt>
      <trkpt lat="49.1847" lon="6.9507">
        <ele>317</ele>
        <time>2011-04-05T13:04:54Z</time>
      </trkpt>
      <trkpt lat="49.18468" lon="6.95071">
        <ele>317</ele>
        <time>2011-04-05T13:04:55Z</time>
      </trkpt>
      <trkpt lat="49.18467" lon="6.95072">
        <ele>317</ele>
        <time>2011-04-05T13:04:56Z</time>
      </trkpt>
      <trkpt lat="49.18465" lon="6.95072">
        <ele>317</ele>
        <time>2011-04-05T13:04:57Z</time>
      </trkpt>
      <trkpt lat="49.18464" lon="6.95073">
        <ele>317</ele>
        <time>2011-04-05T13:04:58Z</time>
      </trkpt>
      <trkpt lat="49.18462" lon="6.95074">
        <ele>317</ele>
        <time>2011-04-05T13:04:59Z</time>
      </trkpt>
      <trkpt lat="49.18461" lon="6.95075">
        <ele>317</ele>
        <time>2011-04-05T13:05:00Z</time>
      </trkpt>
      <trkpt lat="49.18459" lon="6.95075">
        <ele>317</ele>
        <time>2011-04-05T13:05:01Z</time>
      </trkpt>
      <trkpt lat="49.18458" lon="6.95076">
        <ele>317</ele>
        <time>2011-04-05T13:05:02Z</time>
      </trkpt>
      <trkpt lat="49.18457" lon="6.95077">
        <ele>317</ele>
        <time>2011-04-05T13:05:03Z</time>
      </trkpt>
      <trkpt lat="49.18456" lon="6.95078">
        <ele>317</ele>
        <time>2011-04-05T13:05:04Z</time>
      </trkpt>
      <trkpt lat="49.18454" lon="6.95079">
        <ele>317</ele>
        <time>2011-04-05T13:05:05Z</time>
      </trkpt>
      <trkpt lat="49.18453" lon="6.9508">
        <ele>317</ele>
        <time>2011-04-05T13:05:06Z</time>
      </trkpt>
      <trkpt lat="49.18451" lon="6.95081">
        <ele>317</ele>
        <time>2011-04-05T13:05:07Z</time>
      </trkpt>
      <trkpt lat="49.1845" lon="6.95081">
        <ele>317</ele>
        <time>2011-04-05T13:05:08Z</time>
      </trkpt>
      <trkpt lat="49.18449" lon="6.95082">
        <ele>316</ele>
        <time>2011-04-05T13:05:09Z</time>
      </trkpt>
      <trkpt lat="49.18447" lon="6.95082">
        <ele>316</ele>
        <time>2011-04-05T13:05:10Z</time>
      </trkpt>
      <trkpt lat="49.18446" lon="6.95083">
        <ele>316</ele>
        <time>2011-04-05T13:05:11Z</time>
      </trkpt>
      <trkpt lat="49.18444" lon="6.95084">
        <ele>316</ele>
        <time>2011-04-05T13:05:12Z</time>
      </trkpt>
      <trkpt lat="49.18443" lon="6.95084">
        <ele>316</ele>
        <time>2011-04-05T13:05:13Z</time>
      </trkpt>
      <trkpt lat="49.18441" lon="6.95085">
        <ele>316</ele>
        <time>2011-04-05T13:05:14Z</time>
      </trkpt>
      <trkpt lat="49.1844" lon="6.95086">
        <ele>316</ele>
        <time>2011-04-05T13:05:15Z</time>
      </trkpt>
      <trkpt lat="49.18438" lon="6.95086">
        <ele>316</ele>
        <time>2011-04-05T13:05:16Z</time>
      </trkpt>
      <trkpt lat="49.18436" lon="6.95088">
        <ele>316</ele>
        <time>2011-04-05T13:05:17Z</time>
      </trkpt>
      <trkpt lat="49.18434" lon="6.9509">
        <ele>316</ele>
        <time>2011-04-05T13:05:18Z</time>
      </trkpt>
      <trkpt lat="49.18433" lon="6.9509">
        <ele>316</ele>
        <time>2011-04-05T13:05:19Z</time>
      </trkpt>
      <trkpt lat="49.18431" lon="6.9509">
        <ele>316</ele>
        <time>2011-04-05T13:05:20Z</time>
      </trkpt>
      <trkpt lat="49.1843" lon="6.9509">
        <ele>316</ele>
        <time>2011-04-05T13:05:21Z</time>
      </trkpt>
      <trkpt lat="49.18428" lon="6.9509">
        <ele>316</ele>
        <time>2011-04-05T13:05:22Z</time>
      </trkpt>
      <trkpt lat="49.18427" lon="6.9509">
        <ele>316</ele>
        <time>2011-04-05T13:05:23Z</time>
      </trkpt>
      <trkpt lat="49.18425" lon="6.95092">
        <ele>316</ele>
        <time>2011-04-05T13:05:24Z</time>
      </trkpt>
      <trkpt lat="49.18423" lon="6.95092">
        <ele>316</ele>
        <time>2011-04-05T13:05:25Z</time>
      </trkpt>
      <trkpt lat="49.18422" lon="6.95092">
        <ele>316</ele>
        <time>2011-04-05T13:05:26Z</time>
      </trkpt>
      <trkpt lat="49.1842" lon="6.95093">
        <ele>316</ele>
        <time>2011-04-05T13:05:27Z</time>
      </trkpt>
      <trkpt lat="49.18419" lon="6.95093">
        <ele>316</ele>
        <time>2011-04-05T13:05:28Z</time>
      </trkpt>
      <trkpt lat="49.18418" lon="6.95094">
        <ele>316</ele>
        <time>2011-04-05T13:05:29Z</time>
      </trkpt>
      <trkpt lat="49.18417" lon="6.95095">
        <ele>316</ele>
        <time>2011-04-05T13:05:30Z</time>
      </trkpt>
      <trkpt lat="49.18415" lon="6.95098">
        <ele>316</ele>
        <time>2011-04-05T13:05:32Z</time>
      </trkpt>
      <trkpt lat="49.18414" lon="6.951">
        <ele>316</ele>
        <time>2011-04-05T13:05:33Z</time>
      </trkpt>
      <trkpt lat="49.18413" lon="6.95102">
        <ele>316</ele>
        <time>2011-04-05T13:05:34Z</time>
      </trkpt>
      <trkpt lat="49.18412" lon="6.95104">
        <ele>316</ele>
        <time>2011-04-05T13:05:35Z</time>
      </trkpt>
      <trkpt lat="49.18412" lon="6.95106">
        <ele>316</ele>
        <time>2011-04-05T13:05:36Z</time>
      </trkpt>
      <trkpt lat="49.18412" lon="6.95108">
        <ele>316</ele>
        <time>2011-04-05T13:05:37Z</time>
      </trkpt>
      <trkpt lat="49.18412" lon="6.9511">
        <ele>316</ele>
        <time>2011-04-05T13:05:38Z</time>
      </trkpt>
      <trkpt lat="49.18412" lon="6.95112">
        <ele>315</ele>
        <time>2011-04-05T13:05:39Z</time>
      </trkpt>
      <trkpt lat="49.18413" lon="6.95114">
        <ele>315</ele>
        <time>2011-04-05T13:05:40Z</time>
      </trkpt>
      <trkpt lat="49.18413" lon="6.95117">
        <ele>315</ele>
        <time>2011-04-05T13:05:41Z</time>
      </trkpt>
      <trkpt lat="49.18413" lon="6.95119">
        <ele>314</ele>
        <time>2011-04-05T13:05:42Z</time>
      </trkpt>
      <trkpt lat="49.18413" lon="6.95122">
        <ele>314</ele>
        <time>2011-04-05T13:05:43Z</time>
      </trkpt>
      <trkpt lat="49.18414" lon="6.95124">
        <ele>314</ele>
        <time>2011-04-05T13:05:44Z</time>
      </trkpt>
      <trkpt lat="49.18414" lon="6.95126">
        <ele>314</ele>
        <time>2011-04-05T13:05:45Z</time>
      </trkpt>
      <trkpt lat="49.18415" lon="6.95128">
        <ele>314</ele>
        <time>2011-04-05T13:05:46Z</time>
      </trkpt>
      <trkpt lat="49.18415" lon="6.9513">
        <ele>314</ele>
        <time>2011-04-05T13:05:47Z</time>
      </trkpt>
      <trkpt lat="49.18415" lon="6.95132">
        <ele>314</ele>
        <time>2011-04-05T13:05:48Z</time>
      </trkpt>
      <trkpt lat="49.18416" lon="6.95134">
        <ele>313</ele>
        <time>2011-04-05T13:05:49Z</time>
      </trkpt>
      <trkpt lat="49.18416" lon="6.95137">
        <ele>313</ele>
        <time>2011-04-05T13:05:50Z</time>
      </trkpt>
      <trkpt lat="49.18416" lon="6.95139">
        <ele>313</ele>
        <time>2011-04-05T13:05:51Z</time>
      </trkpt>
      <trkpt lat="49.18416" lon="6.95142">
        <ele>313</ele>
        <time>2011-04-05T13:05:52Z</time>
      </trkpt>
      <trkpt lat="49.18416" lon="6.95144">
        <ele>313</ele>
        <time>2011-04-05T13:05:53Z</time>
      </trkpt>
      <trkpt lat="49.18417" lon="6.95147">
        <ele>313</ele>
        <time>2011-04-05T13:05:54Z</time>
      </trkpt>
      <trkpt lat="49.18417" lon="6.95149">
        <ele>313</ele>
        <time>2011-04-05T13:05:55Z</time>
      </trkpt>
      <trkpt lat="49.18417" lon="6.95151">
        <ele>313</ele>
        <time>2011-04-05T13:05:56Z</time>
      </trkpt>
      <trkpt lat="49.18417" lon="6.95153">
        <ele>312</ele>
        <time>2011-04-05T13:05:57Z</time>
      </trkpt>
      <trkpt lat="49.18418" lon="6.95155">
        <ele>312</ele>
        <time>2011-04-05T13:05:58Z</time>
      </trkpt>
      <trkpt lat="49.18418" lon="6.95157">
        <ele>312</ele>
        <time>2011-04-05T13:05:59Z</time>
      </trkpt>
      <trkpt lat="49.18419" lon="6.95159">
        <ele>312</ele>
        <time>2011-04-05T13:06:00Z</time>
      </trkpt>
      <trkpt lat="49.18419" lon="6.95161">
        <ele>311</ele>
        <time>2011-04-05T13:06:01Z</time>
      </trkpt>
      <trkpt lat="49.1842" lon="6.95163">
        <ele>311</ele>
        <time>2011-04-05T13:06:02Z</time>
      </trkpt>
      <trkpt lat="49.1842" lon="6.95165">
        <ele>311</ele>
        <time>2011-04-05T13:06:03Z</time>
      </trkpt>
      <trkpt lat="49.1842" lon="6.95167">
        <ele>310</ele>
        <time>2011-04-05T13:06:04Z</time>
      </trkpt>
      <trkpt lat="49.18421" lon="6.95169">
        <ele>310</ele>
        <time>2011-04-05T13:06:05Z</time>
      </trkpt>
      <trkpt lat="49.18422" lon="6.95171">
        <ele>310</ele>
        <time>2011-04-05T13:06:06Z</time>
      </trkpt>
      <trkpt lat="49.18422" lon="6.95174">
        <ele>309</ele>
        <time>2011-04-05T13:06:07Z</time>
      </trkpt>
      <trkpt lat="49.18423" lon="6.95175">
        <ele>309</ele>
        <time>2011-04-05T13:06:08Z</time>
      </trkpt>
      <trkpt lat="49.18424" lon="6.95177">
        <ele>308</ele>
        <time>2011-04-05T13:06:09Z</time>
      </trkpt>
      <trkpt lat="49.18425" lon="6.95179">
        <ele>308</ele>
        <time>2011-04-05T13:06:10Z</time>
      </trkpt>
      <trkpt lat="49.18425" lon="6.95181">
        <ele>307</ele>
        <time>2011-04-05T13:06:11Z</time>
      </trkpt>
      <trkpt lat="49.18426" lon="6.95183">
        <ele>307</ele>
        <time>2011-04-05T13:06:12Z</time>
      </trkpt>
      <trkpt lat="49.18426" lon="6.95186">
        <ele>306</ele>
        <time>2011-04-05T13:06:13Z</time>
      </trkpt>
      <trkpt lat="49.18426" lon="6.95188">
        <ele>306</ele>
        <time>2011-04-05T13:06:14Z</time>
      </trkpt>
      <trkpt lat="49.18427" lon="6.9519">
        <ele>306</ele>
        <time>2011-04-05T13:06:15Z</time>
      </trkpt>
      <trkpt lat="49.18427" lon="6.95193">
        <ele>306</ele>
        <time>2011-04-05T13:06:16Z</time>
      </trkpt>
      <trkpt lat="49.18427" lon="6.95196">
        <ele>306</ele>
        <time>2011-04-05T13:06:17Z</time>
      </trkpt>
      <trkpt lat="49.18427" lon="6.95199">
        <ele>306</ele>
        <time>2011-04-05T13:06:18Z</time>
      </trkpt>
      <trkpt lat="49.18428" lon="6.95201">
        <ele>306</ele>
        <time>2011-04-05T13:06:19Z</time>
      </trkpt>
      <trkpt lat="49.18428" lon="6.95204">
        <ele>306</ele>
        <time>2011-04-05T13:06:20Z</time>
      </trkpt>
      <trkpt lat="49.18428" lon="6.95207">
        <ele>306</ele>
        <time>2011-04-05T13:06:21Z</time>
      </trkpt>
      <trkpt lat="49.18428" lon="6.95209">
        <ele>306</ele>
        <time>2011-04-05T13:06:22Z</time>
      </trkpt>
      <trkpt lat="49.18428" lon="6.95212">
        <ele>306</ele>
        <time>2011-04-05T13:06:23Z</time>
      </trkpt>
      <trkpt lat="49.18429" lon="6.95215">
        <ele>306</ele>
        <time>2011-04-05T13:06:24Z</time>
      </trkpt>
      <trkpt lat="49.18429" lon="6.95217">
        <ele>306</ele>
        <time>2011-04-05T13:06:25Z</time>
      </trkpt>
      <trkpt lat="49.18429" lon="6.9522">
        <ele>306</ele>
        <time>2011-04-05T13:06:26Z</time>
      </trkpt>
      <trkpt lat="49.18429" lon="6.95223">
        <ele>306</ele>
        <time>2011-04-05T13:06:27Z</time>
      </trkpt>
      <trkpt lat="49.18429" lon="6.95225">
        <ele>306</ele>
        <time>2011-04-05T13:06:28Z</time>
      </trkpt>
      <trkpt lat="49.18429" lon="6.95228">
        <ele>306</ele>
        <time>2011-04-05T13:06:29Z</time>
      </trkpt>
      <trkpt lat="49.1843" lon="6.9523">
        <ele>306</ele>
        <time>2011-04-05T13:06:30Z</time>
      </trkpt>
      <trkpt lat="49.1843" lon="6.95232">
        <ele>306</ele>
        <time>2011-04-05T13:06:31Z</time>
      </trkpt>
      <trkpt lat="49.1843" lon="6.95234">
        <ele>306</ele>
        <time>2011-04-05T13:06:32Z</time>
      </trkpt>
      <trkpt lat="49.1843" lon="6.95236">
        <ele>306</ele>
        <time>2011-04-05T13:06:33Z</time>
      </trkpt>
      <trkpt lat="49.18431" lon="6.95238">
        <ele>306</ele>
        <time>2011-04-05T13:06:34Z</time>
      </trkpt>
      <trkpt lat="49.18431" lon="6.9524">
        <ele>306</ele>
        <time>2011-04-05T13:06:35Z</time>
      </trkpt>
      <trkpt lat="49.18431" lon="6.95242">
        <ele>306</ele>
        <time>2011-04-05T13:06:36Z</time>
      </trkpt>
      <trkpt lat="49.18431" lon="6.95244">
        <ele>306</ele>
        <time>2011-04-05T13:06:37Z</time>
      </trkpt>
      <trkpt lat="49.1843" lon="6.95247">
        <ele>306</ele>
        <time>2011-04-05T13:06:38Z</time>
      </trkpt>
      <trkpt lat="49.1843" lon="6.9525">
        <ele>306</ele>
        <time>2011-04-05T13:06:39Z</time>
      </trkpt>
      <trkpt lat="49.1843" lon="6.95252">
        <ele>306</ele>
        <time>2011-04-05T13:06:40Z</time>
      </trkpt>
      <trkpt lat="49.18429" lon="6.95254">
        <ele>306</ele>
        <time>2011-04-05T13:06:41Z</time>
      </trkpt>
      <trkpt lat="49.18428" lon="6.95257">
        <ele>306</ele>
        <time>2011-04-05T13:06:42Z</time>
      </trkpt>
      <trkpt lat="49.18428" lon="6.95259">
        <ele>306</ele>
        <time>2011-04-05T13:06:43Z</time>
      </trkpt>
      <trkpt lat="49.18427" lon="6.95261">
        <ele>306</ele>
        <time>2011-04-05T13:06:44Z</time>
      </trkpt>
      <trkpt lat="49.18427" lon="6.95263">
        <ele>306</ele>
        <time>2011-04-05T13:06:45Z</time>
      </trkpt>
      <trkpt lat="49.18427" lon="6.95265">
        <ele>306</ele>
        <time>2011-04-05T13:06:46Z</time>
      </trkpt>
      <trkpt lat="49.18426" lon="6.95267">
        <ele>306</ele>
        <time>2011-04-05T13:06:47Z</time>
      </trkpt>
      <trkpt lat="49.18426" lon="6.95269">
        <ele>306</ele>
        <time>2011-04-05T13:06:48Z</time>
      </trkpt>
      <trkpt lat="49.18425" lon="6.95272">
        <ele>306</ele>
        <time>2011-04-05T13:06:50Z</time>
      </trkpt>
      <trkpt lat="49.18425" lon="6.95274">
        <ele>306</ele>
        <time>2011-04-05T13:06:51Z</time>
      </trkpt>
      <trkpt lat="49.18425" lon="6.95276">
        <ele>306</ele>
        <time>2011-04-05T13:06:52Z</time>
      </trkpt>
      <trkpt lat="49.18424" lon="6.95278">
        <ele>306</ele>
        <time>2011-04-05T13:06:53Z</time>
      </trkpt>
      <trkpt lat="49.18423" lon="6.9528">
        <ele>306</ele>
        <time>2011-04-05T13:06:54Z</time>
      </trkpt>
      <trkpt lat="49.18422" lon="6.95282">
        <ele>306</ele>
        <time>2011-04-05T13:06:55Z</time>
      </trkpt>
      <trkpt lat="49.18421" lon="6.95285">
        <ele>306</ele>
        <time>2011-04-05T13:06:57Z</time>
      </trkpt>
      <trkpt lat="49.1842" lon="6.95287">
        <ele>306</ele>
        <time>2011-04-05T13:06:58Z</time>
      </trkpt>
      <trkpt lat="49.1842" lon="6.95288">
        <ele>306</ele>
        <time>2011-04-05T13:06:59Z</time>
      </trkpt>
      <trkpt lat="49.18419" lon="6.9529">
        <ele>306</ele>
        <time>2011-04-05T13:07:00Z</time>
      </trkpt>
      <trkpt lat="49.18419" lon="6.95293">
        <ele>306</ele>
        <time>2011-04-05T13:07:02Z</time>
      </trkpt>
      <trkpt lat="49.18418" lon="6.95294">
        <ele>306</ele>
        <time>2011-04-05T13:07:08Z</time>
      </trkpt>
      <trkpt lat="49.18417" lon="6.95296">
        <ele>306</ele>
        <time>2011-04-05T13:07:10Z</time>
      </trkpt>
      <trkpt lat="49.18417" lon="6.95298">
        <ele>306</ele>
        <time>2011-04-05T13:07:21Z</time>
      </trkpt>
      <trkpt lat="49.18417" lon="6.953">
        <ele>306</ele>
        <time>2011-04-05T13:07:23Z</time>
      </trkpt>
      <trkpt lat="49.18416" lon="6.95302">
        <ele>306</ele>
        <time>2011-04-05T13:07:25Z</time>
      </trkpt>
      <trkpt lat="49.18415" lon="6.95305">
        <ele>306</ele>
        <time>2011-04-05T13:07:27Z</time>
      </trkpt>
      <trkpt lat="49.18415" lon="6.95307">
        <ele>306</ele>
        <time>2011-04-05T13:07:30Z</time>
      </trkpt>
      <trkpt lat="49.18414" lon="6.9531">
        <ele>306</ele>
        <time>2011-04-05T13:07:32Z</time>
      </trkpt>
      <trkpt lat="49.18414" lon="6.95312">
        <ele>306</ele>
        <time>2011-04-05T13:07:33Z</time>
      </trkpt>
      <trkpt lat="49.18414" lon="6.95314">
        <ele>306</ele>
        <time>2011-04-05T13:07:34Z</time>
      </trkpt>
      <trkpt lat="49.18415" lon="6.95317">
        <ele>306</ele>
        <time>2011-04-05T13:07:35Z</time>
      </trkpt>
      <trkpt lat="49.18415" lon="6.95319">
        <ele>306</ele>
        <time>2011-04-05T13:07:36Z</time>
      </trkpt>
      <trkpt lat="49.18415" lon="6.95321">
        <ele>306</ele>
        <time>2011-04-05T13:07:37Z</time>
      </trkpt>
      <trkpt lat="49.18415" lon="6.95324">
        <ele>306</ele>
        <time>2011-04-05T13:07:38Z</time>
      </trkpt>
      <trkpt lat="49.18415" lon="6.95326">
        <ele>306</ele>
        <time>2011-04-05T13:07:39Z</time>
      </trkpt>
      <trkpt lat="49.18415" lon="6.95328">
        <ele>306</ele>
        <time>2011-04-05T13:07:40Z</time>
      </trkpt>
      <trkpt lat="49.18416" lon="6.9533">
        <ele>306</ele>
        <time>2011-04-05T13:07:41Z</time>
      </trkpt>
      <trkpt lat="49.18416" lon="6.95332">
        <ele>306</ele>
        <time>2011-04-05T13:07:42Z</time>
      </trkpt>
      <trkpt lat="49.18417" lon="6.95333">
        <ele>306</ele>
        <time>2011-04-05T13:07:43Z</time>
      </trkpt>
      <trkpt lat="49.18417" lon="6.95335">
        <ele>306</ele>
        <time>2011-04-05T13:07:44Z</time>
      </trkpt>
      <trkpt lat="49.18418" lon="6.95337">
        <ele>306</ele>
        <time>2011-04-05T13:07:45Z</time>
      </trkpt>
      <trkpt lat="49.18418" lon="6.95339">
        <ele>306</ele>
        <time>2011-04-05T13:07:46Z</time>
      </trkpt>
      <trkpt lat="49.18418" lon="6.95341">
        <ele>306</ele>
        <time>2011-04-05T13:07:47Z</time>
      </trkpt>
      <trkpt lat="49.18418" lon="6.95343">
        <ele>306</ele>
        <time>2011-04-05T13:07:48Z</time>
      </trkpt>
      <trkpt lat="49.18419" lon="6.95346">
        <ele>306</ele>
        <time>2011-04-05T13:07:49Z</time>
      </trkpt>
      <trkpt lat="49.18419" lon="6.95348">
        <ele>306</ele>
        <time>2011-04-05T13:07:50Z</time>
      </trkpt>
      <trkpt lat="49.18419" lon="6.9535">
        <ele>306</ele>
        <time>2011-04-05T13:07:51Z</time>
      </trkpt>
      <trkpt lat="49.1842" lon="6.95352">
        <ele>306</ele>
        <time>2011-04-05T13:07:52Z</time>
      </trkpt>
      <trkpt lat="49.1842" lon="6.95354">
        <ele>306</ele>
        <time>2011-04-05T13:07:53Z</time>
      </trkpt>
      <trkpt lat="49.1842" lon="6.95356">
        <ele>306</ele>
        <time>2011-04-05T13:07:54Z</time>
      </trkpt>
      <trkpt lat="49.1842" lon="6.95358">
        <ele>306</ele>
        <time>2011-04-05T13:07:55Z</time>
      </trkpt>
      <trkpt lat="49.1842" lon="6.9536">
        <ele>306</ele>
        <time>2011-04-05T13:07:56Z</time>
      </trkpt>
      <trkpt lat="49.18421" lon="6.95361">
        <ele>306</ele>
        <time>2011-04-05T13:07:57Z</time>
      </trkpt>
      <trkpt lat="49.18421" lon="6.95363">
        <ele>306</ele>
        <time>2011-04-05T13:07:58Z</time>
      </trkpt>
      <trkpt lat="49.18421" lon="6.95365">
        <ele>306</ele>
        <time>2011-04-05T13:07:59Z</time>
      </trkpt>
      <trkpt lat="49.18421" lon="6.95367">
        <ele>306</ele>
        <time>2011-04-05T13:08:00Z</time>
      </trkpt>
      <trkpt lat="49.18422" lon="6.95369">
        <ele>306</ele>
        <time>2011-04-05T13:08:01Z</time>
      </trkpt>
      <trkpt lat="49.18422" lon="6.95371">
        <ele>306</ele>
        <time>2011-04-05T13:08:02Z</time>
      </trkpt>
      <trkpt lat="49.18422" lon="6.95373">
        <ele>306</ele>
        <time>2011-04-05T13:08:03Z</time>
      </trkpt>
      <trkpt lat="49.18422" lon="6.95375">
        <ele>306</ele>
        <time>2011-04-05T13:08:04Z</time>
      </trkpt>
      <trkpt lat="49.18422" lon="6.95377">
        <ele>306</ele>
        <time>2011-04-05T13:08:05Z</time>
      </trkpt>
      <trkpt lat="49.18422" lon="6.95379">
        <ele>306</ele>
        <time>2011-04-05T13:08:06Z</time>
      </trkpt>
      <trkpt lat="49.18422" lon="6.95381">
        <ele>306</ele>
        <time>2011-04-05T13:08:07Z</time>
      </trkpt>
      <trkpt lat="49.18422" lon="6.95383">
        <ele>306</ele>
        <time>2011-04-05T13:08:08Z</time>
      </trkpt>
      <trkpt lat="49.18422" lon="6.95385">
        <ele>306</ele>
        <time>2011-04-05T13:08:09Z</time>
      </trkpt>
      <trkpt lat="49.18422" lon="6.95387">
        <ele>306</ele>
        <time>2011-04-05T13:08:10Z</time>
      </trkpt>
      <trkpt lat="49.18423" lon="6.9539">
        <ele>306</ele>
        <time>2011-04-05T13:08:12Z</time>
      </trkpt>
      <trkpt lat="49.18423" lon="6.95391">
        <ele>306</ele>
        <time>2011-04-05T13:08:13Z</time>
      </trkpt>
      <trkpt lat="49.18423" lon="6.95393">
        <ele>306</ele>
        <time>2011-04-05T13:08:14Z</time>
      </trkpt>
      <trkpt lat="49.18423" lon="6.95395">
        <ele>306</ele>
        <time>2011-04-05T13:08:15Z</time>
      </trkpt>
      <trkpt lat="49.18423" lon="6.95398">
        <ele>306</ele>
        <time>2011-04-05T13:08:16Z</time>
      </trkpt>
      <trkpt lat="49.18423" lon="6.954">
        <ele>306</ele>
        <time>2011-04-05T13:08:17Z</time>
      </trkpt>
      <trkpt lat="49.18423" lon="6.95402">
        <ele>306</ele>
        <time>2011-04-05T13:08:18Z</time>
      </trkpt>
      <trkpt lat="49.18425" lon="6.95405">
        <ele>306</ele>
        <time>2011-04-05T13:08:20Z</time>
      </trkpt>
      <trkpt lat="49.18425" lon="6.95407">
        <ele>306</ele>
        <time>2011-04-05T13:08:21Z</time>
      </trkpt>
      <trkpt lat="49.18426" lon="6.95408">
        <ele>306</ele>
        <time>2011-04-05T13:08:22Z</time>
      </trkpt>
      <trkpt lat="49.18428" lon="6.95409">
        <ele>307</ele>
        <time>2011-04-05T13:08:23Z</time>
      </trkpt>
      <trkpt lat="49.18429" lon="6.95412">
        <ele>307</ele>
        <time>2011-04-05T13:08:25Z</time>
      </trkpt>
      <trkpt lat="49.18431" lon="6.95415">
        <ele>308</ele>
        <time>2011-04-05T13:08:27Z</time>
      </trkpt>
      <trkpt lat="49.18432" lon="6.95416">
        <ele>308</ele>
        <time>2011-04-05T13:08:28Z</time>
      </trkpt>
      <trkpt lat="49.18434" lon="6.95418">
        <ele>309</ele>
        <time>2011-04-05T13:08:30Z</time>
      </trkpt>
      <trkpt lat="49.18436" lon="6.95421">
        <ele>309</ele>
        <time>2011-04-05T13:08:32Z</time>
      </trkpt>
      <trkpt lat="49.18437" lon="6.95422">
        <ele>310</ele>
        <time>2011-04-05T13:08:33Z</time>
      </trkpt>
      <trkpt lat="49.18438" lon="6.95424">
        <ele>310</ele>
        <time>2011-04-05T13:08:35Z</time>
      </trkpt>
      <trkpt lat="49.1844" lon="6.95426">
        <ele>311</ele>
        <time>2011-04-05T13:08:37Z</time>
      </trkpt>
      <trkpt lat="49.18441" lon="6.95428">
        <ele>311</ele>
        <time>2011-04-05T13:08:38Z</time>
      </trkpt>
      <trkpt lat="49.18442" lon="6.9543">
        <ele>311</ele>
        <time>2011-04-05T13:08:40Z</time>
      </trkpt>
      <trkpt lat="49.18444" lon="6.95432">
        <ele>312</ele>
        <time>2011-04-05T13:08:42Z</time>
      </trkpt>
      <trkpt lat="49.18445" lon="6.95434">
        <ele>312</ele>
        <time>2011-04-05T13:08:44Z</time>
      </trkpt>
      <trkpt lat="49.18447" lon="6.95436">
        <ele>313</ele>
        <time>2011-04-05T13:08:46Z</time>
      </trkpt>
      <trkpt lat="49.18449" lon="6.95439">
        <ele>313</ele>
        <time>2011-04-05T13:08:48Z</time>
      </trkpt>
      <trkpt lat="49.18451" lon="6.95441">
        <ele>313</ele>
        <time>2011-04-05T13:08:50Z</time>
      </trkpt>
      <trkpt lat="49.18453" lon="6.95443">
        <ele>313</ele>
        <time>2011-04-05T13:08:52Z</time>
      </trkpt>
      <trkpt lat="49.18454" lon="6.95444">
        <ele>313</ele>
        <time>2011-04-05T13:08:53Z</time>
      </trkpt>
      <trkpt lat="49.18456" lon="6.95446">
        <ele>313</ele>
        <time>2011-04-05T13:08:55Z</time>
      </trkpt>
      <trkpt lat="49.18457" lon="6.95448">
        <ele>313</ele>
        <time>2011-04-05T13:08:57Z</time>
      </trkpt>
      <trkpt lat="49.18459" lon="6.95449">
        <ele>313</ele>
        <time>2011-04-05T13:08:58Z</time>
      </trkpt>
      <trkpt lat="49.18461" lon="6.9545">
        <ele>313</ele>
        <time>2011-04-05T13:09:00Z</time>
      </trkpt>
      <trkpt lat="49.18462" lon="6.95451">
        <ele>313</ele>
        <time>2011-04-05T13:09:01Z</time>
      </trkpt>
      <trkpt lat="49.18464" lon="6.95451">
        <ele>313</ele>
        <time>2011-04-05T13:09:02Z</time>
      </trkpt>
      <trkpt lat="49.18465" lon="6.95451">
        <ele>313</ele>
        <time>2011-04-05T13:09:03Z</time>
      </trkpt>
      <trkpt lat="49.18466" lon="6.95452">
        <ele>313</ele>
        <time>2011-04-05T13:09:04Z</time>
      </trkpt>
      <trkpt lat="49.18468" lon="6.95452">
        <ele>313</ele>
        <time>2011-04-05T13:09:05Z</time>
      </trkpt>
      <trkpt lat="49.18469" lon="6.95452">
        <ele>313</ele>
        <time>2011-04-05T13:09:06Z</time>
      </trkpt>
      <trkpt lat="49.1847" lon="6.95452">
        <ele>313</ele>
        <time>2011-04-05T13:09:07Z</time>
      </trkpt>
      <trkpt lat="49.18472" lon="6.95452">
        <ele>313</ele>
        <time>2011-04-05T13:09:08Z</time>
      </trkpt>
      <trkpt lat="49.18473" lon="6.95452">
        <ele>313</ele>
        <time>2011-04-05T13:09:09Z</time>
      </trkpt>
      <trkpt lat="49.18474" lon="6.95452">
        <ele>313</ele>
        <time>2011-04-05T13:09:10Z</time>
      </trkpt>
      <trkpt lat="49.18475" lon="6.95452">
        <ele>313</ele>
        <time>2011-04-05T13:09:11Z</time>
      </trkpt>
      <trkpt lat="49.18476" lon="6.95452">
        <ele>313</ele>
        <time>2011-04-05T13:09:12Z</time>
      </trkpt>
      <trkpt lat="49.18478" lon="6.95452">
        <ele>313</ele>
        <time>2011-04-05T13:09:13Z</time>
      </trkpt>
      <trkpt lat="49.18479" lon="6.95452">
        <ele>313</ele>
        <time>2011-04-05T13:09:14Z</time>
      </trkpt>
      <trkpt lat="49.18481" lon="6.95452">
        <ele>313</ele>
        <time>2011-04-05T13:09:15Z</time>
      </trkpt>
      <trkpt lat="49.18482" lon="6.95452">
        <ele>313</ele>
        <time>2011-04-05T13:09:16Z</time>
      </trkpt>
      <trkpt lat="49.18483" lon="6.95453">
        <ele>313</ele>
        <time>2011-04-05T13:09:17Z</time>
      </trkpt>
      <trkpt lat="49.18484" lon="6.95453">
        <ele>313</ele>
        <time>2011-04-05T13:09:18Z</time>
      </trkpt>
      <trkpt lat="49.18486" lon="6.95453">
        <ele>313</ele>
        <time>2011-04-05T13:09:19Z</time>
      </trkpt>
      <trkpt lat="49.18488" lon="6.95452">
        <ele>313</ele>
        <time>2011-04-05T13:09:21Z</time>
      </trkpt>
      <trkpt lat="49.1849" lon="6.95452">
        <ele>313</ele>
        <time>2011-04-05T13:09:22Z</time>
      </trkpt>
      <trkpt lat="49.18491" lon="6.95452">
        <ele>313</ele>
        <time>2011-04-05T13:09:23Z</time>
      </trkpt>
      <trkpt lat="49.18492" lon="6.95452">
        <ele>313</ele>
        <time>2011-04-05T13:09:24Z</time>
      </trkpt>
      <trkpt lat="49.18494" lon="6.95452">
        <ele>313</ele>
        <time>2011-04-05T13:09:25Z</time>
      </trkpt>
      <trkpt lat="49.18495" lon="6.95451">
        <ele>313</ele>
        <time>2011-04-05T13:09:26Z</time>
      </trkpt>
      <trkpt lat="49.18496" lon="6.95451">
        <ele>313</ele>
        <time>2011-04-05T13:09:27Z</time>
      </trkpt>
      <trkpt lat="49.18497" lon="6.95451">
        <ele>313</ele>
        <time>2011-04-05T13:09:28Z</time>
      </trkpt>
      <trkpt lat="49.18498" lon="6.95451">
        <ele>313</ele>
        <time>2011-04-05T13:09:29Z</time>
      </trkpt>
      <trkpt lat="49.185" lon="6.95451">
        <ele>313</ele>
        <time>2011-04-05T13:09:30Z</time>
      </trkpt>
      <trkpt lat="49.18501" lon="6.95451">
        <ele>313</ele>
        <time>2011-04-05T13:09:31Z</time>
      </trkpt>
      <trkpt lat="49.18503" lon="6.95451">
        <ele>313</ele>
        <time>2011-04-05T13:09:32Z</time>
      </trkpt>
      <trkpt lat="49.18504" lon="6.95451">
        <ele>313</ele>
        <time>2011-04-05T13:09:33Z</time>
      </trkpt>
      <trkpt lat="49.18505" lon="6.95451">
        <ele>313</ele>
        <time>2011-04-05T13:09:34Z</time>
      </trkpt>
      <trkpt lat="49.18507" lon="6.9545">
        <ele>313</ele>
        <time>2011-04-05T13:09:35Z</time>
      </trkpt>
      <trkpt lat="49.18508" lon="6.9545">
        <ele>313</ele>
        <time>2011-04-05T13:09:36Z</time>
      </trkpt>
      <trkpt lat="49.18509" lon="6.9545">
        <ele>313</ele>
        <time>2011-04-05T13:09:37Z</time>
      </trkpt>
      <trkpt lat="49.18511" lon="6.95451">
        <ele>313</ele>
        <time>2011-04-05T13:09:38Z</time>
      </trkpt>
      <trkpt lat="49.18512" lon="6.95451">
        <ele>313</ele>
        <time>2011-04-05T13:09:39Z</time>
      </trkpt>
      <trkpt lat="49.18513" lon="6.95451">
        <ele>313</ele>
        <time>2011-04-05T13:09:40Z</time>
      </trkpt>
      <trkpt lat="49.18515" lon="6.95451">
        <ele>313</ele>
        <time>2011-04-05T13:09:41Z</time>
      </trkpt>
      <trkpt lat="49.18516" lon="6.95451">
        <ele>313</ele>
        <time>2011-04-05T13:09:42Z</time>
      </trkpt>
      <trkpt lat="49.18518" lon="6.95451">
        <ele>313</ele>
        <time>2011-04-05T13:09:43Z</time>
      </trkpt>
      <trkpt lat="49.18519" lon="6.95451">
        <ele>313</ele>
        <time>2011-04-05T13:09:44Z</time>
      </trkpt>
      <trkpt lat="49.1852" lon="6.95451">
        <ele>313</ele>
        <time>2011-04-05T13:09:45Z</time>
      </trkpt>
      <trkpt lat="49.18522" lon="6.95451">
        <ele>313</ele>
        <time>2011-04-05T13:09:46Z</time>
      </trkpt>
      <trkpt lat="49.18523" lon="6.95451">
        <ele>313</ele>
        <time>2011-04-05T13:09:47Z</time>
      </trkpt>
      <trkpt lat="49.18525" lon="6.95451">
        <ele>313</ele>
        <time>2011-04-05T13:09:48Z</time>
      </trkpt>
      <trkpt lat="49.18526" lon="6.95451">
        <ele>313</ele>
        <time>2011-04-05T13:09:49Z</time>
      </trkpt>
      <trkpt lat="49.18527" lon="6.95451">
        <ele>313</ele>
        <time>2011-04-05T13:09:50Z</time>
      </trkpt>
      <trkpt lat="49.18528" lon="6.95452">
        <ele>313</ele>
        <time>2011-04-05T13:09:51Z</time>
      </trkpt>
      <trkpt lat="49.1853" lon="6.95452">
        <ele>313</ele>
        <time>2011-04-05T13:09:52Z</time>
      </trkpt>
      <trkpt lat="49.18531" lon="6.95452">
        <ele>313</ele>
        <time>2011-04-05T13:09:53Z</time>
      </trkpt>
      <trkpt lat="49.18533" lon="6.95452">
        <ele>313</ele>
        <time>2011-04-05T13:09:54Z</time>
      </trkpt>
      <trkpt lat="49.18534" lon="6.95452">
        <ele>313</ele>
        <time>2011-04-05T13:09:55Z</time>
      </trkpt>
      <trkpt lat="49.18535" lon="6.95452">
        <ele>312</ele>
        <time>2011-04-05T13:09:56Z</time>
      </trkpt>
      <trkpt lat="49.18537" lon="6.95452">
        <ele>312</ele>
        <time>2011-04-05T13:09:57Z</time>
      </trkpt>
      <trkpt lat="49.18538" lon="6.95452">
        <ele>312</ele>
        <time>2011-04-05T13:09:58Z</time>
      </trkpt>
      <trkpt lat="49.1854" lon="6.95452">
        <ele>312</ele>
        <time>2011-04-05T13:09:59Z</time>
      </trkpt>
      <trkpt lat="49.18541" lon="6.95453">
        <ele>312</ele>
        <time>2011-04-05T13:10:01Z</time>
      </trkpt>
      <trkpt lat="49.18543" lon="6.95453">
        <ele>312</ele>
        <time>2011-04-05T13:10:01Z</time>
      </trkpt>
      <trkpt lat="49.18544" lon="6.95453">
        <ele>312</ele>
        <time>2011-04-05T13:10:02Z</time>
      </trkpt>
      <trkpt lat="49.18545" lon="6.95453">
        <ele>312</ele>
        <time>2011-04-05T13:10:03Z</time>
      </trkpt>
      <trkpt lat="49.18547" lon="6.95453">
        <ele>312</ele>
        <time>2011-04-05T13:10:04Z</time>
      </trkpt>
      <trkpt lat="49.18548" lon="6.95453">
        <ele>312</ele>
        <time>2011-04-05T13:10:05Z</time>
      </trkpt>
      <trkpt lat="49.18549" lon="6.95454">
        <ele>312</ele>
        <time>2011-04-05T13:10:06Z</time>
      </trkpt>
      <trkpt lat="49.18551" lon="6.95454">
        <ele>312</ele>
        <time>2011-04-05T13:10:07Z</time>
      </trkpt>
      <trkpt lat="49.18552" lon="6.95455">
        <ele>312</ele>
        <time>2011-04-05T13:10:08Z</time>
      </trkpt>
      <trkpt lat="49.18554" lon="6.95455">
        <ele>312</ele>
        <time>2011-04-05T13:10:09Z</time>
      </trkpt>
      <trkpt lat="49.18555" lon="6.95457">
        <ele>312</ele>
        <time>2011-04-05T13:10:10Z</time>
      </trkpt>
      <trkpt lat="49.18557" lon="6.95459">
        <ele>312</ele>
        <time>2011-04-05T13:10:12Z</time>
      </trkpt>
      <trkpt lat="49.18559" lon="6.95462">
        <ele>312</ele>
        <time>2011-04-05T13:10:14Z</time>
      </trkpt>
      <trkpt lat="49.18559" lon="6.95464">
        <ele>312</ele>
        <time>2011-04-05T13:10:15Z</time>
      </trkpt>
      <trkpt lat="49.1856" lon="6.95466">
        <ele>312</ele>
        <time>2011-04-05T13:10:16Z</time>
      </trkpt>
      <trkpt lat="49.18561" lon="6.95468">
        <ele>312</ele>
        <time>2011-04-05T13:10:17Z</time>
      </trkpt>
      <trkpt lat="49.18562" lon="6.95471">
        <ele>312</ele>
        <time>2011-04-05T13:10:19Z</time>
      </trkpt>
      <trkpt lat="49.18564" lon="6.95473">
        <ele>312</ele>
        <time>2011-04-05T13:10:21Z</time>
      </trkpt>
      <trkpt lat="49.18566" lon="6.95476">
        <ele>312</ele>
        <time>2011-04-05T13:10:23Z</time>
      </trkpt>
      <trkpt lat="49.18567" lon="6.95478">
        <ele>312</ele>
        <time>2011-04-05T13:10:24Z</time>
      </trkpt>
      <trkpt lat="49.18568" lon="6.95479">
        <ele>312</ele>
        <time>2011-04-05T13:10:25Z</time>
      </trkpt>
      <trkpt lat="49.18569" lon="6.9548">
        <ele>312</ele>
        <time>2011-04-05T13:10:26Z</time>
      </trkpt>
      <trkpt lat="49.18571" lon="6.95483">
        <ele>313</ele>
        <time>2011-04-05T13:10:28Z</time>
      </trkpt>
      <trkpt lat="49.18572" lon="6.95485">
        <ele>313</ele>
        <time>2011-04-05T13:10:29Z</time>
      </trkpt>
      <trkpt lat="49.18573" lon="6.95487">
        <ele>314</ele>
        <time>2011-04-05T13:10:30Z</time>
      </trkpt>
      <trkpt lat="49.18574" lon="6.95489">
        <ele>314</ele>
        <time>2011-04-05T13:10:31Z</time>
      </trkpt>
      <trkpt lat="49.18575" lon="6.9549">
        <ele>314</ele>
        <time>2011-04-05T13:10:32Z</time>
      </trkpt>
      <trkpt lat="49.18576" lon="6.95494">
        <ele>314</ele>
        <time>2011-04-05T13:10:34Z</time>
      </trkpt>
      <trkpt lat="49.18576" lon="6.95495">
        <ele>314</ele>
        <time>2011-04-05T13:10:35Z</time>
      </trkpt>
      <trkpt lat="49.18577" lon="6.95497">
        <ele>315</ele>
        <time>2011-04-05T13:10:36Z</time>
      </trkpt>
      <trkpt lat="49.18577" lon="6.955">
        <ele>315</ele>
        <time>2011-04-05T13:10:37Z</time>
      </trkpt>
      <trkpt lat="49.18578" lon="6.95501">
        <ele>315</ele>
        <time>2011-04-05T13:10:38Z</time>
      </trkpt>
      <trkpt lat="49.18578" lon="6.95503">
        <ele>315</ele>
        <time>2011-04-05T13:10:39Z</time>
      </trkpt>
      <trkpt lat="49.18579" lon="6.95506">
        <ele>316</ele>
        <time>2011-04-05T13:10:41Z</time>
      </trkpt>
      <trkpt lat="49.18579" lon="6.95508">
        <ele>316</ele>
        <time>2011-04-05T13:10:42Z</time>
      </trkpt>
      <trkpt lat="49.1858" lon="6.9551">
        <ele>316</ele>
        <time>2011-04-05T13:10:43Z</time>
      </trkpt>
      <trkpt lat="49.1858" lon="6.95512">
        <ele>316</ele>
        <time>2011-04-05T13:10:44Z</time>
      </trkpt>
      <trkpt lat="49.1858" lon="6.95513">
        <ele>316</ele>
        <time>2011-04-05T13:10:45Z</time>
      </trkpt>
      <trkpt lat="49.18581" lon="6.95517">
        <ele>316</ele>
        <time>2011-04-05T13:10:47Z</time>
      </trkpt>
      <trkpt lat="49.18581" lon="6.95518">
        <ele>316</ele>
        <time>2011-04-05T13:10:48Z</time>
      </trkpt>
      <trkpt lat="49.18581" lon="6.9552">
        <ele>316</ele>
        <time>2011-04-05T13:10:49Z</time>
      </trkpt>
      <trkpt lat="49.18581" lon="6.95522">
        <ele>316</ele>
        <time>2011-04-05T13:10:50Z</time>
      </trkpt>
      <trkpt lat="49.18581" lon="6.95526">
        <ele>317</ele>
        <time>2011-04-05T13:10:52Z</time>
      </trkpt>
      <trkpt lat="49.18581" lon="6.95527">
        <ele>317</ele>
        <time>2011-04-05T13:10:53Z</time>
      </trkpt>
      <trkpt lat="49.18581" lon="6.9553">
        <ele>317</ele>
        <time>2011-04-05T13:10:54Z</time>
      </trkpt>
      <trkpt lat="49.18581" lon="6.95532">
        <ele>317</ele>
        <time>2011-04-05T13:10:55Z</time>
      </trkpt>
      <trkpt lat="49.18581" lon="6.95534">
        <ele>317</ele>
        <time>2011-04-05T13:10:56Z</time>
      </trkpt>
      <trkpt lat="49.18581" lon="6.95535">
        <ele>317</ele>
        <time>2011-04-05T13:10:57Z</time>
      </trkpt>
      <trkpt lat="49.18581" lon="6.95538">
        <ele>317</ele>
        <time>2011-04-05T13:10:59Z</time>
      </trkpt>
      <trkpt lat="49.18583" lon="6.95539">
        <ele>317</ele>
        <time>2011-04-05T13:11:01Z</time>
      </trkpt>
      <trkpt lat="49.18585" lon="6.95538">
        <ele>317</ele>
        <time>2011-04-05T13:11:02Z</time>
      </trkpt>
      <trkpt lat="49.18586" lon="6.95538">
        <ele>317</ele>
        <time>2011-04-05T13:11:03Z</time>
      </trkpt>
      <trkpt lat="49.18587" lon="6.95538">
        <ele>317</ele>
        <time>2011-04-05T13:11:04Z</time>
      </trkpt>
      <trkpt lat="49.18589" lon="6.95538">
        <ele>318</ele>
        <time>2011-04-05T13:11:05Z</time>
      </trkpt>
      <trkpt lat="49.1859" lon="6.95539">
        <ele>318</ele>
        <time>2011-04-05T13:11:06Z</time>
      </trkpt>
      <trkpt lat="49.18592" lon="6.95539">
        <ele>318</ele>
        <time>2011-04-05T13:11:07Z</time>
      </trkpt>
      <trkpt lat="49.18593" lon="6.95539">
        <ele>318</ele>
        <time>2011-04-05T13:11:08Z</time>
      </trkpt>
      <trkpt lat="49.18594" lon="6.95539">
        <ele>319</ele>
        <time>2011-04-05T13:11:09Z</time>
      </trkpt>
      <trkpt lat="49.18596" lon="6.9554">
        <ele>319</ele>
        <time>2011-04-05T13:11:11Z</time>
      </trkpt>
      <trkpt lat="49.18597" lon="6.95541">
        <ele>319</ele>
        <time>2011-04-05T13:11:12Z</time>
      </trkpt>
      <trkpt lat="49.18599" lon="6.9554">
        <ele>319</ele>
        <time>2011-04-05T13:11:14Z</time>
      </trkpt>
      <trkpt lat="49.186" lon="6.9554">
        <ele>321</ele>
        <time>2011-04-05T13:11:20Z</time>
      </trkpt>
      <trkpt lat="49.18602" lon="6.95541">
        <ele>321</ele>
        <time>2011-04-05T13:11:22Z</time>
      </trkpt>
      <trkpt lat="49.18604" lon="6.95541">
        <ele>321</ele>
        <time>2011-04-05T13:11:23Z</time>
      </trkpt>
      <trkpt lat="49.18605" lon="6.95541">
        <ele>321</ele>
        <time>2011-04-05T13:11:24Z</time>
      </trkpt>
      <trkpt lat="49.18606" lon="6.95541">
        <ele>321</ele>
        <time>2011-04-05T13:11:25Z</time>
      </trkpt>
      <trkpt lat="49.18607" lon="6.95541">
        <ele>321</ele>
        <time>2011-04-05T13:11:26Z</time>
      </trkpt>
      <trkpt lat="49.18608" lon="6.95541">
        <ele>321</ele>
        <time>2011-04-05T13:11:27Z</time>
      </trkpt>
      <trkpt lat="49.1861" lon="6.95541">
        <ele>321</ele>
        <time>2011-04-05T13:11:28Z</time>
      </trkpt>
      <trkpt lat="49.18611" lon="6.95542">
        <ele>321</ele>
        <time>2011-04-05T13:11:29Z</time>
      </trkpt>
      <trkpt lat="49.18613" lon="6.95543">
        <ele>322</ele>
        <time>2011-04-05T13:11:30Z</time>
      </trkpt>
      <trkpt lat="49.18614" lon="6.95543">
        <ele>322</ele>
        <time>2011-04-05T13:11:31Z</time>
      </trkpt>
      <trkpt lat="49.18615" lon="6.95543">
        <ele>322</ele>
        <time>2011-04-05T13:11:32Z</time>
      </trkpt>
      <trkpt lat="49.18616" lon="6.95543">
        <ele>322</ele>
        <time>2011-04-05T13:11:33Z</time>
      </trkpt>
      <trkpt lat="49.18618" lon="6.95544">
        <ele>323</ele>
        <time>2011-04-05T13:11:34Z</time>
      </trkpt>
      <trkpt lat="49.18619" lon="6.95544">
        <ele>323</ele>
        <time>2011-04-05T13:11:35Z</time>
      </trkpt>
      <trkpt lat="49.1862" lon="6.95543">
        <ele>323</ele>
        <time>2011-04-05T13:11:36Z</time>
      </trkpt>
      <trkpt lat="49.18622" lon="6.95543">
        <ele>323</ele>
        <time>2011-04-05T13:11:38Z</time>
      </trkpt>
      <trkpt lat="49.18624" lon="6.95541">
        <ele>323</ele>
        <time>2011-04-05T13:11:40Z</time>
      </trkpt>
      <trkpt lat="49.18626" lon="6.9554">
        <ele>324</ele>
        <time>2011-04-05T13:11:42Z</time>
      </trkpt>
      <trkpt lat="49.18628" lon="6.95538">
        <ele>324</ele>
        <time>2011-04-05T13:11:44Z</time>
      </trkpt>
      <trkpt lat="49.18629" lon="6.95536">
        <ele>324</ele>
        <time>2011-04-05T13:11:46Z</time>
      </trkpt>
      <trkpt lat="49.18631" lon="6.95535">
        <ele>324</ele>
        <time>2011-04-05T13:11:47Z</time>
      </trkpt>
      <trkpt lat="49.18632" lon="6.95535">
        <ele>324</ele>
        <time>2011-04-05T13:11:48Z</time>
      </trkpt>
      <trkpt lat="49.18634" lon="6.95534">
        <ele>325</ele>
        <time>2011-04-05T13:11:50Z</time>
      </trkpt>
      <trkpt lat="49.18635" lon="6.95533">
        <ele>325</ele>
        <time>2011-04-05T13:11:51Z</time>
      </trkpt>
      <trkpt lat="49.18636" lon="6.95533">
        <ele>325</ele>
        <time>2011-04-05T13:11:52Z</time>
      </trkpt>
      <trkpt lat="49.18638" lon="6.95533">
        <ele>325</ele>
        <time>2011-04-05T13:11:53Z</time>
      </trkpt>
      <trkpt lat="49.1864" lon="6.95532">
        <ele>325</ele>
        <time>2011-04-05T13:11:55Z</time>
      </trkpt>
      <trkpt lat="49.18641" lon="6.95532">
        <ele>325</ele>
        <time>2011-04-05T13:11:56Z</time>
      </trkpt>
      <trkpt lat="49.18642" lon="6.95532">
        <ele>325</ele>
        <time>2011-04-05T13:11:57Z</time>
      </trkpt>
      <trkpt lat="49.18644" lon="6.95531">
        <ele>325</ele>
        <time>2011-04-05T13:11:58Z</time>
      </trkpt>
      <trkpt lat="49.18645" lon="6.95531">
        <ele>326</ele>
        <time>2011-04-05T13:11:59Z</time>
      </trkpt>
      <trkpt lat="49.18646" lon="6.95532">
        <ele>326</ele>
        <time>2011-04-05T13:12:00Z</time>
      </trkpt>
      <trkpt lat="49.18647" lon="6.95532">
        <ele>326</ele>
        <time>2011-04-05T13:12:01Z</time>
      </trkpt>
      <trkpt lat="49.18649" lon="6.95532">
        <ele>326</ele>
        <time>2011-04-05T13:12:02Z</time>
      </trkpt>
      <trkpt lat="49.1865" lon="6.95532">
        <ele>326</ele>
        <time>2011-04-05T13:12:03Z</time>
      </trkpt>
      <trkpt lat="49.18651" lon="6.95533">
        <ele>326</ele>
        <time>2011-04-05T13:12:04Z</time>
      </trkpt>
      <trkpt lat="49.18652" lon="6.95534">
        <ele>326</ele>
        <time>2011-04-05T13:12:05Z</time>
      </trkpt>
      <trkpt lat="49.18654" lon="6.95535">
        <ele>326</ele>
        <time>2011-04-05T13:12:06Z</time>
      </trkpt>
      <trkpt lat="49.18655" lon="6.95535">
        <ele>326</ele>
        <time>2011-04-05T13:12:07Z</time>
      </trkpt>
      <trkpt lat="49.18656" lon="6.95535">
        <ele>327</ele>
        <time>2011-04-05T13:12:08Z</time>
      </trkpt>
      <trkpt lat="49.18657" lon="6.95536">
        <ele>327</ele>
        <time>2011-04-05T13:12:09Z</time>
      </trkpt>
      <trkpt lat="49.18659" lon="6.95536">
        <ele>327</ele>
        <time>2011-04-05T13:12:10Z</time>
      </trkpt>
      <trkpt lat="49.1866" lon="6.95536">
        <ele>327</ele>
        <time>2011-04-05T13:12:11Z</time>
      </trkpt>
      <trkpt lat="49.18661" lon="6.95537">
        <ele>327</ele>
        <time>2011-04-05T13:12:12Z</time>
      </trkpt>
      <trkpt lat="49.18663" lon="6.95537">
        <ele>327</ele>
        <time>2011-04-05T13:12:13Z</time>
      </trkpt>
      <trkpt lat="49.18664" lon="6.95538">
        <ele>327</ele>
        <time>2011-04-05T13:12:14Z</time>
      </trkpt>
      <trkpt lat="49.18665" lon="6.95538">
        <ele>328</ele>
        <time>2011-04-05T13:12:15Z</time>
      </trkpt>
      <trkpt lat="49.18666" lon="6.95539">
        <ele>328</ele>
        <time>2011-04-05T13:12:16Z</time>
      </trkpt>
      <trkpt lat="49.18668" lon="6.95539">
        <ele>328</ele>
        <time>2011-04-05T13:12:17Z</time>
      </trkpt>
      <trkpt lat="49.18669" lon="6.9554">
        <ele>328</ele>
        <time>2011-04-05T13:12:18Z</time>
      </trkpt>
      <trkpt lat="49.1867" lon="6.95541">
        <ele>328</ele>
        <time>2011-04-05T13:12:19Z</time>
      </trkpt>
      <trkpt lat="49.18672" lon="6.95543">
        <ele>328</ele>
        <time>2011-04-05T13:12:21Z</time>
      </trkpt>
      <trkpt lat="49.18674" lon="6.95545">
        <ele>328</ele>
        <time>2011-04-05T13:12:23Z</time>
      </trkpt>
      <trkpt lat="49.18675" lon="6.95549">
        <ele>328</ele>
        <time>2011-04-05T13:12:25Z</time>
      </trkpt>
      <trkpt lat="49.18676" lon="6.9555">
        <ele>328</ele>
        <time>2011-04-05T13:12:26Z</time>
      </trkpt>
      <trkpt lat="49.18677" lon="6.95552">
        <ele>328</ele>
        <time>2011-04-05T13:12:27Z</time>
      </trkpt>
      <trkpt lat="49.18678" lon="6.95554">
        <ele>328</ele>
        <time>2011-04-05T13:12:28Z</time>
      </trkpt>
      <trkpt lat="49.18679" lon="6.95556">
        <ele>328</ele>
        <time>2011-04-05T13:12:29Z</time>
      </trkpt>
      <trkpt lat="49.18679" lon="6.95559">
        <ele>328</ele>
        <time>2011-04-05T13:12:31Z</time>
      </trkpt>
      <trkpt lat="49.1868" lon="6.95561">
        <ele>328</ele>
        <time>2011-04-05T13:12:32Z</time>
      </trkpt>
      <trkpt lat="49.1868" lon="6.95563">
        <ele>328</ele>
        <time>2011-04-05T13:12:33Z</time>
      </trkpt>
      <trkpt lat="49.18682" lon="6.95566">
        <ele>328</ele>
        <time>2011-04-05T13:12:35Z</time>
      </trkpt>
      <trkpt lat="49.18682" lon="6.95567">
        <ele>328</ele>
        <time>2011-04-05T13:12:36Z</time>
      </trkpt>
      <trkpt lat="49.18683" lon="6.95569">
        <ele>328</ele>
        <time>2011-04-05T13:12:37Z</time>
      </trkpt>
      <trkpt lat="49.18683" lon="6.95571">
        <ele>329</ele>
        <time>2011-04-05T13:12:38Z</time>
      </trkpt>
      <trkpt lat="49.18684" lon="6.95573">
        <ele>329</ele>
        <time>2011-04-05T13:12:39Z</time>
      </trkpt>
      <trkpt lat="49.18684" lon="6.95575">
        <ele>329</ele>
        <time>2011-04-05T13:12:40Z</time>
      </trkpt>
      <trkpt lat="49.18686" lon="6.95578">
        <ele>329</ele>
        <time>2011-04-05T13:12:42Z</time>
      </trkpt>
      <trkpt lat="49.18687" lon="6.95581">
        <ele>329</ele>
        <time>2011-04-05T13:12:44Z</time>
      </trkpt>
      <trkpt lat="49.18689" lon="6.95583">
        <ele>330</ele>
        <time>2011-04-05T13:12:46Z</time>
      </trkpt>
      <trkpt lat="49.18691" lon="6.95586">
        <ele>330</ele>
        <time>2011-04-05T13:12:48Z</time>
      </trkpt>
      <trkpt lat="49.18693" lon="6.95588">
        <ele>330</ele>
        <time>2011-04-05T13:12:50Z</time>
      </trkpt>
      <trkpt lat="49.18694" lon="6.95589">
        <ele>330</ele>
        <time>2011-04-05T13:12:51Z</time>
      </trkpt>
      <trkpt lat="49.18695" lon="6.9559">
        <ele>330</ele>
        <time>2011-04-05T13:12:52Z</time>
      </trkpt>
      <trkpt lat="49.18697" lon="6.95591">
        <ele>330</ele>
        <time>2011-04-05T13:12:53Z</time>
      </trkpt>
      <trkpt lat="49.18698" lon="6.95592">
        <ele>330</ele>
        <time>2011-04-05T13:12:54Z</time>
      </trkpt>
      <trkpt lat="49.18699" lon="6.95593">
        <ele>330</ele>
        <time>2011-04-05T13:12:55Z</time>
      </trkpt>
      <trkpt lat="49.187" lon="6.95594">
        <ele>330</ele>
        <time>2011-04-05T13:12:56Z</time>
      </trkpt>
      <trkpt lat="49.18701" lon="6.95595">
        <ele>330</ele>
        <time>2011-04-05T13:12:57Z</time>
      </trkpt>
      <trkpt lat="49.18703" lon="6.95595">
        <ele>330</ele>
        <time>2011-04-05T13:12:58Z</time>
      </trkpt>
      <trkpt lat="49.18704" lon="6.95595">
        <ele>330</ele>
        <time>2011-04-05T13:12:59Z</time>
      </trkpt>
      <trkpt lat="49.18705" lon="6.95596">
        <ele>330</ele>
        <time>2011-04-05T13:13:00Z</time>
      </trkpt>
      <trkpt lat="49.18706" lon="6.95597">
        <ele>330</ele>
        <time>2011-04-05T13:13:01Z</time>
      </trkpt>
      <trkpt lat="49.18707" lon="6.95599">
        <ele>330</ele>
        <time>2011-04-05T13:13:02Z</time>
      </trkpt>
      <trkpt lat="49.1871" lon="6.95601">
        <ele>330</ele>
        <time>2011-04-05T13:13:04Z</time>
      </trkpt>
      <trkpt lat="49.18711" lon="6.95601">
        <ele>330</ele>
        <time>2011-04-05T13:13:05Z</time>
      </trkpt>
      <trkpt lat="49.18712" lon="6.95602">
        <ele>330</ele>
        <time>2011-04-05T13:13:06Z</time>
      </trkpt>
      <trkpt lat="49.18713" lon="6.95605">
        <ele>330</ele>
        <time>2011-04-05T13:13:08Z</time>
      </trkpt>
      <trkpt lat="49.18715" lon="6.95608">
        <ele>330</ele>
        <time>2011-04-05T13:13:10Z</time>
      </trkpt>
      <trkpt lat="49.18717" lon="6.95611">
        <ele>330</ele>
        <time>2011-04-05T13:13:12Z</time>
      </trkpt>
      <trkpt lat="49.18719" lon="6.95614">
        <ele>330</ele>
        <time>2011-04-05T13:13:14Z</time>
      </trkpt>
      <trkpt lat="49.1872" lon="6.95615">
        <ele>330</ele>
        <time>2011-04-05T13:13:15Z</time>
      </trkpt>
      <trkpt lat="49.18721" lon="6.95617">
        <ele>331</ele>
        <time>2011-04-05T13:13:16Z</time>
      </trkpt>
      <trkpt lat="49.18722" lon="6.95618">
        <ele>331</ele>
        <time>2011-04-05T13:13:17Z</time>
      </trkpt>
      <trkpt lat="49.18724" lon="6.95621">
        <ele>331</ele>
        <time>2011-04-05T13:13:19Z</time>
      </trkpt>
      <trkpt lat="49.18726" lon="6.95624">
        <ele>331</ele>
        <time>2011-04-05T13:13:21Z</time>
      </trkpt>
      <trkpt lat="49.18726" lon="6.95626">
        <ele>331</ele>
        <time>2011-04-05T13:13:22Z</time>
      </trkpt>
      <trkpt lat="49.18728" lon="6.95629">
        <ele>331</ele>
        <time>2011-04-05T13:13:24Z</time>
      </trkpt>
      <trkpt lat="49.18729" lon="6.95632">
        <ele>331</ele>
        <time>2011-04-05T13:13:26Z</time>
      </trkpt>
      <trkpt lat="49.1873" lon="6.95634">
        <ele>331</ele>
        <time>2011-04-05T13:13:27Z</time>
      </trkpt>
      <trkpt lat="49.1873" lon="6.95636">
        <ele>331</ele>
        <time>2011-04-05T13:13:28Z</time>
      </trkpt>
      <trkpt lat="49.1873" lon="6.95638">
        <ele>331</ele>
        <time>2011-04-05T13:13:29Z</time>
      </trkpt>
      <trkpt lat="49.1873" lon="6.9564">
        <ele>331</ele>
        <time>2011-04-05T13:13:30Z</time>
      </trkpt>
      <trkpt lat="49.1873" lon="6.95642">
        <ele>331</ele>
        <time>2011-04-05T13:13:31Z</time>
      </trkpt>
      <trkpt lat="49.18729" lon="6.95644">
        <ele>331</ele>
        <time>2011-04-05T13:13:32Z</time>
      </trkpt>
      <trkpt lat="49.18729" lon="6.95646">
        <ele>331</ele>
        <time>2011-04-05T13:13:33Z</time>
      </trkpt>
      <trkpt lat="49.18729" lon="6.95648">
        <ele>331</ele>
        <time>2011-04-05T13:13:34Z</time>
      </trkpt>
      <trkpt lat="49.18729" lon="6.95649">
        <ele>331</ele>
        <time>2011-04-05T13:13:35Z</time>
      </trkpt>
      <trkpt lat="49.18731" lon="6.95651">
        <ele>331</ele>
        <time>2011-04-05T13:13:37Z</time>
      </trkpt>
      <trkpt lat="49.18733" lon="6.95653">
        <ele>331</ele>
        <time>2011-04-05T13:13:39Z</time>
      </trkpt>
      <trkpt lat="49.18734" lon="6.95654">
        <ele>332</ele>
        <time>2011-04-05T13:13:40Z</time>
      </trkpt>
      <trkpt lat="49.18736" lon="6.95655">
        <ele>332</ele>
        <time>2011-04-05T13:13:41Z</time>
      </trkpt>
      <trkpt lat="49.18737" lon="6.95656">
        <ele>332</ele>
        <time>2011-04-05T13:13:42Z</time>
      </trkpt>
      <trkpt lat="49.18739" lon="6.95657">
        <ele>332</ele>
        <time>2011-04-05T13:13:43Z</time>
      </trkpt>
      <trkpt lat="49.1874" lon="6.95658">
        <ele>332</ele>
        <time>2011-04-05T13:13:44Z</time>
      </trkpt>
      <trkpt lat="49.18741" lon="6.95659">
        <ele>332</ele>
        <time>2011-04-05T13:13:45Z</time>
      </trkpt>
      <trkpt lat="49.18743" lon="6.95659">
        <ele>332</ele>
        <time>2011-04-05T13:13:46Z</time>
      </trkpt>
      <trkpt lat="49.18744" lon="6.9566">
        <ele>332</ele>
        <time>2011-04-05T13:13:47Z</time>
      </trkpt>
      <trkpt lat="49.18745" lon="6.95661">
        <ele>332</ele>
        <time>2011-04-05T13:13:48Z</time>
      </trkpt>
      <trkpt lat="49.18747" lon="6.95662">
        <ele>332</ele>
        <time>2011-04-05T13:13:49Z</time>
      </trkpt>
      <trkpt lat="49.18748" lon="6.95663">
        <ele>332</ele>
        <time>2011-04-05T13:13:50Z</time>
      </trkpt>
      <trkpt lat="49.18749" lon="6.95664">
        <ele>332</ele>
        <time>2011-04-05T13:13:51Z</time>
      </trkpt>
      <trkpt lat="49.18751" lon="6.95665">
        <ele>332</ele>
        <time>2011-04-05T13:13:52Z</time>
      </trkpt>
      <trkpt lat="49.18752" lon="6.95666">
        <ele>332</ele>
        <time>2011-04-05T13:13:53Z</time>
      </trkpt>
      <trkpt lat="49.18753" lon="6.95667">
        <ele>332</ele>
        <time>2011-04-05T13:13:54Z</time>
      </trkpt>
      <trkpt lat="49.18755" lon="6.95668">
        <ele>332</ele>
        <time>2011-04-05T13:13:55Z</time>
      </trkpt>
      <trkpt lat="49.18756" lon="6.95669">
        <ele>332</ele>
        <time>2011-04-05T13:13:56Z</time>
      </trkpt>
      <trkpt lat="49.18757" lon="6.9567">
        <ele>332</ele>
        <time>2011-04-05T13:13:57Z</time>
      </trkpt>
      <trkpt lat="49.18758" lon="6.95671">
        <ele>332</ele>
        <time>2011-04-05T13:13:58Z</time>
      </trkpt>
      <trkpt lat="49.1876" lon="6.95672">
        <ele>333</ele>
        <time>2011-04-05T13:13:59Z</time>
      </trkpt>
      <trkpt lat="49.18761" lon="6.95673">
        <ele>333</ele>
        <time>2011-04-05T13:14:00Z</time>
      </trkpt>
      <trkpt lat="49.18763" lon="6.95674">
        <ele>333</ele>
        <time>2011-04-05T13:14:01Z</time>
      </trkpt>
      <trkpt lat="49.18764" lon="6.95675">
        <ele>333</ele>
        <time>2011-04-05T13:14:02Z</time>
      </trkpt>
      <trkpt lat="49.18765" lon="6.95675">
        <ele>333</ele>
        <time>2011-04-05T13:14:03Z</time>
      </trkpt>
      <trkpt lat="49.18767" lon="6.95676">
        <ele>333</ele>
        <time>2011-04-05T13:14:04Z</time>
      </trkpt>
      <trkpt lat="49.18768" lon="6.95677">
        <ele>333</ele>
        <time>2011-04-05T13:14:05Z</time>
      </trkpt>
      <trkpt lat="49.18769" lon="6.95678">
        <ele>333</ele>
        <time>2011-04-05T13:14:06Z</time>
      </trkpt>
      <trkpt lat="49.18771" lon="6.95679">
        <ele>333</ele>
        <time>2011-04-05T13:14:07Z</time>
      </trkpt>
      <trkpt lat="49.18772" lon="6.9568">
        <ele>333</ele>
        <time>2011-04-05T13:14:08Z</time>
      </trkpt>
      <trkpt lat="49.18773" lon="6.95681">
        <ele>333</ele>
        <time>2011-04-05T13:14:09Z</time>
      </trkpt>
      <trkpt lat="49.18775" lon="6.95682">
        <ele>333</ele>
        <time>2011-04-05T13:14:10Z</time>
      </trkpt>
      <trkpt lat="49.18776" lon="6.95683">
        <ele>333</ele>
        <time>2011-04-05T13:14:11Z</time>
      </trkpt>
      <trkpt lat="49.18777" lon="6.95683">
        <ele>333</ele>
        <time>2011-04-05T13:14:12Z</time>
      </trkpt>
      <trkpt lat="49.18779" lon="6.95684">
        <ele>333</ele>
        <time>2011-04-05T13:14:13Z</time>
      </trkpt>
      <trkpt lat="49.1878" lon="6.95685">
        <ele>333</ele>
        <time>2011-04-05T13:14:14Z</time>
      </trkpt>
      <trkpt lat="49.18782" lon="6.95686">
        <ele>333</ele>
        <time>2011-04-05T13:14:15Z</time>
      </trkpt>
      <trkpt lat="49.18783" lon="6.95687">
        <ele>333</ele>
        <time>2011-04-05T13:14:16Z</time>
      </trkpt>
      <trkpt lat="49.18785" lon="6.95688">
        <ele>333</ele>
        <time>2011-04-05T13:14:17Z</time>
      </trkpt>
      <trkpt lat="49.18786" lon="6.95689">
        <ele>334</ele>
        <time>2011-04-05T13:14:18Z</time>
      </trkpt>
      <trkpt lat="49.18787" lon="6.9569">
        <ele>334</ele>
        <time>2011-04-05T13:14:19Z</time>
      </trkpt>
      <trkpt lat="49.18789" lon="6.95691">
        <ele>334</ele>
        <time>2011-04-05T13:14:20Z</time>
      </trkpt>
      <trkpt lat="49.1879" lon="6.95692">
        <ele>334</ele>
        <time>2011-04-05T13:14:21Z</time>
      </trkpt>
      <trkpt lat="49.18791" lon="6.95693">
        <ele>334</ele>
        <time>2011-04-05T13:14:22Z</time>
      </trkpt>
      <trkpt lat="49.18792" lon="6.95694">
        <ele>334</ele>
        <time>2011-04-05T13:14:23Z</time>
      </trkpt>
      <trkpt lat="49.18794" lon="6.95695">
        <ele>334</ele>
        <time>2011-04-05T13:14:24Z</time>
      </trkpt>
      <trkpt lat="49.18795" lon="6.95696">
        <ele>334</ele>
        <time>2011-04-05T13:14:25Z</time>
      </trkpt>
      <trkpt lat="49.18796" lon="6.95697">
        <ele>334</ele>
        <time>2011-04-05T13:14:26Z</time>
      </trkpt>
      <trkpt lat="49.18798" lon="6.95698">
        <ele>334</ele>
        <time>2011-04-05T13:14:27Z</time>
      </trkpt>
      <trkpt lat="49.18799" lon="6.95699">
        <ele>334</ele>
        <time>2011-04-05T13:14:28Z</time>
      </trkpt>
      <trkpt lat="49.188" lon="6.957">
        <ele>334</ele>
        <time>2011-04-05T13:14:29Z</time>
      </trkpt>
      <trkpt lat="49.18801" lon="6.95701">
        <ele>334</ele>
        <time>2011-04-05T13:14:30Z</time>
      </trkpt>
      <trkpt lat="49.18803" lon="6.95702">
        <ele>334</ele>
        <time>2011-04-05T13:14:31Z</time>
      </trkpt>
      <trkpt lat="49.18804" lon="6.95703">
        <ele>334</ele>
        <time>2011-04-05T13:14:32Z</time>
      </trkpt>
      <trkpt lat="49.18805" lon="6.95704">
        <ele>334</ele>
        <time>2011-04-05T13:14:33Z</time>
      </trkpt>
      <trkpt lat="49.18807" lon="6.95705">
        <ele>334</ele>
        <time>2011-04-05T13:14:34Z</time>
      </trkpt>
      <trkpt lat="49.18808" lon="6.95706">
        <ele>334</ele>
        <time>2011-04-05T13:14:35Z</time>
      </trkpt>
      <trkpt lat="49.18809" lon="6.95707">
        <ele>334</ele>
        <time>2011-04-05T13:14:36Z</time>
      </trkpt>
      <trkpt lat="49.18811" lon="6.95708">
        <ele>334</ele>
        <time>2011-04-05T13:14:37Z</time>
      </trkpt>
      <trkpt lat="49.18812" lon="6.95709">
        <ele>334</ele>
        <time>2011-04-05T13:14:38Z</time>
      </trkpt>
      <trkpt lat="49.18813" lon="6.9571">
        <ele>334</ele>
        <time>2011-04-05T13:14:39Z</time>
      </trkpt>
      <trkpt lat="49.18815" lon="6.95711">
        <ele>334</ele>
        <time>2011-04-05T13:14:40Z</time>
      </trkpt>
      <trkpt lat="49.18816" lon="6.95712">
        <ele>334</ele>
        <time>2011-04-05T13:14:41Z</time>
      </trkpt>
      <trkpt lat="49.18817" lon="6.95713">
        <ele>334</ele>
        <time>2011-04-05T13:14:42Z</time>
      </trkpt>
      <trkpt lat="49.18819" lon="6.95714">
        <ele>334</ele>
        <time>2011-04-05T13:14:43Z</time>
      </trkpt>
      <trkpt lat="49.1882" lon="6.95715">
        <ele>334</ele>
        <time>2011-04-05T13:14:44Z</time>
      </trkpt>
      <trkpt lat="49.18821" lon="6.95716">
        <ele>334</ele>
        <time>2011-04-05T13:14:45Z</time>
      </trkpt>
      <trkpt lat="49.18822" lon="6.95717">
        <ele>334</ele>
        <time>2011-04-05T13:14:46Z</time>
      </trkpt>
      <trkpt lat="49.18824" lon="6.95718">
        <ele>334</ele>
        <time>2011-04-05T13:14:47Z</time>
      </trkpt>
      <trkpt lat="49.18825" lon="6.95719">
        <ele>334</ele>
        <time>2011-04-05T13:14:48Z</time>
      </trkpt>
      <trkpt lat="49.18827" lon="6.9572">
        <ele>334</ele>
        <time>2011-04-05T13:14:49Z</time>
      </trkpt>
      <trkpt lat="49.18828" lon="6.95721">
        <ele>334</ele>
        <time>2011-04-05T13:14:50Z</time>
      </trkpt>
      <trkpt lat="49.18829" lon="6.95722">
        <ele>334</ele>
        <time>2011-04-05T13:14:51Z</time>
      </trkpt>
      <trkpt lat="49.1883" lon="6.95723">
        <ele>334</ele>
        <time>2011-04-05T13:14:52Z</time>
      </trkpt>
      <trkpt lat="49.18832" lon="6.95724">
        <ele>334</ele>
        <time>2011-04-05T13:14:53Z</time>
      </trkpt>
      <trkpt lat="49.18833" lon="6.95725">
        <ele>334</ele>
        <time>2011-04-05T13:14:54Z</time>
      </trkpt>
      <trkpt lat="49.18834" lon="6.95726">
        <ele>334</ele>
        <time>2011-04-05T13:14:55Z</time>
      </trkpt>
      <trkpt lat="49.18836" lon="6.95727">
        <ele>334</ele>
        <time>2011-04-05T13:14:56Z</time>
      </trkpt>
      <trkpt lat="49.18837" lon="6.95728">
        <ele>334</ele>
        <time>2011-04-05T13:14:57Z</time>
      </trkpt>
      <trkpt lat="49.18838" lon="6.95729">
        <ele>334</ele>
        <time>2011-04-05T13:14:58Z</time>
      </trkpt>
      <trkpt lat="49.1884" lon="6.9573">
        <ele>334</ele>
        <time>2011-04-05T13:14:59Z</time>
      </trkpt>
      <trkpt lat="49.18841" lon="6.95731">
        <ele>334</ele>
        <time>2011-04-05T13:15:00Z</time>
      </trkpt>
      <trkpt lat="49.18843" lon="6.95732">
        <ele>334</ele>
        <time>2011-04-05T13:15:01Z</time>
      </trkpt>
      <trkpt lat="49.18844" lon="6.95733">
        <ele>334</ele>
        <time>2011-04-05T13:15:02Z</time>
      </trkpt>
      <trkpt lat="49.18845" lon="6.95734">
        <ele>334</ele>
        <time>2011-04-05T13:15:03Z</time>
      </trkpt>
      <trkpt lat="49.18847" lon="6.95735">
        <ele>334</ele>
        <time>2011-04-05T13:15:04Z</time>
      </trkpt>
      <trkpt lat="49.18848" lon="6.95736">
        <ele>334</ele>
        <time>2011-04-05T13:15:05Z</time>
      </trkpt>
      <trkpt lat="49.18849" lon="6.95738">
        <ele>334</ele>
        <time>2011-04-05T13:15:06Z</time>
      </trkpt>
      <trkpt lat="49.1885" lon="6.95739">
        <ele>334</ele>
        <time>2011-04-05T13:15:07Z</time>
      </trkpt>
      <trkpt lat="49.18852" lon="6.9574">
        <ele>334</ele>
        <time>2011-04-05T13:15:08Z</time>
      </trkpt>
      <trkpt lat="49.18853" lon="6.9574">
        <ele>334</ele>
        <time>2011-04-05T13:15:09Z</time>
      </trkpt>
      <trkpt lat="49.18855" lon="6.95741">
        <ele>334</ele>
        <time>2011-04-05T13:15:10Z</time>
      </trkpt>
      <trkpt lat="49.18856" lon="6.95742">
        <ele>334</ele>
        <time>2011-04-05T13:15:11Z</time>
      </trkpt>
      <trkpt lat="49.18857" lon="6.95743">
        <ele>334</ele>
        <time>2011-04-05T13:15:12Z</time>
      </trkpt>
      <trkpt lat="49.18859" lon="6.95744">
        <ele>334</ele>
        <time>2011-04-05T13:15:13Z</time>
      </trkpt>
      <trkpt lat="49.1886" lon="6.95745">
        <ele>334</ele>
        <time>2011-04-05T13:15:14Z</time>
      </trkpt>
      <trkpt lat="49.18861" lon="6.95746">
        <ele>334</ele>
        <time>2011-04-05T13:15:15Z</time>
      </trkpt>
      <trkpt lat="49.18863" lon="6.95747">
        <ele>334</ele>
        <time>2011-04-05T13:15:16Z</time>
      </trkpt>
      <trkpt lat="49.18864" lon="6.95748">
        <ele>334</ele>
        <time>2011-04-05T13:15:17Z</time>
      </trkpt>
      <trkpt lat="49.18866" lon="6.95749">
        <ele>334</ele>
        <time>2011-04-05T13:15:18Z</time>
      </trkpt>
      <trkpt lat="49.18867" lon="6.9575">
        <ele>334</ele>
        <time>2011-04-05T13:15:19Z</time>
      </trkpt>
      <trkpt lat="49.18869" lon="6.9575">
        <ele>334</ele>
        <time>2011-04-05T13:15:20Z</time>
      </trkpt>
      <trkpt lat="49.1887" lon="6.95753">
        <ele>334</ele>
        <time>2011-04-05T13:15:22Z</time>
      </trkpt>
      <trkpt lat="49.18871" lon="6.95755">
        <ele>334</ele>
        <time>2011-04-05T13:15:23Z</time>
      </trkpt>
      <trkpt lat="49.18871" lon="6.95757">
        <ele>334</ele>
        <time>2011-04-05T13:15:24Z</time>
      </trkpt>
      <trkpt lat="49.18871" lon="6.95759">
        <ele>334</ele>
        <time>2011-04-05T13:15:25Z</time>
      </trkpt>
      <trkpt lat="49.1887" lon="6.95761">
        <ele>334</ele>
        <time>2011-04-05T13:15:26Z</time>
      </trkpt>
      <trkpt lat="49.18869" lon="6.95763">
        <ele>334</ele>
        <time>2011-04-05T13:15:27Z</time>
      </trkpt>
      <trkpt lat="49.18869" lon="6.95765">
        <ele>334</ele>
        <time>2011-04-05T13:15:28Z</time>
      </trkpt>
      <trkpt lat="49.18868" lon="6.95767">
        <ele>334</ele>
        <time>2011-04-05T13:15:29Z</time>
      </trkpt>
      <trkpt lat="49.18868" lon="6.95769">
        <ele>334</ele>
        <time>2011-04-05T13:15:30Z</time>
      </trkpt>
      <trkpt lat="49.18867" lon="6.95771">
        <ele>334</ele>
        <time>2011-04-05T13:15:31Z</time>
      </trkpt>
      <trkpt lat="49.18867" lon="6.95773">
        <ele>334</ele>
        <time>2011-04-05T13:15:32Z</time>
      </trkpt>
      <trkpt lat="49.18866" lon="6.95774">
        <ele>334</ele>
        <time>2011-04-05T13:15:33Z</time>
      </trkpt>
      <trkpt lat="49.18866" lon="6.95776">
        <ele>334</ele>
        <time>2011-04-05T13:15:34Z</time>
      </trkpt>
      <trkpt lat="49.18865" lon="6.95778">
        <ele>335</ele>
        <time>2011-04-05T13:15:35Z</time>
      </trkpt>
      <trkpt lat="49.18865" lon="6.9578">
        <ele>335</ele>
        <time>2011-04-05T13:15:36Z</time>
      </trkpt>
      <trkpt lat="49.18864" lon="6.95782">
        <ele>335</ele>
        <time>2011-04-05T13:15:37Z</time>
      </trkpt>
      <trkpt lat="49.18864" lon="6.95784">
        <ele>335</ele>
        <time>2011-04-05T13:15:38Z</time>
      </trkpt>
      <trkpt lat="49.18863" lon="6.95786">
        <ele>335</ele>
        <time>2011-04-05T13:15:39Z</time>
      </trkpt>
      <trkpt lat="49.18863" lon="6.95787">
        <ele>335</ele>
        <time>2011-04-05T13:15:40Z</time>
      </trkpt>
      <trkpt lat="49.18862" lon="6.95789">
        <ele>335</ele>
        <time>2011-04-05T13:15:41Z</time>
      </trkpt>
      <trkpt lat="49.18862" lon="6.95791">
        <ele>335</ele>
        <time>2011-04-05T13:15:42Z</time>
      </trkpt>
      <trkpt lat="49.18861" lon="6.95793">
        <ele>335</ele>
        <time>2011-04-05T13:15:43Z</time>
      </trkpt>
      <trkpt lat="49.1886" lon="6.95795">
        <ele>335</ele>
        <time>2011-04-05T13:15:44Z</time>
      </trkpt>
      <trkpt lat="49.18859" lon="6.95797">
        <ele>336</ele>
        <time>2011-04-05T13:15:45Z</time>
      </trkpt>
      <trkpt lat="49.18859" lon="6.95798">
        <ele>336</ele>
        <time>2011-04-05T13:15:46Z</time>
      </trkpt>
      <trkpt lat="49.18858" lon="6.958">
        <ele>336</ele>
        <time>2011-04-05T13:15:47Z</time>
      </trkpt>
      <trkpt lat="49.18858" lon="6.95802">
        <ele>336</ele>
        <time>2011-04-05T13:15:48Z</time>
      </trkpt>
      <trkpt lat="49.18857" lon="6.95804">
        <ele>336</ele>
        <time>2011-04-05T13:15:49Z</time>
      </trkpt>
      <trkpt lat="49.18856" lon="6.95806">
        <ele>336</ele>
        <time>2011-04-05T13:15:50Z</time>
      </trkpt>
      <trkpt lat="49.18856" lon="6.95807">
        <ele>336</ele>
        <time>2011-04-05T13:15:51Z</time>
      </trkpt>
      <trkpt lat="49.18855" lon="6.95809">
        <ele>337</ele>
        <time>2011-04-05T13:15:52Z</time>
      </trkpt>
      <trkpt lat="49.18855" lon="6.95811">
        <ele>337</ele>
        <time>2011-04-05T13:15:53Z</time>
      </trkpt>
      <trkpt lat="49.18854" lon="6.95813">
        <ele>337</ele>
        <time>2011-04-05T13:15:54Z</time>
      </trkpt>
      <trkpt lat="49.18853" lon="6.95816">
        <ele>337</ele>
        <time>2011-04-05T13:15:56Z</time>
      </trkpt>
      <trkpt lat="49.18852" lon="6.95818">
        <ele>337</ele>
        <time>2011-04-05T13:15:57Z</time>
      </trkpt>
      <trkpt lat="49.18851" lon="6.95819">
        <ele>337</ele>
        <time>2011-04-05T13:15:58Z</time>
      </trkpt>
      <trkpt lat="49.18851" lon="6.95821">
        <ele>337</ele>
        <time>2011-04-05T13:15:59Z</time>
      </trkpt>
      <trkpt lat="49.1885" lon="6.95823">
        <ele>337</ele>
        <time>2011-04-05T13:16:00Z</time>
      </trkpt>
      <trkpt lat="49.1885" lon="6.95825">
        <ele>338</ele>
        <time>2011-04-05T13:16:01Z</time>
      </trkpt>
      <trkpt lat="49.18849" lon="6.95827">
        <ele>338</ele>
        <time>2011-04-05T13:16:02Z</time>
      </trkpt>
      <trkpt lat="49.18849" lon="6.95828">
        <ele>338</ele>
        <time>2011-04-05T13:16:03Z</time>
      </trkpt>
      <trkpt lat="49.18848" lon="6.9583">
        <ele>338</ele>
        <time>2011-04-05T13:16:04Z</time>
      </trkpt>
      <trkpt lat="49.18848" lon="6.95832">
        <ele>338</ele>
        <time>2011-04-05T13:16:05Z</time>
      </trkpt>
      <trkpt lat="49.18847" lon="6.95834">
        <ele>338</ele>
        <time>2011-04-05T13:16:06Z</time>
      </trkpt>
      <trkpt lat="49.18846" lon="6.95836">
        <ele>339</ele>
        <time>2011-04-05T13:16:07Z</time>
      </trkpt>
      <trkpt lat="49.18845" lon="6.95838">
        <ele>339</ele>
        <time>2011-04-05T13:16:08Z</time>
      </trkpt>
      <trkpt lat="49.18845" lon="6.9584">
        <ele>339</ele>
        <time>2011-04-05T13:16:09Z</time>
      </trkpt>
      <trkpt lat="49.18844" lon="6.95842">
        <ele>339</ele>
        <time>2011-04-05T13:16:10Z</time>
      </trkpt>
      <trkpt lat="49.18843" lon="6.95843">
        <ele>339</ele>
        <time>2011-04-05T13:16:11Z</time>
      </trkpt>
      <trkpt lat="49.18843" lon="6.95845">
        <ele>339</ele>
        <time>2011-04-05T13:16:12Z</time>
      </trkpt>
      <trkpt lat="49.18842" lon="6.95847">
        <ele>339</ele>
        <time>2011-04-05T13:16:13Z</time>
      </trkpt>
      <trkpt lat="49.18842" lon="6.95849">
        <ele>339</ele>
        <time>2011-04-05T13:16:14Z</time>
      </trkpt>
      <trkpt lat="49.18841" lon="6.95851">
        <ele>339</ele>
        <time>2011-04-05T13:16:15Z</time>
      </trkpt>
      <trkpt lat="49.1884" lon="6.95852">
        <ele>340</ele>
        <time>2011-04-05T13:16:16Z</time>
      </trkpt>
      <trkpt lat="49.1884" lon="6.95854">
        <ele>340</ele>
        <time>2011-04-05T13:16:17Z</time>
      </trkpt>
      <trkpt lat="49.18839" lon="6.95856">
        <ele>340</ele>
        <time>2011-04-05T13:16:18Z</time>
      </trkpt>
      <trkpt lat="49.18839" lon="6.95858">
        <ele>340</ele>
        <time>2011-04-05T13:16:19Z</time>
      </trkpt>
      <trkpt lat="49.18838" lon="6.9586">
        <ele>340</ele>
        <time>2011-04-05T13:16:20Z</time>
      </trkpt>
      <trkpt lat="49.18837" lon="6.95862">
        <ele>340</ele>
        <time>2011-04-05T13:16:21Z</time>
      </trkpt>
      <trkpt lat="49.18837" lon="6.95864">
        <ele>340</ele>
        <time>2011-04-05T13:16:22Z</time>
      </trkpt>
      <trkpt lat="49.18836" lon="6.95866">
        <ele>340</ele>
        <time>2011-04-05T13:16:23Z</time>
      </trkpt>
      <trkpt lat="49.18835" lon="6.95868">
        <ele>340</ele>
        <time>2011-04-05T13:16:24Z</time>
      </trkpt>
      <trkpt lat="49.18835" lon="6.9587">
        <ele>340</ele>
        <time>2011-04-05T13:16:25Z</time>
      </trkpt>
      <trkpt lat="49.18834" lon="6.95872">
        <ele>340</ele>
        <time>2011-04-05T13:16:26Z</time>
      </trkpt>
      <trkpt lat="49.18833" lon="6.95874">
        <ele>340</ele>
        <time>2011-04-05T13:16:27Z</time>
      </trkpt>
      <trkpt lat="49.18833" lon="6.95876">
        <ele>340</ele>
        <time>2011-04-05T13:16:28Z</time>
      </trkpt>
      <trkpt lat="49.18832" lon="6.95878">
        <ele>340</ele>
        <time>2011-04-05T13:16:29Z</time>
      </trkpt>
      <trkpt lat="49.18831" lon="6.9588">
        <ele>340</ele>
        <time>2011-04-05T13:16:30Z</time>
      </trkpt>
      <trkpt lat="49.18831" lon="6.95881">
        <ele>341</ele>
        <time>2011-04-05T13:16:31Z</time>
      </trkpt>
      <trkpt lat="49.1883" lon="6.95883">
        <ele>341</ele>
        <time>2011-04-05T13:16:32Z</time>
      </trkpt>
      <trkpt lat="49.18829" lon="6.95885">
        <ele>341</ele>
        <time>2011-04-05T13:16:33Z</time>
      </trkpt>
      <trkpt lat="49.18829" lon="6.95887">
        <ele>341</ele>
        <time>2011-04-05T13:16:34Z</time>
      </trkpt>
      <trkpt lat="49.18828" lon="6.95889">
        <ele>341</ele>
        <time>2011-04-05T13:16:35Z</time>
      </trkpt>
      <trkpt lat="49.18827" lon="6.9589">
        <ele>341</ele>
        <time>2011-04-05T13:16:36Z</time>
      </trkpt>
      <trkpt lat="49.18827" lon="6.95892">
        <ele>341</ele>
        <time>2011-04-05T13:16:37Z</time>
      </trkpt>
      <trkpt lat="49.18826" lon="6.95894">
        <ele>341</ele>
        <time>2011-04-05T13:16:38Z</time>
      </trkpt>
      <trkpt lat="49.18825" lon="6.95896">
        <ele>341</ele>
        <time>2011-04-05T13:16:39Z</time>
      </trkpt>
      <trkpt lat="49.18825" lon="6.95898">
        <ele>341</ele>
        <time>2011-04-05T13:16:40Z</time>
      </trkpt>
      <trkpt lat="49.18824" lon="6.95899">
        <ele>341</ele>
        <time>2011-04-05T13:16:41Z</time>
      </trkpt>
      <trkpt lat="49.18823" lon="6.95901">
        <ele>341</ele>
        <time>2011-04-05T13:16:42Z</time>
      </trkpt>
      <trkpt lat="49.18822" lon="6.95903">
        <ele>341</ele>
        <time>2011-04-05T13:16:43Z</time>
      </trkpt>
      <trkpt lat="49.18821" lon="6.95905">
        <ele>341</ele>
        <time>2011-04-05T13:16:44Z</time>
      </trkpt>
      <trkpt lat="49.1882" lon="6.95908">
        <ele>341</ele>
        <time>2011-04-05T13:16:46Z</time>
      </trkpt>
      <trkpt lat="49.18819" lon="6.9591">
        <ele>341</ele>
        <time>2011-04-05T13:16:47Z</time>
      </trkpt>
      <trkpt lat="49.18819" lon="6.95912">
        <ele>341</ele>
        <time>2011-04-05T13:16:48Z</time>
      </trkpt>
      <trkpt lat="49.18819" lon="6.95914">
        <ele>341</ele>
        <time>2011-04-05T13:16:49Z</time>
      </trkpt>
      <trkpt lat="49.18819" lon="6.95916">
        <ele>341</ele>
        <time>2011-04-05T13:16:50Z</time>
      </trkpt>
      <trkpt lat="49.18819" lon="6.95918">
        <ele>341</ele>
        <time>2011-04-05T13:16:51Z</time>
      </trkpt>
      <trkpt lat="49.18819" lon="6.95921">
        <ele>341</ele>
        <time>2011-04-05T13:16:52Z</time>
      </trkpt>
      <trkpt lat="49.1882" lon="6.95923">
        <ele>341</ele>
        <time>2011-04-05T13:16:53Z</time>
      </trkpt>
      <trkpt lat="49.1882" lon="6.95924">
        <ele>341</ele>
        <time>2011-04-05T13:16:54Z</time>
      </trkpt>
      <trkpt lat="49.18821" lon="6.95926">
        <ele>341</ele>
        <time>2011-04-05T13:16:55Z</time>
      </trkpt>
      <trkpt lat="49.18821" lon="6.95928">
        <ele>341</ele>
        <time>2011-04-05T13:16:56Z</time>
      </trkpt>
      <trkpt lat="49.18822" lon="6.95929">
        <ele>341</ele>
        <time>2011-04-05T13:16:57Z</time>
      </trkpt>
      <trkpt lat="49.18823" lon="6.95931">
        <ele>341</ele>
        <time>2011-04-05T13:16:58Z</time>
      </trkpt>
      <trkpt lat="49.18824" lon="6.95933">
        <ele>341</ele>
        <time>2011-04-05T13:16:59Z</time>
      </trkpt>
      <trkpt lat="49.18826" lon="6.95936">
        <ele>341</ele>
        <time>2011-04-05T13:17:01Z</time>
      </trkpt>
      <trkpt lat="49.18827" lon="6.95938">
        <ele>341</ele>
        <time>2011-04-05T13:17:02Z</time>
      </trkpt>
      <trkpt lat="49.18828" lon="6.9594">
        <ele>341</ele>
        <time>2011-04-05T13:17:03Z</time>
      </trkpt>
      <trkpt lat="49.1883" lon="6.95942">
        <ele>341</ele>
        <time>2011-04-05T13:17:05Z</time>
      </trkpt>
      <trkpt lat="49.18832" lon="6.95945">
        <ele>341</ele>
        <time>2011-04-05T13:17:07Z</time>
      </trkpt>
      <trkpt lat="49.18834" lon="6.95947">
        <ele>341</ele>
        <time>2011-04-05T13:17:09Z</time>
      </trkpt>
      <trkpt lat="49.18835" lon="6.95948">
        <ele>341</ele>
        <time>2011-04-05T13:17:10Z</time>
      </trkpt>
      <trkpt lat="49.18837" lon="6.95949">
        <ele>341</ele>
        <time>2011-04-05T13:17:11Z</time>
      </trkpt>
      <trkpt lat="49.18838" lon="6.9595">
        <ele>341</ele>
        <time>2011-04-05T13:17:12Z</time>
      </trkpt>
      <trkpt lat="49.18839" lon="6.95952">
        <ele>341</ele>
        <time>2011-04-05T13:17:13Z</time>
      </trkpt>
      <trkpt lat="49.1884" lon="6.95953">
        <ele>341</ele>
        <time>2011-04-05T13:17:14Z</time>
      </trkpt>
      <trkpt lat="49.18841" lon="6.95954">
        <ele>341</ele>
        <time>2011-04-05T13:17:15Z</time>
      </trkpt>
      <trkpt lat="49.18842" lon="6.95955">
        <ele>341</ele>
        <time>2011-04-05T13:17:16Z</time>
      </trkpt>
      <trkpt lat="49.18844" lon="6.95956">
        <ele>341</ele>
        <time>2011-04-05T13:17:17Z</time>
      </trkpt>
      <trkpt lat="49.18845" lon="6.95957">
        <ele>341</ele>
        <time>2011-04-05T13:17:18Z</time>
      </trkpt>
      <trkpt lat="49.18847" lon="6.95958">
        <ele>341</ele>
        <time>2011-04-05T13:17:19Z</time>
      </trkpt>
      <trkpt lat="49.18848" lon="6.95959">
        <ele>341</ele>
        <time>2011-04-05T13:17:20Z</time>
      </trkpt>
      <trkpt lat="49.18849" lon="6.9596">
        <ele>341</ele>
        <time>2011-04-05T13:17:21Z</time>
      </trkpt>
      <trkpt lat="49.1885" lon="6.95961">
        <ele>341</ele>
        <time>2011-04-05T13:17:22Z</time>
      </trkpt>
      <trkpt lat="49.18852" lon="6.95962">
        <ele>341</ele>
        <time>2011-04-05T13:17:23Z</time>
      </trkpt>
      <trkpt lat="49.18853" lon="6.95963">
        <ele>341</ele>
        <time>2011-04-05T13:17:24Z</time>
      </trkpt>
      <trkpt lat="49.18855" lon="6.95964">
        <ele>341</ele>
        <time>2011-04-05T13:17:25Z</time>
      </trkpt>
      <trkpt lat="49.18856" lon="6.95965">
        <ele>341</ele>
        <time>2011-04-05T13:17:26Z</time>
      </trkpt>
      <trkpt lat="49.18857" lon="6.95966">
        <ele>341</ele>
        <time>2011-04-05T13:17:27Z</time>
      </trkpt>
      <trkpt lat="49.18858" lon="6.95967">
        <ele>341</ele>
        <time>2011-04-05T13:17:28Z</time>
      </trkpt>
      <trkpt lat="49.18859" lon="6.95969">
        <ele>341</ele>
        <time>2011-04-05T13:17:29Z</time>
      </trkpt>
      <trkpt lat="49.18861" lon="6.9597">
        <ele>341</ele>
        <time>2011-04-05T13:17:30Z</time>
      </trkpt>
      <trkpt lat="49.18862" lon="6.95971">
        <ele>341</ele>
        <time>2011-04-05T13:17:31Z</time>
      </trkpt>
      <trkpt lat="49.18863" lon="6.95972">
        <ele>341</ele>
        <time>2011-04-05T13:17:32Z</time>
      </trkpt>
      <trkpt lat="49.18864" lon="6.95973">
        <ele>341</ele>
        <time>2011-04-05T13:17:33Z</time>
      </trkpt>
      <trkpt lat="49.18866" lon="6.95976">
        <ele>341</ele>
        <time>2011-04-05T13:17:35Z</time>
      </trkpt>
      <trkpt lat="49.18868" lon="6.95977">
        <ele>341</ele>
        <time>2011-04-05T13:17:36Z</time>
      </trkpt>
      <trkpt lat="49.1887" lon="6.95979">
        <ele>340</ele>
        <time>2011-04-05T13:17:38Z</time>
      </trkpt>
      <trkpt lat="49.18871" lon="6.9598">
        <ele>340</ele>
        <time>2011-04-05T13:17:39Z</time>
      </trkpt>
      <trkpt lat="49.18872" lon="6.95981">
        <ele>340</ele>
        <time>2011-04-05T13:17:40Z</time>
      </trkpt>
      <trkpt lat="49.18873" lon="6.95982">
        <ele>340</ele>
        <time>2011-04-05T13:17:41Z</time>
      </trkpt>
      <trkpt lat="49.18875" lon="6.95984">
        <ele>340</ele>
        <time>2011-04-05T13:17:42Z</time>
      </trkpt>
      <trkpt lat="49.18876" lon="6.95985">
        <ele>340</ele>
        <time>2011-04-05T13:17:43Z</time>
      </trkpt>
      <trkpt lat="49.18877" lon="6.95986">
        <ele>340</ele>
        <time>2011-04-05T13:17:44Z</time>
      </trkpt>
      <trkpt lat="49.18879" lon="6.95987">
        <ele>340</ele>
        <time>2011-04-05T13:17:45Z</time>
      </trkpt>
      <trkpt lat="49.1888" lon="6.95988">
        <ele>340</ele>
        <time>2011-04-05T13:17:46Z</time>
      </trkpt>
      <trkpt lat="49.18881" lon="6.95989">
        <ele>340</ele>
        <time>2011-04-05T13:17:47Z</time>
      </trkpt>
      <trkpt lat="49.18882" lon="6.9599">
        <ele>340</ele>
        <time>2011-04-05T13:17:48Z</time>
      </trkpt>
      <trkpt lat="49.18884" lon="6.95991">
        <ele>340</ele>
        <time>2011-04-05T13:17:49Z</time>
      </trkpt>
      <trkpt lat="49.18885" lon="6.95992">
        <ele>340</ele>
        <time>2011-04-05T13:17:50Z</time>
      </trkpt>
      <trkpt lat="49.18886" lon="6.95993">
        <ele>340</ele>
        <time>2011-04-05T13:17:51Z</time>
      </trkpt>
      <trkpt lat="49.18887" lon="6.95994">
        <ele>340</ele>
        <time>2011-04-05T13:17:52Z</time>
      </trkpt>
      <trkpt lat="49.18889" lon="6.95994">
        <ele>340</ele>
        <time>2011-04-05T13:17:53Z</time>
      </trkpt>
      <trkpt lat="49.1889" lon="6.95995">
        <ele>340</ele>
        <time>2011-04-05T13:17:54Z</time>
      </trkpt>
      <trkpt lat="49.18891" lon="6.95995">
        <ele>340</ele>
        <time>2011-04-05T13:17:55Z</time>
      </trkpt>
      <trkpt lat="49.18893" lon="6.95996">
        <ele>340</ele>
        <time>2011-04-05T13:17:56Z</time>
      </trkpt>
      <trkpt lat="49.18894" lon="6.95996">
        <ele>340</ele>
        <time>2011-04-05T13:17:57Z</time>
      </trkpt>
      <trkpt lat="49.18895" lon="6.95995">
        <ele>340</ele>
        <time>2011-04-05T13:17:58Z</time>
      </trkpt>
      <trkpt lat="49.18897" lon="6.95995">
        <ele>340</ele>
        <time>2011-04-05T13:17:59Z</time>
      </trkpt>
      <trkpt lat="49.18898" lon="6.95995">
        <ele>340</ele>
        <time>2011-04-05T13:18:00Z</time>
      </trkpt>
      <trkpt lat="49.189" lon="6.95995">
        <ele>340</ele>
        <time>2011-04-05T13:18:01Z</time>
      </trkpt>
      <trkpt lat="49.18901" lon="6.95993">
        <ele>340</ele>
        <time>2011-04-05T13:18:02Z</time>
      </trkpt>
      <trkpt lat="49.18903" lon="6.95992">
        <ele>340</ele>
        <time>2011-04-05T13:18:03Z</time>
      </trkpt>
      <trkpt lat="49.18904" lon="6.95992">
        <ele>340</ele>
        <time>2011-04-05T13:18:04Z</time>
      </trkpt>
      <trkpt lat="49.18906" lon="6.9599">
        <ele>340</ele>
        <time>2011-04-05T13:18:05Z</time>
      </trkpt>
      <trkpt lat="49.18907" lon="6.95989">
        <ele>340</ele>
        <time>2011-04-05T13:18:06Z</time>
      </trkpt>
      <trkpt lat="49.18908" lon="6.95987">
        <ele>340</ele>
        <time>2011-04-05T13:18:07Z</time>
      </trkpt>
      <trkpt lat="49.18909" lon="6.95985">
        <ele>340</ele>
        <time>2011-04-05T13:18:08Z</time>
      </trkpt>
      <trkpt lat="49.1891" lon="6.95984">
        <ele>340</ele>
        <time>2011-04-05T13:18:09Z</time>
      </trkpt>
      <trkpt lat="49.18911" lon="6.95982">
        <ele>340</ele>
        <time>2011-04-05T13:18:10Z</time>
      </trkpt>
      <trkpt lat="49.18912" lon="6.9598">
        <ele>340</ele>
        <time>2011-04-05T13:18:11Z</time>
      </trkpt>
      <trkpt lat="49.18913" lon="6.95978">
        <ele>340</ele>
        <time>2011-04-05T13:18:12Z</time>
      </trkpt>
      <trkpt lat="49.18914" lon="6.95976">
        <ele>340</ele>
        <time>2011-04-05T13:18:13Z</time>
      </trkpt>
      <trkpt lat="49.18915" lon="6.95974">
        <ele>340</ele>
        <time>2011-04-05T13:18:14Z</time>
      </trkpt>
      <trkpt lat="49.18916" lon="6.95972">
        <ele>340</ele>
        <time>2011-04-05T13:18:15Z</time>
      </trkpt>
      <trkpt lat="49.18917" lon="6.9597">
        <ele>340</ele>
        <time>2011-04-05T13:18:16Z</time>
      </trkpt>
      <trkpt lat="49.18919" lon="6.95969">
        <ele>340</ele>
        <time>2011-04-05T13:18:17Z</time>
      </trkpt>
      <trkpt lat="49.18919" lon="6.95967">
        <ele>340</ele>
        <time>2011-04-05T13:18:18Z</time>
      </trkpt>
      <trkpt lat="49.18921" lon="6.95965">
        <ele>340</ele>
        <time>2011-04-05T13:18:19Z</time>
      </trkpt>
      <trkpt lat="49.18922" lon="6.95963">
        <ele>340</ele>
        <time>2011-04-05T13:18:20Z</time>
      </trkpt>
      <trkpt lat="49.18923" lon="6.95961">
        <ele>340</ele>
        <time>2011-04-05T13:18:21Z</time>
      </trkpt>
      <trkpt lat="49.18924" lon="6.9596">
        <ele>340</ele>
        <time>2011-04-05T13:18:22Z</time>
      </trkpt>
      <trkpt lat="49.18925" lon="6.95958">
        <ele>340</ele>
        <time>2011-04-05T13:18:23Z</time>
      </trkpt>
      <trkpt lat="49.18927" lon="6.95957">
        <ele>340</ele>
        <time>2011-04-05T13:18:24Z</time>
      </trkpt>
      <trkpt lat="49.18928" lon="6.95956">
        <ele>340</ele>
        <time>2011-04-05T13:18:25Z</time>
      </trkpt>
      <trkpt lat="49.1893" lon="6.95955">
        <ele>340</ele>
        <time>2011-04-05T13:18:26Z</time>
      </trkpt>
      <trkpt lat="49.18931" lon="6.95954">
        <ele>340</ele>
        <time>2011-04-05T13:18:27Z</time>
      </trkpt>
      <trkpt lat="49.18932" lon="6.95955">
        <ele>340</ele>
        <time>2011-04-05T13:18:28Z</time>
      </trkpt>
      <trkpt lat="49.18934" lon="6.95955">
        <ele>340</ele>
        <time>2011-04-05T13:18:29Z</time>
      </trkpt>
      <trkpt lat="49.18935" lon="6.95956">
        <ele>340</ele>
        <time>2011-04-05T13:18:30Z</time>
      </trkpt>
      <trkpt lat="49.18937" lon="6.95957">
        <ele>340</ele>
        <time>2011-04-05T13:18:31Z</time>
      </trkpt>
      <trkpt lat="49.18938" lon="6.95958">
        <ele>340</ele>
        <time>2011-04-05T13:18:32Z</time>
      </trkpt>
      <trkpt lat="49.18939" lon="6.95958">
        <ele>340</ele>
        <time>2011-04-05T13:18:33Z</time>
      </trkpt>
      <trkpt lat="49.1894" lon="6.95959">
        <ele>340</ele>
        <time>2011-04-05T13:18:34Z</time>
      </trkpt>
      <trkpt lat="49.18942" lon="6.9596">
        <ele>340</ele>
        <time>2011-04-05T13:18:35Z</time>
      </trkpt>
      <trkpt lat="49.18943" lon="6.95961">
        <ele>340</ele>
        <time>2011-04-05T13:18:36Z</time>
      </trkpt>
      <trkpt lat="49.18945" lon="6.95964">
        <ele>340</ele>
        <time>2011-04-05T13:18:38Z</time>
      </trkpt>
      <trkpt lat="49.18947" lon="6.95965">
        <ele>340</ele>
        <time>2011-04-05T13:18:39Z</time>
      </trkpt>
      <trkpt lat="49.18948" lon="6.95967">
        <ele>340</ele>
        <time>2011-04-05T13:18:40Z</time>
      </trkpt>
      <trkpt lat="49.1895" lon="6.95968">
        <ele>340</ele>
        <time>2011-04-05T13:18:41Z</time>
      </trkpt>
      <trkpt lat="49.18951" lon="6.95969">
        <ele>340</ele>
        <time>2011-04-05T13:18:42Z</time>
      </trkpt>
      <trkpt lat="49.18952" lon="6.9597">
        <ele>340</ele>
        <time>2011-04-05T13:18:43Z</time>
      </trkpt>
      <trkpt lat="49.18953" lon="6.95971">
        <ele>340</ele>
        <time>2011-04-05T13:18:44Z</time>
      </trkpt>
      <trkpt lat="49.18955" lon="6.95973">
        <ele>340</ele>
        <time>2011-04-05T13:18:45Z</time>
      </trkpt>
      <trkpt lat="49.18956" lon="6.95974">
        <ele>340</ele>
        <time>2011-04-05T13:18:46Z</time>
      </trkpt>
      <trkpt lat="49.18957" lon="6.95975">
        <ele>340</ele>
        <time>2011-04-05T13:18:47Z</time>
      </trkpt>
      <trkpt lat="49.18959" lon="6.95977">
        <ele>340</ele>
        <time>2011-04-05T13:18:48Z</time>
      </trkpt>
      <trkpt lat="49.1896" lon="6.95978">
        <ele>340</ele>
        <time>2011-04-05T13:18:49Z</time>
      </trkpt>
      <trkpt lat="49.18961" lon="6.95979">
        <ele>340</ele>
        <time>2011-04-05T13:18:50Z</time>
      </trkpt>
      <trkpt lat="49.18962" lon="6.9598">
        <ele>340</ele>
        <time>2011-04-05T13:18:51Z</time>
      </trkpt>
      <trkpt lat="49.18964" lon="6.95981">
        <ele>340</ele>
        <time>2011-04-05T13:18:52Z</time>
      </trkpt>
      <trkpt lat="49.18965" lon="6.95981">
        <ele>340</ele>
        <time>2011-04-05T13:18:53Z</time>
      </trkpt>
      <trkpt lat="49.18967" lon="6.95982">
        <ele>340</ele>
        <time>2011-04-05T13:18:54Z</time>
      </trkpt>
      <trkpt lat="49.18968" lon="6.95984">
        <ele>340</ele>
        <time>2011-04-05T13:18:55Z</time>
      </trkpt>
      <trkpt lat="49.18969" lon="6.95985">
        <ele>340</ele>
        <time>2011-04-05T13:18:56Z</time>
      </trkpt>
      <trkpt lat="49.18971" lon="6.95986">
        <ele>340</ele>
        <time>2011-04-05T13:18:57Z</time>
      </trkpt>
      <trkpt lat="49.18972" lon="6.95987">
        <ele>340</ele>
        <time>2011-04-05T13:18:58Z</time>
      </trkpt>
      <trkpt lat="49.18973" lon="6.95988">
        <ele>340</ele>
        <time>2011-04-05T13:18:59Z</time>
      </trkpt>
      <trkpt lat="49.18974" lon="6.95989">
        <ele>340</ele>
        <time>2011-04-05T13:19:00Z</time>
      </trkpt>
      <trkpt lat="49.18975" lon="6.9599">
        <ele>340</ele>
        <time>2011-04-05T13:19:01Z</time>
      </trkpt>
      <trkpt lat="49.18977" lon="6.95991">
        <ele>340</ele>
        <time>2011-04-05T13:19:02Z</time>
      </trkpt>
      <trkpt lat="49.18978" lon="6.95993">
        <ele>340</ele>
        <time>2011-04-05T13:19:03Z</time>
      </trkpt>
      <trkpt lat="49.18979" lon="6.95994">
        <ele>340</ele>
        <time>2011-04-05T13:19:04Z</time>
      </trkpt>
      <trkpt lat="49.18981" lon="6.95995">
        <ele>340</ele>
        <time>2011-04-05T13:19:05Z</time>
      </trkpt>
      <trkpt lat="49.18982" lon="6.95997">
        <ele>340</ele>
        <time>2011-04-05T13:19:06Z</time>
      </trkpt>
      <trkpt lat="49.18983" lon="6.95998">
        <ele>340</ele>
        <time>2011-04-05T13:19:07Z</time>
      </trkpt>
      <trkpt lat="49.18985" lon="6.95999">
        <ele>340</ele>
        <time>2011-04-05T13:19:08Z</time>
      </trkpt>
      <trkpt lat="49.18986" lon="6.96">
        <ele>340</ele>
        <time>2011-04-05T13:19:09Z</time>
      </trkpt>
      <trkpt lat="49.18987" lon="6.96001">
        <ele>340</ele>
        <time>2011-04-05T13:19:10Z</time>
      </trkpt>
      <trkpt lat="49.18988" lon="6.96002">
        <ele>340</ele>
        <time>2011-04-05T13:19:11Z</time>
      </trkpt>
      <trkpt lat="49.1899" lon="6.96004">
        <ele>340</ele>
        <time>2011-04-05T13:19:12Z</time>
      </trkpt>
      <trkpt lat="49.18991" lon="6.96005">
        <ele>340</ele>
        <time>2011-04-05T13:19:13Z</time>
      </trkpt>
      <trkpt lat="49.18992" lon="6.96006">
        <ele>340</ele>
        <time>2011-04-05T13:19:14Z</time>
      </trkpt>
      <trkpt lat="49.18993" lon="6.96007">
        <ele>340</ele>
        <time>2011-04-05T13:19:15Z</time>
      </trkpt>
      <trkpt lat="49.18995" lon="6.96009">
        <ele>340</ele>
        <time>2011-04-05T13:19:16Z</time>
      </trkpt>
      <trkpt lat="49.18996" lon="6.9601">
        <ele>340</ele>
        <time>2011-04-05T13:19:17Z</time>
      </trkpt>
      <trkpt lat="49.18997" lon="6.96011">
        <ele>340</ele>
        <time>2011-04-05T13:19:18Z</time>
      </trkpt>
      <trkpt lat="49.18999" lon="6.96012">
        <ele>340</ele>
        <time>2011-04-05T13:19:19Z</time>
      </trkpt>
      <trkpt lat="49.19" lon="6.96013">
        <ele>340</ele>
        <time>2011-04-05T13:19:20Z</time>
      </trkpt>
      <trkpt lat="49.19001" lon="6.96014">
        <ele>340</ele>
        <time>2011-04-05T13:19:21Z</time>
      </trkpt>
      <trkpt lat="49.19002" lon="6.96016">
        <ele>340</ele>
        <time>2011-04-05T13:19:22Z</time>
      </trkpt>
      <trkpt lat="49.19003" lon="6.96018">
        <ele>340</ele>
        <time>2011-04-05T13:19:23Z</time>
      </trkpt>
      <trkpt lat="49.19005" lon="6.96019">
        <ele>340</ele>
        <time>2011-04-05T13:19:24Z</time>
      </trkpt>
      <trkpt lat="49.19007" lon="6.96021">
        <ele>340</ele>
        <time>2011-04-05T13:19:26Z</time>
      </trkpt>
      <trkpt lat="49.19008" lon="6.96023">
        <ele>340</ele>
        <time>2011-04-05T13:19:27Z</time>
      </trkpt>
      <trkpt lat="49.19009" lon="6.96024">
        <ele>340</ele>
        <time>2011-04-05T13:19:28Z</time>
      </trkpt>
      <trkpt lat="49.19011" lon="6.96027">
        <ele>340</ele>
        <time>2011-04-05T13:19:30Z</time>
      </trkpt>
      <trkpt lat="49.19012" lon="6.96029">
        <ele>340</ele>
        <time>2011-04-05T13:19:31Z</time>
      </trkpt>
      <trkpt lat="49.19014" lon="6.9603">
        <ele>340</ele>
        <time>2011-04-05T13:19:32Z</time>
      </trkpt>
      <trkpt lat="49.19016" lon="6.96033">
        <ele>340</ele>
        <time>2011-04-05T13:19:34Z</time>
      </trkpt>
      <trkpt lat="49.19017" lon="6.96034">
        <ele>340</ele>
        <time>2011-04-05T13:19:35Z</time>
      </trkpt>
      <trkpt lat="49.19018" lon="6.96036">
        <ele>340</ele>
        <time>2011-04-05T13:19:36Z</time>
      </trkpt>
      <trkpt lat="49.19019" lon="6.96037">
        <ele>340</ele>
        <time>2011-04-05T13:19:37Z</time>
      </trkpt>
      <trkpt lat="49.19021" lon="6.96039">
        <ele>340</ele>
        <time>2011-04-05T13:19:39Z</time>
      </trkpt>
      <trkpt lat="49.19022" lon="6.9604">
        <ele>340</ele>
        <time>2011-04-05T13:19:40Z</time>
      </trkpt>
      <trkpt lat="49.19024" lon="6.96041">
        <ele>340</ele>
        <time>2011-04-05T13:19:41Z</time>
      </trkpt>
      <trkpt lat="49.19025" lon="6.96043">
        <ele>340</ele>
        <time>2011-04-05T13:19:42Z</time>
      </trkpt>
      <trkpt lat="49.19026" lon="6.96044">
        <ele>340</ele>
        <time>2011-04-05T13:19:43Z</time>
      </trkpt>
      <trkpt lat="49.19027" lon="6.96045">
        <ele>340</ele>
        <time>2011-04-05T13:19:44Z</time>
      </trkpt>
      <trkpt lat="49.19028" lon="6.96046">
        <ele>340</ele>
        <time>2011-04-05T13:19:45Z</time>
      </trkpt>
      <trkpt lat="49.1903" lon="6.96047">
        <ele>340</ele>
        <time>2011-04-05T13:19:46Z</time>
      </trkpt>
      <trkpt lat="49.19031" lon="6.96048">
        <ele>340</ele>
        <time>2011-04-05T13:19:47Z</time>
      </trkpt>
      <trkpt lat="49.19032" lon="6.96049">
        <ele>340</ele>
        <time>2011-04-05T13:19:48Z</time>
      </trkpt>
      <trkpt lat="49.19034" lon="6.96051">
        <ele>340</ele>
        <time>2011-04-05T13:19:50Z</time>
      </trkpt>
      <trkpt lat="49.19036" lon="6.96053">
        <ele>340</ele>
        <time>2011-04-05T13:19:52Z</time>
      </trkpt>
      <trkpt lat="49.19035" lon="6.96054">
        <ele>340</ele>
        <time>2011-04-05T13:20:05Z</time>
      </trkpt>
      <trkpt lat="49.19036" lon="6.96054">
        <ele>340</ele>
        <time>2011-04-05T13:20:12Z</time>
      </trkpt>
      <trkpt lat="49.19038" lon="6.96055">
        <ele>340</ele>
        <time>2011-04-05T13:20:14Z</time>
      </trkpt>
      <trkpt lat="49.1904" lon="6.96057">
        <ele>340</ele>
        <time>2011-04-05T13:20:16Z</time>
      </trkpt>
      <trkpt lat="49.19043" lon="6.96059">
        <ele>340</ele>
        <time>2011-04-05T13:20:18Z</time>
      </trkpt>
      <trkpt lat="49.19044" lon="6.9606">
        <ele>340</ele>
        <time>2011-04-05T13:20:19Z</time>
      </trkpt>
      <trkpt lat="49.19045" lon="6.96061">
        <ele>340</ele>
        <time>2011-04-05T13:20:20Z</time>
      </trkpt>
      <trkpt lat="49.19047" lon="6.96064">
        <ele>340</ele>
        <time>2011-04-05T13:20:22Z</time>
      </trkpt>
      <trkpt lat="49.19048" lon="6.96065">
        <ele>340</ele>
        <time>2011-04-05T13:20:23Z</time>
      </trkpt>
      <trkpt lat="49.19049" lon="6.96066">
        <ele>340</ele>
        <time>2011-04-05T13:20:24Z</time>
      </trkpt>
      <trkpt lat="49.19052" lon="6.96068">
        <ele>340</ele>
        <time>2011-04-05T13:20:26Z</time>
      </trkpt>
      <trkpt lat="49.19053" lon="6.9607">
        <ele>340</ele>
        <time>2011-04-05T13:20:27Z</time>
      </trkpt>
      <trkpt lat="49.19054" lon="6.96072">
        <ele>340</ele>
        <time>2011-04-05T13:20:29Z</time>
      </trkpt>
      <trkpt lat="49.19056" lon="6.96073">
        <ele>340</ele>
        <time>2011-04-05T13:20:30Z</time>
      </trkpt>
      <trkpt lat="49.19058" lon="6.96075">
        <ele>339</ele>
        <time>2011-04-05T13:20:32Z</time>
      </trkpt>
      <trkpt lat="49.19059" lon="6.96076">
        <ele>339</ele>
        <time>2011-04-05T13:20:33Z</time>
      </trkpt>
      <trkpt lat="49.1906" lon="6.96077">
        <ele>339</ele>
        <time>2011-04-05T13:20:34Z</time>
      </trkpt>
      <trkpt lat="49.19062" lon="6.9608">
        <ele>338</ele>
        <time>2011-04-05T13:20:36Z</time>
      </trkpt>
      <trkpt lat="49.19064" lon="6.96081">
        <ele>338</ele>
        <time>2011-04-05T13:20:37Z</time>
      </trkpt>
      <trkpt lat="49.19065" lon="6.96083">
        <ele>338</ele>
        <time>2011-04-05T13:20:38Z</time>
      </trkpt>
      <trkpt lat="49.19066" lon="6.96084">
        <ele>338</ele>
        <time>2011-04-05T13:20:39Z</time>
      </trkpt>
      <trkpt lat="49.19067" lon="6.96086">
        <ele>338</ele>
        <time>2011-04-05T13:20:40Z</time>
      </trkpt>
      <trkpt lat="49.19068" lon="6.96088">
        <ele>338</ele>
        <time>2011-04-05T13:20:41Z</time>
      </trkpt>
      <trkpt lat="49.19069" lon="6.96089">
        <ele>338</ele>
        <time>2011-04-05T13:20:42Z</time>
      </trkpt>
      <trkpt lat="49.1907" lon="6.96091">
        <ele>338</ele>
        <time>2011-04-05T13:20:43Z</time>
      </trkpt>
      <trkpt lat="49.1907" lon="6.96093">
        <ele>338</ele>
        <time>2011-04-05T13:20:44Z</time>
      </trkpt>
      <trkpt lat="49.19071" lon="6.96095">
        <ele>337</ele>
        <time>2011-04-05T13:20:45Z</time>
      </trkpt>
      <trkpt lat="49.19072" lon="6.96097">
        <ele>337</ele>
        <time>2011-04-05T13:20:46Z</time>
      </trkpt>
      <trkpt lat="49.19073" lon="6.96098">
        <ele>337</ele>
        <time>2011-04-05T13:20:47Z</time>
      </trkpt>
      <trkpt lat="49.19074" lon="6.961">
        <ele>337</ele>
        <time>2011-04-05T13:20:48Z</time>
      </trkpt>
      <trkpt lat="49.19075" lon="6.96102">
        <ele>337</ele>
        <time>2011-04-05T13:20:49Z</time>
      </trkpt>
      <trkpt lat="49.19077" lon="6.96104">
        <ele>336</ele>
        <time>2011-04-05T13:20:50Z</time>
      </trkpt>
      <trkpt lat="49.19077" lon="6.96105">
        <ele>336</ele>
        <time>2011-04-05T13:20:51Z</time>
      </trkpt>
      <trkpt lat="49.19078" lon="6.96107">
        <ele>336</ele>
        <time>2011-04-05T13:20:52Z</time>
      </trkpt>
      <trkpt lat="49.19079" lon="6.96109">
        <ele>336</ele>
        <time>2011-04-05T13:20:53Z</time>
      </trkpt>
      <trkpt lat="49.1908" lon="6.96111">
        <ele>335</ele>
        <time>2011-04-05T13:20:54Z</time>
      </trkpt>
      <trkpt lat="49.19081" lon="6.96113">
        <ele>335</ele>
        <time>2011-04-05T13:20:55Z</time>
      </trkpt>
      <trkpt lat="49.19081" lon="6.96115">
        <ele>335</ele>
        <time>2011-04-05T13:20:56Z</time>
      </trkpt>
      <trkpt lat="49.19082" lon="6.96117">
        <ele>334</ele>
        <time>2011-04-05T13:20:57Z</time>
      </trkpt>
      <trkpt lat="49.19083" lon="6.96119">
        <ele>334</ele>
        <time>2011-04-05T13:20:58Z</time>
      </trkpt>
      <trkpt lat="49.19083" lon="6.96121">
        <ele>334</ele>
        <time>2011-04-05T13:20:59Z</time>
      </trkpt>
      <trkpt lat="49.19084" lon="6.96123">
        <ele>333</ele>
        <time>2011-04-05T13:21:00Z</time>
      </trkpt>
      <trkpt lat="49.19085" lon="6.96125">
        <ele>333</ele>
        <time>2011-04-05T13:21:01Z</time>
      </trkpt>
      <trkpt lat="49.19085" lon="6.96127">
        <ele>333</ele>
        <time>2011-04-05T13:21:02Z</time>
      </trkpt>
      <trkpt lat="49.19086" lon="6.96129">
        <ele>332</ele>
        <time>2011-04-05T13:21:03Z</time>
      </trkpt>
      <trkpt lat="49.19086" lon="6.96131">
        <ele>332</ele>
        <time>2011-04-05T13:21:04Z</time>
      </trkpt>
      <trkpt lat="49.19087" lon="6.96133">
        <ele>332</ele>
        <time>2011-04-05T13:21:05Z</time>
      </trkpt>
      <trkpt lat="49.19088" lon="6.96134">
        <ele>331</ele>
        <time>2011-04-05T13:21:06Z</time>
      </trkpt>
      <trkpt lat="49.1909" lon="6.96138">
        <ele>331</ele>
        <time>2011-04-05T13:21:08Z</time>
      </trkpt>
      <trkpt lat="49.19091" lon="6.96141">
        <ele>330</ele>
        <time>2011-04-05T13:21:10Z</time>
      </trkpt>
      <trkpt lat="49.19092" lon="6.96142">
        <ele>329</ele>
        <time>2011-04-05T13:21:11Z</time>
      </trkpt>
      <trkpt lat="49.19093" lon="6.96144">
        <ele>329</ele>
        <time>2011-04-05T13:21:12Z</time>
      </trkpt>
      <trkpt lat="49.19095" lon="6.96147">
        <ele>329</ele>
        <time>2011-04-05T13:21:14Z</time>
      </trkpt>
      <trkpt lat="49.19096" lon="6.96148">
        <ele>329</ele>
        <time>2011-04-05T13:21:15Z</time>
      </trkpt>
      <trkpt lat="49.19098" lon="6.9615">
        <ele>329</ele>
        <time>2011-04-05T13:21:16Z</time>
      </trkpt>
      <trkpt lat="49.19099" lon="6.96151">
        <ele>329</ele>
        <time>2011-04-05T13:21:17Z</time>
      </trkpt>
      <trkpt lat="49.19101" lon="6.96153">
        <ele>328</ele>
        <time>2011-04-05T13:21:19Z</time>
      </trkpt>
      <trkpt lat="49.19103" lon="6.96154">
        <ele>328</ele>
        <time>2011-04-05T13:21:20Z</time>
      </trkpt>
      <trkpt lat="49.19105" lon="6.96156">
        <ele>328</ele>
        <time>2011-04-05T13:21:21Z</time>
      </trkpt>
      <trkpt lat="49.19106" lon="6.96157">
        <ele>328</ele>
        <time>2011-04-05T13:21:22Z</time>
      </trkpt>
      <trkpt lat="49.19107" lon="6.96158">
        <ele>328</ele>
        <time>2011-04-05T13:21:23Z</time>
      </trkpt>
      <trkpt lat="49.19109" lon="6.96159">
        <ele>328</ele>
        <time>2011-04-05T13:21:24Z</time>
      </trkpt>
      <trkpt lat="49.1911" lon="6.9616">
        <ele>328</ele>
        <time>2011-04-05T13:21:25Z</time>
      </trkpt>
      <trkpt lat="49.19111" lon="6.96162">
        <ele>328</ele>
        <time>2011-04-05T13:21:26Z</time>
      </trkpt>
      <trkpt lat="49.19112" lon="6.96163">
        <ele>327</ele>
        <time>2011-04-05T13:21:27Z</time>
      </trkpt>
      <trkpt lat="49.19113" lon="6.96165">
        <ele>327</ele>
        <time>2011-04-05T13:21:28Z</time>
      </trkpt>
      <trkpt lat="49.19115" lon="6.96167">
        <ele>327</ele>
        <time>2011-04-05T13:21:30Z</time>
      </trkpt>
      <trkpt lat="49.19117" lon="6.96168">
        <ele>327</ele>
        <time>2011-04-05T13:21:31Z</time>
      </trkpt>
      <trkpt lat="49.19118" lon="6.96169">
        <ele>327</ele>
        <time>2011-04-05T13:21:32Z</time>
      </trkpt>
      <trkpt lat="49.19119" lon="6.96171">
        <ele>327</ele>
        <time>2011-04-05T13:21:33Z</time>
      </trkpt>
      <trkpt lat="49.19121" lon="6.96173">
        <ele>326</ele>
        <time>2011-04-05T13:21:35Z</time>
      </trkpt>
      <trkpt lat="49.19123" lon="6.96174">
        <ele>326</ele>
        <time>2011-04-05T13:21:36Z</time>
      </trkpt>
      <trkpt lat="49.19125" lon="6.96175">
        <ele>326</ele>
        <time>2011-04-05T13:21:37Z</time>
      </trkpt>
      <trkpt lat="49.19126" lon="6.96177">
        <ele>326</ele>
        <time>2011-04-05T13:21:38Z</time>
      </trkpt>
      <trkpt lat="49.19127" lon="6.96178">
        <ele>326</ele>
        <time>2011-04-05T13:21:39Z</time>
      </trkpt>
      <trkpt lat="49.19128" lon="6.96179">
        <ele>326</ele>
        <time>2011-04-05T13:21:40Z</time>
      </trkpt>
      <trkpt lat="49.19131" lon="6.96181">
        <ele>325</ele>
        <time>2011-04-05T13:21:42Z</time>
      </trkpt>
      <trkpt lat="49.19132" lon="6.96181">
        <ele>325</ele>
        <time>2011-04-05T13:21:43Z</time>
      </trkpt>
      <trkpt lat="49.19133" lon="6.96182">
        <ele>325</ele>
        <time>2011-04-05T13:21:44Z</time>
      </trkpt>
      <trkpt lat="49.19135" lon="6.96183">
        <ele>325</ele>
        <time>2011-04-05T13:21:45Z</time>
      </trkpt>
      <trkpt lat="49.19137" lon="6.96185">
        <ele>325</ele>
        <time>2011-04-05T13:21:47Z</time>
      </trkpt>
      <trkpt lat="49.19139" lon="6.96187">
        <ele>325</ele>
        <time>2011-04-05T13:21:49Z</time>
      </trkpt>
      <trkpt lat="49.19141" lon="6.96188">
        <ele>325</ele>
        <time>2011-04-05T13:21:50Z</time>
      </trkpt>
      <trkpt lat="49.19142" lon="6.96188">
        <ele>325</ele>
        <time>2011-04-05T13:21:51Z</time>
      </trkpt>
      <trkpt lat="49.19144" lon="6.9619">
        <ele>325</ele>
        <time>2011-04-05T13:21:53Z</time>
      </trkpt>
      <trkpt lat="49.19146" lon="6.9619">
        <ele>325</ele>
        <time>2011-04-05T13:21:54Z</time>
      </trkpt>
      <trkpt lat="49.19148" lon="6.96191">
        <ele>325</ele>
        <time>2011-04-05T13:21:55Z</time>
      </trkpt>
      <trkpt lat="49.19149" lon="6.96192">
        <ele>325</ele>
        <time>2011-04-05T13:21:56Z</time>
      </trkpt>
      <trkpt lat="49.19152" lon="6.96192">
        <ele>325</ele>
        <time>2011-04-05T13:21:57Z</time>
      </trkpt>
      <trkpt lat="49.19153" lon="6.96193">
        <ele>324</ele>
        <time>2011-04-05T13:21:58Z</time>
      </trkpt>
      <trkpt lat="49.19154" lon="6.96193">
        <ele>324</ele>
        <time>2011-04-05T13:21:59Z</time>
      </trkpt>
      <trkpt lat="49.19156" lon="6.96194">
        <ele>324</ele>
        <time>2011-04-05T13:22:00Z</time>
      </trkpt>
      <trkpt lat="49.19157" lon="6.96194">
        <ele>324</ele>
        <time>2011-04-05T13:22:01Z</time>
      </trkpt>
      <trkpt lat="49.19159" lon="6.96196">
        <ele>324</ele>
        <time>2011-04-05T13:22:03Z</time>
      </trkpt>
      <trkpt lat="49.19161" lon="6.96196">
        <ele>324</ele>
        <time>2011-04-05T13:22:04Z</time>
      </trkpt>
      <trkpt lat="49.19162" lon="6.96197">
        <ele>324</ele>
        <time>2011-04-05T13:22:05Z</time>
      </trkpt>
      <trkpt lat="49.19165" lon="6.96198">
        <ele>324</ele>
        <time>2011-04-05T13:22:07Z</time>
      </trkpt>
      <trkpt lat="49.19166" lon="6.96198">
        <ele>324</ele>
        <time>2011-04-05T13:22:08Z</time>
      </trkpt>
      <trkpt lat="49.19168" lon="6.96195">
        <ele>324</ele>
        <time>2011-04-05T13:22:11Z</time>
      </trkpt>
      <trkpt lat="49.19168" lon="6.96193">
        <ele>324</ele>
        <time>2011-04-05T13:22:12Z</time>
      </trkpt>
      <trkpt lat="49.19168" lon="6.96191">
        <ele>323</ele>
        <time>2011-04-05T13:22:13Z</time>
      </trkpt>
      <trkpt lat="49.19168" lon="6.96189">
        <ele>323</ele>
        <time>2011-04-05T13:22:14Z</time>
      </trkpt>
      <trkpt lat="49.19169" lon="6.96187">
        <ele>323</ele>
        <time>2011-04-05T13:22:15Z</time>
      </trkpt>
      <trkpt lat="49.19169" lon="6.96185">
        <ele>323</ele>
        <time>2011-04-05T13:22:16Z</time>
      </trkpt>
      <trkpt lat="49.19168" lon="6.96183">
        <ele>323</ele>
        <time>2011-04-05T13:22:17Z</time>
      </trkpt>
      <trkpt lat="49.19168" lon="6.9618">
        <ele>323</ele>
        <time>2011-04-05T13:22:18Z</time>
      </trkpt>
      <trkpt lat="49.19169" lon="6.96178">
        <ele>323</ele>
        <time>2011-04-05T13:22:19Z</time>
      </trkpt>
      <trkpt lat="49.19169" lon="6.96176">
        <ele>323</ele>
        <time>2011-04-05T13:22:20Z</time>
      </trkpt>
      <trkpt lat="49.19169" lon="6.96174">
        <ele>323</ele>
        <time>2011-04-05T13:22:21Z</time>
      </trkpt>
      <trkpt lat="49.19169" lon="6.96172">
        <ele>323</ele>
        <time>2011-04-05T13:22:22Z</time>
      </trkpt>
      <trkpt lat="49.19168" lon="6.9617">
        <ele>323</ele>
        <time>2011-04-05T13:22:23Z</time>
      </trkpt>
      <trkpt lat="49.19169" lon="6.96168">
        <ele>323</ele>
        <time>2011-04-05T13:22:24Z</time>
      </trkpt>
      <trkpt lat="49.19169" lon="6.96166">
        <ele>323</ele>
        <time>2011-04-05T13:22:25Z</time>
      </trkpt>
      <trkpt lat="49.19169" lon="6.96164">
        <ele>323</ele>
        <time>2011-04-05T13:22:26Z</time>
      </trkpt>
      <trkpt lat="49.1917" lon="6.96162">
        <ele>323</ele>
        <time>2011-04-05T13:22:27Z</time>
      </trkpt>
      <trkpt lat="49.1917" lon="6.9616">
        <ele>323</ele>
        <time>2011-04-05T13:22:28Z</time>
      </trkpt>
      <trkpt lat="49.1917" lon="6.96158">
        <ele>323</ele>
        <time>2011-04-05T13:22:29Z</time>
      </trkpt>
      <trkpt lat="49.1917" lon="6.96156">
        <ele>323</ele>
        <time>2011-04-05T13:22:30Z</time>
      </trkpt>
      <trkpt lat="49.19171" lon="6.96154">
        <ele>323</ele>
        <time>2011-04-05T13:22:31Z</time>
      </trkpt>
      <trkpt lat="49.19171" lon="6.96152">
        <ele>323</ele>
        <time>2011-04-05T13:22:32Z</time>
      </trkpt>
      <trkpt lat="49.19171" lon="6.96151">
        <ele>323</ele>
        <time>2011-04-05T13:22:33Z</time>
      </trkpt>
      <trkpt lat="49.1917" lon="6.96149">
        <ele>323</ele>
        <time>2011-04-05T13:22:34Z</time>
      </trkpt>
      <trkpt lat="49.1917" lon="6.96147">
        <ele>323</ele>
        <time>2011-04-05T13:22:35Z</time>
      </trkpt>
      <trkpt lat="49.19168" lon="6.96145">
        <ele>323</ele>
        <time>2011-04-05T13:22:37Z</time>
      </trkpt>
      <trkpt lat="49.19166" lon="6.96143">
        <ele>323</ele>
        <time>2011-04-05T13:22:39Z</time>
      </trkpt>
      <trkpt lat="49.19164" lon="6.96141">
        <ele>323</ele>
        <time>2011-04-05T13:22:41Z</time>
      </trkpt>
      <trkpt lat="49.19162" lon="6.9614">
        <ele>323</ele>
        <time>2011-04-05T13:22:42Z</time>
      </trkpt>
      <trkpt lat="49.19161" lon="6.96139">
        <ele>323</ele>
        <time>2011-04-05T13:22:43Z</time>
      </trkpt>
      <trkpt lat="49.1916" lon="6.96139">
        <ele>323</ele>
        <time>2011-04-05T13:22:44Z</time>
      </trkpt>
      <trkpt lat="49.19159" lon="6.96138">
        <ele>323</ele>
        <time>2011-04-05T13:22:45Z</time>
      </trkpt>
      <trkpt lat="49.19157" lon="6.96137">
        <ele>323</ele>
        <time>2011-04-05T13:22:46Z</time>
      </trkpt>
      <trkpt lat="49.19156" lon="6.96137">
        <ele>323</ele>
        <time>2011-04-05T13:22:47Z</time>
      </trkpt>
      <trkpt lat="49.19155" lon="6.96136">
        <ele>323</ele>
        <time>2011-04-05T13:22:48Z</time>
      </trkpt>
      <trkpt lat="49.19154" lon="6.96136">
        <ele>323</ele>
        <time>2011-04-05T13:22:49Z</time>
      </trkpt>
      <trkpt lat="49.19154" lon="6.96136">
        <ele>323</ele>
        <time>2011-04-05T13:22:50Z</time>
      </trkpt>
    </trkseg>
  </trk>
</gpx>